<?xml version="1.0" encoding="UTF-8" standalone="no" ?>
<gpx xmlns="http://www.topografix.com/GPX/1/1" xmlns:xsi="http://www.w3.org/2001/XMLSchema-instance" xsi:schemaLocation="http://www.topografix.com/GPX/1/1 http://www.topografix.com/GPX/1/1/gpx.xsd" version="1.1" creator="VisuGPX - https://www.visugpx.com">
  <metadata>
    <name>Mont Vorés Mont Clocher</name>
  </metadata>
  <trk>
    <name><![CDATA[Mont Vorés Mont Clocher_1]]></name>
    <trkseg>
      <trkpt lat="45.7295" lon="6.56242">
        <ele>890.9</ele>
        <time>2017-10-13T07:18:02Z</time>
      </trkpt>
      <trkpt lat="45.7295" lon="6.56242">
        <ele>891</ele>
        <time>2017-10-13T07:18:03Z</time>
      </trkpt>
      <trkpt lat="45.72959" lon="6.56236">
        <ele>891.9</ele>
        <time>2017-10-13T07:19:32Z</time>
      </trkpt>
      <trkpt lat="45.72964" lon="6.56247">
        <ele>892.4</ele>
        <time>2017-10-13T07:19:37Z</time>
      </trkpt>
      <trkpt lat="45.72965" lon="6.5626">
        <ele>892.7</ele>
        <time>2017-10-13T07:19:41Z</time>
      </trkpt>
      <trkpt lat="45.72966" lon="6.56274">
        <ele>893.3</ele>
        <time>2017-10-13T07:19:45Z</time>
      </trkpt>
      <trkpt lat="45.72967" lon="6.56287">
        <ele>893.8</ele>
        <time>2017-10-13T07:19:49Z</time>
      </trkpt>
      <trkpt lat="45.72969" lon="6.563">
        <ele>894.3</ele>
        <time>2017-10-13T07:19:53Z</time>
      </trkpt>
      <trkpt lat="45.7297" lon="6.56315">
        <ele>895.3</ele>
        <time>2017-10-13T07:19:58Z</time>
      </trkpt>
      <trkpt lat="45.7297" lon="6.56329">
        <ele>896.1</ele>
        <time>2017-10-13T07:20:03Z</time>
      </trkpt>
      <trkpt lat="45.72971" lon="6.56345">
        <ele>897</ele>
        <time>2017-10-13T07:20:08Z</time>
      </trkpt>
      <trkpt lat="45.72972" lon="6.56357">
        <ele>898</ele>
        <time>2017-10-13T07:20:13Z</time>
      </trkpt>
      <trkpt lat="45.72973" lon="6.56372">
        <ele>898.6</ele>
        <time>2017-10-13T07:20:17Z</time>
      </trkpt>
      <trkpt lat="45.72976" lon="6.56387">
        <ele>899.5</ele>
        <time>2017-10-13T07:20:22Z</time>
      </trkpt>
      <trkpt lat="45.72982" lon="6.56399">
        <ele>900.2</ele>
        <time>2017-10-13T07:20:27Z</time>
      </trkpt>
      <trkpt lat="45.72987" lon="6.56414">
        <ele>901.1</ele>
        <time>2017-10-13T07:20:32Z</time>
      </trkpt>
      <trkpt lat="45.72993" lon="6.56425">
        <ele>901.6</ele>
        <time>2017-10-13T07:20:36Z</time>
      </trkpt>
      <trkpt lat="45.72998" lon="6.56437">
        <ele>902.2</ele>
        <time>2017-10-13T07:20:40Z</time>
      </trkpt>
      <trkpt lat="45.73004" lon="6.56448">
        <ele>902.9</ele>
        <time>2017-10-13T07:20:44Z</time>
      </trkpt>
      <trkpt lat="45.7301" lon="6.5646">
        <ele>903.4</ele>
        <time>2017-10-13T07:20:48Z</time>
      </trkpt>
      <trkpt lat="45.73016" lon="6.5647">
        <ele>904</ele>
        <time>2017-10-13T07:20:52Z</time>
      </trkpt>
      <trkpt lat="45.73023" lon="6.56479">
        <ele>904.8</ele>
        <time>2017-10-13T07:20:56Z</time>
      </trkpt>
      <trkpt lat="45.73032" lon="6.56486">
        <ele>905.6</ele>
        <time>2017-10-13T07:21:01Z</time>
      </trkpt>
      <trkpt lat="45.7304" lon="6.56494">
        <ele>906.5</ele>
        <time>2017-10-13T07:21:06Z</time>
      </trkpt>
      <trkpt lat="45.73046" lon="6.56504">
        <ele>907.2</ele>
        <time>2017-10-13T07:21:10Z</time>
      </trkpt>
      <trkpt lat="45.73049" lon="6.56518">
        <ele>907.8</ele>
        <time>2017-10-13T07:21:14Z</time>
      </trkpt>
      <trkpt lat="45.73052" lon="6.56531">
        <ele>908.7</ele>
        <time>2017-10-13T07:21:19Z</time>
      </trkpt>
      <trkpt lat="45.73061" lon="6.56533">
        <ele>909.7</ele>
        <time>2017-10-13T07:21:25Z</time>
      </trkpt>
      <trkpt lat="45.73062" lon="6.56518">
        <ele>910.8</ele>
        <time>2017-10-13T07:21:31Z</time>
      </trkpt>
      <trkpt lat="45.73058" lon="6.56504">
        <ele>911.5</ele>
        <time>2017-10-13T07:21:36Z</time>
      </trkpt>
      <trkpt lat="45.73051" lon="6.56491">
        <ele>912.4</ele>
        <time>2017-10-13T07:21:41Z</time>
      </trkpt>
      <trkpt lat="45.73043" lon="6.56482">
        <ele>913.1</ele>
        <time>2017-10-13T07:21:47Z</time>
      </trkpt>
      <trkpt lat="45.73035" lon="6.56472">
        <ele>914</ele>
        <time>2017-10-13T07:21:52Z</time>
      </trkpt>
      <trkpt lat="45.73039" lon="6.5646">
        <ele>915.7</ele>
        <time>2017-10-13T07:22:01Z</time>
      </trkpt>
      <trkpt lat="45.73048" lon="6.56462">
        <ele>916.7</ele>
        <time>2017-10-13T07:22:07Z</time>
      </trkpt>
      <trkpt lat="45.73057" lon="6.56471">
        <ele>917.5</ele>
        <time>2017-10-13T07:22:12Z</time>
      </trkpt>
      <trkpt lat="45.73063" lon="6.56482">
        <ele>918.5</ele>
        <time>2017-10-13T07:22:17Z</time>
      </trkpt>
      <trkpt lat="45.73068" lon="6.56496">
        <ele>919.4</ele>
        <time>2017-10-13T07:22:22Z</time>
      </trkpt>
      <trkpt lat="45.73073" lon="6.5651">
        <ele>920.1</ele>
        <time>2017-10-13T07:22:26Z</time>
      </trkpt>
      <trkpt lat="45.73075" lon="6.56525">
        <ele>920.6</ele>
        <time>2017-10-13T07:22:30Z</time>
      </trkpt>
      <trkpt lat="45.73077" lon="6.56538">
        <ele>921.1</ele>
        <time>2017-10-13T07:22:34Z</time>
      </trkpt>
      <trkpt lat="45.73075" lon="6.56551">
        <ele>921.7</ele>
        <time>2017-10-13T07:22:38Z</time>
      </trkpt>
      <trkpt lat="45.73083" lon="6.56558">
        <ele>922.7</ele>
        <time>2017-10-13T07:22:44Z</time>
      </trkpt>
      <trkpt lat="45.73087" lon="6.56544">
        <ele>923.6</ele>
        <time>2017-10-13T07:22:49Z</time>
      </trkpt>
      <trkpt lat="45.73086" lon="6.56531">
        <ele>924.3</ele>
        <time>2017-10-13T07:22:53Z</time>
      </trkpt>
      <trkpt lat="45.73085" lon="6.56517">
        <ele>924.9</ele>
        <time>2017-10-13T07:22:57Z</time>
      </trkpt>
      <trkpt lat="45.73084" lon="6.56503">
        <ele>926.1</ele>
        <time>2017-10-13T07:23:02Z</time>
      </trkpt>
      <trkpt lat="45.73082" lon="6.56488">
        <ele>927.1</ele>
        <time>2017-10-13T07:23:07Z</time>
      </trkpt>
      <trkpt lat="45.73081" lon="6.56475">
        <ele>927.9</ele>
        <time>2017-10-13T07:23:11Z</time>
      </trkpt>
      <trkpt lat="45.73081" lon="6.56461">
        <ele>929</ele>
        <time>2017-10-13T07:23:17Z</time>
      </trkpt>
      <trkpt lat="45.73089" lon="6.56454">
        <ele>930.5</ele>
        <time>2017-10-13T07:23:24Z</time>
      </trkpt>
      <trkpt lat="45.73094" lon="6.56467">
        <ele>931.8</ele>
        <time>2017-10-13T07:23:31Z</time>
      </trkpt>
      <trkpt lat="45.73096" lon="6.56481">
        <ele>932.5</ele>
        <time>2017-10-13T07:23:35Z</time>
      </trkpt>
      <trkpt lat="45.73098" lon="6.56495">
        <ele>933.1</ele>
        <time>2017-10-13T07:23:39Z</time>
      </trkpt>
      <trkpt lat="45.73103" lon="6.56507">
        <ele>933.8</ele>
        <time>2017-10-13T07:23:43Z</time>
      </trkpt>
      <trkpt lat="45.7311" lon="6.56518">
        <ele>934.5</ele>
        <time>2017-10-13T07:23:48Z</time>
      </trkpt>
      <trkpt lat="45.73115" lon="6.5653">
        <ele>935.1</ele>
        <time>2017-10-13T07:23:52Z</time>
      </trkpt>
      <trkpt lat="45.73119" lon="6.56545">
        <ele>935.8</ele>
        <time>2017-10-13T07:23:56Z</time>
      </trkpt>
      <trkpt lat="45.73122" lon="6.56558">
        <ele>936.5</ele>
        <time>2017-10-13T07:24:00Z</time>
      </trkpt>
      <trkpt lat="45.73122" lon="6.56571">
        <ele>937</ele>
        <time>2017-10-13T07:24:04Z</time>
      </trkpt>
      <trkpt lat="45.73122" lon="6.56585">
        <ele>937.7</ele>
        <time>2017-10-13T07:24:08Z</time>
      </trkpt>
      <trkpt lat="45.73126" lon="6.56597">
        <ele>938.5</ele>
        <time>2017-10-13T07:24:12Z</time>
      </trkpt>
      <trkpt lat="45.73134" lon="6.56605">
        <ele>939.4</ele>
        <time>2017-10-13T07:24:17Z</time>
      </trkpt>
      <trkpt lat="45.73143" lon="6.56612">
        <ele>940.4</ele>
        <time>2017-10-13T07:24:22Z</time>
      </trkpt>
      <trkpt lat="45.73151" lon="6.56619">
        <ele>941.4</ele>
        <time>2017-10-13T07:24:27Z</time>
      </trkpt>
      <trkpt lat="45.73159" lon="6.56626">
        <ele>942</ele>
        <time>2017-10-13T07:24:31Z</time>
      </trkpt>
      <trkpt lat="45.73166" lon="6.56635">
        <ele>942.7</ele>
        <time>2017-10-13T07:24:35Z</time>
      </trkpt>
      <trkpt lat="45.73175" lon="6.56642">
        <ele>943.4</ele>
        <time>2017-10-13T07:24:39Z</time>
      </trkpt>
      <trkpt lat="45.73184" lon="6.56651">
        <ele>944.1</ele>
        <time>2017-10-13T07:24:43Z</time>
      </trkpt>
      <trkpt lat="45.73192" lon="6.56658">
        <ele>945</ele>
        <time>2017-10-13T07:24:47Z</time>
      </trkpt>
      <trkpt lat="45.73201" lon="6.56663">
        <ele>945.7</ele>
        <time>2017-10-13T07:24:51Z</time>
      </trkpt>
      <trkpt lat="45.73209" lon="6.56667">
        <ele>946.4</ele>
        <time>2017-10-13T07:24:55Z</time>
      </trkpt>
      <trkpt lat="45.7322" lon="6.56668">
        <ele>946.9</ele>
        <time>2017-10-13T07:24:59Z</time>
      </trkpt>
      <trkpt lat="45.7323" lon="6.56667">
        <ele>947.8</ele>
        <time>2017-10-13T07:25:03Z</time>
      </trkpt>
      <trkpt lat="45.73239" lon="6.56666">
        <ele>948.5</ele>
        <time>2017-10-13T07:25:07Z</time>
      </trkpt>
      <trkpt lat="45.73251" lon="6.56665">
        <ele>949.4</ele>
        <time>2017-10-13T07:25:12Z</time>
      </trkpt>
      <trkpt lat="45.7326" lon="6.56664">
        <ele>950.1</ele>
        <time>2017-10-13T07:25:16Z</time>
      </trkpt>
      <trkpt lat="45.73269" lon="6.56663">
        <ele>950.7</ele>
        <time>2017-10-13T07:25:20Z</time>
      </trkpt>
      <trkpt lat="45.73278" lon="6.56655">
        <ele>951.5</ele>
        <time>2017-10-13T07:25:25Z</time>
      </trkpt>
      <trkpt lat="45.73275" lon="6.56643">
        <ele>952.2</ele>
        <time>2017-10-13T07:25:29Z</time>
      </trkpt>
      <trkpt lat="45.73268" lon="6.56634">
        <ele>952.9</ele>
        <time>2017-10-13T07:25:33Z</time>
      </trkpt>
      <trkpt lat="45.7326" lon="6.56623">
        <ele>953.8</ele>
        <time>2017-10-13T07:25:38Z</time>
      </trkpt>
      <trkpt lat="45.73255" lon="6.56613">
        <ele>954.3</ele>
        <time>2017-10-13T07:25:50Z</time>
      </trkpt>
      <trkpt lat="45.7325" lon="6.56599">
        <ele>955.2</ele>
        <time>2017-10-13T07:26:28Z</time>
      </trkpt>
      <trkpt lat="45.73243" lon="6.56587">
        <ele>955.8</ele>
        <time>2017-10-13T07:26:33Z</time>
      </trkpt>
      <trkpt lat="45.73238" lon="6.56575">
        <ele>956.4</ele>
        <time>2017-10-13T07:26:37Z</time>
      </trkpt>
      <trkpt lat="45.7323" lon="6.56564">
        <ele>957.1</ele>
        <time>2017-10-13T07:26:41Z</time>
      </trkpt>
      <trkpt lat="45.73223" lon="6.56552">
        <ele>957.8</ele>
        <time>2017-10-13T07:26:45Z</time>
      </trkpt>
      <trkpt lat="45.73216" lon="6.5654">
        <ele>958.5</ele>
        <time>2017-10-13T07:26:49Z</time>
      </trkpt>
      <trkpt lat="45.73209" lon="6.56528">
        <ele>959.3</ele>
        <time>2017-10-13T07:26:53Z</time>
      </trkpt>
      <trkpt lat="45.73203" lon="6.56517">
        <ele>960</ele>
        <time>2017-10-13T07:26:57Z</time>
      </trkpt>
      <trkpt lat="45.73197" lon="6.56505">
        <ele>960.6</ele>
        <time>2017-10-13T07:27:01Z</time>
      </trkpt>
      <trkpt lat="45.73192" lon="6.56493">
        <ele>961.5</ele>
        <time>2017-10-13T07:27:05Z</time>
      </trkpt>
      <trkpt lat="45.73186" lon="6.56482">
        <ele>962.2</ele>
        <time>2017-10-13T07:27:09Z</time>
      </trkpt>
      <trkpt lat="45.73179" lon="6.56471">
        <ele>962.9</ele>
        <time>2017-10-13T07:27:13Z</time>
      </trkpt>
      <trkpt lat="45.73171" lon="6.56461">
        <ele>963.7</ele>
        <time>2017-10-13T07:27:17Z</time>
      </trkpt>
      <trkpt lat="45.73169" lon="6.56448">
        <ele>964.3</ele>
        <time>2017-10-13T07:27:21Z</time>
      </trkpt>
      <trkpt lat="45.73179" lon="6.56443">
        <ele>965.2</ele>
        <time>2017-10-13T07:27:25Z</time>
      </trkpt>
      <trkpt lat="45.73188" lon="6.56449">
        <ele>966.1</ele>
        <time>2017-10-13T07:27:29Z</time>
      </trkpt>
      <trkpt lat="45.73196" lon="6.56456">
        <ele>966.7</ele>
        <time>2017-10-13T07:27:33Z</time>
      </trkpt>
      <trkpt lat="45.73204" lon="6.56463">
        <ele>967.4</ele>
        <time>2017-10-13T07:27:37Z</time>
      </trkpt>
      <trkpt lat="45.73212" lon="6.56471">
        <ele>968.2</ele>
        <time>2017-10-13T07:27:41Z</time>
      </trkpt>
      <trkpt lat="45.7322" lon="6.56479">
        <ele>968.8</ele>
        <time>2017-10-13T07:27:45Z</time>
      </trkpt>
      <trkpt lat="45.73228" lon="6.56485">
        <ele>969.6</ele>
        <time>2017-10-13T07:27:49Z</time>
      </trkpt>
      <trkpt lat="45.73238" lon="6.56493">
        <ele>970.7</ele>
        <time>2017-10-13T07:27:54Z</time>
      </trkpt>
      <trkpt lat="45.73247" lon="6.56499">
        <ele>971.7</ele>
        <time>2017-10-13T07:27:59Z</time>
      </trkpt>
      <trkpt lat="45.73256" lon="6.56505">
        <ele>972.6</ele>
        <time>2017-10-13T07:28:04Z</time>
      </trkpt>
      <trkpt lat="45.73262" lon="6.56514">
        <ele>973.4</ele>
        <time>2017-10-13T07:28:08Z</time>
      </trkpt>
      <trkpt lat="45.7327" lon="6.56523">
        <ele>974</ele>
        <time>2017-10-13T07:28:12Z</time>
      </trkpt>
      <trkpt lat="45.73276" lon="6.56535">
        <ele>974.9</ele>
        <time>2017-10-13T07:28:17Z</time>
      </trkpt>
      <trkpt lat="45.7328" lon="6.56548">
        <ele>975.8</ele>
        <time>2017-10-13T07:28:22Z</time>
      </trkpt>
      <trkpt lat="45.73285" lon="6.56561">
        <ele>976.5</ele>
        <time>2017-10-13T07:28:26Z</time>
      </trkpt>
      <trkpt lat="45.73291" lon="6.56571">
        <ele>977.1</ele>
        <time>2017-10-13T07:28:30Z</time>
      </trkpt>
      <trkpt lat="45.73297" lon="6.56583">
        <ele>978</ele>
        <time>2017-10-13T07:28:34Z</time>
      </trkpt>
      <trkpt lat="45.73303" lon="6.56598">
        <ele>978.7</ele>
        <time>2017-10-13T07:28:38Z</time>
      </trkpt>
      <trkpt lat="45.73308" lon="6.56611">
        <ele>979.4</ele>
        <time>2017-10-13T07:28:42Z</time>
      </trkpt>
      <trkpt lat="45.73314" lon="6.56622">
        <ele>980</ele>
        <time>2017-10-13T07:28:46Z</time>
      </trkpt>
      <trkpt lat="45.73321" lon="6.56633">
        <ele>980.7</ele>
        <time>2017-10-13T07:28:50Z</time>
      </trkpt>
      <trkpt lat="45.73327" lon="6.56644">
        <ele>981.3</ele>
        <time>2017-10-13T07:28:54Z</time>
      </trkpt>
      <trkpt lat="45.73334" lon="6.56653">
        <ele>982</ele>
        <time>2017-10-13T07:28:58Z</time>
      </trkpt>
      <trkpt lat="45.73344" lon="6.56662">
        <ele>983</ele>
        <time>2017-10-13T07:29:03Z</time>
      </trkpt>
      <trkpt lat="45.73351" lon="6.5667">
        <ele>982.4</ele>
        <time>2017-10-13T07:31:45Z</time>
      </trkpt>
      <trkpt lat="45.73362" lon="6.56673">
        <ele>984.7</ele>
        <time>2017-10-13T07:32:57Z</time>
      </trkpt>
      <trkpt lat="45.73372" lon="6.56676">
        <ele>985.4</ele>
        <time>2017-10-13T07:33:01Z</time>
      </trkpt>
      <trkpt lat="45.73382" lon="6.56678">
        <ele>986.3</ele>
        <time>2017-10-13T07:33:06Z</time>
      </trkpt>
      <trkpt lat="45.73392" lon="6.56682">
        <ele>987</ele>
        <time>2017-10-13T07:33:10Z</time>
      </trkpt>
      <trkpt lat="45.73401" lon="6.56686">
        <ele>987.5</ele>
        <time>2017-10-13T07:33:14Z</time>
      </trkpt>
      <trkpt lat="45.7341" lon="6.5669">
        <ele>988.1</ele>
        <time>2017-10-13T07:33:18Z</time>
      </trkpt>
      <trkpt lat="45.7342" lon="6.56694">
        <ele>988.7</ele>
        <time>2017-10-13T07:33:22Z</time>
      </trkpt>
      <trkpt lat="45.7343" lon="6.56696">
        <ele>989.5</ele>
        <time>2017-10-13T07:33:27Z</time>
      </trkpt>
      <trkpt lat="45.73439" lon="6.56699">
        <ele>990.2</ele>
        <time>2017-10-13T07:33:32Z</time>
      </trkpt>
      <trkpt lat="45.73449" lon="6.56704">
        <ele>990.9</ele>
        <time>2017-10-13T07:33:37Z</time>
      </trkpt>
      <trkpt lat="45.7346" lon="6.56707">
        <ele>991.9</ele>
        <time>2017-10-13T07:33:42Z</time>
      </trkpt>
      <trkpt lat="45.7347" lon="6.56711">
        <ele>992.6</ele>
        <time>2017-10-13T07:33:46Z</time>
      </trkpt>
      <trkpt lat="45.73479" lon="6.56714">
        <ele>993.4</ele>
        <time>2017-10-13T07:33:51Z</time>
      </trkpt>
      <trkpt lat="45.7349" lon="6.56718">
        <ele>994.1</ele>
        <time>2017-10-13T07:33:56Z</time>
      </trkpt>
      <trkpt lat="45.73499" lon="6.56721">
        <ele>994.8</ele>
        <time>2017-10-13T07:34:01Z</time>
      </trkpt>
      <trkpt lat="45.73507" lon="6.56724">
        <ele>995.6</ele>
        <time>2017-10-13T07:34:07Z</time>
      </trkpt>
      <trkpt lat="45.73517" lon="6.56725">
        <ele>996.4</ele>
        <time>2017-10-13T07:34:12Z</time>
      </trkpt>
      <trkpt lat="45.73526" lon="6.56723">
        <ele>997.3</ele>
        <time>2017-10-13T07:34:17Z</time>
      </trkpt>
      <trkpt lat="45.73536" lon="6.56725">
        <ele>998.5</ele>
        <time>2017-10-13T07:34:22Z</time>
      </trkpt>
      <trkpt lat="45.73544" lon="6.56722">
        <ele>999.3</ele>
        <time>2017-10-13T07:34:29Z</time>
      </trkpt>
      <trkpt lat="45.73555" lon="6.5672">
        <ele>1000</ele>
        <time>2017-10-13T07:34:49Z</time>
      </trkpt>
      <trkpt lat="45.73565" lon="6.56719">
        <ele>1000.4</ele>
        <time>2017-10-13T07:34:54Z</time>
      </trkpt>
      <trkpt lat="45.73575" lon="6.56719">
        <ele>1000.9</ele>
        <time>2017-10-13T07:34:59Z</time>
      </trkpt>
      <trkpt lat="45.73584" lon="6.56718">
        <ele>1001.6</ele>
        <time>2017-10-13T07:35:16Z</time>
      </trkpt>
      <trkpt lat="45.73593" lon="6.56727">
        <ele>1002.3</ele>
        <time>2017-10-13T07:35:25Z</time>
      </trkpt>
      <trkpt lat="45.736" lon="6.56738">
        <ele>1003.1</ele>
        <time>2017-10-13T07:35:30Z</time>
      </trkpt>
      <trkpt lat="45.73608" lon="6.56745">
        <ele>1004.1</ele>
        <time>2017-10-13T07:35:35Z</time>
      </trkpt>
      <trkpt lat="45.73615" lon="6.56753">
        <ele>1005</ele>
        <time>2017-10-13T07:35:40Z</time>
      </trkpt>
      <trkpt lat="45.73622" lon="6.56761">
        <ele>1005.7</ele>
        <time>2017-10-13T07:35:44Z</time>
      </trkpt>
      <trkpt lat="45.7363" lon="6.56769">
        <ele>1006.5</ele>
        <time>2017-10-13T07:35:49Z</time>
      </trkpt>
      <trkpt lat="45.7364" lon="6.56774">
        <ele>1007</ele>
        <time>2017-10-13T07:35:53Z</time>
      </trkpt>
      <trkpt lat="45.7365" lon="6.56777">
        <ele>1008.1</ele>
        <time>2017-10-13T07:35:58Z</time>
      </trkpt>
      <trkpt lat="45.73658" lon="6.56784">
        <ele>1009.2</ele>
        <time>2017-10-13T07:36:06Z</time>
      </trkpt>
      <trkpt lat="45.73664" lon="6.56794">
        <ele>1010.4</ele>
        <time>2017-10-13T07:36:19Z</time>
      </trkpt>
      <trkpt lat="45.7366" lon="6.56806">
        <ele>1011.2</ele>
        <time>2017-10-13T07:36:35Z</time>
      </trkpt>
      <trkpt lat="45.73663" lon="6.5682">
        <ele>1011.5</ele>
        <time>2017-10-13T07:36:44Z</time>
      </trkpt>
      <trkpt lat="45.73659" lon="6.56833">
        <ele>1011.9</ele>
        <time>2017-10-13T07:36:49Z</time>
      </trkpt>
      <trkpt lat="45.73665" lon="6.56847">
        <ele>1012.8</ele>
        <time>2017-10-13T07:36:55Z</time>
      </trkpt>
      <trkpt lat="45.73672" lon="6.56856">
        <ele>1013.5</ele>
        <time>2017-10-13T07:37:00Z</time>
      </trkpt>
      <trkpt lat="45.7368" lon="6.56865">
        <ele>1014</ele>
        <time>2017-10-13T07:37:04Z</time>
      </trkpt>
      <trkpt lat="45.73689" lon="6.56872">
        <ele>1015</ele>
        <time>2017-10-13T07:37:09Z</time>
      </trkpt>
      <trkpt lat="45.73698" lon="6.56883">
        <ele>1015.7</ele>
        <time>2017-10-13T07:37:13Z</time>
      </trkpt>
      <trkpt lat="45.73703" lon="6.56896">
        <ele>1016.8</ele>
        <time>2017-10-13T07:37:18Z</time>
      </trkpt>
      <trkpt lat="45.73706" lon="6.56911">
        <ele>1017.5</ele>
        <time>2017-10-13T07:37:22Z</time>
      </trkpt>
      <trkpt lat="45.73711" lon="6.56926">
        <ele>1018.2</ele>
        <time>2017-10-13T07:37:26Z</time>
      </trkpt>
      <trkpt lat="45.73714" lon="6.56939">
        <ele>1018.8</ele>
        <time>2017-10-13T07:37:29Z</time>
      </trkpt>
      <trkpt lat="45.7372" lon="6.56951">
        <ele>1019.4</ele>
        <time>2017-10-13T07:37:33Z</time>
      </trkpt>
      <trkpt lat="45.73726" lon="6.56964">
        <ele>1020.1</ele>
        <time>2017-10-13T07:37:37Z</time>
      </trkpt>
      <trkpt lat="45.7373" lon="6.56976">
        <ele>1020.7</ele>
        <time>2017-10-13T07:37:40Z</time>
      </trkpt>
      <trkpt lat="45.73735" lon="6.56991">
        <ele>1021.3</ele>
        <time>2017-10-13T07:37:44Z</time>
      </trkpt>
      <trkpt lat="45.7374" lon="6.57006">
        <ele>1022</ele>
        <time>2017-10-13T07:37:48Z</time>
      </trkpt>
      <trkpt lat="45.73747" lon="6.57017">
        <ele>1022.7</ele>
        <time>2017-10-13T07:37:52Z</time>
      </trkpt>
      <trkpt lat="45.73755" lon="6.57027">
        <ele>1023.5</ele>
        <time>2017-10-13T07:37:56Z</time>
      </trkpt>
      <trkpt lat="45.73762" lon="6.57035">
        <ele>1024.3</ele>
        <time>2017-10-13T07:38:00Z</time>
      </trkpt>
      <trkpt lat="45.7377" lon="6.57046">
        <ele>1025</ele>
        <time>2017-10-13T07:38:04Z</time>
      </trkpt>
      <trkpt lat="45.73776" lon="6.57059">
        <ele>1025.7</ele>
        <time>2017-10-13T07:38:08Z</time>
      </trkpt>
      <trkpt lat="45.73783" lon="6.57073">
        <ele>1026.5</ele>
        <time>2017-10-13T07:38:12Z</time>
      </trkpt>
      <trkpt lat="45.7379" lon="6.57085">
        <ele>1027.2</ele>
        <time>2017-10-13T07:38:16Z</time>
      </trkpt>
      <trkpt lat="45.73797" lon="6.57094">
        <ele>1028</ele>
        <time>2017-10-13T07:38:20Z</time>
      </trkpt>
      <trkpt lat="45.73805" lon="6.57102">
        <ele>1028.8</ele>
        <time>2017-10-13T07:38:24Z</time>
      </trkpt>
      <trkpt lat="45.73812" lon="6.5711">
        <ele>1029.5</ele>
        <time>2017-10-13T07:38:28Z</time>
      </trkpt>
      <trkpt lat="45.73819" lon="6.57119">
        <ele>1030.3</ele>
        <time>2017-10-13T07:38:32Z</time>
      </trkpt>
      <trkpt lat="45.73826" lon="6.5713">
        <ele>1031.2</ele>
        <time>2017-10-13T07:38:36Z</time>
      </trkpt>
      <trkpt lat="45.73832" lon="6.57142">
        <ele>1032</ele>
        <time>2017-10-13T07:38:40Z</time>
      </trkpt>
      <trkpt lat="45.7384" lon="6.57148">
        <ele>1032.9</ele>
        <time>2017-10-13T07:38:44Z</time>
      </trkpt>
      <trkpt lat="45.73849" lon="6.57152">
        <ele>1033.5</ele>
        <time>2017-10-13T07:38:48Z</time>
      </trkpt>
      <trkpt lat="45.73858" lon="6.57156">
        <ele>1034.2</ele>
        <time>2017-10-13T07:38:52Z</time>
      </trkpt>
      <trkpt lat="45.73868" lon="6.57159">
        <ele>1035.1</ele>
        <time>2017-10-13T07:38:56Z</time>
      </trkpt>
      <trkpt lat="45.73876" lon="6.57164">
        <ele>1035.8</ele>
        <time>2017-10-13T07:39:00Z</time>
      </trkpt>
      <trkpt lat="45.73886" lon="6.5717">
        <ele>1036.6</ele>
        <time>2017-10-13T07:39:05Z</time>
      </trkpt>
      <trkpt lat="45.73895" lon="6.57177">
        <ele>1037.3</ele>
        <time>2017-10-13T07:39:10Z</time>
      </trkpt>
      <trkpt lat="45.73904" lon="6.57187">
        <ele>1038.1</ele>
        <time>2017-10-13T07:39:15Z</time>
      </trkpt>
      <trkpt lat="45.73909" lon="6.572">
        <ele>1038.8</ele>
        <time>2017-10-13T07:39:19Z</time>
      </trkpt>
      <trkpt lat="45.73913" lon="6.57214">
        <ele>1039.5</ele>
        <time>2017-10-13T07:39:23Z</time>
      </trkpt>
      <trkpt lat="45.73918" lon="6.57225">
        <ele>1040.2</ele>
        <time>2017-10-13T07:39:27Z</time>
      </trkpt>
      <trkpt lat="45.73924" lon="6.57234">
        <ele>1041</ele>
        <time>2017-10-13T07:39:31Z</time>
      </trkpt>
      <trkpt lat="45.73932" lon="6.57242">
        <ele>1041.7</ele>
        <time>2017-10-13T07:39:35Z</time>
      </trkpt>
      <trkpt lat="45.7394" lon="6.57247">
        <ele>1042.4</ele>
        <time>2017-10-13T07:39:39Z</time>
      </trkpt>
      <trkpt lat="45.73951" lon="6.57252">
        <ele>1043.2</ele>
        <time>2017-10-13T07:39:44Z</time>
      </trkpt>
      <trkpt lat="45.73959" lon="6.57258">
        <ele>1043.9</ele>
        <time>2017-10-13T07:39:48Z</time>
      </trkpt>
      <trkpt lat="45.73967" lon="6.57269">
        <ele>1044.7</ele>
        <time>2017-10-13T07:39:52Z</time>
      </trkpt>
      <trkpt lat="45.73973" lon="6.57278">
        <ele>1045.5</ele>
        <time>2017-10-13T07:39:56Z</time>
      </trkpt>
      <trkpt lat="45.73981" lon="6.57289">
        <ele>1046.6</ele>
        <time>2017-10-13T07:40:01Z</time>
      </trkpt>
      <trkpt lat="45.73988" lon="6.57298">
        <ele>1047.2</ele>
        <time>2017-10-13T07:40:05Z</time>
      </trkpt>
      <trkpt lat="45.73998" lon="6.57305">
        <ele>1047.8</ele>
        <time>2017-10-13T07:40:10Z</time>
      </trkpt>
      <trkpt lat="45.74006" lon="6.5731">
        <ele>1048.7</ele>
        <time>2017-10-13T07:40:14Z</time>
      </trkpt>
      <trkpt lat="45.74016" lon="6.57316">
        <ele>1049.3</ele>
        <time>2017-10-13T07:40:18Z</time>
      </trkpt>
      <trkpt lat="45.74025" lon="6.5732">
        <ele>1049.9</ele>
        <time>2017-10-13T07:40:22Z</time>
      </trkpt>
      <trkpt lat="45.74033" lon="6.57324">
        <ele>1050.6</ele>
        <time>2017-10-13T07:40:26Z</time>
      </trkpt>
      <trkpt lat="45.74042" lon="6.5733">
        <ele>1051.2</ele>
        <time>2017-10-13T07:40:30Z</time>
      </trkpt>
      <trkpt lat="45.74049" lon="6.5734">
        <ele>1051.7</ele>
        <time>2017-10-13T07:40:34Z</time>
      </trkpt>
      <trkpt lat="45.74051" lon="6.57353">
        <ele>1052.3</ele>
        <time>2017-10-13T07:40:38Z</time>
      </trkpt>
      <trkpt lat="45.74052" lon="6.57368">
        <ele>1053.2</ele>
        <time>2017-10-13T07:40:43Z</time>
      </trkpt>
      <trkpt lat="45.74055" lon="6.57383">
        <ele>1054.1</ele>
        <time>2017-10-13T07:40:48Z</time>
      </trkpt>
      <trkpt lat="45.7406" lon="6.57394">
        <ele>1054.9</ele>
        <time>2017-10-13T07:40:52Z</time>
      </trkpt>
      <trkpt lat="45.74068" lon="6.57405">
        <ele>1055.8</ele>
        <time>2017-10-13T07:40:57Z</time>
      </trkpt>
      <trkpt lat="45.74077" lon="6.57414">
        <ele>1056.7</ele>
        <time>2017-10-13T07:41:02Z</time>
      </trkpt>
      <trkpt lat="45.74085" lon="6.57423">
        <ele>1057.7</ele>
        <time>2017-10-13T07:41:07Z</time>
      </trkpt>
      <trkpt lat="45.74094" lon="6.57433">
        <ele>1058.5</ele>
        <time>2017-10-13T07:41:12Z</time>
      </trkpt>
      <trkpt lat="45.74103" lon="6.57442">
        <ele>1059.3</ele>
        <time>2017-10-13T07:41:17Z</time>
      </trkpt>
      <trkpt lat="45.74112" lon="6.57446">
        <ele>1060</ele>
        <time>2017-10-13T07:41:21Z</time>
      </trkpt>
      <trkpt lat="45.74121" lon="6.57449">
        <ele>1060.6</ele>
        <time>2017-10-13T07:41:25Z</time>
      </trkpt>
      <trkpt lat="45.7413" lon="6.57454">
        <ele>1061.3</ele>
        <time>2017-10-13T07:41:29Z</time>
      </trkpt>
      <trkpt lat="45.74138" lon="6.57462">
        <ele>1062</ele>
        <time>2017-10-13T07:41:33Z</time>
      </trkpt>
      <trkpt lat="45.74145" lon="6.57472">
        <ele>1062.5</ele>
        <time>2017-10-13T07:41:37Z</time>
      </trkpt>
      <trkpt lat="45.74151" lon="6.57485">
        <ele>1063.2</ele>
        <time>2017-10-13T07:41:41Z</time>
      </trkpt>
      <trkpt lat="45.74156" lon="6.57497">
        <ele>1063.9</ele>
        <time>2017-10-13T07:41:45Z</time>
      </trkpt>
      <trkpt lat="45.74161" lon="6.57509">
        <ele>1064.7</ele>
        <time>2017-10-13T07:41:49Z</time>
      </trkpt>
      <trkpt lat="45.74168" lon="6.57521">
        <ele>1065.7</ele>
        <time>2017-10-13T07:41:54Z</time>
      </trkpt>
      <trkpt lat="45.74175" lon="6.5753">
        <ele>1066.6</ele>
        <time>2017-10-13T07:41:58Z</time>
      </trkpt>
      <trkpt lat="45.74184" lon="6.57535">
        <ele>1067.2</ele>
        <time>2017-10-13T07:42:02Z</time>
      </trkpt>
      <trkpt lat="45.74193" lon="6.5754">
        <ele>1067.9</ele>
        <time>2017-10-13T07:42:06Z</time>
      </trkpt>
      <trkpt lat="45.74201" lon="6.57544">
        <ele>1068.7</ele>
        <time>2017-10-13T07:42:10Z</time>
      </trkpt>
      <trkpt lat="45.7421" lon="6.57551">
        <ele>1069.4</ele>
        <time>2017-10-13T07:42:14Z</time>
      </trkpt>
      <trkpt lat="45.74217" lon="6.57561">
        <ele>1069.9</ele>
        <time>2017-10-13T07:42:18Z</time>
      </trkpt>
      <trkpt lat="45.74222" lon="6.57573">
        <ele>1070.6</ele>
        <time>2017-10-13T07:42:22Z</time>
      </trkpt>
      <trkpt lat="45.74226" lon="6.57587">
        <ele>1071.5</ele>
        <time>2017-10-13T07:42:26Z</time>
      </trkpt>
      <trkpt lat="45.7423" lon="6.576">
        <ele>1072.3</ele>
        <time>2017-10-13T07:42:30Z</time>
      </trkpt>
      <trkpt lat="45.74233" lon="6.57616">
        <ele>1073</ele>
        <time>2017-10-13T07:42:35Z</time>
      </trkpt>
      <trkpt lat="45.74239" lon="6.5763">
        <ele>1074</ele>
        <time>2017-10-13T07:42:40Z</time>
      </trkpt>
      <trkpt lat="45.74245" lon="6.57639">
        <ele>1074.7</ele>
        <time>2017-10-13T07:42:44Z</time>
      </trkpt>
      <trkpt lat="45.74254" lon="6.57648">
        <ele>1075.5</ele>
        <time>2017-10-13T07:42:49Z</time>
      </trkpt>
      <trkpt lat="45.74262" lon="6.57656">
        <ele>1076.1</ele>
        <time>2017-10-13T07:42:53Z</time>
      </trkpt>
      <trkpt lat="45.7427" lon="6.57663">
        <ele>1076.8</ele>
        <time>2017-10-13T07:42:57Z</time>
      </trkpt>
      <trkpt lat="45.7428" lon="6.57671">
        <ele>1077.6</ele>
        <time>2017-10-13T07:43:02Z</time>
      </trkpt>
      <trkpt lat="45.74289" lon="6.57678">
        <ele>1078.2</ele>
        <time>2017-10-13T07:43:06Z</time>
      </trkpt>
      <trkpt lat="45.74298" lon="6.57686">
        <ele>1079</ele>
        <time>2017-10-13T07:43:11Z</time>
      </trkpt>
      <trkpt lat="45.74307" lon="6.57696">
        <ele>1079.8</ele>
        <time>2017-10-13T07:43:16Z</time>
      </trkpt>
      <trkpt lat="45.74316" lon="6.57706">
        <ele>1080.7</ele>
        <time>2017-10-13T07:43:21Z</time>
      </trkpt>
      <trkpt lat="45.74323" lon="6.57715">
        <ele>1081.5</ele>
        <time>2017-10-13T07:43:25Z</time>
      </trkpt>
      <trkpt lat="45.74333" lon="6.57723">
        <ele>1082.4</ele>
        <time>2017-10-13T07:43:30Z</time>
      </trkpt>
      <trkpt lat="45.74341" lon="6.5773">
        <ele>1083</ele>
        <time>2017-10-13T07:43:34Z</time>
      </trkpt>
      <trkpt lat="45.74349" lon="6.57736">
        <ele>1083.8</ele>
        <time>2017-10-13T07:43:38Z</time>
      </trkpt>
      <trkpt lat="45.74357" lon="6.57743">
        <ele>1084.6</ele>
        <time>2017-10-13T07:43:42Z</time>
      </trkpt>
      <trkpt lat="45.74366" lon="6.57752">
        <ele>1085.4</ele>
        <time>2017-10-13T07:43:47Z</time>
      </trkpt>
      <trkpt lat="45.74374" lon="6.5776">
        <ele>1086.2</ele>
        <time>2017-10-13T07:43:51Z</time>
      </trkpt>
      <trkpt lat="45.74382" lon="6.57769">
        <ele>1086.9</ele>
        <time>2017-10-13T07:43:55Z</time>
      </trkpt>
      <trkpt lat="45.74391" lon="6.57775">
        <ele>1087.6</ele>
        <time>2017-10-13T07:43:59Z</time>
      </trkpt>
      <trkpt lat="45.744" lon="6.5778">
        <ele>1088.4</ele>
        <time>2017-10-13T07:44:03Z</time>
      </trkpt>
      <trkpt lat="45.74409" lon="6.57785">
        <ele>1089.1</ele>
        <time>2017-10-13T07:44:07Z</time>
      </trkpt>
      <trkpt lat="45.74419" lon="6.57789">
        <ele>1089.8</ele>
        <time>2017-10-13T07:44:11Z</time>
      </trkpt>
      <trkpt lat="45.74428" lon="6.57795">
        <ele>1090.3</ele>
        <time>2017-10-13T07:44:15Z</time>
      </trkpt>
      <trkpt lat="45.74438" lon="6.57803">
        <ele>1091</ele>
        <time>2017-10-13T07:44:20Z</time>
      </trkpt>
      <trkpt lat="45.74445" lon="6.57812">
        <ele>1091.7</ele>
        <time>2017-10-13T07:44:24Z</time>
      </trkpt>
      <trkpt lat="45.74451" lon="6.57824">
        <ele>1092.2</ele>
        <time>2017-10-13T07:44:28Z</time>
      </trkpt>
      <trkpt lat="45.74457" lon="6.57837">
        <ele>1092.7</ele>
        <time>2017-10-13T07:44:32Z</time>
      </trkpt>
      <trkpt lat="45.74463" lon="6.57848">
        <ele>1093.4</ele>
        <time>2017-10-13T07:44:36Z</time>
      </trkpt>
      <trkpt lat="45.7447" lon="6.57858">
        <ele>1094</ele>
        <time>2017-10-13T07:44:40Z</time>
      </trkpt>
      <trkpt lat="45.74478" lon="6.57867">
        <ele>1094.6</ele>
        <time>2017-10-13T07:44:44Z</time>
      </trkpt>
      <trkpt lat="45.74486" lon="6.57875">
        <ele>1095.3</ele>
        <time>2017-10-13T07:44:48Z</time>
      </trkpt>
      <trkpt lat="45.74495" lon="6.57885">
        <ele>1096.1</ele>
        <time>2017-10-13T07:44:52Z</time>
      </trkpt>
      <trkpt lat="45.74503" lon="6.57894">
        <ele>1096.9</ele>
        <time>2017-10-13T07:44:56Z</time>
      </trkpt>
      <trkpt lat="45.7451" lon="6.57901">
        <ele>1097.5</ele>
        <time>2017-10-13T07:45:00Z</time>
      </trkpt>
      <trkpt lat="45.74518" lon="6.5791">
        <ele>1098.2</ele>
        <time>2017-10-13T07:45:04Z</time>
      </trkpt>
      <trkpt lat="45.74528" lon="6.57917">
        <ele>1098.9</ele>
        <time>2017-10-13T07:45:09Z</time>
      </trkpt>
      <trkpt lat="45.74537" lon="6.57924">
        <ele>1099.6</ele>
        <time>2017-10-13T07:45:13Z</time>
      </trkpt>
      <trkpt lat="45.74546" lon="6.57929">
        <ele>1100.3</ele>
        <time>2017-10-13T07:45:17Z</time>
      </trkpt>
      <trkpt lat="45.74556" lon="6.57935">
        <ele>1100.9</ele>
        <time>2017-10-13T07:45:21Z</time>
      </trkpt>
      <trkpt lat="45.74565" lon="6.57941">
        <ele>1101.5</ele>
        <time>2017-10-13T07:45:25Z</time>
      </trkpt>
      <trkpt lat="45.74573" lon="6.57947">
        <ele>1102.2</ele>
        <time>2017-10-13T07:45:29Z</time>
      </trkpt>
      <trkpt lat="45.74581" lon="6.57955">
        <ele>1102.9</ele>
        <time>2017-10-13T07:45:33Z</time>
      </trkpt>
      <trkpt lat="45.74589" lon="6.57963">
        <ele>1103.5</ele>
        <time>2017-10-13T07:45:37Z</time>
      </trkpt>
      <trkpt lat="45.74598" lon="6.5797">
        <ele>1104.2</ele>
        <time>2017-10-13T07:45:41Z</time>
      </trkpt>
      <trkpt lat="45.74606" lon="6.57978">
        <ele>1105</ele>
        <time>2017-10-13T07:45:45Z</time>
      </trkpt>
      <trkpt lat="45.74614" lon="6.57986">
        <ele>1105.6</ele>
        <time>2017-10-13T07:45:49Z</time>
      </trkpt>
      <trkpt lat="45.74622" lon="6.57994">
        <ele>1106.3</ele>
        <time>2017-10-13T07:45:53Z</time>
      </trkpt>
      <trkpt lat="45.7463" lon="6.58002">
        <ele>1107.1</ele>
        <time>2017-10-13T07:45:57Z</time>
      </trkpt>
      <trkpt lat="45.74639" lon="6.58009">
        <ele>1107.9</ele>
        <time>2017-10-13T07:46:01Z</time>
      </trkpt>
      <trkpt lat="45.74647" lon="6.58016">
        <ele>1108.7</ele>
        <time>2017-10-13T07:46:05Z</time>
      </trkpt>
      <trkpt lat="45.74655" lon="6.58022">
        <ele>1109.4</ele>
        <time>2017-10-13T07:46:09Z</time>
      </trkpt>
      <trkpt lat="45.74664" lon="6.58029">
        <ele>1110</ele>
        <time>2017-10-13T07:46:13Z</time>
      </trkpt>
      <trkpt lat="45.74673" lon="6.58033">
        <ele>1110.8</ele>
        <time>2017-10-13T07:46:17Z</time>
      </trkpt>
      <trkpt lat="45.74683" lon="6.58035">
        <ele>1111.4</ele>
        <time>2017-10-13T07:46:21Z</time>
      </trkpt>
      <trkpt lat="45.74694" lon="6.58037">
        <ele>1112.2</ele>
        <time>2017-10-13T07:46:25Z</time>
      </trkpt>
      <trkpt lat="45.74704" lon="6.5804">
        <ele>1112.8</ele>
        <time>2017-10-13T07:46:29Z</time>
      </trkpt>
      <trkpt lat="45.74713" lon="6.58044">
        <ele>1113.2</ele>
        <time>2017-10-13T07:46:33Z</time>
      </trkpt>
      <trkpt lat="45.74722" lon="6.58055">
        <ele>1113.7</ele>
        <time>2017-10-13T07:46:37Z</time>
      </trkpt>
      <trkpt lat="45.74728" lon="6.58066">
        <ele>1114.1</ele>
        <time>2017-10-13T07:46:40Z</time>
      </trkpt>
      <trkpt lat="45.74736" lon="6.58076">
        <ele>1114.3</ele>
        <time>2017-10-13T07:46:43Z</time>
      </trkpt>
      <trkpt lat="45.74743" lon="6.58087">
        <ele>1114.5</ele>
        <time>2017-10-13T07:46:46Z</time>
      </trkpt>
      <trkpt lat="45.7475" lon="6.58098">
        <ele>1114.6</ele>
        <time>2017-10-13T07:46:49Z</time>
      </trkpt>
      <trkpt lat="45.74757" lon="6.58109">
        <ele>1114.8</ele>
        <time>2017-10-13T07:46:52Z</time>
      </trkpt>
      <trkpt lat="45.74764" lon="6.58119">
        <ele>1115.4</ele>
        <time>2017-10-13T07:46:55Z</time>
      </trkpt>
      <trkpt lat="45.7477" lon="6.58129">
        <ele>1115.8</ele>
        <time>2017-10-13T07:46:58Z</time>
      </trkpt>
      <trkpt lat="45.74776" lon="6.5814">
        <ele>1116.3</ele>
        <time>2017-10-13T07:47:01Z</time>
      </trkpt>
      <trkpt lat="45.7478" lon="6.58151">
        <ele>1116.7</ele>
        <time>2017-10-13T07:47:04Z</time>
      </trkpt>
      <trkpt lat="45.74785" lon="6.58163">
        <ele>1117.2</ele>
        <time>2017-10-13T07:47:07Z</time>
      </trkpt>
      <trkpt lat="45.74789" lon="6.58175">
        <ele>1117.8</ele>
        <time>2017-10-13T07:47:10Z</time>
      </trkpt>
      <trkpt lat="45.74794" lon="6.58186">
        <ele>1118.3</ele>
        <time>2017-10-13T07:47:13Z</time>
      </trkpt>
      <trkpt lat="45.748" lon="6.58197">
        <ele>1118.7</ele>
        <time>2017-10-13T07:47:16Z</time>
      </trkpt>
      <trkpt lat="45.74808" lon="6.58208">
        <ele>1119.3</ele>
        <time>2017-10-13T07:47:20Z</time>
      </trkpt>
      <trkpt lat="45.74816" lon="6.58219">
        <ele>1119.7</ele>
        <time>2017-10-13T07:47:24Z</time>
      </trkpt>
      <trkpt lat="45.74824" lon="6.5823">
        <ele>1120.3</ele>
        <time>2017-10-13T07:47:28Z</time>
      </trkpt>
      <trkpt lat="45.74833" lon="6.58241">
        <ele>1121</ele>
        <time>2017-10-13T07:47:32Z</time>
      </trkpt>
      <trkpt lat="45.7484" lon="6.5825">
        <ele>1121.7</ele>
        <time>2017-10-13T07:47:35Z</time>
      </trkpt>
      <trkpt lat="45.74848" lon="6.58262">
        <ele>1122.5</ele>
        <time>2017-10-13T07:47:39Z</time>
      </trkpt>
      <trkpt lat="45.74855" lon="6.58274">
        <ele>1123.1</ele>
        <time>2017-10-13T07:47:43Z</time>
      </trkpt>
      <trkpt lat="45.74862" lon="6.58283">
        <ele>1123.6</ele>
        <time>2017-10-13T07:47:46Z</time>
      </trkpt>
      <trkpt lat="45.7487" lon="6.58294">
        <ele>1124.5</ele>
        <time>2017-10-13T07:47:50Z</time>
      </trkpt>
      <trkpt lat="45.74878" lon="6.58305">
        <ele>1125.1</ele>
        <time>2017-10-13T07:47:54Z</time>
      </trkpt>
      <trkpt lat="45.74886" lon="6.58317">
        <ele>1125.7</ele>
        <time>2017-10-13T07:47:58Z</time>
      </trkpt>
      <trkpt lat="45.74894" lon="6.58328">
        <ele>1126.2</ele>
        <time>2017-10-13T07:48:02Z</time>
      </trkpt>
      <trkpt lat="45.74901" lon="6.5834">
        <ele>1126.9</ele>
        <time>2017-10-13T07:48:06Z</time>
      </trkpt>
      <trkpt lat="45.7491" lon="6.5835">
        <ele>1127.5</ele>
        <time>2017-10-13T07:48:10Z</time>
      </trkpt>
      <trkpt lat="45.74919" lon="6.5836">
        <ele>1128.3</ele>
        <time>2017-10-13T07:48:14Z</time>
      </trkpt>
      <trkpt lat="45.74928" lon="6.58368">
        <ele>1128.9</ele>
        <time>2017-10-13T07:48:18Z</time>
      </trkpt>
      <trkpt lat="45.74936" lon="6.58379">
        <ele>1129.6</ele>
        <time>2017-10-13T07:48:22Z</time>
      </trkpt>
      <trkpt lat="45.74945" lon="6.58389">
        <ele>1130.1</ele>
        <time>2017-10-13T07:48:26Z</time>
      </trkpt>
      <trkpt lat="45.74954" lon="6.58398">
        <ele>1130.6</ele>
        <time>2017-10-13T07:48:30Z</time>
      </trkpt>
      <trkpt lat="45.74963" lon="6.58404">
        <ele>1131.1</ele>
        <time>2017-10-13T07:48:34Z</time>
      </trkpt>
      <trkpt lat="45.74972" lon="6.58402">
        <ele>1131.5</ele>
        <time>2017-10-13T07:48:38Z</time>
      </trkpt>
      <trkpt lat="45.74968" lon="6.58389">
        <ele>1132.1</ele>
        <time>2017-10-13T07:48:42Z</time>
      </trkpt>
      <trkpt lat="45.74958" lon="6.58379">
        <ele>1132.5</ele>
        <time>2017-10-13T07:48:46Z</time>
      </trkpt>
      <trkpt lat="45.74949" lon="6.58371">
        <ele>1132.8</ele>
        <time>2017-10-13T07:48:49Z</time>
      </trkpt>
      <trkpt lat="45.74941" lon="6.58361">
        <ele>1133.3</ele>
        <time>2017-10-13T07:48:52Z</time>
      </trkpt>
      <trkpt lat="45.74934" lon="6.58349">
        <ele>1133.7</ele>
        <time>2017-10-13T07:48:55Z</time>
      </trkpt>
      <trkpt lat="45.74928" lon="6.58338">
        <ele>1134</ele>
        <time>2017-10-13T07:48:58Z</time>
      </trkpt>
      <trkpt lat="45.74922" lon="6.58328">
        <ele>1134.4</ele>
        <time>2017-10-13T07:49:01Z</time>
      </trkpt>
      <trkpt lat="45.74917" lon="6.58316">
        <ele>1134.8</ele>
        <time>2017-10-13T07:49:04Z</time>
      </trkpt>
      <trkpt lat="45.74913" lon="6.58304">
        <ele>1135.3</ele>
        <time>2017-10-13T07:49:07Z</time>
      </trkpt>
      <trkpt lat="45.74909" lon="6.58291">
        <ele>1135.7</ele>
        <time>2017-10-13T07:49:10Z</time>
      </trkpt>
      <trkpt lat="45.74904" lon="6.58278">
        <ele>1136</ele>
        <time>2017-10-13T07:49:13Z</time>
      </trkpt>
      <trkpt lat="45.74902" lon="6.58265">
        <ele>1136.6</ele>
        <time>2017-10-13T07:49:16Z</time>
      </trkpt>
      <trkpt lat="45.74898" lon="6.5825">
        <ele>1137.4</ele>
        <time>2017-10-13T07:49:20Z</time>
      </trkpt>
      <trkpt lat="45.74895" lon="6.58235">
        <ele>1138.3</ele>
        <time>2017-10-13T07:49:24Z</time>
      </trkpt>
      <trkpt lat="45.74892" lon="6.58221">
        <ele>1139.2</ele>
        <time>2017-10-13T07:49:28Z</time>
      </trkpt>
      <trkpt lat="45.74889" lon="6.58205">
        <ele>1140</ele>
        <time>2017-10-13T07:49:32Z</time>
      </trkpt>
      <trkpt lat="45.74886" lon="6.58191">
        <ele>1140.8</ele>
        <time>2017-10-13T07:49:36Z</time>
      </trkpt>
      <trkpt lat="45.74886" lon="6.58175">
        <ele>1141.8</ele>
        <time>2017-10-13T07:49:40Z</time>
      </trkpt>
      <trkpt lat="45.74885" lon="6.5816">
        <ele>1142.6</ele>
        <time>2017-10-13T07:49:44Z</time>
      </trkpt>
      <trkpt lat="45.74883" lon="6.58145">
        <ele>1143.4</ele>
        <time>2017-10-13T07:49:48Z</time>
      </trkpt>
      <trkpt lat="45.74881" lon="6.5813">
        <ele>1144.2</ele>
        <time>2017-10-13T07:49:52Z</time>
      </trkpt>
      <trkpt lat="45.74881" lon="6.58115">
        <ele>1145</ele>
        <time>2017-10-13T07:49:56Z</time>
      </trkpt>
      <trkpt lat="45.74878" lon="6.58101">
        <ele>1145.7</ele>
        <time>2017-10-13T07:50:00Z</time>
      </trkpt>
      <trkpt lat="45.74876" lon="6.58088">
        <ele>1146.6</ele>
        <time>2017-10-13T07:50:05Z</time>
      </trkpt>
      <trkpt lat="45.74873" lon="6.58075">
        <ele>1147.6</ele>
        <time>2017-10-13T07:50:15Z</time>
      </trkpt>
      <trkpt lat="45.74869" lon="6.5806">
        <ele>1148.1</ele>
        <time>2017-10-13T07:50:21Z</time>
      </trkpt>
      <trkpt lat="45.74864" lon="6.58046">
        <ele>1148.8</ele>
        <time>2017-10-13T07:50:25Z</time>
      </trkpt>
      <trkpt lat="45.74859" lon="6.5803">
        <ele>1149.8</ele>
        <time>2017-10-13T07:50:29Z</time>
      </trkpt>
      <trkpt lat="45.74855" lon="6.58017">
        <ele>1150.3</ele>
        <time>2017-10-13T07:50:32Z</time>
      </trkpt>
      <trkpt lat="45.74853" lon="6.58002">
        <ele>1150.5</ele>
        <time>2017-10-13T07:50:35Z</time>
      </trkpt>
      <trkpt lat="45.74853" lon="6.57985">
        <ele>1150.4</ele>
        <time>2017-10-13T07:50:38Z</time>
      </trkpt>
      <trkpt lat="45.74854" lon="6.57972">
        <ele>1150.2</ele>
        <time>2017-10-13T07:50:40Z</time>
      </trkpt>
      <trkpt lat="45.74859" lon="6.57955">
        <ele>1150.1</ele>
        <time>2017-10-13T07:50:43Z</time>
      </trkpt>
      <trkpt lat="45.74865" lon="6.57944">
        <ele>1149.9</ele>
        <time>2017-10-13T07:50:45Z</time>
      </trkpt>
      <trkpt lat="45.74875" lon="6.57936">
        <ele>1149.6</ele>
        <time>2017-10-13T07:50:47Z</time>
      </trkpt>
      <trkpt lat="45.74886" lon="6.57931">
        <ele>1149.2</ele>
        <time>2017-10-13T07:50:49Z</time>
      </trkpt>
      <trkpt lat="45.74898" lon="6.57923">
        <ele>1148.8</ele>
        <time>2017-10-13T07:50:51Z</time>
      </trkpt>
      <trkpt lat="45.74903" lon="6.57907">
        <ele>1148.2</ele>
        <time>2017-10-13T07:50:53Z</time>
      </trkpt>
      <trkpt lat="45.74896" lon="6.57894">
        <ele>1147.7</ele>
        <time>2017-10-13T07:50:55Z</time>
      </trkpt>
      <trkpt lat="45.74887" lon="6.57884">
        <ele>1147.3</ele>
        <time>2017-10-13T07:50:57Z</time>
      </trkpt>
      <trkpt lat="45.74877" lon="6.57879">
        <ele>1147.1</ele>
        <time>2017-10-13T07:50:59Z</time>
      </trkpt>
      <trkpt lat="45.74868" lon="6.57875">
        <ele>1147.2</ele>
        <time>2017-10-13T07:51:01Z</time>
      </trkpt>
      <trkpt lat="45.74856" lon="6.5787">
        <ele>1147.7</ele>
        <time>2017-10-13T07:51:04Z</time>
      </trkpt>
      <trkpt lat="45.74845" lon="6.57867">
        <ele>1148.1</ele>
        <time>2017-10-13T07:51:07Z</time>
      </trkpt>
      <trkpt lat="45.74835" lon="6.57864">
        <ele>1148.6</ele>
        <time>2017-10-13T07:51:10Z</time>
      </trkpt>
      <trkpt lat="45.74824" lon="6.57863">
        <ele>1149.3</ele>
        <time>2017-10-13T07:51:13Z</time>
      </trkpt>
      <trkpt lat="45.74814" lon="6.5786">
        <ele>1150.3</ele>
        <time>2017-10-13T07:51:16Z</time>
      </trkpt>
      <trkpt lat="45.74805" lon="6.57856">
        <ele>1151.2</ele>
        <time>2017-10-13T07:51:19Z</time>
      </trkpt>
      <trkpt lat="45.74796" lon="6.57849">
        <ele>1152.4</ele>
        <time>2017-10-13T07:51:23Z</time>
      </trkpt>
      <trkpt lat="45.74788" lon="6.57839">
        <ele>1153.5</ele>
        <time>2017-10-13T07:51:27Z</time>
      </trkpt>
      <trkpt lat="45.74781" lon="6.57828">
        <ele>1154.3</ele>
        <time>2017-10-13T07:51:31Z</time>
      </trkpt>
      <trkpt lat="45.74777" lon="6.57814">
        <ele>1155.3</ele>
        <time>2017-10-13T07:51:35Z</time>
      </trkpt>
      <trkpt lat="45.74773" lon="6.57802">
        <ele>1156.2</ele>
        <time>2017-10-13T07:51:39Z</time>
      </trkpt>
      <trkpt lat="45.74771" lon="6.57786">
        <ele>1157.2</ele>
        <time>2017-10-13T07:51:43Z</time>
      </trkpt>
      <trkpt lat="45.74769" lon="6.57772">
        <ele>1158.2</ele>
        <time>2017-10-13T07:51:47Z</time>
      </trkpt>
      <trkpt lat="45.74767" lon="6.57758">
        <ele>1159.2</ele>
        <time>2017-10-13T07:51:51Z</time>
      </trkpt>
      <trkpt lat="45.74765" lon="6.57744">
        <ele>1160</ele>
        <time>2017-10-13T07:51:55Z</time>
      </trkpt>
      <trkpt lat="45.74763" lon="6.5773">
        <ele>1160.9</ele>
        <time>2017-10-13T07:51:59Z</time>
      </trkpt>
      <trkpt lat="45.74758" lon="6.57718">
        <ele>1161.7</ele>
        <time>2017-10-13T07:52:03Z</time>
      </trkpt>
      <trkpt lat="45.74753" lon="6.57706">
        <ele>1162.6</ele>
        <time>2017-10-13T07:52:07Z</time>
      </trkpt>
      <trkpt lat="45.74746" lon="6.57694">
        <ele>1163.4</ele>
        <time>2017-10-13T07:52:11Z</time>
      </trkpt>
      <trkpt lat="45.7474" lon="6.57682">
        <ele>1164.5</ele>
        <time>2017-10-13T07:52:15Z</time>
      </trkpt>
      <trkpt lat="45.74735" lon="6.57671">
        <ele>1165.5</ele>
        <time>2017-10-13T07:52:19Z</time>
      </trkpt>
      <trkpt lat="45.74729" lon="6.57661">
        <ele>1166.3</ele>
        <time>2017-10-13T07:52:23Z</time>
      </trkpt>
      <trkpt lat="45.74723" lon="6.5765">
        <ele>1167.3</ele>
        <time>2017-10-13T07:52:27Z</time>
      </trkpt>
      <trkpt lat="45.74717" lon="6.57638">
        <ele>1168.1</ele>
        <time>2017-10-13T07:52:31Z</time>
      </trkpt>
      <trkpt lat="45.74711" lon="6.57628">
        <ele>1168.9</ele>
        <time>2017-10-13T07:52:35Z</time>
      </trkpt>
      <trkpt lat="45.74705" lon="6.57617">
        <ele>1169.9</ele>
        <time>2017-10-13T07:52:39Z</time>
      </trkpt>
      <trkpt lat="45.747" lon="6.57606">
        <ele>1170.8</ele>
        <time>2017-10-13T07:52:43Z</time>
      </trkpt>
      <trkpt lat="45.74695" lon="6.57595">
        <ele>1171.7</ele>
        <time>2017-10-13T07:52:47Z</time>
      </trkpt>
      <trkpt lat="45.7469" lon="6.57583">
        <ele>1172.4</ele>
        <time>2017-10-13T07:52:51Z</time>
      </trkpt>
      <trkpt lat="45.74684" lon="6.57571">
        <ele>1173.3</ele>
        <time>2017-10-13T07:52:55Z</time>
      </trkpt>
      <trkpt lat="45.74678" lon="6.5756">
        <ele>1174</ele>
        <time>2017-10-13T07:52:59Z</time>
      </trkpt>
      <trkpt lat="45.74673" lon="6.5755">
        <ele>1174.9</ele>
        <time>2017-10-13T07:53:03Z</time>
      </trkpt>
      <trkpt lat="45.74668" lon="6.57539">
        <ele>1175.6</ele>
        <time>2017-10-13T07:53:07Z</time>
      </trkpt>
      <trkpt lat="45.74661" lon="6.57528">
        <ele>1176.4</ele>
        <time>2017-10-13T07:53:11Z</time>
      </trkpt>
      <trkpt lat="45.74657" lon="6.57516">
        <ele>1177.4</ele>
        <time>2017-10-13T07:53:15Z</time>
      </trkpt>
      <trkpt lat="45.74652" lon="6.57505">
        <ele>1178.3</ele>
        <time>2017-10-13T07:53:19Z</time>
      </trkpt>
      <trkpt lat="45.74647" lon="6.57493">
        <ele>1179.1</ele>
        <time>2017-10-13T07:53:23Z</time>
      </trkpt>
      <trkpt lat="45.74643" lon="6.57482">
        <ele>1180</ele>
        <time>2017-10-13T07:53:27Z</time>
      </trkpt>
      <trkpt lat="45.74638" lon="6.57469">
        <ele>1181</ele>
        <time>2017-10-13T07:53:31Z</time>
      </trkpt>
      <trkpt lat="45.74633" lon="6.57456">
        <ele>1181.8</ele>
        <time>2017-10-13T07:53:35Z</time>
      </trkpt>
      <trkpt lat="45.74628" lon="6.57443">
        <ele>1182.6</ele>
        <time>2017-10-13T07:53:39Z</time>
      </trkpt>
      <trkpt lat="45.74627" lon="6.5743">
        <ele>1183.4</ele>
        <time>2017-10-13T07:53:43Z</time>
      </trkpt>
      <trkpt lat="45.74637" lon="6.5743">
        <ele>1184.5</ele>
        <time>2017-10-13T07:53:48Z</time>
      </trkpt>
      <trkpt lat="45.74644" lon="6.57441">
        <ele>1185.6</ele>
        <time>2017-10-13T07:53:52Z</time>
      </trkpt>
      <trkpt lat="45.7465" lon="6.57452">
        <ele>1186.4</ele>
        <time>2017-10-13T07:53:56Z</time>
      </trkpt>
      <trkpt lat="45.74656" lon="6.57464">
        <ele>1187.1</ele>
        <time>2017-10-13T07:54:00Z</time>
      </trkpt>
      <trkpt lat="45.74664" lon="6.57475">
        <ele>1188.2</ele>
        <time>2017-10-13T07:54:05Z</time>
      </trkpt>
      <trkpt lat="45.74672" lon="6.57485">
        <ele>1189.2</ele>
        <time>2017-10-13T07:54:10Z</time>
      </trkpt>
      <trkpt lat="45.7468" lon="6.57492">
        <ele>1190.1</ele>
        <time>2017-10-13T07:54:14Z</time>
      </trkpt>
      <trkpt lat="45.74689" lon="6.57497">
        <ele>1190.8</ele>
        <time>2017-10-13T07:54:18Z</time>
      </trkpt>
      <trkpt lat="45.74698" lon="6.57503">
        <ele>1191.7</ele>
        <time>2017-10-13T07:54:22Z</time>
      </trkpt>
      <trkpt lat="45.74707" lon="6.57508">
        <ele>1192.4</ele>
        <time>2017-10-13T07:54:26Z</time>
      </trkpt>
      <trkpt lat="45.74716" lon="6.57514">
        <ele>1193.3</ele>
        <time>2017-10-13T07:54:30Z</time>
      </trkpt>
      <trkpt lat="45.74725" lon="6.57519">
        <ele>1194.1</ele>
        <time>2017-10-13T07:54:34Z</time>
      </trkpt>
      <trkpt lat="45.74735" lon="6.57523">
        <ele>1195</ele>
        <time>2017-10-13T07:54:38Z</time>
      </trkpt>
      <trkpt lat="45.74744" lon="6.57528">
        <ele>1195.9</ele>
        <time>2017-10-13T07:54:42Z</time>
      </trkpt>
      <trkpt lat="45.74753" lon="6.57533">
        <ele>1196.8</ele>
        <time>2017-10-13T07:54:46Z</time>
      </trkpt>
      <trkpt lat="45.74764" lon="6.57538">
        <ele>1198.1</ele>
        <time>2017-10-13T07:54:51Z</time>
      </trkpt>
      <trkpt lat="45.74774" lon="6.57542">
        <ele>1198.9</ele>
        <time>2017-10-13T07:54:55Z</time>
      </trkpt>
      <trkpt lat="45.74784" lon="6.57547">
        <ele>1199.6</ele>
        <time>2017-10-13T07:54:59Z</time>
      </trkpt>
      <trkpt lat="45.74793" lon="6.57549">
        <ele>1200.4</ele>
        <time>2017-10-13T07:55:03Z</time>
      </trkpt>
      <trkpt lat="45.74803" lon="6.57553">
        <ele>1201.2</ele>
        <time>2017-10-13T07:55:07Z</time>
      </trkpt>
      <trkpt lat="45.74813" lon="6.57556">
        <ele>1202</ele>
        <time>2017-10-13T07:55:11Z</time>
      </trkpt>
      <trkpt lat="45.74823" lon="6.5756">
        <ele>1202.7</ele>
        <time>2017-10-13T07:55:15Z</time>
      </trkpt>
      <trkpt lat="45.74832" lon="6.57563">
        <ele>1203.7</ele>
        <time>2017-10-13T07:55:19Z</time>
      </trkpt>
      <trkpt lat="45.74842" lon="6.5757">
        <ele>1204.7</ele>
        <time>2017-10-13T07:55:23Z</time>
      </trkpt>
      <trkpt lat="45.74851" lon="6.57578">
        <ele>1205.7</ele>
        <time>2017-10-13T07:55:27Z</time>
      </trkpt>
      <trkpt lat="45.74859" lon="6.57587">
        <ele>1206.7</ele>
        <time>2017-10-13T07:55:31Z</time>
      </trkpt>
      <trkpt lat="45.74867" lon="6.57597">
        <ele>1207.7</ele>
        <time>2017-10-13T07:55:35Z</time>
      </trkpt>
      <trkpt lat="45.74875" lon="6.57605">
        <ele>1208.6</ele>
        <time>2017-10-13T07:55:39Z</time>
      </trkpt>
      <trkpt lat="45.74884" lon="6.57612">
        <ele>1209.4</ele>
        <time>2017-10-13T07:55:43Z</time>
      </trkpt>
      <trkpt lat="45.74894" lon="6.57617">
        <ele>1210.1</ele>
        <time>2017-10-13T07:55:47Z</time>
      </trkpt>
      <trkpt lat="45.74903" lon="6.57621">
        <ele>1210.9</ele>
        <time>2017-10-13T07:55:51Z</time>
      </trkpt>
      <trkpt lat="45.74913" lon="6.57624">
        <ele>1211.7</ele>
        <time>2017-10-13T07:55:55Z</time>
      </trkpt>
      <trkpt lat="45.74923" lon="6.57629">
        <ele>1212.5</ele>
        <time>2017-10-13T07:55:59Z</time>
      </trkpt>
      <trkpt lat="45.74932" lon="6.57632">
        <ele>1213.4</ele>
        <time>2017-10-13T07:56:03Z</time>
      </trkpt>
      <trkpt lat="45.74941" lon="6.57634">
        <ele>1214.3</ele>
        <time>2017-10-13T07:56:07Z</time>
      </trkpt>
      <trkpt lat="45.74951" lon="6.57635">
        <ele>1215</ele>
        <time>2017-10-13T07:56:11Z</time>
      </trkpt>
      <trkpt lat="45.7496" lon="6.57637">
        <ele>1215.7</ele>
        <time>2017-10-13T07:56:15Z</time>
      </trkpt>
      <trkpt lat="45.74971" lon="6.5764">
        <ele>1216.7</ele>
        <time>2017-10-13T07:56:20Z</time>
      </trkpt>
      <trkpt lat="45.74979" lon="6.57644">
        <ele>1217.8</ele>
        <time>2017-10-13T07:56:24Z</time>
      </trkpt>
      <trkpt lat="45.74988" lon="6.57648">
        <ele>1218.5</ele>
        <time>2017-10-13T07:56:28Z</time>
      </trkpt>
      <trkpt lat="45.74998" lon="6.57653">
        <ele>1219.4</ele>
        <time>2017-10-13T07:56:32Z</time>
      </trkpt>
      <trkpt lat="45.75007" lon="6.57658">
        <ele>1220.3</ele>
        <time>2017-10-13T07:56:36Z</time>
      </trkpt>
      <trkpt lat="45.75016" lon="6.57663">
        <ele>1221.2</ele>
        <time>2017-10-13T07:56:40Z</time>
      </trkpt>
      <trkpt lat="45.75025" lon="6.57666">
        <ele>1222.1</ele>
        <time>2017-10-13T07:56:44Z</time>
      </trkpt>
      <trkpt lat="45.75035" lon="6.57669">
        <ele>1222.9</ele>
        <time>2017-10-13T07:56:48Z</time>
      </trkpt>
      <trkpt lat="45.75044" lon="6.57671">
        <ele>1223.8</ele>
        <time>2017-10-13T07:56:52Z</time>
      </trkpt>
      <trkpt lat="45.75053" lon="6.57673">
        <ele>1224.7</ele>
        <time>2017-10-13T07:56:56Z</time>
      </trkpt>
      <trkpt lat="45.75062" lon="6.57672">
        <ele>1225.7</ele>
        <time>2017-10-13T07:57:00Z</time>
      </trkpt>
      <trkpt lat="45.75072" lon="6.57669">
        <ele>1226.6</ele>
        <time>2017-10-13T07:57:04Z</time>
      </trkpt>
      <trkpt lat="45.75081" lon="6.57669">
        <ele>1227.4</ele>
        <time>2017-10-13T07:57:08Z</time>
      </trkpt>
      <trkpt lat="45.7509" lon="6.57674">
        <ele>1228.3</ele>
        <time>2017-10-13T07:57:12Z</time>
      </trkpt>
      <trkpt lat="45.75098" lon="6.57681">
        <ele>1229.3</ele>
        <time>2017-10-13T07:57:16Z</time>
      </trkpt>
      <trkpt lat="45.75106" lon="6.57689">
        <ele>1230.1</ele>
        <time>2017-10-13T07:57:20Z</time>
      </trkpt>
      <trkpt lat="45.75114" lon="6.57697">
        <ele>1230.8</ele>
        <time>2017-10-13T07:57:24Z</time>
      </trkpt>
      <trkpt lat="45.75121" lon="6.57706">
        <ele>1231.5</ele>
        <time>2017-10-13T07:57:28Z</time>
      </trkpt>
      <trkpt lat="45.75127" lon="6.57716">
        <ele>1232.2</ele>
        <time>2017-10-13T07:57:32Z</time>
      </trkpt>
      <trkpt lat="45.75132" lon="6.57729">
        <ele>1233.3</ele>
        <time>2017-10-13T07:57:37Z</time>
      </trkpt>
      <trkpt lat="45.75135" lon="6.57742">
        <ele>1234.3</ele>
        <time>2017-10-13T07:57:41Z</time>
      </trkpt>
      <trkpt lat="45.75139" lon="6.57754">
        <ele>1235.2</ele>
        <time>2017-10-13T07:57:45Z</time>
      </trkpt>
      <trkpt lat="45.75145" lon="6.57764">
        <ele>1236</ele>
        <time>2017-10-13T07:57:49Z</time>
      </trkpt>
      <trkpt lat="45.75153" lon="6.57771">
        <ele>1236.8</ele>
        <time>2017-10-13T07:57:53Z</time>
      </trkpt>
      <trkpt lat="45.75164" lon="6.57775">
        <ele>1237.7</ele>
        <time>2017-10-13T07:57:58Z</time>
      </trkpt>
      <trkpt lat="45.75174" lon="6.5778">
        <ele>1238.6</ele>
        <time>2017-10-13T07:58:03Z</time>
      </trkpt>
      <trkpt lat="45.75184" lon="6.57782">
        <ele>1239.4</ele>
        <time>2017-10-13T07:58:07Z</time>
      </trkpt>
      <trkpt lat="45.75191" lon="6.5777">
        <ele>1240.5</ele>
        <time>2017-10-13T07:58:12Z</time>
      </trkpt>
      <trkpt lat="45.75184" lon="6.57758">
        <ele>1241.5</ele>
        <time>2017-10-13T07:58:17Z</time>
      </trkpt>
      <trkpt lat="45.75175" lon="6.57754">
        <ele>1242.4</ele>
        <time>2017-10-13T07:58:21Z</time>
      </trkpt>
      <trkpt lat="45.75166" lon="6.57749">
        <ele>1243.4</ele>
        <time>2017-10-13T07:58:25Z</time>
      </trkpt>
      <trkpt lat="45.75161" lon="6.57736">
        <ele>1244.1</ele>
        <time>2017-10-13T07:58:29Z</time>
      </trkpt>
      <trkpt lat="45.75159" lon="6.57722">
        <ele>1244.8</ele>
        <time>2017-10-13T07:58:33Z</time>
      </trkpt>
      <trkpt lat="45.75159" lon="6.57707">
        <ele>1245.5</ele>
        <time>2017-10-13T07:58:37Z</time>
      </trkpt>
      <trkpt lat="45.75157" lon="6.57693">
        <ele>1246</ele>
        <time>2017-10-13T07:58:41Z</time>
      </trkpt>
      <trkpt lat="45.75155" lon="6.5768">
        <ele>1246.8</ele>
        <time>2017-10-13T07:58:45Z</time>
      </trkpt>
      <trkpt lat="45.7515" lon="6.57667">
        <ele>1247.7</ele>
        <time>2017-10-13T07:58:49Z</time>
      </trkpt>
      <trkpt lat="45.75143" lon="6.57658">
        <ele>1248.5</ele>
        <time>2017-10-13T07:58:53Z</time>
      </trkpt>
      <trkpt lat="45.75135" lon="6.57648">
        <ele>1249.1</ele>
        <time>2017-10-13T07:58:57Z</time>
      </trkpt>
      <trkpt lat="45.75128" lon="6.57638">
        <ele>1250</ele>
        <time>2017-10-13T07:59:01Z</time>
      </trkpt>
      <trkpt lat="45.75121" lon="6.57628">
        <ele>1250.8</ele>
        <time>2017-10-13T07:59:05Z</time>
      </trkpt>
      <trkpt lat="45.75115" lon="6.5762">
        <ele>1251.6</ele>
        <time>2017-10-13T07:59:09Z</time>
      </trkpt>
      <trkpt lat="45.75108" lon="6.57611">
        <ele>1252.7</ele>
        <time>2017-10-13T07:59:13Z</time>
      </trkpt>
      <trkpt lat="45.75101" lon="6.57602">
        <ele>1253.6</ele>
        <time>2017-10-13T07:59:17Z</time>
      </trkpt>
      <trkpt lat="45.75092" lon="6.57597">
        <ele>1254.6</ele>
        <time>2017-10-13T07:59:21Z</time>
      </trkpt>
      <trkpt lat="45.75083" lon="6.57594">
        <ele>1255.5</ele>
        <time>2017-10-13T07:59:25Z</time>
      </trkpt>
      <trkpt lat="45.75074" lon="6.57591">
        <ele>1256.3</ele>
        <time>2017-10-13T07:59:29Z</time>
      </trkpt>
      <trkpt lat="45.75065" lon="6.57586">
        <ele>1257.1</ele>
        <time>2017-10-13T07:59:33Z</time>
      </trkpt>
      <trkpt lat="45.75057" lon="6.5758">
        <ele>1258</ele>
        <time>2017-10-13T07:59:37Z</time>
      </trkpt>
      <trkpt lat="45.75049" lon="6.57572">
        <ele>1258.9</ele>
        <time>2017-10-13T07:59:41Z</time>
      </trkpt>
      <trkpt lat="45.75042" lon="6.57563">
        <ele>1259.9</ele>
        <time>2017-10-13T07:59:45Z</time>
      </trkpt>
      <trkpt lat="45.75034" lon="6.57555">
        <ele>1260.6</ele>
        <time>2017-10-13T07:59:49Z</time>
      </trkpt>
      <trkpt lat="45.75028" lon="6.57545">
        <ele>1261.4</ele>
        <time>2017-10-13T07:59:53Z</time>
      </trkpt>
      <trkpt lat="45.75022" lon="6.57534">
        <ele>1262.2</ele>
        <time>2017-10-13T07:59:57Z</time>
      </trkpt>
      <trkpt lat="45.75017" lon="6.57522">
        <ele>1263</ele>
        <time>2017-10-13T08:00:01Z</time>
      </trkpt>
      <trkpt lat="45.75011" lon="6.57511">
        <ele>1264</ele>
        <time>2017-10-13T08:00:05Z</time>
      </trkpt>
      <trkpt lat="45.75003" lon="6.57502">
        <ele>1264.9</ele>
        <time>2017-10-13T08:00:09Z</time>
      </trkpt>
      <trkpt lat="45.74995" lon="6.57496">
        <ele>1265.7</ele>
        <time>2017-10-13T08:00:13Z</time>
      </trkpt>
      <trkpt lat="45.74986" lon="6.5749">
        <ele>1266.5</ele>
        <time>2017-10-13T08:00:17Z</time>
      </trkpt>
      <trkpt lat="45.74977" lon="6.57485">
        <ele>1267.4</ele>
        <time>2017-10-13T08:00:21Z</time>
      </trkpt>
      <trkpt lat="45.74968" lon="6.57479">
        <ele>1268.3</ele>
        <time>2017-10-13T08:00:25Z</time>
      </trkpt>
      <trkpt lat="45.7496" lon="6.57471">
        <ele>1269.2</ele>
        <time>2017-10-13T08:00:29Z</time>
      </trkpt>
      <trkpt lat="45.74953" lon="6.57461">
        <ele>1270.2</ele>
        <time>2017-10-13T08:00:34Z</time>
      </trkpt>
      <trkpt lat="45.74947" lon="6.57451">
        <ele>1271.3</ele>
        <time>2017-10-13T08:00:42Z</time>
      </trkpt>
      <trkpt lat="45.74955" lon="6.57457">
        <ele>1272.3</ele>
        <time>2017-10-13T08:03:29Z</time>
      </trkpt>
      <trkpt lat="45.74963" lon="6.57466">
        <ele>1272.5</ele>
        <time>2017-10-13T08:03:33Z</time>
      </trkpt>
      <trkpt lat="45.74972" lon="6.57472">
        <ele>1273.5</ele>
        <time>2017-10-13T08:03:38Z</time>
      </trkpt>
      <trkpt lat="45.74982" lon="6.57472">
        <ele>1274.5</ele>
        <time>2017-10-13T08:03:43Z</time>
      </trkpt>
      <trkpt lat="45.74992" lon="6.57472">
        <ele>1275.7</ele>
        <time>2017-10-13T08:03:48Z</time>
      </trkpt>
      <trkpt lat="45.75002" lon="6.57473">
        <ele>1276.4</ele>
        <time>2017-10-13T08:03:53Z</time>
      </trkpt>
      <trkpt lat="45.75011" lon="6.57475">
        <ele>1277.2</ele>
        <time>2017-10-13T08:03:58Z</time>
      </trkpt>
      <trkpt lat="45.75021" lon="6.57475">
        <ele>1278</ele>
        <time>2017-10-13T08:04:03Z</time>
      </trkpt>
      <trkpt lat="45.7503" lon="6.57476">
        <ele>1279.3</ele>
        <time>2017-10-13T08:04:09Z</time>
      </trkpt>
      <trkpt lat="45.75039" lon="6.57482">
        <ele>1281.3</ele>
        <time>2017-10-13T08:04:16Z</time>
      </trkpt>
      <trkpt lat="45.75047" lon="6.5749">
        <ele>1284</ele>
        <time>2017-10-13T08:04:53Z</time>
      </trkpt>
      <trkpt lat="45.75048" lon="6.57477">
        <ele>1287.6</ele>
        <time>2017-10-13T08:05:14Z</time>
      </trkpt>
      <trkpt lat="45.75045" lon="6.57463">
        <ele>1289.7</ele>
        <time>2017-10-13T08:05:21Z</time>
      </trkpt>
      <trkpt lat="45.75055" lon="6.57462">
        <ele>1292.1</ele>
        <time>2017-10-13T08:05:29Z</time>
      </trkpt>
      <trkpt lat="45.75064" lon="6.57468">
        <ele>1294.4</ele>
        <time>2017-10-13T08:05:37Z</time>
      </trkpt>
      <trkpt lat="45.75074" lon="6.57471">
        <ele>1296.6</ele>
        <time>2017-10-13T08:05:45Z</time>
      </trkpt>
      <trkpt lat="45.75082" lon="6.57473">
        <ele>1298.6</ele>
        <time>2017-10-13T08:05:52Z</time>
      </trkpt>
      <trkpt lat="45.75092" lon="6.57469">
        <ele>1301</ele>
        <time>2017-10-13T08:06:08Z</time>
      </trkpt>
      <trkpt lat="45.751" lon="6.57465">
        <ele>1303.1</ele>
        <time>2017-10-13T08:06:23Z</time>
      </trkpt>
      <trkpt lat="45.75109" lon="6.57459">
        <ele>1304.8</ele>
        <time>2017-10-13T08:06:33Z</time>
      </trkpt>
      <trkpt lat="45.751" lon="6.57454">
        <ele>1307.5</ele>
        <time>2017-10-13T08:08:03Z</time>
      </trkpt>
      <trkpt lat="45.75092" lon="6.57447">
        <ele>1310.2</ele>
        <time>2017-10-13T08:08:11Z</time>
      </trkpt>
      <trkpt lat="45.75089" lon="6.57434">
        <ele>1313.7</ele>
        <time>2017-10-13T08:08:22Z</time>
      </trkpt>
      <trkpt lat="45.75081" lon="6.57426">
        <ele>1317.1</ele>
        <time>2017-10-13T08:08:34Z</time>
      </trkpt>
      <trkpt lat="45.75075" lon="6.57416">
        <ele>1319.3</ele>
        <time>2017-10-13T08:08:43Z</time>
      </trkpt>
      <trkpt lat="45.75068" lon="6.57406">
        <ele>1323.1</ele>
        <time>2017-10-13T08:08:59Z</time>
      </trkpt>
      <trkpt lat="45.7506" lon="6.574">
        <ele>1325.7</ele>
        <time>2017-10-13T08:09:10Z</time>
      </trkpt>
      <trkpt lat="45.75055" lon="6.57389">
        <ele>1328.5</ele>
        <time>2017-10-13T08:09:23Z</time>
      </trkpt>
      <trkpt lat="45.75051" lon="6.57377">
        <ele>1330.3</ele>
        <time>2017-10-13T08:09:32Z</time>
      </trkpt>
      <trkpt lat="45.75045" lon="6.57366">
        <ele>1333.6</ele>
        <time>2017-10-13T08:09:47Z</time>
      </trkpt>
      <trkpt lat="45.7504" lon="6.57355">
        <ele>1335.8</ele>
        <time>2017-10-13T08:09:58Z</time>
      </trkpt>
      <trkpt lat="45.75031" lon="6.57351">
        <ele>1337.6</ele>
        <time>2017-10-13T08:10:07Z</time>
      </trkpt>
      <trkpt lat="45.75023" lon="6.57343">
        <ele>1340.2</ele>
        <time>2017-10-13T08:10:19Z</time>
      </trkpt>
      <trkpt lat="45.75017" lon="6.57332">
        <ele>1342.2</ele>
        <time>2017-10-13T08:10:31Z</time>
      </trkpt>
      <trkpt lat="45.75009" lon="6.57325">
        <ele>1343.7</ele>
        <time>2017-10-13T08:10:37Z</time>
      </trkpt>
      <trkpt lat="45.75001" lon="6.57317">
        <ele>1345.8</ele>
        <time>2017-10-13T08:10:45Z</time>
      </trkpt>
      <trkpt lat="45.74995" lon="6.57305">
        <ele>1347.8</ele>
        <time>2017-10-13T08:10:52Z</time>
      </trkpt>
      <trkpt lat="45.74987" lon="6.57298">
        <ele>1349.9</ele>
        <time>2017-10-13T08:11:00Z</time>
      </trkpt>
      <trkpt lat="45.7498" lon="6.5729">
        <ele>1351.6</ele>
        <time>2017-10-13T08:11:09Z</time>
      </trkpt>
      <trkpt lat="45.74975" lon="6.57279">
        <ele>1354.1</ele>
        <time>2017-10-13T08:11:21Z</time>
      </trkpt>
      <trkpt lat="45.74971" lon="6.57266">
        <ele>1356.4</ele>
        <time>2017-10-13T08:11:30Z</time>
      </trkpt>
      <trkpt lat="45.74966" lon="6.57254">
        <ele>1358.8</ele>
        <time>2017-10-13T08:11:41Z</time>
      </trkpt>
      <trkpt lat="45.74961" lon="6.57244">
        <ele>1360.6</ele>
        <time>2017-10-13T08:11:53Z</time>
      </trkpt>
      <trkpt lat="45.74953" lon="6.57234">
        <ele>1361.1</ele>
        <time>2017-10-13T08:11:59Z</time>
      </trkpt>
      <trkpt lat="45.74948" lon="6.57222">
        <ele>1362.1</ele>
        <time>2017-10-13T08:12:04Z</time>
      </trkpt>
      <trkpt lat="45.74946" lon="6.57209">
        <ele>1364.2</ele>
        <time>2017-10-13T08:12:09Z</time>
      </trkpt>
      <trkpt lat="45.74945" lon="6.57195">
        <ele>1367.2</ele>
        <time>2017-10-13T08:12:17Z</time>
      </trkpt>
      <trkpt lat="45.74946" lon="6.5718">
        <ele>1369.1</ele>
        <time>2017-10-13T08:12:24Z</time>
      </trkpt>
      <trkpt lat="45.74944" lon="6.57168">
        <ele>1370.9</ele>
        <time>2017-10-13T08:12:30Z</time>
      </trkpt>
      <trkpt lat="45.74937" lon="6.57156">
        <ele>1372</ele>
        <time>2017-10-13T08:12:36Z</time>
      </trkpt>
      <trkpt lat="45.7493" lon="6.57146">
        <ele>1373</ele>
        <time>2017-10-13T08:12:41Z</time>
      </trkpt>
      <trkpt lat="45.74923" lon="6.57138">
        <ele>1373.7</ele>
        <time>2017-10-13T08:13:23Z</time>
      </trkpt>
      <trkpt lat="45.74917" lon="6.57128">
        <ele>1375.2</ele>
        <time>2017-10-13T08:18:47Z</time>
      </trkpt>
      <trkpt lat="45.74911" lon="6.57116">
        <ele>1375.6</ele>
        <time>2017-10-13T08:18:50Z</time>
      </trkpt>
      <trkpt lat="45.74907" lon="6.57103">
        <ele>1375.8</ele>
        <time>2017-10-13T08:18:53Z</time>
      </trkpt>
      <trkpt lat="45.74902" lon="6.57091">
        <ele>1375.9</ele>
        <time>2017-10-13T08:18:56Z</time>
      </trkpt>
      <trkpt lat="45.74896" lon="6.57078">
        <ele>1376</ele>
        <time>2017-10-13T08:18:59Z</time>
      </trkpt>
      <trkpt lat="45.74889" lon="6.57066">
        <ele>1376.1</ele>
        <time>2017-10-13T08:19:02Z</time>
      </trkpt>
      <trkpt lat="45.74882" lon="6.57053">
        <ele>1376</ele>
        <time>2017-10-13T08:19:05Z</time>
      </trkpt>
      <trkpt lat="45.74874" lon="6.57042">
        <ele>1376.1</ele>
        <time>2017-10-13T08:19:08Z</time>
      </trkpt>
      <trkpt lat="45.74865" lon="6.57031">
        <ele>1376</ele>
        <time>2017-10-13T08:19:11Z</time>
      </trkpt>
      <trkpt lat="45.74858" lon="6.5702">
        <ele>1376.1</ele>
        <time>2017-10-13T08:19:14Z</time>
      </trkpt>
      <trkpt lat="45.74852" lon="6.5701">
        <ele>1376.4</ele>
        <time>2017-10-13T08:19:17Z</time>
      </trkpt>
      <trkpt lat="45.74846" lon="6.56998">
        <ele>1376.7</ele>
        <time>2017-10-13T08:19:20Z</time>
      </trkpt>
      <trkpt lat="45.74841" lon="6.56987">
        <ele>1377.1</ele>
        <time>2017-10-13T08:19:23Z</time>
      </trkpt>
      <trkpt lat="45.74837" lon="6.56975">
        <ele>1377.4</ele>
        <time>2017-10-13T08:19:26Z</time>
      </trkpt>
      <trkpt lat="45.74832" lon="6.56962">
        <ele>1377.6</ele>
        <time>2017-10-13T08:19:29Z</time>
      </trkpt>
      <trkpt lat="45.74826" lon="6.5695">
        <ele>1377.7</ele>
        <time>2017-10-13T08:19:33Z</time>
      </trkpt>
      <trkpt lat="45.74828" lon="6.56937">
        <ele>1377.6</ele>
        <time>2017-10-13T08:19:38Z</time>
      </trkpt>
      <trkpt lat="45.74839" lon="6.56938">
        <ele>1378.1</ele>
        <time>2017-10-13T08:19:42Z</time>
      </trkpt>
      <trkpt lat="45.74848" lon="6.56939">
        <ele>1378.8</ele>
        <time>2017-10-13T08:19:46Z</time>
      </trkpt>
      <trkpt lat="45.74857" lon="6.56941">
        <ele>1379.5</ele>
        <time>2017-10-13T08:19:50Z</time>
      </trkpt>
      <trkpt lat="45.74866" lon="6.56944">
        <ele>1380.6</ele>
        <time>2017-10-13T08:19:55Z</time>
      </trkpt>
      <trkpt lat="45.74855" lon="6.56943">
        <ele>1381.3</ele>
        <time>2017-10-13T08:20:02Z</time>
      </trkpt>
      <trkpt lat="45.74843" lon="6.56941">
        <ele>1380.8</ele>
        <time>2017-10-13T08:20:05Z</time>
      </trkpt>
      <trkpt lat="45.74834" lon="6.56941">
        <ele>1380.4</ele>
        <time>2017-10-13T08:20:07Z</time>
      </trkpt>
      <trkpt lat="45.74823" lon="6.56939">
        <ele>1379.9</ele>
        <time>2017-10-13T08:20:09Z</time>
      </trkpt>
      <trkpt lat="45.74812" lon="6.56936">
        <ele>1379.3</ele>
        <time>2017-10-13T08:20:11Z</time>
      </trkpt>
      <trkpt lat="45.74801" lon="6.56933">
        <ele>1378.5</ele>
        <time>2017-10-13T08:20:13Z</time>
      </trkpt>
      <trkpt lat="45.74789" lon="6.56929">
        <ele>1377.7</ele>
        <time>2017-10-13T08:20:15Z</time>
      </trkpt>
      <trkpt lat="45.74776" lon="6.56925">
        <ele>1376.7</ele>
        <time>2017-10-13T08:20:17Z</time>
      </trkpt>
      <trkpt lat="45.74764" lon="6.56921">
        <ele>1375.7</ele>
        <time>2017-10-13T08:20:19Z</time>
      </trkpt>
      <trkpt lat="45.74751" lon="6.56916">
        <ele>1374.7</ele>
        <time>2017-10-13T08:20:21Z</time>
      </trkpt>
      <trkpt lat="45.7474" lon="6.56913">
        <ele>1373.7</ele>
        <time>2017-10-13T08:20:23Z</time>
      </trkpt>
      <trkpt lat="45.74729" lon="6.56909">
        <ele>1372.7</ele>
        <time>2017-10-13T08:20:25Z</time>
      </trkpt>
      <trkpt lat="45.7472" lon="6.56906">
        <ele>1371.6</ele>
        <time>2017-10-13T08:20:27Z</time>
      </trkpt>
      <trkpt lat="45.74709" lon="6.569">
        <ele>1370.4</ele>
        <time>2017-10-13T08:20:30Z</time>
      </trkpt>
      <trkpt lat="45.74696" lon="6.56893">
        <ele>1369.4</ele>
        <time>2017-10-13T08:20:33Z</time>
      </trkpt>
      <trkpt lat="45.74691" lon="6.5688">
        <ele>1368.7</ele>
        <time>2017-10-13T08:20:35Z</time>
      </trkpt>
      <trkpt lat="45.74688" lon="6.56864">
        <ele>1368</ele>
        <time>2017-10-13T08:20:38Z</time>
      </trkpt>
      <trkpt lat="45.74682" lon="6.5685">
        <ele>1368.2</ele>
        <time>2017-10-13T08:20:42Z</time>
      </trkpt>
      <trkpt lat="45.74677" lon="6.56839">
        <ele>1369</ele>
        <time>2017-10-13T08:20:46Z</time>
      </trkpt>
      <trkpt lat="45.74676" lon="6.56824">
        <ele>1370</ele>
        <time>2017-10-13T08:20:51Z</time>
      </trkpt>
      <trkpt lat="45.74681" lon="6.56811">
        <ele>1371</ele>
        <time>2017-10-13T08:20:56Z</time>
      </trkpt>
      <trkpt lat="45.74684" lon="6.56797">
        <ele>1371.7</ele>
        <time>2017-10-13T08:21:01Z</time>
      </trkpt>
      <trkpt lat="45.74688" lon="6.56784">
        <ele>1372.7</ele>
        <time>2017-10-13T08:21:06Z</time>
      </trkpt>
      <trkpt lat="45.74692" lon="6.5677">
        <ele>1373.3</ele>
        <time>2017-10-13T08:21:11Z</time>
      </trkpt>
      <trkpt lat="45.74692" lon="6.56756">
        <ele>1374.1</ele>
        <time>2017-10-13T08:21:16Z</time>
      </trkpt>
      <trkpt lat="45.74686" lon="6.56743">
        <ele>1374.1</ele>
        <time>2017-10-13T08:21:20Z</time>
      </trkpt>
      <trkpt lat="45.74684" lon="6.5673">
        <ele>1373.9</ele>
        <time>2017-10-13T08:21:24Z</time>
      </trkpt>
      <trkpt lat="45.74684" lon="6.56715">
        <ele>1374.2</ele>
        <time>2017-10-13T08:21:29Z</time>
      </trkpt>
      <trkpt lat="45.74683" lon="6.56702">
        <ele>1375</ele>
        <time>2017-10-13T08:21:34Z</time>
      </trkpt>
      <trkpt lat="45.74679" lon="6.56688">
        <ele>1375.7</ele>
        <time>2017-10-13T08:21:40Z</time>
      </trkpt>
      <trkpt lat="45.74673" lon="6.56677">
        <ele>1376</ele>
        <time>2017-10-13T08:21:45Z</time>
      </trkpt>
      <trkpt lat="45.74667" lon="6.56666">
        <ele>1376.5</ele>
        <time>2017-10-13T08:21:50Z</time>
      </trkpt>
      <trkpt lat="45.74664" lon="6.56653">
        <ele>1376.7</ele>
        <time>2017-10-13T08:21:55Z</time>
      </trkpt>
      <trkpt lat="45.74661" lon="6.5664">
        <ele>1378.1</ele>
        <time>2017-10-13T08:22:01Z</time>
      </trkpt>
      <trkpt lat="45.74655" lon="6.5663">
        <ele>1380.3</ele>
        <time>2017-10-13T08:22:07Z</time>
      </trkpt>
      <trkpt lat="45.74647" lon="6.5662">
        <ele>1383.3</ele>
        <time>2017-10-13T08:22:15Z</time>
      </trkpt>
      <trkpt lat="45.74653" lon="6.56609">
        <ele>1386.5</ele>
        <time>2017-10-13T08:22:24Z</time>
      </trkpt>
      <trkpt lat="45.74659" lon="6.56599">
        <ele>1390.2</ele>
        <time>2017-10-13T08:22:39Z</time>
      </trkpt>
      <trkpt lat="45.74663" lon="6.56587">
        <ele>1392.4</ele>
        <time>2017-10-13T08:22:49Z</time>
      </trkpt>
      <trkpt lat="45.74669" lon="6.56578">
        <ele>1394.7</ele>
        <time>2017-10-13T08:23:00Z</time>
      </trkpt>
      <trkpt lat="45.74676" lon="6.56568">
        <ele>1397</ele>
        <time>2017-10-13T08:23:11Z</time>
      </trkpt>
      <trkpt lat="45.74678" lon="6.56554">
        <ele>1398.8</ele>
        <time>2017-10-13T08:23:22Z</time>
      </trkpt>
      <trkpt lat="45.7468" lon="6.56541">
        <ele>1400.9</ele>
        <time>2017-10-13T08:23:32Z</time>
      </trkpt>
      <trkpt lat="45.74681" lon="6.56527">
        <ele>1403</ele>
        <time>2017-10-13T08:23:42Z</time>
      </trkpt>
      <trkpt lat="45.74681" lon="6.56514">
        <ele>1405.5</ele>
        <time>2017-10-13T08:23:52Z</time>
      </trkpt>
      <trkpt lat="45.74682" lon="6.565">
        <ele>1407</ele>
        <time>2017-10-13T08:24:01Z</time>
      </trkpt>
      <trkpt lat="45.74685" lon="6.56486">
        <ele>1407.2</ele>
        <time>2017-10-13T08:24:05Z</time>
      </trkpt>
      <trkpt lat="45.74691" lon="6.56472">
        <ele>1406.9</ele>
        <time>2017-10-13T08:24:08Z</time>
      </trkpt>
      <trkpt lat="45.74698" lon="6.56462">
        <ele>1406.6</ele>
        <time>2017-10-13T08:24:10Z</time>
      </trkpt>
      <trkpt lat="45.74706" lon="6.56452">
        <ele>1406.1</ele>
        <time>2017-10-13T08:24:12Z</time>
      </trkpt>
      <trkpt lat="45.74713" lon="6.56439">
        <ele>1405.6</ele>
        <time>2017-10-13T08:24:14Z</time>
      </trkpt>
      <trkpt lat="45.7472" lon="6.56428">
        <ele>1405.2</ele>
        <time>2017-10-13T08:24:16Z</time>
      </trkpt>
      <trkpt lat="45.74724" lon="6.56415">
        <ele>1404.6</ele>
        <time>2017-10-13T08:24:19Z</time>
      </trkpt>
      <trkpt lat="45.74716" lon="6.56409">
        <ele>1404.5</ele>
        <time>2017-10-13T08:24:22Z</time>
      </trkpt>
      <trkpt lat="45.74705" lon="6.56413">
        <ele>1404.9</ele>
        <time>2017-10-13T08:24:26Z</time>
      </trkpt>
      <trkpt lat="45.74695" lon="6.56414">
        <ele>1405.6</ele>
        <time>2017-10-13T08:24:30Z</time>
      </trkpt>
      <trkpt lat="45.74686" lon="6.56416">
        <ele>1406.6</ele>
        <time>2017-10-13T08:24:34Z</time>
      </trkpt>
      <trkpt lat="45.74677" lon="6.56418">
        <ele>1407.5</ele>
        <time>2017-10-13T08:24:38Z</time>
      </trkpt>
      <trkpt lat="45.74668" lon="6.56419">
        <ele>1408.3</ele>
        <time>2017-10-13T08:24:42Z</time>
      </trkpt>
      <trkpt lat="45.74657" lon="6.5642">
        <ele>1409.1</ele>
        <time>2017-10-13T08:24:47Z</time>
      </trkpt>
      <trkpt lat="45.74647" lon="6.56422">
        <ele>1409.9</ele>
        <time>2017-10-13T08:24:52Z</time>
      </trkpt>
      <trkpt lat="45.74637" lon="6.5642">
        <ele>1410.9</ele>
        <time>2017-10-13T08:24:57Z</time>
      </trkpt>
      <trkpt lat="45.74628" lon="6.56414">
        <ele>1412</ele>
        <time>2017-10-13T08:25:02Z</time>
      </trkpt>
      <trkpt lat="45.7462" lon="6.56405">
        <ele>1412.9</ele>
        <time>2017-10-13T08:25:07Z</time>
      </trkpt>
      <trkpt lat="45.74612" lon="6.56396">
        <ele>1413.5</ele>
        <time>2017-10-13T08:25:11Z</time>
      </trkpt>
      <trkpt lat="45.74604" lon="6.56387">
        <ele>1414.2</ele>
        <time>2017-10-13T08:25:15Z</time>
      </trkpt>
      <trkpt lat="45.74596" lon="6.56378">
        <ele>1414.8</ele>
        <time>2017-10-13T08:25:19Z</time>
      </trkpt>
      <trkpt lat="45.7459" lon="6.56367">
        <ele>1415.3</ele>
        <time>2017-10-13T08:25:23Z</time>
      </trkpt>
      <trkpt lat="45.74585" lon="6.56356">
        <ele>1415.9</ele>
        <time>2017-10-13T08:25:27Z</time>
      </trkpt>
      <trkpt lat="45.74582" lon="6.56341">
        <ele>1417.1</ele>
        <time>2017-10-13T08:25:32Z</time>
      </trkpt>
      <trkpt lat="45.74582" lon="6.56327">
        <ele>1418.6</ele>
        <time>2017-10-13T08:25:37Z</time>
      </trkpt>
      <trkpt lat="45.74583" lon="6.56313">
        <ele>1420.5</ele>
        <time>2017-10-13T08:25:43Z</time>
      </trkpt>
      <trkpt lat="45.74586" lon="6.56299">
        <ele>1422.3</ele>
        <time>2017-10-13T08:25:49Z</time>
      </trkpt>
      <trkpt lat="45.7459" lon="6.56285">
        <ele>1424.1</ele>
        <time>2017-10-13T08:25:56Z</time>
      </trkpt>
      <trkpt lat="45.74592" lon="6.56271">
        <ele>1425.5</ele>
        <time>2017-10-13T08:26:02Z</time>
      </trkpt>
      <trkpt lat="45.74592" lon="6.56258">
        <ele>1426.8</ele>
        <time>2017-10-13T08:26:08Z</time>
      </trkpt>
      <trkpt lat="45.7459" lon="6.56243">
        <ele>1427.5</ele>
        <time>2017-10-13T08:26:13Z</time>
      </trkpt>
      <trkpt lat="45.74586" lon="6.56232">
        <ele>1427.7</ele>
        <time>2017-10-13T08:26:17Z</time>
      </trkpt>
      <trkpt lat="45.7458" lon="6.56217">
        <ele>1427.9</ele>
        <time>2017-10-13T08:26:21Z</time>
      </trkpt>
      <trkpt lat="45.74574" lon="6.56205">
        <ele>1427.9</ele>
        <time>2017-10-13T08:26:24Z</time>
      </trkpt>
      <trkpt lat="45.74568" lon="6.56194">
        <ele>1427.9</ele>
        <time>2017-10-13T08:26:27Z</time>
      </trkpt>
      <trkpt lat="45.74561" lon="6.56185">
        <ele>1428.1</ele>
        <time>2017-10-13T08:26:30Z</time>
      </trkpt>
      <trkpt lat="45.74553" lon="6.56173">
        <ele>1428.4</ele>
        <time>2017-10-13T08:26:34Z</time>
      </trkpt>
      <trkpt lat="45.74546" lon="6.56164">
        <ele>1428.8</ele>
        <time>2017-10-13T08:26:37Z</time>
      </trkpt>
      <trkpt lat="45.74538" lon="6.56154">
        <ele>1429.7</ele>
        <time>2017-10-13T08:26:41Z</time>
      </trkpt>
      <trkpt lat="45.74531" lon="6.56146">
        <ele>1430.8</ele>
        <time>2017-10-13T08:26:45Z</time>
      </trkpt>
      <trkpt lat="45.74525" lon="6.56136">
        <ele>1431.6</ele>
        <time>2017-10-13T08:26:49Z</time>
      </trkpt>
      <trkpt lat="45.74518" lon="6.56124">
        <ele>1432.5</ele>
        <time>2017-10-13T08:26:53Z</time>
      </trkpt>
      <trkpt lat="45.74511" lon="6.56113">
        <ele>1433.4</ele>
        <time>2017-10-13T08:26:57Z</time>
      </trkpt>
      <trkpt lat="45.74505" lon="6.56102">
        <ele>1434.3</ele>
        <time>2017-10-13T08:27:01Z</time>
      </trkpt>
      <trkpt lat="45.745" lon="6.5609">
        <ele>1435.6</ele>
        <time>2017-10-13T08:27:06Z</time>
      </trkpt>
      <trkpt lat="45.74494" lon="6.56079">
        <ele>1436.5</ele>
        <time>2017-10-13T08:27:10Z</time>
      </trkpt>
      <trkpt lat="45.74488" lon="6.5607">
        <ele>1437</ele>
        <time>2017-10-13T08:27:13Z</time>
      </trkpt>
      <trkpt lat="45.74481" lon="6.56058">
        <ele>1437.5</ele>
        <time>2017-10-13T08:27:16Z</time>
      </trkpt>
      <trkpt lat="45.74474" lon="6.56045">
        <ele>1437.9</ele>
        <time>2017-10-13T08:27:19Z</time>
      </trkpt>
      <trkpt lat="45.7447" lon="6.5603">
        <ele>1438</ele>
        <time>2017-10-13T08:27:22Z</time>
      </trkpt>
      <trkpt lat="45.74469" lon="6.56014">
        <ele>1438.3</ele>
        <time>2017-10-13T08:27:25Z</time>
      </trkpt>
      <trkpt lat="45.74469" lon="6.55999">
        <ele>1438.7</ele>
        <time>2017-10-13T08:27:28Z</time>
      </trkpt>
      <trkpt lat="45.74469" lon="6.55986">
        <ele>1439.1</ele>
        <time>2017-10-13T08:27:31Z</time>
      </trkpt>
      <trkpt lat="45.7447" lon="6.55971">
        <ele>1439.9</ele>
        <time>2017-10-13T08:27:35Z</time>
      </trkpt>
      <trkpt lat="45.74467" lon="6.55954">
        <ele>1440.8</ele>
        <time>2017-10-13T08:27:40Z</time>
      </trkpt>
      <trkpt lat="45.74459" lon="6.55944">
        <ele>1441.1</ele>
        <time>2017-10-13T08:27:44Z</time>
      </trkpt>
      <trkpt lat="45.74448" lon="6.55943">
        <ele>1441.2</ele>
        <time>2017-10-13T08:27:47Z</time>
      </trkpt>
      <trkpt lat="45.74436" lon="6.55941">
        <ele>1441.1</ele>
        <time>2017-10-13T08:27:50Z</time>
      </trkpt>
      <trkpt lat="45.74425" lon="6.55936">
        <ele>1440.6</ele>
        <time>2017-10-13T08:27:53Z</time>
      </trkpt>
      <trkpt lat="45.74423" lon="6.55922">
        <ele>1439.9</ele>
        <time>2017-10-13T08:28:02Z</time>
      </trkpt>
      <trkpt lat="45.74417" lon="6.5591">
        <ele>1440.1</ele>
        <time>2017-10-13T08:28:06Z</time>
      </trkpt>
      <trkpt lat="45.74422" lon="6.55928">
        <ele>1440.4</ele>
        <time>2017-10-13T08:28:18Z</time>
      </trkpt>
      <trkpt lat="45.74431" lon="6.55938">
        <ele>1440.1</ele>
        <time>2017-10-13T08:28:21Z</time>
      </trkpt>
      <trkpt lat="45.74441" lon="6.55941">
        <ele>1440.1</ele>
        <time>2017-10-13T08:28:24Z</time>
      </trkpt>
      <trkpt lat="45.74453" lon="6.55943">
        <ele>1440.5</ele>
        <time>2017-10-13T08:28:28Z</time>
      </trkpt>
      <trkpt lat="45.74465" lon="6.55943">
        <ele>1441</ele>
        <time>2017-10-13T08:28:32Z</time>
      </trkpt>
      <trkpt lat="45.74474" lon="6.55949">
        <ele>1441.4</ele>
        <time>2017-10-13T08:28:36Z</time>
      </trkpt>
      <trkpt lat="45.74483" lon="6.55954">
        <ele>1442</ele>
        <time>2017-10-13T08:28:41Z</time>
      </trkpt>
      <trkpt lat="45.74494" lon="6.55953">
        <ele>1442.7</ele>
        <time>2017-10-13T08:28:46Z</time>
      </trkpt>
      <trkpt lat="45.745" lon="6.55942">
        <ele>1443.5</ele>
        <time>2017-10-13T08:28:51Z</time>
      </trkpt>
      <trkpt lat="45.74503" lon="6.55927">
        <ele>1444.4</ele>
        <time>2017-10-13T08:28:56Z</time>
      </trkpt>
      <trkpt lat="45.74498" lon="6.55913">
        <ele>1445.4</ele>
        <time>2017-10-13T08:29:01Z</time>
      </trkpt>
      <trkpt lat="45.74495" lon="6.559">
        <ele>1446.3</ele>
        <time>2017-10-13T08:29:06Z</time>
      </trkpt>
      <trkpt lat="45.7449" lon="6.55889">
        <ele>1447.4</ele>
        <time>2017-10-13T08:29:10Z</time>
      </trkpt>
      <trkpt lat="45.74484" lon="6.55879">
        <ele>1448.5</ele>
        <time>2017-10-13T08:29:14Z</time>
      </trkpt>
      <trkpt lat="45.74476" lon="6.55868">
        <ele>1449.8</ele>
        <time>2017-10-13T08:29:19Z</time>
      </trkpt>
      <trkpt lat="45.7447" lon="6.55856">
        <ele>1451</ele>
        <time>2017-10-13T08:29:24Z</time>
      </trkpt>
      <trkpt lat="45.74463" lon="6.55844">
        <ele>1452.2</ele>
        <time>2017-10-13T08:29:29Z</time>
      </trkpt>
      <trkpt lat="45.74457" lon="6.55833">
        <ele>1453.5</ele>
        <time>2017-10-13T08:29:34Z</time>
      </trkpt>
      <trkpt lat="45.74452" lon="6.55821">
        <ele>1454.8</ele>
        <time>2017-10-13T08:29:39Z</time>
      </trkpt>
      <trkpt lat="45.74448" lon="6.55809">
        <ele>1456</ele>
        <time>2017-10-13T08:29:44Z</time>
      </trkpt>
      <trkpt lat="45.74446" lon="6.55795">
        <ele>1457.3</ele>
        <time>2017-10-13T08:29:50Z</time>
      </trkpt>
      <trkpt lat="45.74444" lon="6.55779">
        <ele>1458.3</ele>
        <time>2017-10-13T08:29:56Z</time>
      </trkpt>
      <trkpt lat="45.7444" lon="6.55768">
        <ele>1459.4</ele>
        <time>2017-10-13T08:30:01Z</time>
      </trkpt>
      <trkpt lat="45.74437" lon="6.55754">
        <ele>1460.6</ele>
        <time>2017-10-13T08:30:07Z</time>
      </trkpt>
      <trkpt lat="45.74432" lon="6.55741">
        <ele>1462.1</ele>
        <time>2017-10-13T08:30:13Z</time>
      </trkpt>
      <trkpt lat="45.74427" lon="6.55728">
        <ele>1463.4</ele>
        <time>2017-10-13T08:30:19Z</time>
      </trkpt>
      <trkpt lat="45.74423" lon="6.55713">
        <ele>1464.6</ele>
        <time>2017-10-13T08:30:25Z</time>
      </trkpt>
      <trkpt lat="45.74421" lon="6.55699">
        <ele>1465.7</ele>
        <time>2017-10-13T08:30:31Z</time>
      </trkpt>
      <trkpt lat="45.74419" lon="6.55687">
        <ele>1466.6</ele>
        <time>2017-10-13T08:30:36Z</time>
      </trkpt>
      <trkpt lat="45.74417" lon="6.55673">
        <ele>1468</ele>
        <time>2017-10-13T08:30:42Z</time>
      </trkpt>
      <trkpt lat="45.74415" lon="6.55659">
        <ele>1469.3</ele>
        <time>2017-10-13T08:30:48Z</time>
      </trkpt>
      <trkpt lat="45.74413" lon="6.55645">
        <ele>1470.5</ele>
        <time>2017-10-13T08:30:54Z</time>
      </trkpt>
      <trkpt lat="45.74411" lon="6.55631">
        <ele>1472</ele>
        <time>2017-10-13T08:31:00Z</time>
      </trkpt>
      <trkpt lat="45.74409" lon="6.55618">
        <ele>1473.7</ele>
        <time>2017-10-13T08:31:06Z</time>
      </trkpt>
      <trkpt lat="45.74409" lon="6.55604">
        <ele>1475.5</ele>
        <time>2017-10-13T08:31:13Z</time>
      </trkpt>
      <trkpt lat="45.7441" lon="6.5559">
        <ele>1477.2</ele>
        <time>2017-10-13T08:31:19Z</time>
      </trkpt>
      <trkpt lat="45.74411" lon="6.55577">
        <ele>1479.3</ele>
        <time>2017-10-13T08:31:26Z</time>
      </trkpt>
      <trkpt lat="45.74412" lon="6.55562">
        <ele>1481.3</ele>
        <time>2017-10-13T08:31:34Z</time>
      </trkpt>
      <trkpt lat="45.74413" lon="6.55548">
        <ele>1483</ele>
        <time>2017-10-13T08:31:42Z</time>
      </trkpt>
      <trkpt lat="45.74414" lon="6.55534">
        <ele>1484</ele>
        <time>2017-10-13T08:31:49Z</time>
      </trkpt>
      <trkpt lat="45.74414" lon="6.55519">
        <ele>1485.3</ele>
        <time>2017-10-13T08:31:56Z</time>
      </trkpt>
      <trkpt lat="45.74415" lon="6.55505">
        <ele>1486.4</ele>
        <time>2017-10-13T08:32:03Z</time>
      </trkpt>
      <trkpt lat="45.74414" lon="6.55491">
        <ele>1487.6</ele>
        <time>2017-10-13T08:32:10Z</time>
      </trkpt>
      <trkpt lat="45.74413" lon="6.55478">
        <ele>1489</ele>
        <time>2017-10-13T08:32:16Z</time>
      </trkpt>
      <trkpt lat="45.74414" lon="6.55465">
        <ele>1491</ele>
        <time>2017-10-13T08:32:23Z</time>
      </trkpt>
      <trkpt lat="45.74417" lon="6.55451">
        <ele>1492.9</ele>
        <time>2017-10-13T08:32:30Z</time>
      </trkpt>
      <trkpt lat="45.74421" lon="6.55438">
        <ele>1494.8</ele>
        <time>2017-10-13T08:32:37Z</time>
      </trkpt>
      <trkpt lat="45.74425" lon="6.55426">
        <ele>1496.4</ele>
        <time>2017-10-13T08:32:44Z</time>
      </trkpt>
      <trkpt lat="45.74429" lon="6.55413">
        <ele>1498</ele>
        <time>2017-10-13T08:32:51Z</time>
      </trkpt>
      <trkpt lat="45.74433" lon="6.55401">
        <ele>1499.5</ele>
        <time>2017-10-13T08:32:58Z</time>
      </trkpt>
      <trkpt lat="45.74436" lon="6.55388">
        <ele>1500.6</ele>
        <time>2017-10-13T08:33:04Z</time>
      </trkpt>
      <trkpt lat="45.7444" lon="6.55375">
        <ele>1501.3</ele>
        <time>2017-10-13T08:33:10Z</time>
      </trkpt>
      <trkpt lat="45.74445" lon="6.55362">
        <ele>1502.5</ele>
        <time>2017-10-13T08:33:16Z</time>
      </trkpt>
      <trkpt lat="45.7445" lon="6.55349">
        <ele>1503.5</ele>
        <time>2017-10-13T08:33:22Z</time>
      </trkpt>
      <trkpt lat="45.74454" lon="6.55336">
        <ele>1504.9</ele>
        <time>2017-10-13T08:33:28Z</time>
      </trkpt>
      <trkpt lat="45.74457" lon="6.55323">
        <ele>1505.8</ele>
        <time>2017-10-13T08:33:33Z</time>
      </trkpt>
      <trkpt lat="45.7446" lon="6.55309">
        <ele>1506.5</ele>
        <time>2017-10-13T08:33:38Z</time>
      </trkpt>
      <trkpt lat="45.74463" lon="6.55296">
        <ele>1507.1</ele>
        <time>2017-10-13T08:33:43Z</time>
      </trkpt>
      <trkpt lat="45.74466" lon="6.55282">
        <ele>1507.9</ele>
        <time>2017-10-13T08:33:48Z</time>
      </trkpt>
      <trkpt lat="45.74469" lon="6.55267">
        <ele>1508.5</ele>
        <time>2017-10-13T08:33:53Z</time>
      </trkpt>
      <trkpt lat="45.74471" lon="6.55252">
        <ele>1509.2</ele>
        <time>2017-10-13T08:33:58Z</time>
      </trkpt>
      <trkpt lat="45.74473" lon="6.5524">
        <ele>1509.8</ele>
        <time>2017-10-13T08:34:02Z</time>
      </trkpt>
      <trkpt lat="45.74476" lon="6.55225">
        <ele>1510.6</ele>
        <time>2017-10-13T08:34:07Z</time>
      </trkpt>
      <trkpt lat="45.74478" lon="6.55212">
        <ele>1511.3</ele>
        <time>2017-10-13T08:34:11Z</time>
      </trkpt>
      <trkpt lat="45.74483" lon="6.552">
        <ele>1512.1</ele>
        <time>2017-10-13T08:34:15Z</time>
      </trkpt>
      <trkpt lat="45.74487" lon="6.55188">
        <ele>1512.5</ele>
        <time>2017-10-13T08:34:19Z</time>
      </trkpt>
      <trkpt lat="45.74492" lon="6.55177">
        <ele>1513</ele>
        <time>2017-10-13T08:34:23Z</time>
      </trkpt>
      <trkpt lat="45.74499" lon="6.55164">
        <ele>1513.9</ele>
        <time>2017-10-13T08:34:28Z</time>
      </trkpt>
      <trkpt lat="45.74505" lon="6.55152">
        <ele>1515.5</ele>
        <time>2017-10-13T08:34:33Z</time>
      </trkpt>
      <trkpt lat="45.74511" lon="6.5514">
        <ele>1516.7</ele>
        <time>2017-10-13T08:34:38Z</time>
      </trkpt>
      <trkpt lat="45.74519" lon="6.55129">
        <ele>1517.8</ele>
        <time>2017-10-13T08:34:43Z</time>
      </trkpt>
      <trkpt lat="45.74527" lon="6.55118">
        <ele>1518.7</ele>
        <time>2017-10-13T08:34:48Z</time>
      </trkpt>
      <trkpt lat="45.74536" lon="6.5511">
        <ele>1519.4</ele>
        <time>2017-10-13T08:34:53Z</time>
      </trkpt>
      <trkpt lat="45.74545" lon="6.55103">
        <ele>1519.8</ele>
        <time>2017-10-13T08:34:57Z</time>
      </trkpt>
      <trkpt lat="45.74554" lon="6.55097">
        <ele>1520.3</ele>
        <time>2017-10-13T08:35:01Z</time>
      </trkpt>
      <trkpt lat="45.74563" lon="6.55088">
        <ele>1520.7</ele>
        <time>2017-10-13T08:35:05Z</time>
      </trkpt>
      <trkpt lat="45.74571" lon="6.55078">
        <ele>1521.1</ele>
        <time>2017-10-13T08:35:09Z</time>
      </trkpt>
      <trkpt lat="45.74577" lon="6.55068">
        <ele>1521.1</ele>
        <time>2017-10-13T08:35:12Z</time>
      </trkpt>
      <trkpt lat="45.74585" lon="6.55053">
        <ele>1520.8</ele>
        <time>2017-10-13T08:35:15Z</time>
      </trkpt>
      <trkpt lat="45.7459" lon="6.55042">
        <ele>1520.5</ele>
        <time>2017-10-13T08:35:17Z</time>
      </trkpt>
      <trkpt lat="45.74595" lon="6.55031">
        <ele>1520</ele>
        <time>2017-10-13T08:35:19Z</time>
      </trkpt>
      <trkpt lat="45.74601" lon="6.5502">
        <ele>1519.6</ele>
        <time>2017-10-13T08:35:21Z</time>
      </trkpt>
      <trkpt lat="45.74608" lon="6.55006">
        <ele>1519.1</ele>
        <time>2017-10-13T08:35:23Z</time>
      </trkpt>
      <trkpt lat="45.74617" lon="6.54991">
        <ele>1518.6</ele>
        <time>2017-10-13T08:35:25Z</time>
      </trkpt>
      <trkpt lat="45.74624" lon="6.54974">
        <ele>1518</ele>
        <time>2017-10-13T08:35:27Z</time>
      </trkpt>
      <trkpt lat="45.74629" lon="6.54957">
        <ele>1517.5</ele>
        <time>2017-10-13T08:35:29Z</time>
      </trkpt>
      <trkpt lat="45.74632" lon="6.54943">
        <ele>1517.2</ele>
        <time>2017-10-13T08:35:31Z</time>
      </trkpt>
      <trkpt lat="45.74634" lon="6.54929">
        <ele>1517.3</ele>
        <time>2017-10-13T08:35:34Z</time>
      </trkpt>
      <trkpt lat="45.74636" lon="6.54914">
        <ele>1518.2</ele>
        <time>2017-10-13T08:35:38Z</time>
      </trkpt>
      <trkpt lat="45.74641" lon="6.54902">
        <ele>1519.4</ele>
        <time>2017-10-13T08:35:43Z</time>
      </trkpt>
      <trkpt lat="45.74652" lon="6.54902">
        <ele>1520.7</ele>
        <time>2017-10-13T08:35:51Z</time>
      </trkpt>
      <trkpt lat="45.74663" lon="6.54903">
        <ele>1521.4</ele>
        <time>2017-10-13T08:35:55Z</time>
      </trkpt>
      <trkpt lat="45.74673" lon="6.54904">
        <ele>1522.1</ele>
        <time>2017-10-13T08:35:59Z</time>
      </trkpt>
      <trkpt lat="45.74683" lon="6.54903">
        <ele>1522.8</ele>
        <time>2017-10-13T08:36:03Z</time>
      </trkpt>
      <trkpt lat="45.74694" lon="6.54901">
        <ele>1523.9</ele>
        <time>2017-10-13T08:36:08Z</time>
      </trkpt>
      <trkpt lat="45.74703" lon="6.54898">
        <ele>1524.8</ele>
        <time>2017-10-13T08:36:12Z</time>
      </trkpt>
      <trkpt lat="45.74711" lon="6.5489">
        <ele>1525.7</ele>
        <time>2017-10-13T08:36:16Z</time>
      </trkpt>
      <trkpt lat="45.7472" lon="6.5488">
        <ele>1526.3</ele>
        <time>2017-10-13T08:36:20Z</time>
      </trkpt>
      <trkpt lat="45.74727" lon="6.5487">
        <ele>1527.3</ele>
        <time>2017-10-13T08:36:24Z</time>
      </trkpt>
      <trkpt lat="45.74733" lon="6.54859">
        <ele>1528.1</ele>
        <time>2017-10-13T08:36:28Z</time>
      </trkpt>
      <trkpt lat="45.74738" lon="6.54846">
        <ele>1529</ele>
        <time>2017-10-13T08:36:32Z</time>
      </trkpt>
      <trkpt lat="45.74741" lon="6.54833">
        <ele>1529.9</ele>
        <time>2017-10-13T08:36:36Z</time>
      </trkpt>
      <trkpt lat="45.74743" lon="6.54819">
        <ele>1530.7</ele>
        <time>2017-10-13T08:36:40Z</time>
      </trkpt>
      <trkpt lat="45.74744" lon="6.54805">
        <ele>1531.7</ele>
        <time>2017-10-13T08:36:44Z</time>
      </trkpt>
      <trkpt lat="45.74747" lon="6.54792">
        <ele>1532.6</ele>
        <time>2017-10-13T08:36:48Z</time>
      </trkpt>
      <trkpt lat="45.74752" lon="6.54781">
        <ele>1533.3</ele>
        <time>2017-10-13T08:36:52Z</time>
      </trkpt>
      <trkpt lat="45.74759" lon="6.54771">
        <ele>1534.3</ele>
        <time>2017-10-13T08:36:56Z</time>
      </trkpt>
      <trkpt lat="45.74767" lon="6.54762">
        <ele>1535.2</ele>
        <time>2017-10-13T08:37:00Z</time>
      </trkpt>
      <trkpt lat="45.74777" lon="6.54756">
        <ele>1536</ele>
        <time>2017-10-13T08:37:04Z</time>
      </trkpt>
      <trkpt lat="45.74786" lon="6.54751">
        <ele>1536.8</ele>
        <time>2017-10-13T08:37:08Z</time>
      </trkpt>
      <trkpt lat="45.74795" lon="6.54748">
        <ele>1537.6</ele>
        <time>2017-10-13T08:37:12Z</time>
      </trkpt>
      <trkpt lat="45.74806" lon="6.54747">
        <ele>1538.6</ele>
        <time>2017-10-13T08:37:17Z</time>
      </trkpt>
      <trkpt lat="45.74817" lon="6.54745">
        <ele>1539.6</ele>
        <time>2017-10-13T08:37:22Z</time>
      </trkpt>
      <trkpt lat="45.74824" lon="6.54736">
        <ele>1540.4</ele>
        <time>2017-10-13T08:37:27Z</time>
      </trkpt>
      <trkpt lat="45.74832" lon="6.54724">
        <ele>1540.4</ele>
        <time>2017-10-13T08:37:31Z</time>
      </trkpt>
      <trkpt lat="45.7484" lon="6.54718">
        <ele>1540.2</ele>
        <time>2017-10-13T08:37:37Z</time>
      </trkpt>
      <trkpt lat="45.7483" lon="6.54726">
        <ele>1540.6</ele>
        <time>2017-10-13T08:37:46Z</time>
      </trkpt>
      <trkpt lat="45.74822" lon="6.54737">
        <ele>1541</ele>
        <time>2017-10-13T08:37:50Z</time>
      </trkpt>
      <trkpt lat="45.74826" lon="6.54752">
        <ele>1541.5</ele>
        <time>2017-10-13T08:37:54Z</time>
      </trkpt>
      <trkpt lat="45.74834" lon="6.54761">
        <ele>1541.8</ele>
        <time>2017-10-13T08:37:57Z</time>
      </trkpt>
      <trkpt lat="45.74843" lon="6.54766">
        <ele>1542.3</ele>
        <time>2017-10-13T08:38:00Z</time>
      </trkpt>
      <trkpt lat="45.74851" lon="6.54769">
        <ele>1542.8</ele>
        <time>2017-10-13T08:38:03Z</time>
      </trkpt>
      <trkpt lat="45.74862" lon="6.54772">
        <ele>1543.6</ele>
        <time>2017-10-13T08:38:07Z</time>
      </trkpt>
      <trkpt lat="45.74874" lon="6.54771">
        <ele>1544.4</ele>
        <time>2017-10-13T08:38:11Z</time>
      </trkpt>
      <trkpt lat="45.74885" lon="6.54769">
        <ele>1545.3</ele>
        <time>2017-10-13T08:38:15Z</time>
      </trkpt>
      <trkpt lat="45.74897" lon="6.54766">
        <ele>1546.1</ele>
        <time>2017-10-13T08:38:19Z</time>
      </trkpt>
      <trkpt lat="45.74908" lon="6.54763">
        <ele>1546.9</ele>
        <time>2017-10-13T08:38:23Z</time>
      </trkpt>
      <trkpt lat="45.74919" lon="6.54762">
        <ele>1547.8</ele>
        <time>2017-10-13T08:38:27Z</time>
      </trkpt>
      <trkpt lat="45.7493" lon="6.5476">
        <ele>1548.6</ele>
        <time>2017-10-13T08:38:31Z</time>
      </trkpt>
      <trkpt lat="45.74938" lon="6.54757">
        <ele>1549.3</ele>
        <time>2017-10-13T08:38:34Z</time>
      </trkpt>
      <trkpt lat="45.7495" lon="6.54754">
        <ele>1550.1</ele>
        <time>2017-10-13T08:38:38Z</time>
      </trkpt>
      <trkpt lat="45.74959" lon="6.54752">
        <ele>1550.9</ele>
        <time>2017-10-13T08:38:42Z</time>
      </trkpt>
      <trkpt lat="45.7497" lon="6.5475">
        <ele>1551.7</ele>
        <time>2017-10-13T08:38:46Z</time>
      </trkpt>
      <trkpt lat="45.7498" lon="6.54747">
        <ele>1552.4</ele>
        <time>2017-10-13T08:38:50Z</time>
      </trkpt>
      <trkpt lat="45.74992" lon="6.54744">
        <ele>1553.2</ele>
        <time>2017-10-13T08:38:54Z</time>
      </trkpt>
      <trkpt lat="45.75003" lon="6.54742">
        <ele>1554.1</ele>
        <time>2017-10-13T08:38:58Z</time>
      </trkpt>
      <trkpt lat="45.75013" lon="6.54738">
        <ele>1554.9</ele>
        <time>2017-10-13T08:39:02Z</time>
      </trkpt>
      <trkpt lat="45.75023" lon="6.54736">
        <ele>1555.7</ele>
        <time>2017-10-13T08:39:06Z</time>
      </trkpt>
      <trkpt lat="45.75035" lon="6.54734">
        <ele>1556.5</ele>
        <time>2017-10-13T08:39:10Z</time>
      </trkpt>
      <trkpt lat="45.75045" lon="6.5473">
        <ele>1557.2</ele>
        <time>2017-10-13T08:39:14Z</time>
      </trkpt>
      <trkpt lat="45.75056" lon="6.54727">
        <ele>1557.9</ele>
        <time>2017-10-13T08:39:18Z</time>
      </trkpt>
      <trkpt lat="45.75066" lon="6.54724">
        <ele>1558.5</ele>
        <time>2017-10-13T08:39:22Z</time>
      </trkpt>
      <trkpt lat="45.75076" lon="6.5472">
        <ele>1559.3</ele>
        <time>2017-10-13T08:39:26Z</time>
      </trkpt>
      <trkpt lat="45.75086" lon="6.54716">
        <ele>1560.2</ele>
        <time>2017-10-13T08:39:30Z</time>
      </trkpt>
      <trkpt lat="45.75096" lon="6.54712">
        <ele>1561.2</ele>
        <time>2017-10-13T08:39:34Z</time>
      </trkpt>
      <trkpt lat="45.75107" lon="6.54707">
        <ele>1562</ele>
        <time>2017-10-13T08:39:38Z</time>
      </trkpt>
      <trkpt lat="45.75117" lon="6.54704">
        <ele>1562.8</ele>
        <time>2017-10-13T08:39:42Z</time>
      </trkpt>
      <trkpt lat="45.75128" lon="6.54701">
        <ele>1563.6</ele>
        <time>2017-10-13T08:39:46Z</time>
      </trkpt>
      <trkpt lat="45.75136" lon="6.54697">
        <ele>1564.2</ele>
        <time>2017-10-13T08:39:49Z</time>
      </trkpt>
      <trkpt lat="45.75147" lon="6.54694">
        <ele>1565</ele>
        <time>2017-10-13T08:39:53Z</time>
      </trkpt>
      <trkpt lat="45.75158" lon="6.54689">
        <ele>1565.7</ele>
        <time>2017-10-13T08:39:57Z</time>
      </trkpt>
      <trkpt lat="45.75169" lon="6.54685">
        <ele>1566.6</ele>
        <time>2017-10-13T08:40:01Z</time>
      </trkpt>
      <trkpt lat="45.7518" lon="6.5468">
        <ele>1567.3</ele>
        <time>2017-10-13T08:40:05Z</time>
      </trkpt>
      <trkpt lat="45.75191" lon="6.54677">
        <ele>1568</ele>
        <time>2017-10-13T08:40:09Z</time>
      </trkpt>
      <trkpt lat="45.75202" lon="6.54672">
        <ele>1568.6</ele>
        <time>2017-10-13T08:40:13Z</time>
      </trkpt>
      <trkpt lat="45.75213" lon="6.54668">
        <ele>1569.3</ele>
        <time>2017-10-13T08:40:17Z</time>
      </trkpt>
      <trkpt lat="45.75225" lon="6.54664">
        <ele>1570</ele>
        <time>2017-10-13T08:40:21Z</time>
      </trkpt>
      <trkpt lat="45.75235" lon="6.54661">
        <ele>1570.6</ele>
        <time>2017-10-13T08:40:25Z</time>
      </trkpt>
      <trkpt lat="45.75245" lon="6.54657">
        <ele>1571.2</ele>
        <time>2017-10-13T08:40:29Z</time>
      </trkpt>
      <trkpt lat="45.75256" lon="6.54652">
        <ele>1572</ele>
        <time>2017-10-13T08:40:33Z</time>
      </trkpt>
      <trkpt lat="45.75266" lon="6.54647">
        <ele>1572.6</ele>
        <time>2017-10-13T08:40:37Z</time>
      </trkpt>
      <trkpt lat="45.75277" lon="6.54645">
        <ele>1573.3</ele>
        <time>2017-10-13T08:40:41Z</time>
      </trkpt>
      <trkpt lat="45.75287" lon="6.54642">
        <ele>1574</ele>
        <time>2017-10-13T08:40:45Z</time>
      </trkpt>
      <trkpt lat="45.75297" lon="6.54641">
        <ele>1574.8</ele>
        <time>2017-10-13T08:40:49Z</time>
      </trkpt>
      <trkpt lat="45.75308" lon="6.54637">
        <ele>1575.4</ele>
        <time>2017-10-13T08:40:53Z</time>
      </trkpt>
      <trkpt lat="45.75318" lon="6.54632">
        <ele>1576.2</ele>
        <time>2017-10-13T08:40:57Z</time>
      </trkpt>
      <trkpt lat="45.75328" lon="6.54625">
        <ele>1577</ele>
        <time>2017-10-13T08:41:01Z</time>
      </trkpt>
      <trkpt lat="45.75337" lon="6.54618">
        <ele>1577.7</ele>
        <time>2017-10-13T08:41:05Z</time>
      </trkpt>
      <trkpt lat="45.75347" lon="6.54612">
        <ele>1578.5</ele>
        <time>2017-10-13T08:41:09Z</time>
      </trkpt>
      <trkpt lat="45.75356" lon="6.54605">
        <ele>1579.3</ele>
        <time>2017-10-13T08:41:13Z</time>
      </trkpt>
      <trkpt lat="45.75366" lon="6.54599">
        <ele>1580.1</ele>
        <time>2017-10-13T08:41:17Z</time>
      </trkpt>
      <trkpt lat="45.75376" lon="6.54594">
        <ele>1580.9</ele>
        <time>2017-10-13T08:41:21Z</time>
      </trkpt>
      <trkpt lat="45.75385" lon="6.54589">
        <ele>1581.7</ele>
        <time>2017-10-13T08:41:25Z</time>
      </trkpt>
      <trkpt lat="45.75395" lon="6.54588">
        <ele>1582.5</ele>
        <time>2017-10-13T08:41:29Z</time>
      </trkpt>
      <trkpt lat="45.75405" lon="6.5459">
        <ele>1583.3</ele>
        <time>2017-10-13T08:41:33Z</time>
      </trkpt>
      <trkpt lat="45.75415" lon="6.54593">
        <ele>1584</ele>
        <time>2017-10-13T08:41:37Z</time>
      </trkpt>
      <trkpt lat="45.75425" lon="6.54592">
        <ele>1584.7</ele>
        <time>2017-10-13T08:41:41Z</time>
      </trkpt>
      <trkpt lat="45.75435" lon="6.5459">
        <ele>1585.4</ele>
        <time>2017-10-13T08:41:45Z</time>
      </trkpt>
      <trkpt lat="45.75445" lon="6.54586">
        <ele>1586.2</ele>
        <time>2017-10-13T08:41:49Z</time>
      </trkpt>
      <trkpt lat="45.75455" lon="6.54581">
        <ele>1586.9</ele>
        <time>2017-10-13T08:41:53Z</time>
      </trkpt>
      <trkpt lat="45.75464" lon="6.54574">
        <ele>1587.8</ele>
        <time>2017-10-13T08:41:57Z</time>
      </trkpt>
      <trkpt lat="45.75473" lon="6.54568">
        <ele>1588.5</ele>
        <time>2017-10-13T08:42:01Z</time>
      </trkpt>
      <trkpt lat="45.75481" lon="6.5456">
        <ele>1589.4</ele>
        <time>2017-10-13T08:42:05Z</time>
      </trkpt>
      <trkpt lat="45.75489" lon="6.54552">
        <ele>1590.2</ele>
        <time>2017-10-13T08:42:09Z</time>
      </trkpt>
      <trkpt lat="45.75496" lon="6.54543">
        <ele>1590.9</ele>
        <time>2017-10-13T08:42:13Z</time>
      </trkpt>
      <trkpt lat="45.75504" lon="6.54534">
        <ele>1591.5</ele>
        <time>2017-10-13T08:42:17Z</time>
      </trkpt>
      <trkpt lat="45.7551" lon="6.54523">
        <ele>1592.2</ele>
        <time>2017-10-13T08:42:21Z</time>
      </trkpt>
      <trkpt lat="45.75516" lon="6.54511">
        <ele>1592.9</ele>
        <time>2017-10-13T08:42:25Z</time>
      </trkpt>
      <trkpt lat="45.75521" lon="6.54499">
        <ele>1593.6</ele>
        <time>2017-10-13T08:42:29Z</time>
      </trkpt>
      <trkpt lat="45.75525" lon="6.54487">
        <ele>1594.3</ele>
        <time>2017-10-13T08:42:33Z</time>
      </trkpt>
      <trkpt lat="45.7553" lon="6.54475">
        <ele>1595</ele>
        <time>2017-10-13T08:42:37Z</time>
      </trkpt>
      <trkpt lat="45.75534" lon="6.54463">
        <ele>1595.9</ele>
        <time>2017-10-13T08:42:41Z</time>
      </trkpt>
      <trkpt lat="45.75538" lon="6.5445">
        <ele>1596.6</ele>
        <time>2017-10-13T08:42:45Z</time>
      </trkpt>
      <trkpt lat="45.75542" lon="6.54437">
        <ele>1597.4</ele>
        <time>2017-10-13T08:42:49Z</time>
      </trkpt>
      <trkpt lat="45.75546" lon="6.54425">
        <ele>1598.2</ele>
        <time>2017-10-13T08:42:53Z</time>
      </trkpt>
      <trkpt lat="45.75551" lon="6.54412">
        <ele>1598.9</ele>
        <time>2017-10-13T08:42:57Z</time>
      </trkpt>
      <trkpt lat="45.75556" lon="6.54401">
        <ele>1599.7</ele>
        <time>2017-10-13T08:43:01Z</time>
      </trkpt>
      <trkpt lat="45.7556" lon="6.54388">
        <ele>1600.4</ele>
        <time>2017-10-13T08:43:05Z</time>
      </trkpt>
      <trkpt lat="45.75565" lon="6.54375">
        <ele>1601.3</ele>
        <time>2017-10-13T08:43:09Z</time>
      </trkpt>
      <trkpt lat="45.75569" lon="6.54362">
        <ele>1602.1</ele>
        <time>2017-10-13T08:43:13Z</time>
      </trkpt>
      <trkpt lat="45.75574" lon="6.54349">
        <ele>1602.8</ele>
        <time>2017-10-13T08:43:17Z</time>
      </trkpt>
      <trkpt lat="45.75578" lon="6.54336">
        <ele>1603.6</ele>
        <time>2017-10-13T08:43:21Z</time>
      </trkpt>
      <trkpt lat="45.75584" lon="6.54323">
        <ele>1604.6</ele>
        <time>2017-10-13T08:43:25Z</time>
      </trkpt>
      <trkpt lat="45.75589" lon="6.5431">
        <ele>1605.4</ele>
        <time>2017-10-13T08:43:29Z</time>
      </trkpt>
      <trkpt lat="45.75593" lon="6.54296">
        <ele>1606.1</ele>
        <time>2017-10-13T08:43:33Z</time>
      </trkpt>
      <trkpt lat="45.75599" lon="6.54283">
        <ele>1606.8</ele>
        <time>2017-10-13T08:43:37Z</time>
      </trkpt>
      <trkpt lat="45.75603" lon="6.54269">
        <ele>1607.6</ele>
        <time>2017-10-13T08:43:41Z</time>
      </trkpt>
      <trkpt lat="45.75608" lon="6.54255">
        <ele>1608.3</ele>
        <time>2017-10-13T08:43:45Z</time>
      </trkpt>
      <trkpt lat="45.75613" lon="6.54242">
        <ele>1609.1</ele>
        <time>2017-10-13T08:43:49Z</time>
      </trkpt>
      <trkpt lat="45.75617" lon="6.54228">
        <ele>1609.8</ele>
        <time>2017-10-13T08:43:53Z</time>
      </trkpt>
      <trkpt lat="45.75619" lon="6.54212">
        <ele>1610.3</ele>
        <time>2017-10-13T08:43:57Z</time>
      </trkpt>
      <trkpt lat="45.75622" lon="6.54198">
        <ele>1610.9</ele>
        <time>2017-10-13T08:44:01Z</time>
      </trkpt>
      <trkpt lat="45.75625" lon="6.54184">
        <ele>1611.3</ele>
        <time>2017-10-13T08:44:05Z</time>
      </trkpt>
      <trkpt lat="45.75627" lon="6.54169">
        <ele>1611.9</ele>
        <time>2017-10-13T08:44:09Z</time>
      </trkpt>
      <trkpt lat="45.75629" lon="6.54155">
        <ele>1612.4</ele>
        <time>2017-10-13T08:44:13Z</time>
      </trkpt>
      <trkpt lat="45.75632" lon="6.54139">
        <ele>1613.1</ele>
        <time>2017-10-13T08:44:17Z</time>
      </trkpt>
      <trkpt lat="45.75635" lon="6.54124">
        <ele>1613.8</ele>
        <time>2017-10-13T08:44:21Z</time>
      </trkpt>
      <trkpt lat="45.75639" lon="6.54112">
        <ele>1614.6</ele>
        <time>2017-10-13T08:44:25Z</time>
      </trkpt>
      <trkpt lat="45.75645" lon="6.541">
        <ele>1615.3</ele>
        <time>2017-10-13T08:44:29Z</time>
      </trkpt>
      <trkpt lat="45.75651" lon="6.54089">
        <ele>1616.1</ele>
        <time>2017-10-13T08:44:33Z</time>
      </trkpt>
      <trkpt lat="45.75656" lon="6.54077">
        <ele>1616.8</ele>
        <time>2017-10-13T08:44:37Z</time>
      </trkpt>
      <trkpt lat="45.75661" lon="6.54064">
        <ele>1617.7</ele>
        <time>2017-10-13T08:44:41Z</time>
      </trkpt>
      <trkpt lat="45.75667" lon="6.54053">
        <ele>1618.5</ele>
        <time>2017-10-13T08:44:45Z</time>
      </trkpt>
      <trkpt lat="45.75673" lon="6.54042">
        <ele>1619.2</ele>
        <time>2017-10-13T08:44:49Z</time>
      </trkpt>
      <trkpt lat="45.75678" lon="6.54031">
        <ele>1619.9</ele>
        <time>2017-10-13T08:44:53Z</time>
      </trkpt>
      <trkpt lat="45.75683" lon="6.5402">
        <ele>1620.7</ele>
        <time>2017-10-13T08:44:57Z</time>
      </trkpt>
      <trkpt lat="45.75689" lon="6.5401">
        <ele>1621.5</ele>
        <time>2017-10-13T08:45:01Z</time>
      </trkpt>
      <trkpt lat="45.75694" lon="6.53999">
        <ele>1622.2</ele>
        <time>2017-10-13T08:45:05Z</time>
      </trkpt>
      <trkpt lat="45.75701" lon="6.53987">
        <ele>1622.9</ele>
        <time>2017-10-13T08:45:09Z</time>
      </trkpt>
      <trkpt lat="45.75706" lon="6.53976">
        <ele>1623.7</ele>
        <time>2017-10-13T08:45:13Z</time>
      </trkpt>
      <trkpt lat="45.75711" lon="6.53965">
        <ele>1624.5</ele>
        <time>2017-10-13T08:45:17Z</time>
      </trkpt>
      <trkpt lat="45.75716" lon="6.53953">
        <ele>1625.3</ele>
        <time>2017-10-13T08:45:21Z</time>
      </trkpt>
      <trkpt lat="45.75723" lon="6.53944">
        <ele>1626</ele>
        <time>2017-10-13T08:45:25Z</time>
      </trkpt>
      <trkpt lat="45.75729" lon="6.53934">
        <ele>1626.8</ele>
        <time>2017-10-13T08:45:29Z</time>
      </trkpt>
      <trkpt lat="45.75733" lon="6.53919">
        <ele>1627.8</ele>
        <time>2017-10-13T08:45:34Z</time>
      </trkpt>
      <trkpt lat="45.75738" lon="6.53908">
        <ele>1628.5</ele>
        <time>2017-10-13T08:45:38Z</time>
      </trkpt>
      <trkpt lat="45.75743" lon="6.53895">
        <ele>1629.3</ele>
        <time>2017-10-13T08:45:42Z</time>
      </trkpt>
      <trkpt lat="45.75747" lon="6.53881">
        <ele>1630.1</ele>
        <time>2017-10-13T08:45:46Z</time>
      </trkpt>
      <trkpt lat="45.75751" lon="6.53868">
        <ele>1630.7</ele>
        <time>2017-10-13T08:45:50Z</time>
      </trkpt>
      <trkpt lat="45.75754" lon="6.53855">
        <ele>1631.5</ele>
        <time>2017-10-13T08:45:54Z</time>
      </trkpt>
      <trkpt lat="45.75757" lon="6.53842">
        <ele>1632.1</ele>
        <time>2017-10-13T08:45:58Z</time>
      </trkpt>
      <trkpt lat="45.75762" lon="6.53829">
        <ele>1632.8</ele>
        <time>2017-10-13T08:46:02Z</time>
      </trkpt>
      <trkpt lat="45.75767" lon="6.53817">
        <ele>1633.5</ele>
        <time>2017-10-13T08:46:06Z</time>
      </trkpt>
      <trkpt lat="45.75772" lon="6.53805">
        <ele>1634.3</ele>
        <time>2017-10-13T08:46:10Z</time>
      </trkpt>
      <trkpt lat="45.75777" lon="6.53792">
        <ele>1635</ele>
        <time>2017-10-13T08:46:14Z</time>
      </trkpt>
      <trkpt lat="45.75782" lon="6.53779">
        <ele>1635.9</ele>
        <time>2017-10-13T08:46:18Z</time>
      </trkpt>
      <trkpt lat="45.75787" lon="6.53767">
        <ele>1636.6</ele>
        <time>2017-10-13T08:46:22Z</time>
      </trkpt>
      <trkpt lat="45.75792" lon="6.53755">
        <ele>1637.3</ele>
        <time>2017-10-13T08:46:26Z</time>
      </trkpt>
      <trkpt lat="45.75796" lon="6.53743">
        <ele>1637.9</ele>
        <time>2017-10-13T08:46:30Z</time>
      </trkpt>
      <trkpt lat="45.758" lon="6.53729">
        <ele>1638.6</ele>
        <time>2017-10-13T08:46:34Z</time>
      </trkpt>
      <trkpt lat="45.75801" lon="6.53714">
        <ele>1639.3</ele>
        <time>2017-10-13T08:46:38Z</time>
      </trkpt>
      <trkpt lat="45.75804" lon="6.53699">
        <ele>1639.8</ele>
        <time>2017-10-13T08:46:42Z</time>
      </trkpt>
      <trkpt lat="45.75809" lon="6.53685">
        <ele>1640.6</ele>
        <time>2017-10-13T08:46:46Z</time>
      </trkpt>
      <trkpt lat="45.75815" lon="6.53672">
        <ele>1641.3</ele>
        <time>2017-10-13T08:46:50Z</time>
      </trkpt>
      <trkpt lat="45.75821" lon="6.5366">
        <ele>1642.1</ele>
        <time>2017-10-13T08:46:54Z</time>
      </trkpt>
      <trkpt lat="45.75827" lon="6.53648">
        <ele>1642.9</ele>
        <time>2017-10-13T08:46:58Z</time>
      </trkpt>
      <trkpt lat="45.75833" lon="6.53637">
        <ele>1643.6</ele>
        <time>2017-10-13T08:47:02Z</time>
      </trkpt>
      <trkpt lat="45.75837" lon="6.53623">
        <ele>1644.2</ele>
        <time>2017-10-13T08:47:06Z</time>
      </trkpt>
      <trkpt lat="45.75841" lon="6.5361">
        <ele>1645</ele>
        <time>2017-10-13T08:47:10Z</time>
      </trkpt>
      <trkpt lat="45.75846" lon="6.53597">
        <ele>1645.7</ele>
        <time>2017-10-13T08:47:14Z</time>
      </trkpt>
      <trkpt lat="45.75854" lon="6.53587">
        <ele>1646.4</ele>
        <time>2017-10-13T08:47:18Z</time>
      </trkpt>
      <trkpt lat="45.75862" lon="6.53577">
        <ele>1647</ele>
        <time>2017-10-13T08:47:22Z</time>
      </trkpt>
      <trkpt lat="45.7587" lon="6.53567">
        <ele>1647.6</ele>
        <time>2017-10-13T08:47:26Z</time>
      </trkpt>
      <trkpt lat="45.75878" lon="6.53559">
        <ele>1648.1</ele>
        <time>2017-10-13T08:47:30Z</time>
      </trkpt>
      <trkpt lat="45.75888" lon="6.53553">
        <ele>1648.4</ele>
        <time>2017-10-13T08:47:35Z</time>
      </trkpt>
      <trkpt lat="45.75893" lon="6.53543">
        <ele>1648.6</ele>
        <time>2017-10-13T08:47:56Z</time>
      </trkpt>
      <trkpt lat="45.75898" lon="6.53529">
        <ele>1649.1</ele>
        <time>2017-10-13T08:48:02Z</time>
      </trkpt>
      <trkpt lat="45.75904" lon="6.53518">
        <ele>1649.5</ele>
        <time>2017-10-13T08:48:07Z</time>
      </trkpt>
      <trkpt lat="45.7591" lon="6.53507">
        <ele>1649.8</ele>
        <time>2017-10-13T08:48:14Z</time>
      </trkpt>
      <trkpt lat="45.75915" lon="6.53495">
        <ele>1650.2</ele>
        <time>2017-10-13T08:48:18Z</time>
      </trkpt>
      <trkpt lat="45.75922" lon="6.53481">
        <ele>1650.7</ele>
        <time>2017-10-13T08:48:22Z</time>
      </trkpt>
      <trkpt lat="45.75927" lon="6.5347">
        <ele>1651</ele>
        <time>2017-10-13T08:48:25Z</time>
      </trkpt>
      <trkpt lat="45.75932" lon="6.5346">
        <ele>1651.1</ele>
        <time>2017-10-13T08:48:28Z</time>
      </trkpt>
      <trkpt lat="45.75938" lon="6.5345">
        <ele>1651.3</ele>
        <time>2017-10-13T08:48:31Z</time>
      </trkpt>
      <trkpt lat="45.75945" lon="6.53441">
        <ele>1651.7</ele>
        <time>2017-10-13T08:48:34Z</time>
      </trkpt>
      <trkpt lat="45.75953" lon="6.53433">
        <ele>1651.9</ele>
        <time>2017-10-13T08:48:37Z</time>
      </trkpt>
      <trkpt lat="45.7596" lon="6.5342">
        <ele>1652.6</ele>
        <time>2017-10-13T08:48:41Z</time>
      </trkpt>
      <trkpt lat="45.75966" lon="6.5341">
        <ele>1653</ele>
        <time>2017-10-13T08:48:44Z</time>
      </trkpt>
      <trkpt lat="45.75973" lon="6.53401">
        <ele>1653.1</ele>
        <time>2017-10-13T08:48:47Z</time>
      </trkpt>
      <trkpt lat="45.75981" lon="6.53393">
        <ele>1653.3</ele>
        <time>2017-10-13T08:48:50Z</time>
      </trkpt>
      <trkpt lat="45.7599" lon="6.53386">
        <ele>1653.4</ele>
        <time>2017-10-13T08:48:53Z</time>
      </trkpt>
      <trkpt lat="45.75999" lon="6.53378">
        <ele>1653.4</ele>
        <time>2017-10-13T08:48:56Z</time>
      </trkpt>
      <trkpt lat="45.76009" lon="6.53372">
        <ele>1653.5</ele>
        <time>2017-10-13T08:48:59Z</time>
      </trkpt>
      <trkpt lat="45.76018" lon="6.53367">
        <ele>1653.7</ele>
        <time>2017-10-13T08:49:02Z</time>
      </trkpt>
      <trkpt lat="45.7603" lon="6.53363">
        <ele>1653.6</ele>
        <time>2017-10-13T08:49:06Z</time>
      </trkpt>
      <trkpt lat="45.76038" lon="6.53375">
        <ele>1653.3</ele>
        <time>2017-10-13T08:49:10Z</time>
      </trkpt>
      <trkpt lat="45.76035" lon="6.53387">
        <ele>1653.6</ele>
        <time>2017-10-13T08:49:13Z</time>
      </trkpt>
      <trkpt lat="45.76028" lon="6.53397">
        <ele>1654</ele>
        <time>2017-10-13T08:49:16Z</time>
      </trkpt>
      <trkpt lat="45.7602" lon="6.53405">
        <ele>1654.5</ele>
        <time>2017-10-13T08:49:19Z</time>
      </trkpt>
      <trkpt lat="45.76012" lon="6.53412">
        <ele>1654.9</ele>
        <time>2017-10-13T08:49:22Z</time>
      </trkpt>
      <trkpt lat="45.76004" lon="6.53419">
        <ele>1655.3</ele>
        <time>2017-10-13T08:49:25Z</time>
      </trkpt>
      <trkpt lat="45.75997" lon="6.53428">
        <ele>1655.7</ele>
        <time>2017-10-13T08:49:28Z</time>
      </trkpt>
      <trkpt lat="45.75992" lon="6.5344">
        <ele>1656.2</ele>
        <time>2017-10-13T08:49:31Z</time>
      </trkpt>
      <trkpt lat="45.7599" lon="6.53452">
        <ele>1656.6</ele>
        <time>2017-10-13T08:49:34Z</time>
      </trkpt>
      <trkpt lat="45.7599" lon="6.53469">
        <ele>1657.3</ele>
        <time>2017-10-13T08:49:38Z</time>
      </trkpt>
      <trkpt lat="45.75994" lon="6.53485">
        <ele>1658</ele>
        <time>2017-10-13T08:49:42Z</time>
      </trkpt>
      <trkpt lat="45.76003" lon="6.53495">
        <ele>1658.7</ele>
        <time>2017-10-13T08:49:46Z</time>
      </trkpt>
      <trkpt lat="45.76014" lon="6.535">
        <ele>1659.4</ele>
        <time>2017-10-13T08:49:50Z</time>
      </trkpt>
      <trkpt lat="45.76024" lon="6.535">
        <ele>1660.3</ele>
        <time>2017-10-13T08:49:54Z</time>
      </trkpt>
      <trkpt lat="45.76035" lon="6.53498">
        <ele>1661</ele>
        <time>2017-10-13T08:49:58Z</time>
      </trkpt>
      <trkpt lat="45.76045" lon="6.53497">
        <ele>1661.8</ele>
        <time>2017-10-13T08:50:02Z</time>
      </trkpt>
      <trkpt lat="45.76056" lon="6.53495">
        <ele>1662.6</ele>
        <time>2017-10-13T08:50:06Z</time>
      </trkpt>
      <trkpt lat="45.76066" lon="6.53494">
        <ele>1663.2</ele>
        <time>2017-10-13T08:50:10Z</time>
      </trkpt>
      <trkpt lat="45.76076" lon="6.53492">
        <ele>1663.9</ele>
        <time>2017-10-13T08:50:14Z</time>
      </trkpt>
      <trkpt lat="45.76086" lon="6.53491">
        <ele>1664.4</ele>
        <time>2017-10-13T08:50:18Z</time>
      </trkpt>
      <trkpt lat="45.76096" lon="6.5349">
        <ele>1665</ele>
        <time>2017-10-13T08:50:22Z</time>
      </trkpt>
      <trkpt lat="45.76106" lon="6.53488">
        <ele>1665.6</ele>
        <time>2017-10-13T08:50:26Z</time>
      </trkpt>
      <trkpt lat="45.76116" lon="6.53487">
        <ele>1666.1</ele>
        <time>2017-10-13T08:50:30Z</time>
      </trkpt>
      <trkpt lat="45.76124" lon="6.53493">
        <ele>1666.8</ele>
        <time>2017-10-13T08:50:34Z</time>
      </trkpt>
      <trkpt lat="45.76126" lon="6.53506">
        <ele>1667.4</ele>
        <time>2017-10-13T08:50:38Z</time>
      </trkpt>
      <trkpt lat="45.76119" lon="6.53516">
        <ele>1668</ele>
        <time>2017-10-13T08:50:42Z</time>
      </trkpt>
      <trkpt lat="45.76108" lon="6.5352">
        <ele>1668.7</ele>
        <time>2017-10-13T08:50:46Z</time>
      </trkpt>
      <trkpt lat="45.76098" lon="6.53528">
        <ele>1669.4</ele>
        <time>2017-10-13T08:50:50Z</time>
      </trkpt>
      <trkpt lat="45.7609" lon="6.53539">
        <ele>1670</ele>
        <time>2017-10-13T08:50:54Z</time>
      </trkpt>
      <trkpt lat="45.76085" lon="6.53551">
        <ele>1670.8</ele>
        <time>2017-10-13T08:50:58Z</time>
      </trkpt>
      <trkpt lat="45.76079" lon="6.53563">
        <ele>1671.7</ele>
        <time>2017-10-13T08:51:02Z</time>
      </trkpt>
      <trkpt lat="45.76074" lon="6.53574">
        <ele>1672.3</ele>
        <time>2017-10-13T08:51:06Z</time>
      </trkpt>
      <trkpt lat="45.76068" lon="6.53588">
        <ele>1673.2</ele>
        <time>2017-10-13T08:51:11Z</time>
      </trkpt>
      <trkpt lat="45.76063" lon="6.53601">
        <ele>1674.4</ele>
        <time>2017-10-13T08:51:16Z</time>
      </trkpt>
      <trkpt lat="45.76057" lon="6.53615">
        <ele>1675.3</ele>
        <time>2017-10-13T08:51:21Z</time>
      </trkpt>
      <trkpt lat="45.76054" lon="6.53627">
        <ele>1676.1</ele>
        <time>2017-10-13T08:51:25Z</time>
      </trkpt>
      <trkpt lat="45.76051" lon="6.53642">
        <ele>1677.3</ele>
        <time>2017-10-13T08:51:30Z</time>
      </trkpt>
      <trkpt lat="45.76049" lon="6.53657">
        <ele>1678.3</ele>
        <time>2017-10-13T08:51:35Z</time>
      </trkpt>
      <trkpt lat="45.76048" lon="6.53672">
        <ele>1679.4</ele>
        <time>2017-10-13T08:51:40Z</time>
      </trkpt>
      <trkpt lat="45.76048" lon="6.53688">
        <ele>1680.6</ele>
        <time>2017-10-13T08:51:45Z</time>
      </trkpt>
      <trkpt lat="45.76049" lon="6.53703">
        <ele>1681.5</ele>
        <time>2017-10-13T08:51:50Z</time>
      </trkpt>
      <trkpt lat="45.76052" lon="6.53717">
        <ele>1682.5</ele>
        <time>2017-10-13T08:51:55Z</time>
      </trkpt>
      <trkpt lat="45.76056" lon="6.53731">
        <ele>1683.6</ele>
        <time>2017-10-13T08:52:00Z</time>
      </trkpt>
      <trkpt lat="45.76059" lon="6.53746">
        <ele>1684.6</ele>
        <time>2017-10-13T08:52:05Z</time>
      </trkpt>
      <trkpt lat="45.76061" lon="6.5376">
        <ele>1685.6</ele>
        <time>2017-10-13T08:52:10Z</time>
      </trkpt>
      <trkpt lat="45.76063" lon="6.53775">
        <ele>1686.6</ele>
        <time>2017-10-13T08:52:15Z</time>
      </trkpt>
      <trkpt lat="45.76064" lon="6.53789">
        <ele>1687.4</ele>
        <time>2017-10-13T08:52:20Z</time>
      </trkpt>
      <trkpt lat="45.7606" lon="6.53802">
        <ele>1688.3</ele>
        <time>2017-10-13T08:52:25Z</time>
      </trkpt>
      <trkpt lat="45.76053" lon="6.53812">
        <ele>1689.2</ele>
        <time>2017-10-13T08:52:30Z</time>
      </trkpt>
      <trkpt lat="45.76043" lon="6.53819">
        <ele>1690.1</ele>
        <time>2017-10-13T08:52:35Z</time>
      </trkpt>
      <trkpt lat="45.76034" lon="6.53828">
        <ele>1691.2</ele>
        <time>2017-10-13T08:52:40Z</time>
      </trkpt>
      <trkpt lat="45.76026" lon="6.53836">
        <ele>1692.3</ele>
        <time>2017-10-13T08:52:45Z</time>
      </trkpt>
      <trkpt lat="45.76019" lon="6.53847">
        <ele>1693.2</ele>
        <time>2017-10-13T08:52:50Z</time>
      </trkpt>
      <trkpt lat="45.76012" lon="6.53858">
        <ele>1694.3</ele>
        <time>2017-10-13T08:52:55Z</time>
      </trkpt>
      <trkpt lat="45.76006" lon="6.53869">
        <ele>1695.5</ele>
        <time>2017-10-13T08:53:00Z</time>
      </trkpt>
      <trkpt lat="45.76001" lon="6.53882">
        <ele>1696.6</ele>
        <time>2017-10-13T08:53:05Z</time>
      </trkpt>
      <trkpt lat="45.75998" lon="6.53894">
        <ele>1697.2</ele>
        <time>2017-10-13T08:53:09Z</time>
      </trkpt>
      <trkpt lat="45.75994" lon="6.53907">
        <ele>1698.2</ele>
        <time>2017-10-13T08:53:14Z</time>
      </trkpt>
      <trkpt lat="45.75989" lon="6.53921">
        <ele>1699.2</ele>
        <time>2017-10-13T08:53:19Z</time>
      </trkpt>
      <trkpt lat="45.75985" lon="6.53935">
        <ele>1700.3</ele>
        <time>2017-10-13T08:53:24Z</time>
      </trkpt>
      <trkpt lat="45.75983" lon="6.5395">
        <ele>1701.3</ele>
        <time>2017-10-13T08:53:29Z</time>
      </trkpt>
      <trkpt lat="45.75978" lon="6.53964">
        <ele>1702.2</ele>
        <time>2017-10-13T08:53:34Z</time>
      </trkpt>
      <trkpt lat="45.75976" lon="6.5398">
        <ele>1703</ele>
        <time>2017-10-13T08:53:39Z</time>
      </trkpt>
      <trkpt lat="45.75973" lon="6.53995">
        <ele>1703.9</ele>
        <time>2017-10-13T08:53:44Z</time>
      </trkpt>
      <trkpt lat="45.75971" lon="6.54009">
        <ele>1704.6</ele>
        <time>2017-10-13T08:53:49Z</time>
      </trkpt>
      <trkpt lat="45.7597" lon="6.54025">
        <ele>1705.7</ele>
        <time>2017-10-13T08:53:54Z</time>
      </trkpt>
      <trkpt lat="45.75968" lon="6.54041">
        <ele>1706.5</ele>
        <time>2017-10-13T08:53:59Z</time>
      </trkpt>
      <trkpt lat="45.75968" lon="6.54054">
        <ele>1707.2</ele>
        <time>2017-10-13T08:54:03Z</time>
      </trkpt>
      <trkpt lat="45.7597" lon="6.54067">
        <ele>1707.9</ele>
        <time>2017-10-13T08:54:07Z</time>
      </trkpt>
      <trkpt lat="45.75972" lon="6.54083">
        <ele>1708.8</ele>
        <time>2017-10-13T08:54:12Z</time>
      </trkpt>
      <trkpt lat="45.75974" lon="6.54098">
        <ele>1709.5</ele>
        <time>2017-10-13T08:54:17Z</time>
      </trkpt>
      <trkpt lat="45.75977" lon="6.54112">
        <ele>1710.2</ele>
        <time>2017-10-13T08:54:21Z</time>
      </trkpt>
      <trkpt lat="45.75978" lon="6.54125">
        <ele>1710.8</ele>
        <time>2017-10-13T08:54:25Z</time>
      </trkpt>
      <trkpt lat="45.75978" lon="6.54139">
        <ele>1711.4</ele>
        <time>2017-10-13T08:54:29Z</time>
      </trkpt>
      <trkpt lat="45.75976" lon="6.54153">
        <ele>1711.8</ele>
        <time>2017-10-13T08:54:33Z</time>
      </trkpt>
      <trkpt lat="45.75974" lon="6.54166">
        <ele>1712.4</ele>
        <time>2017-10-13T08:54:37Z</time>
      </trkpt>
      <trkpt lat="45.75971" lon="6.54179">
        <ele>1713.1</ele>
        <time>2017-10-13T08:54:41Z</time>
      </trkpt>
      <trkpt lat="45.7597" lon="6.54195">
        <ele>1713.9</ele>
        <time>2017-10-13T08:54:46Z</time>
      </trkpt>
      <trkpt lat="45.7597" lon="6.54208">
        <ele>1714.8</ele>
        <time>2017-10-13T08:54:50Z</time>
      </trkpt>
      <trkpt lat="45.75971" lon="6.54221">
        <ele>1715.7</ele>
        <time>2017-10-13T08:54:54Z</time>
      </trkpt>
      <trkpt lat="45.75972" lon="6.54237">
        <ele>1716.6</ele>
        <time>2017-10-13T08:54:59Z</time>
      </trkpt>
      <trkpt lat="45.7597" lon="6.54252">
        <ele>1717.6</ele>
        <time>2017-10-13T08:55:04Z</time>
      </trkpt>
      <trkpt lat="45.75971" lon="6.54268">
        <ele>1718.5</ele>
        <time>2017-10-13T08:55:09Z</time>
      </trkpt>
      <trkpt lat="45.75971" lon="6.54281">
        <ele>1719.3</ele>
        <time>2017-10-13T08:55:13Z</time>
      </trkpt>
      <trkpt lat="45.7597" lon="6.54297">
        <ele>1720.4</ele>
        <time>2017-10-13T08:55:18Z</time>
      </trkpt>
      <trkpt lat="45.75969" lon="6.54311">
        <ele>1721.4</ele>
        <time>2017-10-13T08:55:23Z</time>
      </trkpt>
      <trkpt lat="45.75969" lon="6.54326">
        <ele>1722.5</ele>
        <time>2017-10-13T08:55:28Z</time>
      </trkpt>
      <trkpt lat="45.75971" lon="6.5434">
        <ele>1723.3</ele>
        <time>2017-10-13T08:55:32Z</time>
      </trkpt>
      <trkpt lat="45.75971" lon="6.54355">
        <ele>1724.1</ele>
        <time>2017-10-13T08:55:37Z</time>
      </trkpt>
      <trkpt lat="45.75973" lon="6.54371">
        <ele>1725.2</ele>
        <time>2017-10-13T08:55:42Z</time>
      </trkpt>
      <trkpt lat="45.75975" lon="6.54386">
        <ele>1726.3</ele>
        <time>2017-10-13T08:55:47Z</time>
      </trkpt>
      <trkpt lat="45.75978" lon="6.54401">
        <ele>1727.2</ele>
        <time>2017-10-13T08:55:52Z</time>
      </trkpt>
      <trkpt lat="45.75979" lon="6.54415">
        <ele>1728.4</ele>
        <time>2017-10-13T08:55:57Z</time>
      </trkpt>
      <trkpt lat="45.7598" lon="6.5443">
        <ele>1729.4</ele>
        <time>2017-10-13T08:56:02Z</time>
      </trkpt>
      <trkpt lat="45.75982" lon="6.54445">
        <ele>1730.2</ele>
        <time>2017-10-13T08:56:07Z</time>
      </trkpt>
      <trkpt lat="45.75982" lon="6.5446">
        <ele>1731.2</ele>
        <time>2017-10-13T08:56:12Z</time>
      </trkpt>
      <trkpt lat="45.75982" lon="6.54476">
        <ele>1732.3</ele>
        <time>2017-10-13T08:56:17Z</time>
      </trkpt>
      <trkpt lat="45.75982" lon="6.54491">
        <ele>1733.4</ele>
        <time>2017-10-13T08:56:22Z</time>
      </trkpt>
      <trkpt lat="45.75982" lon="6.54506">
        <ele>1734.4</ele>
        <time>2017-10-13T08:56:27Z</time>
      </trkpt>
      <trkpt lat="45.75982" lon="6.54522">
        <ele>1735.3</ele>
        <time>2017-10-13T08:56:32Z</time>
      </trkpt>
      <trkpt lat="45.75982" lon="6.54537">
        <ele>1736.3</ele>
        <time>2017-10-13T08:56:37Z</time>
      </trkpt>
      <trkpt lat="45.75981" lon="6.54553">
        <ele>1737.3</ele>
        <time>2017-10-13T08:56:42Z</time>
      </trkpt>
      <trkpt lat="45.75978" lon="6.54568">
        <ele>1738.1</ele>
        <time>2017-10-13T08:56:47Z</time>
      </trkpt>
      <trkpt lat="45.75975" lon="6.54581">
        <ele>1739</ele>
        <time>2017-10-13T08:56:51Z</time>
      </trkpt>
      <trkpt lat="45.75972" lon="6.54594">
        <ele>1739.8</ele>
        <time>2017-10-13T08:56:55Z</time>
      </trkpt>
      <trkpt lat="45.75969" lon="6.54607">
        <ele>1740.5</ele>
        <time>2017-10-13T08:56:59Z</time>
      </trkpt>
      <trkpt lat="45.75967" lon="6.54622">
        <ele>1741.5</ele>
        <time>2017-10-13T08:57:04Z</time>
      </trkpt>
      <trkpt lat="45.75963" lon="6.54635">
        <ele>1742.4</ele>
        <time>2017-10-13T08:57:08Z</time>
      </trkpt>
      <trkpt lat="45.75959" lon="6.54649">
        <ele>1743.1</ele>
        <time>2017-10-13T08:57:12Z</time>
      </trkpt>
      <trkpt lat="45.75954" lon="6.54661">
        <ele>1743.8</ele>
        <time>2017-10-13T08:57:16Z</time>
      </trkpt>
      <trkpt lat="45.75948" lon="6.54673">
        <ele>1744.5</ele>
        <time>2017-10-13T08:57:20Z</time>
      </trkpt>
      <trkpt lat="45.75942" lon="6.54684">
        <ele>1745.3</ele>
        <time>2017-10-13T08:57:24Z</time>
      </trkpt>
      <trkpt lat="45.75937" lon="6.54695">
        <ele>1746.2</ele>
        <time>2017-10-13T08:57:28Z</time>
      </trkpt>
      <trkpt lat="45.75933" lon="6.5471">
        <ele>1747.5</ele>
        <time>2017-10-13T08:57:33Z</time>
      </trkpt>
      <trkpt lat="45.75934" lon="6.54723">
        <ele>1748.2</ele>
        <time>2017-10-13T08:57:37Z</time>
      </trkpt>
      <trkpt lat="45.75937" lon="6.54735">
        <ele>1749.1</ele>
        <time>2017-10-13T08:57:41Z</time>
      </trkpt>
      <trkpt lat="45.75943" lon="6.54746">
        <ele>1749.6</ele>
        <time>2017-10-13T08:57:45Z</time>
      </trkpt>
      <trkpt lat="45.75948" lon="6.54757">
        <ele>1750.1</ele>
        <time>2017-10-13T08:57:49Z</time>
      </trkpt>
      <trkpt lat="45.75954" lon="6.5477">
        <ele>1751.2</ele>
        <time>2017-10-13T08:57:54Z</time>
      </trkpt>
      <trkpt lat="45.75959" lon="6.54784">
        <ele>1752.1</ele>
        <time>2017-10-13T08:57:59Z</time>
      </trkpt>
      <trkpt lat="45.75962" lon="6.54799">
        <ele>1753.3</ele>
        <time>2017-10-13T08:58:04Z</time>
      </trkpt>
      <trkpt lat="45.75966" lon="6.54813">
        <ele>1754.4</ele>
        <time>2017-10-13T08:58:09Z</time>
      </trkpt>
      <trkpt lat="45.75971" lon="6.54825">
        <ele>1755.2</ele>
        <time>2017-10-13T08:58:13Z</time>
      </trkpt>
      <trkpt lat="45.75975" lon="6.54836">
        <ele>1755.9</ele>
        <time>2017-10-13T08:58:17Z</time>
      </trkpt>
      <trkpt lat="45.75979" lon="6.54849">
        <ele>1756.7</ele>
        <time>2017-10-13T08:58:21Z</time>
      </trkpt>
      <trkpt lat="45.75983" lon="6.54864">
        <ele>1757.3</ele>
        <time>2017-10-13T08:58:25Z</time>
      </trkpt>
      <trkpt lat="45.75988" lon="6.54877">
        <ele>1758.1</ele>
        <time>2017-10-13T08:58:29Z</time>
      </trkpt>
      <trkpt lat="45.75989" lon="6.5489">
        <ele>1758.9</ele>
        <time>2017-10-13T08:58:33Z</time>
      </trkpt>
      <trkpt lat="45.75991" lon="6.54906">
        <ele>1759.9</ele>
        <time>2017-10-13T08:58:38Z</time>
      </trkpt>
      <trkpt lat="45.75991" lon="6.54921">
        <ele>1760.9</ele>
        <time>2017-10-13T08:58:43Z</time>
      </trkpt>
      <trkpt lat="45.7599" lon="6.54935">
        <ele>1761.6</ele>
        <time>2017-10-13T08:58:47Z</time>
      </trkpt>
      <trkpt lat="45.7599" lon="6.54949">
        <ele>1762.6</ele>
        <time>2017-10-13T08:58:52Z</time>
      </trkpt>
      <trkpt lat="45.75989" lon="6.54965">
        <ele>1763.7</ele>
        <time>2017-10-13T08:58:57Z</time>
      </trkpt>
      <trkpt lat="45.7599" lon="6.5498">
        <ele>1764.9</ele>
        <time>2017-10-13T08:59:02Z</time>
      </trkpt>
      <trkpt lat="45.75991" lon="6.54996">
        <ele>1765.8</ele>
        <time>2017-10-13T08:59:07Z</time>
      </trkpt>
      <trkpt lat="45.75994" lon="6.55009">
        <ele>1766.5</ele>
        <time>2017-10-13T08:59:11Z</time>
      </trkpt>
      <trkpt lat="45.75994" lon="6.55022">
        <ele>1767.2</ele>
        <time>2017-10-13T08:59:15Z</time>
      </trkpt>
      <trkpt lat="45.75995" lon="6.55038">
        <ele>1768.3</ele>
        <time>2017-10-13T08:59:20Z</time>
      </trkpt>
      <trkpt lat="45.75995" lon="6.55053">
        <ele>1769.3</ele>
        <time>2017-10-13T08:59:25Z</time>
      </trkpt>
      <trkpt lat="45.75993" lon="6.55069">
        <ele>1770.5</ele>
        <time>2017-10-13T08:59:30Z</time>
      </trkpt>
      <trkpt lat="45.75993" lon="6.55083">
        <ele>1772</ele>
        <time>2017-10-13T08:59:35Z</time>
      </trkpt>
      <trkpt lat="45.75995" lon="6.55097">
        <ele>1773.1</ele>
        <time>2017-10-13T08:59:40Z</time>
      </trkpt>
      <trkpt lat="45.75996" lon="6.55112">
        <ele>1774.6</ele>
        <time>2017-10-13T08:59:45Z</time>
      </trkpt>
      <trkpt lat="45.75995" lon="6.55126">
        <ele>1775.7</ele>
        <time>2017-10-13T08:59:50Z</time>
      </trkpt>
      <trkpt lat="45.75997" lon="6.5514">
        <ele>1776.5</ele>
        <time>2017-10-13T08:59:55Z</time>
      </trkpt>
      <trkpt lat="45.75998" lon="6.55155">
        <ele>1777.5</ele>
        <time>2017-10-13T09:00:00Z</time>
      </trkpt>
      <trkpt lat="45.76002" lon="6.55169">
        <ele>1778.1</ele>
        <time>2017-10-13T09:00:05Z</time>
      </trkpt>
      <trkpt lat="45.76006" lon="6.55181">
        <ele>1778.9</ele>
        <time>2017-10-13T09:00:09Z</time>
      </trkpt>
      <trkpt lat="45.76012" lon="6.55192">
        <ele>1779.7</ele>
        <time>2017-10-13T09:00:13Z</time>
      </trkpt>
      <trkpt lat="45.76019" lon="6.55201">
        <ele>1780.3</ele>
        <time>2017-10-13T09:00:17Z</time>
      </trkpt>
      <trkpt lat="45.76027" lon="6.5521">
        <ele>1781</ele>
        <time>2017-10-13T09:00:21Z</time>
      </trkpt>
      <trkpt lat="45.76034" lon="6.55218">
        <ele>1781.7</ele>
        <time>2017-10-13T09:00:25Z</time>
      </trkpt>
      <trkpt lat="45.7604" lon="6.55228">
        <ele>1782.3</ele>
        <time>2017-10-13T09:00:29Z</time>
      </trkpt>
      <trkpt lat="45.76046" lon="6.55238">
        <ele>1782.8</ele>
        <time>2017-10-13T09:00:33Z</time>
      </trkpt>
      <trkpt lat="45.76051" lon="6.55252">
        <ele>1783.2</ele>
        <time>2017-10-13T09:00:39Z</time>
      </trkpt>
      <trkpt lat="45.76054" lon="6.55267">
        <ele>1783.5</ele>
        <time>2017-10-13T09:00:44Z</time>
      </trkpt>
      <trkpt lat="45.76056" lon="6.55282">
        <ele>1783.6</ele>
        <time>2017-10-13T09:00:48Z</time>
      </trkpt>
      <trkpt lat="45.76054" lon="6.55296">
        <ele>1783.6</ele>
        <time>2017-10-13T09:00:51Z</time>
      </trkpt>
      <trkpt lat="45.76049" lon="6.55311">
        <ele>1783.3</ele>
        <time>2017-10-13T09:00:55Z</time>
      </trkpt>
      <trkpt lat="45.76044" lon="6.55323">
        <ele>1783.4</ele>
        <time>2017-10-13T09:00:58Z</time>
      </trkpt>
      <trkpt lat="45.76039" lon="6.55337">
        <ele>1783.2</ele>
        <time>2017-10-13T09:01:01Z</time>
      </trkpt>
      <trkpt lat="45.76036" lon="6.55353">
        <ele>1783.1</ele>
        <time>2017-10-13T09:01:04Z</time>
      </trkpt>
      <trkpt lat="45.76035" lon="6.55367">
        <ele>1782.8</ele>
        <time>2017-10-13T09:01:08Z</time>
      </trkpt>
      <trkpt lat="45.76036" lon="6.55382">
        <ele>1782.4</ele>
        <time>2017-10-13T09:01:14Z</time>
      </trkpt>
      <trkpt lat="45.76037" lon="6.55396">
        <ele>1782.5</ele>
        <time>2017-10-13T09:01:17Z</time>
      </trkpt>
      <trkpt lat="45.76038" lon="6.55411">
        <ele>1782.5</ele>
        <time>2017-10-13T09:01:20Z</time>
      </trkpt>
      <trkpt lat="45.76039" lon="6.55427">
        <ele>1782.4</ele>
        <time>2017-10-13T09:01:23Z</time>
      </trkpt>
      <trkpt lat="45.76035" lon="6.55442">
        <ele>1782.3</ele>
        <time>2017-10-13T09:01:26Z</time>
      </trkpt>
      <trkpt lat="45.76025" lon="6.55453">
        <ele>1782.1</ele>
        <time>2017-10-13T09:01:29Z</time>
      </trkpt>
      <trkpt lat="45.76017" lon="6.55458">
        <ele>1782</ele>
        <time>2017-10-13T09:01:31Z</time>
      </trkpt>
      <trkpt lat="45.76009" lon="6.55464">
        <ele>1781.9</ele>
        <time>2017-10-13T09:01:33Z</time>
      </trkpt>
      <trkpt lat="45.76002" lon="6.55473">
        <ele>1781.6</ele>
        <time>2017-10-13T09:01:35Z</time>
      </trkpt>
      <trkpt lat="45.75999" lon="6.55487">
        <ele>1781.6</ele>
        <time>2017-10-13T09:01:37Z</time>
      </trkpt>
      <trkpt lat="45.76" lon="6.555">
        <ele>1781.6</ele>
        <time>2017-10-13T09:01:39Z</time>
      </trkpt>
      <trkpt lat="45.76001" lon="6.55519">
        <ele>1781.8</ele>
        <time>2017-10-13T09:01:42Z</time>
      </trkpt>
      <trkpt lat="45.76" lon="6.55537">
        <ele>1781.9</ele>
        <time>2017-10-13T09:01:45Z</time>
      </trkpt>
      <trkpt lat="45.76" lon="6.55556">
        <ele>1782</ele>
        <time>2017-10-13T09:01:48Z</time>
      </trkpt>
      <trkpt lat="45.76" lon="6.5557">
        <ele>1782.1</ele>
        <time>2017-10-13T09:01:50Z</time>
      </trkpt>
      <trkpt lat="45.76002" lon="6.55588">
        <ele>1782.3</ele>
        <time>2017-10-13T09:01:53Z</time>
      </trkpt>
      <trkpt lat="45.76005" lon="6.55606">
        <ele>1782.4</ele>
        <time>2017-10-13T09:01:56Z</time>
      </trkpt>
      <trkpt lat="45.76005" lon="6.55619">
        <ele>1782.5</ele>
        <time>2017-10-13T09:01:58Z</time>
      </trkpt>
      <trkpt lat="45.76006" lon="6.55632">
        <ele>1782.7</ele>
        <time>2017-10-13T09:02:00Z</time>
      </trkpt>
      <trkpt lat="45.76006" lon="6.55645">
        <ele>1782.9</ele>
        <time>2017-10-13T09:02:02Z</time>
      </trkpt>
      <trkpt lat="45.76007" lon="6.55659">
        <ele>1783</ele>
        <time>2017-10-13T09:02:04Z</time>
      </trkpt>
      <trkpt lat="45.76007" lon="6.55677">
        <ele>1783.3</ele>
        <time>2017-10-13T09:02:07Z</time>
      </trkpt>
      <trkpt lat="45.76007" lon="6.55696">
        <ele>1783.5</ele>
        <time>2017-10-13T09:02:10Z</time>
      </trkpt>
      <trkpt lat="45.76002" lon="6.55714">
        <ele>1783.7</ele>
        <time>2017-10-13T09:02:13Z</time>
      </trkpt>
      <trkpt lat="45.75994" lon="6.55726">
        <ele>1783.8</ele>
        <time>2017-10-13T09:02:16Z</time>
      </trkpt>
      <trkpt lat="45.75985" lon="6.55738">
        <ele>1784</ele>
        <time>2017-10-13T09:02:19Z</time>
      </trkpt>
      <trkpt lat="45.75977" lon="6.55751">
        <ele>1784.1</ele>
        <time>2017-10-13T09:02:22Z</time>
      </trkpt>
      <trkpt lat="45.75968" lon="6.55763">
        <ele>1783.9</ele>
        <time>2017-10-13T09:02:25Z</time>
      </trkpt>
      <trkpt lat="45.75959" lon="6.55775">
        <ele>1783.9</ele>
        <time>2017-10-13T09:02:28Z</time>
      </trkpt>
      <trkpt lat="45.75951" lon="6.55789">
        <ele>1784</ele>
        <time>2017-10-13T09:02:31Z</time>
      </trkpt>
      <trkpt lat="45.75945" lon="6.55804">
        <ele>1784</ele>
        <time>2017-10-13T09:02:34Z</time>
      </trkpt>
      <trkpt lat="45.75938" lon="6.55819">
        <ele>1784.1</ele>
        <time>2017-10-13T09:02:37Z</time>
      </trkpt>
      <trkpt lat="45.75931" lon="6.55833">
        <ele>1784.1</ele>
        <time>2017-10-13T09:02:40Z</time>
      </trkpt>
      <trkpt lat="45.75924" lon="6.55849">
        <ele>1784</ele>
        <time>2017-10-13T09:02:43Z</time>
      </trkpt>
      <trkpt lat="45.7592" lon="6.55861">
        <ele>1783.8</ele>
        <time>2017-10-13T09:02:45Z</time>
      </trkpt>
      <trkpt lat="45.75915" lon="6.55878">
        <ele>1783.6</ele>
        <time>2017-10-13T09:02:48Z</time>
      </trkpt>
      <trkpt lat="45.75912" lon="6.55896">
        <ele>1783.3</ele>
        <time>2017-10-13T09:02:51Z</time>
      </trkpt>
      <trkpt lat="45.75909" lon="6.55915">
        <ele>1782.8</ele>
        <time>2017-10-13T09:02:54Z</time>
      </trkpt>
      <trkpt lat="45.75907" lon="6.55928">
        <ele>1782.6</ele>
        <time>2017-10-13T09:02:56Z</time>
      </trkpt>
      <trkpt lat="45.75907" lon="6.55941">
        <ele>1782.5</ele>
        <time>2017-10-13T09:02:58Z</time>
      </trkpt>
      <trkpt lat="45.75909" lon="6.55955">
        <ele>1782.2</ele>
        <time>2017-10-13T09:03:00Z</time>
      </trkpt>
      <trkpt lat="45.75912" lon="6.5597">
        <ele>1782</ele>
        <time>2017-10-13T09:03:02Z</time>
      </trkpt>
      <trkpt lat="45.75916" lon="6.55985">
        <ele>1781.7</ele>
        <time>2017-10-13T09:03:04Z</time>
      </trkpt>
      <trkpt lat="45.75922" lon="6.56001">
        <ele>1781.4</ele>
        <time>2017-10-13T09:03:06Z</time>
      </trkpt>
      <trkpt lat="45.75928" lon="6.56018">
        <ele>1781</ele>
        <time>2017-10-13T09:03:08Z</time>
      </trkpt>
      <trkpt lat="45.75933" lon="6.56035">
        <ele>1780.5</ele>
        <time>2017-10-13T09:03:10Z</time>
      </trkpt>
      <trkpt lat="45.75938" lon="6.56053">
        <ele>1780</ele>
        <time>2017-10-13T09:03:12Z</time>
      </trkpt>
      <trkpt lat="45.75942" lon="6.56073">
        <ele>1779.3</ele>
        <time>2017-10-13T09:03:14Z</time>
      </trkpt>
      <trkpt lat="45.75947" lon="6.56092">
        <ele>1778.8</ele>
        <time>2017-10-13T09:03:16Z</time>
      </trkpt>
      <trkpt lat="45.75949" lon="6.5611">
        <ele>1778.1</ele>
        <time>2017-10-13T09:03:18Z</time>
      </trkpt>
      <trkpt lat="45.75951" lon="6.56127">
        <ele>1777.6</ele>
        <time>2017-10-13T09:03:20Z</time>
      </trkpt>
      <trkpt lat="45.75952" lon="6.56142">
        <ele>1777.3</ele>
        <time>2017-10-13T09:03:22Z</time>
      </trkpt>
      <trkpt lat="45.75953" lon="6.56156">
        <ele>1777.2</ele>
        <time>2017-10-13T09:03:24Z</time>
      </trkpt>
      <trkpt lat="45.75955" lon="6.5617">
        <ele>1777.2</ele>
        <time>2017-10-13T09:03:26Z</time>
      </trkpt>
      <trkpt lat="45.75957" lon="6.56184">
        <ele>1777.2</ele>
        <time>2017-10-13T09:03:28Z</time>
      </trkpt>
      <trkpt lat="45.7596" lon="6.56197">
        <ele>1777.3</ele>
        <time>2017-10-13T09:03:30Z</time>
      </trkpt>
      <trkpt lat="45.75964" lon="6.5621">
        <ele>1777.4</ele>
        <time>2017-10-13T09:03:32Z</time>
      </trkpt>
      <trkpt lat="45.75967" lon="6.56223">
        <ele>1777.4</ele>
        <time>2017-10-13T09:03:34Z</time>
      </trkpt>
      <trkpt lat="45.75971" lon="6.56236">
        <ele>1777.5</ele>
        <time>2017-10-13T09:03:36Z</time>
      </trkpt>
      <trkpt lat="45.75977" lon="6.56254">
        <ele>1777.6</ele>
        <time>2017-10-13T09:03:39Z</time>
      </trkpt>
      <trkpt lat="45.75981" lon="6.56266">
        <ele>1777.8</ele>
        <time>2017-10-13T09:03:41Z</time>
      </trkpt>
      <trkpt lat="45.75985" lon="6.56279">
        <ele>1777.9</ele>
        <time>2017-10-13T09:03:43Z</time>
      </trkpt>
      <trkpt lat="45.75987" lon="6.56294">
        <ele>1778</ele>
        <time>2017-10-13T09:03:45Z</time>
      </trkpt>
      <trkpt lat="45.75989" lon="6.56308">
        <ele>1778.1</ele>
        <time>2017-10-13T09:03:47Z</time>
      </trkpt>
      <trkpt lat="45.7599" lon="6.56322">
        <ele>1778.1</ele>
        <time>2017-10-13T09:03:49Z</time>
      </trkpt>
      <trkpt lat="45.7599" lon="6.56335">
        <ele>1778.1</ele>
        <time>2017-10-13T09:03:51Z</time>
      </trkpt>
      <trkpt lat="45.75992" lon="6.56349">
        <ele>1778.1</ele>
        <time>2017-10-13T09:03:53Z</time>
      </trkpt>
      <trkpt lat="45.75994" lon="6.56362">
        <ele>1778.1</ele>
        <time>2017-10-13T09:03:55Z</time>
      </trkpt>
      <trkpt lat="45.75998" lon="6.56374">
        <ele>1778</ele>
        <time>2017-10-13T09:03:57Z</time>
      </trkpt>
      <trkpt lat="45.76003" lon="6.56392">
        <ele>1777.7</ele>
        <time>2017-10-13T09:04:00Z</time>
      </trkpt>
      <trkpt lat="45.76006" lon="6.56405">
        <ele>1777.7</ele>
        <time>2017-10-13T09:04:02Z</time>
      </trkpt>
      <trkpt lat="45.76009" lon="6.56419">
        <ele>1777.8</ele>
        <time>2017-10-13T09:04:04Z</time>
      </trkpt>
      <trkpt lat="45.76014" lon="6.56432">
        <ele>1777.9</ele>
        <time>2017-10-13T09:04:06Z</time>
      </trkpt>
      <trkpt lat="45.7602" lon="6.56445">
        <ele>1778</ele>
        <time>2017-10-13T09:04:08Z</time>
      </trkpt>
      <trkpt lat="45.76025" lon="6.56456">
        <ele>1778.1</ele>
        <time>2017-10-13T09:04:10Z</time>
      </trkpt>
      <trkpt lat="45.76031" lon="6.56467">
        <ele>1778.1</ele>
        <time>2017-10-13T09:04:12Z</time>
      </trkpt>
      <trkpt lat="45.76036" lon="6.56479">
        <ele>1778.1</ele>
        <time>2017-10-13T09:04:14Z</time>
      </trkpt>
      <trkpt lat="45.76044" lon="6.56495">
        <ele>1778.1</ele>
        <time>2017-10-13T09:04:17Z</time>
      </trkpt>
      <trkpt lat="45.76051" lon="6.56503">
        <ele>1778</ele>
        <time>2017-10-13T09:04:19Z</time>
      </trkpt>
      <trkpt lat="45.7606" lon="6.5651">
        <ele>1777.9</ele>
        <time>2017-10-13T09:04:21Z</time>
      </trkpt>
      <trkpt lat="45.76068" lon="6.56516">
        <ele>1777.9</ele>
        <time>2017-10-13T09:04:23Z</time>
      </trkpt>
      <trkpt lat="45.76076" lon="6.56522">
        <ele>1777.8</ele>
        <time>2017-10-13T09:04:25Z</time>
      </trkpt>
      <trkpt lat="45.76087" lon="6.56531">
        <ele>1777.7</ele>
        <time>2017-10-13T09:04:28Z</time>
      </trkpt>
      <trkpt lat="45.76095" lon="6.56537">
        <ele>1777.8</ele>
        <time>2017-10-13T09:04:30Z</time>
      </trkpt>
      <trkpt lat="45.76102" lon="6.56545">
        <ele>1777.7</ele>
        <time>2017-10-13T09:04:32Z</time>
      </trkpt>
      <trkpt lat="45.7611" lon="6.56556">
        <ele>1777.5</ele>
        <time>2017-10-13T09:04:34Z</time>
      </trkpt>
      <trkpt lat="45.76115" lon="6.56568">
        <ele>1777.5</ele>
        <time>2017-10-13T09:04:36Z</time>
      </trkpt>
      <trkpt lat="45.76121" lon="6.56582">
        <ele>1777.7</ele>
        <time>2017-10-13T09:04:38Z</time>
      </trkpt>
      <trkpt lat="45.76127" lon="6.56595">
        <ele>1777.7</ele>
        <time>2017-10-13T09:04:40Z</time>
      </trkpt>
      <trkpt lat="45.76131" lon="6.56609">
        <ele>1777.6</ele>
        <time>2017-10-13T09:04:42Z</time>
      </trkpt>
      <trkpt lat="45.76135" lon="6.56622">
        <ele>1777.5</ele>
        <time>2017-10-13T09:04:44Z</time>
      </trkpt>
      <trkpt lat="45.7614" lon="6.56636">
        <ele>1777.4</ele>
        <time>2017-10-13T09:04:46Z</time>
      </trkpt>
      <trkpt lat="45.76145" lon="6.56648">
        <ele>1777.3</ele>
        <time>2017-10-13T09:04:48Z</time>
      </trkpt>
      <trkpt lat="45.76153" lon="6.56663">
        <ele>1777.3</ele>
        <time>2017-10-13T09:04:51Z</time>
      </trkpt>
      <trkpt lat="45.76163" lon="6.56674">
        <ele>1777.4</ele>
        <time>2017-10-13T09:04:54Z</time>
      </trkpt>
      <trkpt lat="45.76172" lon="6.56683">
        <ele>1777.5</ele>
        <time>2017-10-13T09:04:57Z</time>
      </trkpt>
      <trkpt lat="45.76183" lon="6.56686">
        <ele>1777.9</ele>
        <time>2017-10-13T09:05:53Z</time>
      </trkpt>
      <trkpt lat="45.76194" lon="6.56695">
        <ele>1778.2</ele>
        <time>2017-10-13T09:05:56Z</time>
      </trkpt>
      <trkpt lat="45.76201" lon="6.56704">
        <ele>1778.3</ele>
        <time>2017-10-13T09:05:58Z</time>
      </trkpt>
      <trkpt lat="45.76209" lon="6.56716">
        <ele>1778.6</ele>
        <time>2017-10-13T09:06:00Z</time>
      </trkpt>
      <trkpt lat="45.76216" lon="6.5673">
        <ele>1778.7</ele>
        <time>2017-10-13T09:06:02Z</time>
      </trkpt>
      <trkpt lat="45.76222" lon="6.56744">
        <ele>1778.8</ele>
        <time>2017-10-13T09:06:04Z</time>
      </trkpt>
      <trkpt lat="45.76229" lon="6.56758">
        <ele>1778.8</ele>
        <time>2017-10-13T09:06:06Z</time>
      </trkpt>
      <trkpt lat="45.76236" lon="6.56772">
        <ele>1778.9</ele>
        <time>2017-10-13T09:06:08Z</time>
      </trkpt>
      <trkpt lat="45.76244" lon="6.56785">
        <ele>1778.9</ele>
        <time>2017-10-13T09:06:10Z</time>
      </trkpt>
      <trkpt lat="45.76253" lon="6.56793">
        <ele>1779.1</ele>
        <time>2017-10-13T09:06:12Z</time>
      </trkpt>
      <trkpt lat="45.76262" lon="6.56801">
        <ele>1779.3</ele>
        <time>2017-10-13T09:06:14Z</time>
      </trkpt>
      <trkpt lat="45.76268" lon="6.56813">
        <ele>1779.4</ele>
        <time>2017-10-13T09:06:16Z</time>
      </trkpt>
      <trkpt lat="45.7627" lon="6.56828">
        <ele>1779.8</ele>
        <time>2017-10-13T09:06:18Z</time>
      </trkpt>
      <trkpt lat="45.76271" lon="6.56846">
        <ele>1780.2</ele>
        <time>2017-10-13T09:06:21Z</time>
      </trkpt>
      <trkpt lat="45.76274" lon="6.5686">
        <ele>1780.5</ele>
        <time>2017-10-13T09:06:24Z</time>
      </trkpt>
      <trkpt lat="45.76282" lon="6.56869">
        <ele>1781</ele>
        <time>2017-10-13T09:06:28Z</time>
      </trkpt>
      <trkpt lat="45.76292" lon="6.56871">
        <ele>1781.5</ele>
        <time>2017-10-13T09:10:00Z</time>
      </trkpt>
      <trkpt lat="45.76302" lon="6.56869">
        <ele>1781.7</ele>
        <time>2017-10-13T09:10:04Z</time>
      </trkpt>
      <trkpt lat="45.76313" lon="6.56867">
        <ele>1782.1</ele>
        <time>2017-10-13T09:10:08Z</time>
      </trkpt>
      <trkpt lat="45.76323" lon="6.56866">
        <ele>1782.5</ele>
        <time>2017-10-13T09:10:11Z</time>
      </trkpt>
      <trkpt lat="45.76332" lon="6.56865">
        <ele>1782.8</ele>
        <time>2017-10-13T09:10:14Z</time>
      </trkpt>
      <trkpt lat="45.76341" lon="6.56866">
        <ele>1782.9</ele>
        <time>2017-10-13T09:10:17Z</time>
      </trkpt>
      <trkpt lat="45.76351" lon="6.56868">
        <ele>1783.2</ele>
        <time>2017-10-13T09:10:20Z</time>
      </trkpt>
      <trkpt lat="45.76361" lon="6.56872">
        <ele>1783.5</ele>
        <time>2017-10-13T09:10:23Z</time>
      </trkpt>
      <trkpt lat="45.76372" lon="6.56877">
        <ele>1783.7</ele>
        <time>2017-10-13T09:10:26Z</time>
      </trkpt>
      <trkpt lat="45.76382" lon="6.56884">
        <ele>1783.9</ele>
        <time>2017-10-13T09:10:29Z</time>
      </trkpt>
      <trkpt lat="45.7639" lon="6.56892">
        <ele>1784.2</ele>
        <time>2017-10-13T09:10:32Z</time>
      </trkpt>
      <trkpt lat="45.76398" lon="6.56902">
        <ele>1784.4</ele>
        <time>2017-10-13T09:10:35Z</time>
      </trkpt>
      <trkpt lat="45.76405" lon="6.56912">
        <ele>1784.6</ele>
        <time>2017-10-13T09:10:38Z</time>
      </trkpt>
      <trkpt lat="45.76414" lon="6.56923">
        <ele>1784.7</ele>
        <time>2017-10-13T09:10:41Z</time>
      </trkpt>
      <trkpt lat="45.76423" lon="6.56933">
        <ele>1784.9</ele>
        <time>2017-10-13T09:10:44Z</time>
      </trkpt>
      <trkpt lat="45.76431" lon="6.5694">
        <ele>1785</ele>
        <time>2017-10-13T09:10:47Z</time>
      </trkpt>
      <trkpt lat="45.76441" lon="6.56947">
        <ele>1785.2</ele>
        <time>2017-10-13T09:10:50Z</time>
      </trkpt>
      <trkpt lat="45.7645" lon="6.56953">
        <ele>1785.4</ele>
        <time>2017-10-13T09:10:53Z</time>
      </trkpt>
      <trkpt lat="45.7646" lon="6.56958">
        <ele>1785.7</ele>
        <time>2017-10-13T09:10:56Z</time>
      </trkpt>
      <trkpt lat="45.7647" lon="6.56961">
        <ele>1785.9</ele>
        <time>2017-10-13T09:10:59Z</time>
      </trkpt>
      <trkpt lat="45.76479" lon="6.56967">
        <ele>1786.1</ele>
        <time>2017-10-13T09:11:02Z</time>
      </trkpt>
      <trkpt lat="45.7649" lon="6.56974">
        <ele>1786.3</ele>
        <time>2017-10-13T09:11:05Z</time>
      </trkpt>
      <trkpt lat="45.76501" lon="6.56982">
        <ele>1786.3</ele>
        <time>2017-10-13T09:11:08Z</time>
      </trkpt>
      <trkpt lat="45.76511" lon="6.56992">
        <ele>1786.2</ele>
        <time>2017-10-13T09:11:11Z</time>
      </trkpt>
      <trkpt lat="45.7652" lon="6.57003">
        <ele>1786.4</ele>
        <time>2017-10-13T09:11:14Z</time>
      </trkpt>
      <trkpt lat="45.76529" lon="6.57013">
        <ele>1786.6</ele>
        <time>2017-10-13T09:11:17Z</time>
      </trkpt>
      <trkpt lat="45.76538" lon="6.57025">
        <ele>1786.6</ele>
        <time>2017-10-13T09:11:20Z</time>
      </trkpt>
      <trkpt lat="45.76546" lon="6.57037">
        <ele>1786.9</ele>
        <time>2017-10-13T09:11:23Z</time>
      </trkpt>
      <trkpt lat="45.76553" lon="6.57051">
        <ele>1787.1</ele>
        <time>2017-10-13T09:11:26Z</time>
      </trkpt>
      <trkpt lat="45.76558" lon="6.57064">
        <ele>1787.5</ele>
        <time>2017-10-13T09:11:29Z</time>
      </trkpt>
      <trkpt lat="45.76565" lon="6.57077">
        <ele>1788.2</ele>
        <time>2017-10-13T09:11:33Z</time>
      </trkpt>
      <trkpt lat="45.76568" lon="6.57089">
        <ele>1788.8</ele>
        <time>2017-10-13T09:11:37Z</time>
      </trkpt>
      <trkpt lat="45.76573" lon="6.57101">
        <ele>1789.4</ele>
        <time>2017-10-13T09:11:41Z</time>
      </trkpt>
      <trkpt lat="45.76578" lon="6.57112">
        <ele>1790.2</ele>
        <time>2017-10-13T09:11:45Z</time>
      </trkpt>
      <trkpt lat="45.76586" lon="6.57122">
        <ele>1791.2</ele>
        <time>2017-10-13T09:11:50Z</time>
      </trkpt>
      <trkpt lat="45.76594" lon="6.57132">
        <ele>1792.2</ele>
        <time>2017-10-13T09:11:55Z</time>
      </trkpt>
      <trkpt lat="45.76601" lon="6.57143">
        <ele>1793.1</ele>
        <time>2017-10-13T09:12:00Z</time>
      </trkpt>
      <trkpt lat="45.76607" lon="6.57154">
        <ele>1793.7</ele>
        <time>2017-10-13T09:12:04Z</time>
      </trkpt>
      <trkpt lat="45.76612" lon="6.57168">
        <ele>1794.6</ele>
        <time>2017-10-13T09:12:09Z</time>
      </trkpt>
      <trkpt lat="45.76616" lon="6.57182">
        <ele>1795.7</ele>
        <time>2017-10-13T09:12:14Z</time>
      </trkpt>
      <trkpt lat="45.76617" lon="6.57196">
        <ele>1796.7</ele>
        <time>2017-10-13T09:12:19Z</time>
      </trkpt>
      <trkpt lat="45.76621" lon="6.5721">
        <ele>1797.6</ele>
        <time>2017-10-13T09:12:24Z</time>
      </trkpt>
      <trkpt lat="45.76626" lon="6.57223">
        <ele>1798.4</ele>
        <time>2017-10-13T09:12:29Z</time>
      </trkpt>
      <trkpt lat="45.7663" lon="6.57237">
        <ele>1799.5</ele>
        <time>2017-10-13T09:12:34Z</time>
      </trkpt>
      <trkpt lat="45.76632" lon="6.57251">
        <ele>1800.4</ele>
        <time>2017-10-13T09:12:39Z</time>
      </trkpt>
      <trkpt lat="45.76633" lon="6.57266">
        <ele>1801.3</ele>
        <time>2017-10-13T09:12:44Z</time>
      </trkpt>
      <trkpt lat="45.76635" lon="6.5728">
        <ele>1802.4</ele>
        <time>2017-10-13T09:12:49Z</time>
      </trkpt>
      <trkpt lat="45.76636" lon="6.57294">
        <ele>1803.4</ele>
        <time>2017-10-13T09:12:54Z</time>
      </trkpt>
      <trkpt lat="45.76637" lon="6.57308">
        <ele>1804.4</ele>
        <time>2017-10-13T09:12:59Z</time>
      </trkpt>
      <trkpt lat="45.76638" lon="6.57324">
        <ele>1805.4</ele>
        <time>2017-10-13T09:13:04Z</time>
      </trkpt>
      <trkpt lat="45.76636" lon="6.57338">
        <ele>1806</ele>
        <time>2017-10-13T09:13:08Z</time>
      </trkpt>
      <trkpt lat="45.76631" lon="6.57351">
        <ele>1806.6</ele>
        <time>2017-10-13T09:13:13Z</time>
      </trkpt>
      <trkpt lat="45.76626" lon="6.57364">
        <ele>1807.4</ele>
        <time>2017-10-13T09:13:18Z</time>
      </trkpt>
      <trkpt lat="45.76624" lon="6.57379">
        <ele>1808.4</ele>
        <time>2017-10-13T09:13:23Z</time>
      </trkpt>
      <trkpt lat="45.76623" lon="6.57393">
        <ele>1809.3</ele>
        <time>2017-10-13T09:13:28Z</time>
      </trkpt>
      <trkpt lat="45.76622" lon="6.57407">
        <ele>1810.5</ele>
        <time>2017-10-13T09:13:33Z</time>
      </trkpt>
      <trkpt lat="45.76621" lon="6.57421">
        <ele>1811.6</ele>
        <time>2017-10-13T09:13:38Z</time>
      </trkpt>
      <trkpt lat="45.7662" lon="6.57435">
        <ele>1812.8</ele>
        <time>2017-10-13T09:13:43Z</time>
      </trkpt>
      <trkpt lat="45.7662" lon="6.57448">
        <ele>1813.5</ele>
        <time>2017-10-13T09:13:48Z</time>
      </trkpt>
      <trkpt lat="45.76619" lon="6.57462">
        <ele>1814.4</ele>
        <time>2017-10-13T09:13:53Z</time>
      </trkpt>
      <trkpt lat="45.7662" lon="6.57476">
        <ele>1815.3</ele>
        <time>2017-10-13T09:13:58Z</time>
      </trkpt>
      <trkpt lat="45.76621" lon="6.57489">
        <ele>1816.3</ele>
        <time>2017-10-13T09:14:03Z</time>
      </trkpt>
      <trkpt lat="45.76624" lon="6.57502">
        <ele>1817.3</ele>
        <time>2017-10-13T09:14:08Z</time>
      </trkpt>
      <trkpt lat="45.76628" lon="6.57516">
        <ele>1818.2</ele>
        <time>2017-10-13T09:14:13Z</time>
      </trkpt>
      <trkpt lat="45.7663" lon="6.57528">
        <ele>1819.2</ele>
        <time>2017-10-13T09:14:18Z</time>
      </trkpt>
      <trkpt lat="45.76632" lon="6.57541">
        <ele>1820.1</ele>
        <time>2017-10-13T09:14:23Z</time>
      </trkpt>
      <trkpt lat="45.76636" lon="6.57553">
        <ele>1821</ele>
        <time>2017-10-13T09:14:28Z</time>
      </trkpt>
      <trkpt lat="45.7664" lon="6.57565">
        <ele>1822.1</ele>
        <time>2017-10-13T09:14:33Z</time>
      </trkpt>
      <trkpt lat="45.76646" lon="6.57577">
        <ele>1823.1</ele>
        <time>2017-10-13T09:14:38Z</time>
      </trkpt>
      <trkpt lat="45.76654" lon="6.57586">
        <ele>1824</ele>
        <time>2017-10-13T09:14:43Z</time>
      </trkpt>
      <trkpt lat="45.76661" lon="6.57595">
        <ele>1824.9</ele>
        <time>2017-10-13T09:14:48Z</time>
      </trkpt>
      <trkpt lat="45.76668" lon="6.57603">
        <ele>1825.8</ele>
        <time>2017-10-13T09:14:53Z</time>
      </trkpt>
      <trkpt lat="45.76676" lon="6.57612">
        <ele>1826.9</ele>
        <time>2017-10-13T09:14:58Z</time>
      </trkpt>
      <trkpt lat="45.76683" lon="6.57621">
        <ele>1827.7</ele>
        <time>2017-10-13T09:15:03Z</time>
      </trkpt>
      <trkpt lat="45.7669" lon="6.5763">
        <ele>1828.5</ele>
        <time>2017-10-13T09:15:08Z</time>
      </trkpt>
      <trkpt lat="45.76698" lon="6.5764">
        <ele>1829.6</ele>
        <time>2017-10-13T09:15:14Z</time>
      </trkpt>
      <trkpt lat="45.76705" lon="6.57648">
        <ele>1830.5</ele>
        <time>2017-10-13T09:15:19Z</time>
      </trkpt>
      <trkpt lat="45.76713" lon="6.57658">
        <ele>1831.7</ele>
        <time>2017-10-13T09:15:25Z</time>
      </trkpt>
      <trkpt lat="45.76722" lon="6.57667">
        <ele>1832.7</ele>
        <time>2017-10-13T09:15:31Z</time>
      </trkpt>
      <trkpt lat="45.7673" lon="6.57673">
        <ele>1833.6</ele>
        <time>2017-10-13T09:15:36Z</time>
      </trkpt>
      <trkpt lat="45.76738" lon="6.57681">
        <ele>1834.7</ele>
        <time>2017-10-13T09:15:42Z</time>
      </trkpt>
      <trkpt lat="45.76747" lon="6.57687">
        <ele>1835.6</ele>
        <time>2017-10-13T09:15:47Z</time>
      </trkpt>
      <trkpt lat="45.76755" lon="6.57694">
        <ele>1836.5</ele>
        <time>2017-10-13T09:15:52Z</time>
      </trkpt>
      <trkpt lat="45.76763" lon="6.577">
        <ele>1837.3</ele>
        <time>2017-10-13T09:15:57Z</time>
      </trkpt>
      <trkpt lat="45.76771" lon="6.57707">
        <ele>1838.1</ele>
        <time>2017-10-13T09:16:02Z</time>
      </trkpt>
      <trkpt lat="45.76779" lon="6.57715">
        <ele>1839</ele>
        <time>2017-10-13T09:16:07Z</time>
      </trkpt>
      <trkpt lat="45.76787" lon="6.57724">
        <ele>1839.9</ele>
        <time>2017-10-13T09:16:12Z</time>
      </trkpt>
      <trkpt lat="45.76793" lon="6.57734">
        <ele>1840.9</ele>
        <time>2017-10-13T09:16:17Z</time>
      </trkpt>
      <trkpt lat="45.76798" lon="6.57746">
        <ele>1841.8</ele>
        <time>2017-10-13T09:16:22Z</time>
      </trkpt>
      <trkpt lat="45.76802" lon="6.5776">
        <ele>1842.7</ele>
        <time>2017-10-13T09:16:27Z</time>
      </trkpt>
      <trkpt lat="45.76805" lon="6.57773">
        <ele>1843.6</ele>
        <time>2017-10-13T09:16:32Z</time>
      </trkpt>
      <trkpt lat="45.76808" lon="6.57786">
        <ele>1844.5</ele>
        <time>2017-10-13T09:16:37Z</time>
      </trkpt>
      <trkpt lat="45.76813" lon="6.57799">
        <ele>1845.8</ele>
        <time>2017-10-13T09:16:43Z</time>
      </trkpt>
      <trkpt lat="45.7682" lon="6.57808">
        <ele>1847</ele>
        <time>2017-10-13T09:16:48Z</time>
      </trkpt>
      <trkpt lat="45.76826" lon="6.57818">
        <ele>1848</ele>
        <time>2017-10-13T09:16:53Z</time>
      </trkpt>
      <trkpt lat="45.76833" lon="6.5783">
        <ele>1849.1</ele>
        <time>2017-10-13T09:16:59Z</time>
      </trkpt>
      <trkpt lat="45.76839" lon="6.57842">
        <ele>1850</ele>
        <time>2017-10-13T09:17:04Z</time>
      </trkpt>
      <trkpt lat="45.76843" lon="6.57855">
        <ele>1851</ele>
        <time>2017-10-13T09:17:09Z</time>
      </trkpt>
      <trkpt lat="45.76846" lon="6.57869">
        <ele>1851.9</ele>
        <time>2017-10-13T09:17:14Z</time>
      </trkpt>
      <trkpt lat="45.7685" lon="6.57883">
        <ele>1852.8</ele>
        <time>2017-10-13T09:17:19Z</time>
      </trkpt>
      <trkpt lat="45.76853" lon="6.57897">
        <ele>1853.7</ele>
        <time>2017-10-13T09:17:24Z</time>
      </trkpt>
      <trkpt lat="45.76855" lon="6.57911">
        <ele>1854.7</ele>
        <time>2017-10-13T09:17:29Z</time>
      </trkpt>
      <trkpt lat="45.76855" lon="6.57925">
        <ele>1855.7</ele>
        <time>2017-10-13T09:17:34Z</time>
      </trkpt>
      <trkpt lat="45.76856" lon="6.57938">
        <ele>1856.7</ele>
        <time>2017-10-13T09:17:39Z</time>
      </trkpt>
      <trkpt lat="45.76857" lon="6.57952">
        <ele>1857.7</ele>
        <time>2017-10-13T09:17:44Z</time>
      </trkpt>
      <trkpt lat="45.76858" lon="6.57965">
        <ele>1858.9</ele>
        <time>2017-10-13T09:17:49Z</time>
      </trkpt>
      <trkpt lat="45.76858" lon="6.57978">
        <ele>1860.2</ele>
        <time>2017-10-13T09:17:54Z</time>
      </trkpt>
      <trkpt lat="45.76859" lon="6.57992">
        <ele>1861.3</ele>
        <time>2017-10-13T09:17:59Z</time>
      </trkpt>
      <trkpt lat="45.76859" lon="6.58005">
        <ele>1862.4</ele>
        <time>2017-10-13T09:18:04Z</time>
      </trkpt>
      <trkpt lat="45.76859" lon="6.58018">
        <ele>1863.5</ele>
        <time>2017-10-13T09:18:09Z</time>
      </trkpt>
      <trkpt lat="45.76859" lon="6.58033">
        <ele>1864.9</ele>
        <time>2017-10-13T09:18:15Z</time>
      </trkpt>
      <trkpt lat="45.76859" lon="6.58046">
        <ele>1865.9</ele>
        <time>2017-10-13T09:18:20Z</time>
      </trkpt>
      <trkpt lat="45.76858" lon="6.58062">
        <ele>1867.2</ele>
        <time>2017-10-13T09:18:26Z</time>
      </trkpt>
      <trkpt lat="45.76858" lon="6.58075">
        <ele>1868.2</ele>
        <time>2017-10-13T09:18:31Z</time>
      </trkpt>
      <trkpt lat="45.76858" lon="6.58088">
        <ele>1869.2</ele>
        <time>2017-10-13T09:18:36Z</time>
      </trkpt>
      <trkpt lat="45.76859" lon="6.58104">
        <ele>1870.2</ele>
        <time>2017-10-13T09:18:41Z</time>
      </trkpt>
      <trkpt lat="45.76861" lon="6.58117">
        <ele>1871.1</ele>
        <time>2017-10-13T09:18:46Z</time>
      </trkpt>
      <trkpt lat="45.76863" lon="6.58131">
        <ele>1871.9</ele>
        <time>2017-10-13T09:18:51Z</time>
      </trkpt>
      <trkpt lat="45.76866" lon="6.58145">
        <ele>1872.8</ele>
        <time>2017-10-13T09:18:56Z</time>
      </trkpt>
      <trkpt lat="45.76868" lon="6.5816">
        <ele>1873.7</ele>
        <time>2017-10-13T09:19:01Z</time>
      </trkpt>
      <trkpt lat="45.7687" lon="6.58174">
        <ele>1874.6</ele>
        <time>2017-10-13T09:19:06Z</time>
      </trkpt>
      <trkpt lat="45.76871" lon="6.58189">
        <ele>1875.6</ele>
        <time>2017-10-13T09:19:11Z</time>
      </trkpt>
      <trkpt lat="45.76871" lon="6.58204">
        <ele>1876.7</ele>
        <time>2017-10-13T09:19:16Z</time>
      </trkpt>
      <trkpt lat="45.76871" lon="6.5822">
        <ele>1878</ele>
        <time>2017-10-13T09:19:21Z</time>
      </trkpt>
      <trkpt lat="45.76872" lon="6.58234">
        <ele>1879.2</ele>
        <time>2017-10-13T09:19:26Z</time>
      </trkpt>
      <trkpt lat="45.76873" lon="6.58249">
        <ele>1880.4</ele>
        <time>2017-10-13T09:19:31Z</time>
      </trkpt>
      <trkpt lat="45.76875" lon="6.58264">
        <ele>1881.8</ele>
        <time>2017-10-13T09:19:36Z</time>
      </trkpt>
      <trkpt lat="45.76877" lon="6.58279">
        <ele>1882.8</ele>
        <time>2017-10-13T09:19:41Z</time>
      </trkpt>
      <trkpt lat="45.7688" lon="6.58294">
        <ele>1883.3</ele>
        <time>2017-10-13T09:19:46Z</time>
      </trkpt>
      <trkpt lat="45.76883" lon="6.58307">
        <ele>1883.9</ele>
        <time>2017-10-13T09:19:51Z</time>
      </trkpt>
      <trkpt lat="45.76887" lon="6.5832">
        <ele>1884.7</ele>
        <time>2017-10-13T09:19:56Z</time>
      </trkpt>
      <trkpt lat="45.76892" lon="6.58334">
        <ele>1885.7</ele>
        <time>2017-10-13T09:20:01Z</time>
      </trkpt>
      <trkpt lat="45.76896" lon="6.58348">
        <ele>1886.8</ele>
        <time>2017-10-13T09:20:06Z</time>
      </trkpt>
      <trkpt lat="45.769" lon="6.58361">
        <ele>1887.8</ele>
        <time>2017-10-13T09:20:11Z</time>
      </trkpt>
      <trkpt lat="45.76906" lon="6.58374">
        <ele>1888.7</ele>
        <time>2017-10-13T09:20:16Z</time>
      </trkpt>
      <trkpt lat="45.76911" lon="6.58386">
        <ele>1889.7</ele>
        <time>2017-10-13T09:20:21Z</time>
      </trkpt>
      <trkpt lat="45.76916" lon="6.58399">
        <ele>1890.6</ele>
        <time>2017-10-13T09:20:26Z</time>
      </trkpt>
      <trkpt lat="45.76922" lon="6.5841">
        <ele>1891.9</ele>
        <time>2017-10-13T09:20:31Z</time>
      </trkpt>
      <trkpt lat="45.76927" lon="6.58421">
        <ele>1893</ele>
        <time>2017-10-13T09:20:36Z</time>
      </trkpt>
      <trkpt lat="45.76932" lon="6.58433">
        <ele>1894.2</ele>
        <time>2017-10-13T09:20:41Z</time>
      </trkpt>
      <trkpt lat="45.76938" lon="6.58444">
        <ele>1895</ele>
        <time>2017-10-13T09:20:46Z</time>
      </trkpt>
      <trkpt lat="45.76942" lon="6.58457">
        <ele>1895.9</ele>
        <time>2017-10-13T09:20:51Z</time>
      </trkpt>
      <trkpt lat="45.76948" lon="6.58469">
        <ele>1896.3</ele>
        <time>2017-10-13T09:20:56Z</time>
      </trkpt>
      <trkpt lat="45.76953" lon="6.58483">
        <ele>1897.1</ele>
        <time>2017-10-13T09:21:01Z</time>
      </trkpt>
      <trkpt lat="45.76958" lon="6.58496">
        <ele>1898</ele>
        <time>2017-10-13T09:21:06Z</time>
      </trkpt>
      <trkpt lat="45.76962" lon="6.58507">
        <ele>1898.7</ele>
        <time>2017-10-13T09:21:10Z</time>
      </trkpt>
      <trkpt lat="45.76968" lon="6.58521">
        <ele>1899.5</ele>
        <time>2017-10-13T09:21:15Z</time>
      </trkpt>
      <trkpt lat="45.76974" lon="6.58533">
        <ele>1900.3</ele>
        <time>2017-10-13T09:21:20Z</time>
      </trkpt>
      <trkpt lat="45.7698" lon="6.58546">
        <ele>1901.3</ele>
        <time>2017-10-13T09:21:25Z</time>
      </trkpt>
      <trkpt lat="45.76985" lon="6.58557">
        <ele>1902.3</ele>
        <time>2017-10-13T09:21:30Z</time>
      </trkpt>
      <trkpt lat="45.76991" lon="6.58569">
        <ele>1903.4</ele>
        <time>2017-10-13T09:21:35Z</time>
      </trkpt>
      <trkpt lat="45.76998" lon="6.5858">
        <ele>1904.1</ele>
        <time>2017-10-13T09:21:40Z</time>
      </trkpt>
      <trkpt lat="45.77005" lon="6.58591">
        <ele>1905</ele>
        <time>2017-10-13T09:21:45Z</time>
      </trkpt>
      <trkpt lat="45.77011" lon="6.58602">
        <ele>1906</ele>
        <time>2017-10-13T09:21:50Z</time>
      </trkpt>
      <trkpt lat="45.77018" lon="6.58613">
        <ele>1907.5</ele>
        <time>2017-10-13T09:21:56Z</time>
      </trkpt>
      <trkpt lat="45.77025" lon="6.58625">
        <ele>1908.7</ele>
        <time>2017-10-13T09:22:02Z</time>
      </trkpt>
      <trkpt lat="45.7703" lon="6.58636">
        <ele>1909.8</ele>
        <time>2017-10-13T09:22:07Z</time>
      </trkpt>
      <trkpt lat="45.77035" lon="6.58647">
        <ele>1911</ele>
        <time>2017-10-13T09:22:12Z</time>
      </trkpt>
      <trkpt lat="45.7704" lon="6.5866">
        <ele>1912</ele>
        <time>2017-10-13T09:22:17Z</time>
      </trkpt>
      <trkpt lat="45.77046" lon="6.58673">
        <ele>1913.1</ele>
        <time>2017-10-13T09:22:23Z</time>
      </trkpt>
      <trkpt lat="45.7705" lon="6.58685">
        <ele>1914</ele>
        <time>2017-10-13T09:22:28Z</time>
      </trkpt>
      <trkpt lat="45.77053" lon="6.58697">
        <ele>1915.1</ele>
        <time>2017-10-13T09:22:33Z</time>
      </trkpt>
      <trkpt lat="45.77057" lon="6.5871">
        <ele>1916.1</ele>
        <time>2017-10-13T09:22:38Z</time>
      </trkpt>
      <trkpt lat="45.7706" lon="6.58723">
        <ele>1917</ele>
        <time>2017-10-13T09:22:43Z</time>
      </trkpt>
      <trkpt lat="45.77063" lon="6.58735">
        <ele>1918</ele>
        <time>2017-10-13T09:22:48Z</time>
      </trkpt>
      <trkpt lat="45.77067" lon="6.58748">
        <ele>1919</ele>
        <time>2017-10-13T09:22:53Z</time>
      </trkpt>
      <trkpt lat="45.7707" lon="6.5876">
        <ele>1920</ele>
        <time>2017-10-13T09:22:58Z</time>
      </trkpt>
      <trkpt lat="45.77075" lon="6.58772">
        <ele>1920.9</ele>
        <time>2017-10-13T09:23:03Z</time>
      </trkpt>
      <trkpt lat="45.7708" lon="6.58783">
        <ele>1921.8</ele>
        <time>2017-10-13T09:23:08Z</time>
      </trkpt>
      <trkpt lat="45.77086" lon="6.58795">
        <ele>1922.8</ele>
        <time>2017-10-13T09:23:13Z</time>
      </trkpt>
      <trkpt lat="45.77091" lon="6.58808">
        <ele>1923.7</ele>
        <time>2017-10-13T09:23:18Z</time>
      </trkpt>
      <trkpt lat="45.77096" lon="6.5882">
        <ele>1924.7</ele>
        <time>2017-10-13T09:23:23Z</time>
      </trkpt>
      <trkpt lat="45.77102" lon="6.58832">
        <ele>1925.7</ele>
        <time>2017-10-13T09:23:28Z</time>
      </trkpt>
      <trkpt lat="45.77108" lon="6.58843">
        <ele>1926.6</ele>
        <time>2017-10-13T09:23:33Z</time>
      </trkpt>
      <trkpt lat="45.77115" lon="6.58855">
        <ele>1927.6</ele>
        <time>2017-10-13T09:23:38Z</time>
      </trkpt>
      <trkpt lat="45.77122" lon="6.58866">
        <ele>1928.5</ele>
        <time>2017-10-13T09:23:43Z</time>
      </trkpt>
      <trkpt lat="45.77128" lon="6.58876">
        <ele>1929.2</ele>
        <time>2017-10-13T09:23:47Z</time>
      </trkpt>
      <trkpt lat="45.77136" lon="6.58887">
        <ele>1930.2</ele>
        <time>2017-10-13T09:23:52Z</time>
      </trkpt>
      <trkpt lat="45.77145" lon="6.58896">
        <ele>1930.9</ele>
        <time>2017-10-13T09:23:57Z</time>
      </trkpt>
      <trkpt lat="45.77154" lon="6.58904">
        <ele>1931.8</ele>
        <time>2017-10-13T09:24:02Z</time>
      </trkpt>
      <trkpt lat="45.77163" lon="6.58911">
        <ele>1932.6</ele>
        <time>2017-10-13T09:24:07Z</time>
      </trkpt>
      <trkpt lat="45.77173" lon="6.5892">
        <ele>1933.3</ele>
        <time>2017-10-13T09:24:12Z</time>
      </trkpt>
      <trkpt lat="45.77179" lon="6.5893">
        <ele>1933.9</ele>
        <time>2017-10-13T09:24:16Z</time>
      </trkpt>
      <trkpt lat="45.77186" lon="6.58942">
        <ele>1934.4</ele>
        <time>2017-10-13T09:24:20Z</time>
      </trkpt>
      <trkpt lat="45.77192" lon="6.58955">
        <ele>1935.1</ele>
        <time>2017-10-13T09:24:24Z</time>
      </trkpt>
      <trkpt lat="45.772" lon="6.58968">
        <ele>1935.5</ele>
        <time>2017-10-13T09:24:28Z</time>
      </trkpt>
      <trkpt lat="45.77207" lon="6.58977">
        <ele>1935.8</ele>
        <time>2017-10-13T09:24:31Z</time>
      </trkpt>
      <trkpt lat="45.77215" lon="6.58989">
        <ele>1936.4</ele>
        <time>2017-10-13T09:24:35Z</time>
      </trkpt>
      <trkpt lat="45.77221" lon="6.58999">
        <ele>1936.7</ele>
        <time>2017-10-13T09:24:38Z</time>
      </trkpt>
      <trkpt lat="45.77228" lon="6.59012">
        <ele>1937.2</ele>
        <time>2017-10-13T09:24:42Z</time>
      </trkpt>
      <trkpt lat="45.77235" lon="6.59025">
        <ele>1937.7</ele>
        <time>2017-10-13T09:24:46Z</time>
      </trkpt>
      <trkpt lat="45.77241" lon="6.59037">
        <ele>1938.2</ele>
        <time>2017-10-13T09:24:50Z</time>
      </trkpt>
      <trkpt lat="45.77248" lon="6.5905">
        <ele>1938.6</ele>
        <time>2017-10-13T09:24:54Z</time>
      </trkpt>
      <trkpt lat="45.77255" lon="6.59064">
        <ele>1938.9</ele>
        <time>2017-10-13T09:24:58Z</time>
      </trkpt>
      <trkpt lat="45.7726" lon="6.59075">
        <ele>1939.2</ele>
        <time>2017-10-13T09:25:01Z</time>
      </trkpt>
      <trkpt lat="45.77267" lon="6.59084">
        <ele>1939.3</ele>
        <time>2017-10-13T09:25:04Z</time>
      </trkpt>
      <trkpt lat="45.77273" lon="6.59095">
        <ele>1939.4</ele>
        <time>2017-10-13T09:25:07Z</time>
      </trkpt>
      <trkpt lat="45.77279" lon="6.59106">
        <ele>1939.7</ele>
        <time>2017-10-13T09:25:10Z</time>
      </trkpt>
      <trkpt lat="45.77286" lon="6.59115">
        <ele>1939.9</ele>
        <time>2017-10-13T09:25:13Z</time>
      </trkpt>
      <trkpt lat="45.77292" lon="6.59125">
        <ele>1940.2</ele>
        <time>2017-10-13T09:25:16Z</time>
      </trkpt>
      <trkpt lat="45.77301" lon="6.59134">
        <ele>1940.3</ele>
        <time>2017-10-13T09:25:19Z</time>
      </trkpt>
      <trkpt lat="45.7731" lon="6.59142">
        <ele>1940.4</ele>
        <time>2017-10-13T09:25:22Z</time>
      </trkpt>
      <trkpt lat="45.7732" lon="6.59148">
        <ele>1940.6</ele>
        <time>2017-10-13T09:25:25Z</time>
      </trkpt>
      <trkpt lat="45.7733" lon="6.59152">
        <ele>1940.8</ele>
        <time>2017-10-13T09:25:28Z</time>
      </trkpt>
      <trkpt lat="45.77339" lon="6.59156">
        <ele>1941</ele>
        <time>2017-10-13T09:25:31Z</time>
      </trkpt>
      <trkpt lat="45.77348" lon="6.59163">
        <ele>1941.1</ele>
        <time>2017-10-13T09:25:34Z</time>
      </trkpt>
      <trkpt lat="45.77357" lon="6.59174">
        <ele>1941.3</ele>
        <time>2017-10-13T09:25:37Z</time>
      </trkpt>
      <trkpt lat="45.77365" lon="6.59186">
        <ele>1941.4</ele>
        <time>2017-10-13T09:25:40Z</time>
      </trkpt>
      <trkpt lat="45.77372" lon="6.59196">
        <ele>1941.5</ele>
        <time>2017-10-13T09:25:43Z</time>
      </trkpt>
      <trkpt lat="45.77381" lon="6.59204">
        <ele>1941.7</ele>
        <time>2017-10-13T09:25:46Z</time>
      </trkpt>
      <trkpt lat="45.77393" lon="6.59208">
        <ele>1941.8</ele>
        <time>2017-10-13T09:25:49Z</time>
      </trkpt>
      <trkpt lat="45.77404" lon="6.59209">
        <ele>1942</ele>
        <time>2017-10-13T09:25:52Z</time>
      </trkpt>
      <trkpt lat="45.77415" lon="6.59207">
        <ele>1942.3</ele>
        <time>2017-10-13T09:25:55Z</time>
      </trkpt>
      <trkpt lat="45.77425" lon="6.59205">
        <ele>1942.5</ele>
        <time>2017-10-13T09:25:58Z</time>
      </trkpt>
      <trkpt lat="45.77435" lon="6.59202">
        <ele>1942.9</ele>
        <time>2017-10-13T09:26:01Z</time>
      </trkpt>
      <trkpt lat="45.77446" lon="6.59198">
        <ele>1943.3</ele>
        <time>2017-10-13T09:26:04Z</time>
      </trkpt>
      <trkpt lat="45.77457" lon="6.59195">
        <ele>1943.5</ele>
        <time>2017-10-13T09:26:07Z</time>
      </trkpt>
      <trkpt lat="45.77467" lon="6.59192">
        <ele>1943.8</ele>
        <time>2017-10-13T09:26:10Z</time>
      </trkpt>
      <trkpt lat="45.77478" lon="6.59191">
        <ele>1944</ele>
        <time>2017-10-13T09:26:13Z</time>
      </trkpt>
      <trkpt lat="45.77489" lon="6.59194">
        <ele>1944.2</ele>
        <time>2017-10-13T09:26:16Z</time>
      </trkpt>
      <trkpt lat="45.775" lon="6.59198">
        <ele>1944.3</ele>
        <time>2017-10-13T09:26:19Z</time>
      </trkpt>
      <trkpt lat="45.7751" lon="6.59209">
        <ele>1944.4</ele>
        <time>2017-10-13T09:26:22Z</time>
      </trkpt>
      <trkpt lat="45.77518" lon="6.59219">
        <ele>1944.7</ele>
        <time>2017-10-13T09:26:25Z</time>
      </trkpt>
      <trkpt lat="45.77528" lon="6.59228">
        <ele>1945</ele>
        <time>2017-10-13T09:26:28Z</time>
      </trkpt>
      <trkpt lat="45.77538" lon="6.59238">
        <ele>1945.2</ele>
        <time>2017-10-13T09:26:31Z</time>
      </trkpt>
      <trkpt lat="45.77549" lon="6.59248">
        <ele>1945.3</ele>
        <time>2017-10-13T09:26:34Z</time>
      </trkpt>
      <trkpt lat="45.77559" lon="6.59255">
        <ele>1945.6</ele>
        <time>2017-10-13T09:26:37Z</time>
      </trkpt>
      <trkpt lat="45.77568" lon="6.59261">
        <ele>1946</ele>
        <time>2017-10-13T09:26:40Z</time>
      </trkpt>
      <trkpt lat="45.77577" lon="6.59267">
        <ele>1946.6</ele>
        <time>2017-10-13T09:26:43Z</time>
      </trkpt>
      <trkpt lat="45.77587" lon="6.59273">
        <ele>1947.4</ele>
        <time>2017-10-13T09:26:47Z</time>
      </trkpt>
      <trkpt lat="45.77596" lon="6.5928">
        <ele>1948.2</ele>
        <time>2017-10-13T09:26:51Z</time>
      </trkpt>
      <trkpt lat="45.77605" lon="6.59283">
        <ele>1949.1</ele>
        <time>2017-10-13T09:26:55Z</time>
      </trkpt>
      <trkpt lat="45.77615" lon="6.59285">
        <ele>1950.3</ele>
        <time>2017-10-13T09:27:00Z</time>
      </trkpt>
      <trkpt lat="45.77626" lon="6.59286">
        <ele>1951.4</ele>
        <time>2017-10-13T09:27:05Z</time>
      </trkpt>
      <trkpt lat="45.77636" lon="6.59288">
        <ele>1952.6</ele>
        <time>2017-10-13T09:27:10Z</time>
      </trkpt>
      <trkpt lat="45.77645" lon="6.59296">
        <ele>1953.7</ele>
        <time>2017-10-13T09:27:15Z</time>
      </trkpt>
      <trkpt lat="45.77652" lon="6.59307">
        <ele>1954.3</ele>
        <time>2017-10-13T09:27:19Z</time>
      </trkpt>
      <trkpt lat="45.77659" lon="6.59319">
        <ele>1954.6</ele>
        <time>2017-10-13T09:27:23Z</time>
      </trkpt>
      <trkpt lat="45.77664" lon="6.59335">
        <ele>1954.7</ele>
        <time>2017-10-13T09:27:27Z</time>
      </trkpt>
      <trkpt lat="45.7767" lon="6.5935">
        <ele>1954.8</ele>
        <time>2017-10-13T09:27:30Z</time>
      </trkpt>
      <trkpt lat="45.77675" lon="6.59364">
        <ele>1954.8</ele>
        <time>2017-10-13T09:27:33Z</time>
      </trkpt>
      <trkpt lat="45.77681" lon="6.59377">
        <ele>1954.6</ele>
        <time>2017-10-13T09:27:36Z</time>
      </trkpt>
      <trkpt lat="45.77688" lon="6.5939">
        <ele>1954.5</ele>
        <time>2017-10-13T09:27:39Z</time>
      </trkpt>
      <trkpt lat="45.77699" lon="6.594">
        <ele>1954.3</ele>
        <time>2017-10-13T09:27:42Z</time>
      </trkpt>
      <trkpt lat="45.77706" lon="6.59408">
        <ele>1954.1</ele>
        <time>2017-10-13T09:27:44Z</time>
      </trkpt>
      <trkpt lat="45.77714" lon="6.59416">
        <ele>1953.9</ele>
        <time>2017-10-13T09:27:46Z</time>
      </trkpt>
      <trkpt lat="45.77723" lon="6.59423">
        <ele>1953.8</ele>
        <time>2017-10-13T09:27:48Z</time>
      </trkpt>
      <trkpt lat="45.77731" lon="6.59428">
        <ele>1953.6</ele>
        <time>2017-10-13T09:27:50Z</time>
      </trkpt>
      <trkpt lat="45.77741" lon="6.59434">
        <ele>1953.5</ele>
        <time>2017-10-13T09:27:52Z</time>
      </trkpt>
      <trkpt lat="45.7775" lon="6.59441">
        <ele>1953.4</ele>
        <time>2017-10-13T09:27:54Z</time>
      </trkpt>
      <trkpt lat="45.77758" lon="6.59448">
        <ele>1953.3</ele>
        <time>2017-10-13T09:27:56Z</time>
      </trkpt>
      <trkpt lat="45.77767" lon="6.59455">
        <ele>1953</ele>
        <time>2017-10-13T09:27:58Z</time>
      </trkpt>
      <trkpt lat="45.77778" lon="6.5946">
        <ele>1952.8</ele>
        <time>2017-10-13T09:28:00Z</time>
      </trkpt>
      <trkpt lat="45.7779" lon="6.59463">
        <ele>1952.5</ele>
        <time>2017-10-13T09:28:02Z</time>
      </trkpt>
      <trkpt lat="45.77802" lon="6.59466">
        <ele>1952</ele>
        <time>2017-10-13T09:28:04Z</time>
      </trkpt>
      <trkpt lat="45.77814" lon="6.59475">
        <ele>1951.7</ele>
        <time>2017-10-13T09:28:06Z</time>
      </trkpt>
      <trkpt lat="45.77824" lon="6.59486">
        <ele>1951.3</ele>
        <time>2017-10-13T09:28:08Z</time>
      </trkpt>
      <trkpt lat="45.77834" lon="6.59498">
        <ele>1951</ele>
        <time>2017-10-13T09:28:10Z</time>
      </trkpt>
      <trkpt lat="45.77843" lon="6.5951">
        <ele>1950.7</ele>
        <time>2017-10-13T09:28:12Z</time>
      </trkpt>
      <trkpt lat="45.77851" lon="6.5952">
        <ele>1950.5</ele>
        <time>2017-10-13T09:28:14Z</time>
      </trkpt>
      <trkpt lat="45.7786" lon="6.5953">
        <ele>1950.3</ele>
        <time>2017-10-13T09:28:16Z</time>
      </trkpt>
      <trkpt lat="45.77868" lon="6.59538">
        <ele>1950</ele>
        <time>2017-10-13T09:28:18Z</time>
      </trkpt>
      <trkpt lat="45.77874" lon="6.59547">
        <ele>1948.9</ele>
        <time>2017-10-13T09:28:23Z</time>
      </trkpt>
      <trkpt lat="45.7788" lon="6.59561">
        <ele>1948</ele>
        <time>2017-10-13T09:29:34Z</time>
      </trkpt>
      <trkpt lat="45.77886" lon="6.59579">
        <ele>1947.8</ele>
        <time>2017-10-13T09:29:37Z</time>
      </trkpt>
      <trkpt lat="45.7789" lon="6.59594">
        <ele>1947.5</ele>
        <time>2017-10-13T09:29:39Z</time>
      </trkpt>
      <trkpt lat="45.77896" lon="6.59608">
        <ele>1947.1</ele>
        <time>2017-10-13T09:29:41Z</time>
      </trkpt>
      <trkpt lat="45.77904" lon="6.59622">
        <ele>1946.5</ele>
        <time>2017-10-13T09:29:43Z</time>
      </trkpt>
      <trkpt lat="45.77914" lon="6.59637">
        <ele>1945.5</ele>
        <time>2017-10-13T09:29:45Z</time>
      </trkpt>
      <trkpt lat="45.77927" lon="6.59651">
        <ele>1944.4</ele>
        <time>2017-10-13T09:29:47Z</time>
      </trkpt>
      <trkpt lat="45.7794" lon="6.59665">
        <ele>1943.3</ele>
        <time>2017-10-13T09:29:49Z</time>
      </trkpt>
      <trkpt lat="45.77955" lon="6.59673">
        <ele>1942</ele>
        <time>2017-10-13T09:29:51Z</time>
      </trkpt>
      <trkpt lat="45.77973" lon="6.59677">
        <ele>1940.7</ele>
        <time>2017-10-13T09:29:53Z</time>
      </trkpt>
      <trkpt lat="45.77988" lon="6.59674">
        <ele>1939.3</ele>
        <time>2017-10-13T09:29:55Z</time>
      </trkpt>
      <trkpt lat="45.78004" lon="6.59664">
        <ele>1938</ele>
        <time>2017-10-13T09:29:57Z</time>
      </trkpt>
      <trkpt lat="45.7802" lon="6.59656">
        <ele>1936.8</ele>
        <time>2017-10-13T09:29:59Z</time>
      </trkpt>
      <trkpt lat="45.78036" lon="6.59659">
        <ele>1935.4</ele>
        <time>2017-10-13T09:30:01Z</time>
      </trkpt>
      <trkpt lat="45.78052" lon="6.59668">
        <ele>1933.8</ele>
        <time>2017-10-13T09:30:03Z</time>
      </trkpt>
      <trkpt lat="45.78068" lon="6.5967">
        <ele>1931.9</ele>
        <time>2017-10-13T09:30:05Z</time>
      </trkpt>
      <trkpt lat="45.78084" lon="6.59667">
        <ele>1930</ele>
        <time>2017-10-13T09:30:07Z</time>
      </trkpt>
      <trkpt lat="45.78101" lon="6.59671">
        <ele>1928.3</ele>
        <time>2017-10-13T09:30:09Z</time>
      </trkpt>
      <trkpt lat="45.7811" lon="6.59675">
        <ele>1927.6</ele>
        <time>2017-10-13T09:30:10Z</time>
      </trkpt>
      <trkpt lat="45.78119" lon="6.59681">
        <ele>1926.8</ele>
        <time>2017-10-13T09:30:11Z</time>
      </trkpt>
      <trkpt lat="45.78126" lon="6.59688">
        <ele>1926</ele>
        <time>2017-10-13T09:30:12Z</time>
      </trkpt>
      <trkpt lat="45.78134" lon="6.59697">
        <ele>1925.1</ele>
        <time>2017-10-13T09:30:13Z</time>
      </trkpt>
      <trkpt lat="45.7814" lon="6.59707">
        <ele>1924.3</ele>
        <time>2017-10-13T09:30:14Z</time>
      </trkpt>
      <trkpt lat="45.78148" lon="6.59717">
        <ele>1923.3</ele>
        <time>2017-10-13T09:30:15Z</time>
      </trkpt>
      <trkpt lat="45.78155" lon="6.59728">
        <ele>1922.3</ele>
        <time>2017-10-13T09:30:16Z</time>
      </trkpt>
      <trkpt lat="45.78162" lon="6.5974">
        <ele>1921.4</ele>
        <time>2017-10-13T09:30:17Z</time>
      </trkpt>
      <trkpt lat="45.78171" lon="6.59751">
        <ele>1920.5</ele>
        <time>2017-10-13T09:30:18Z</time>
      </trkpt>
      <trkpt lat="45.7818" lon="6.59762">
        <ele>1919.6</ele>
        <time>2017-10-13T09:30:19Z</time>
      </trkpt>
      <trkpt lat="45.7819" lon="6.59774">
        <ele>1918.5</ele>
        <time>2017-10-13T09:30:20Z</time>
      </trkpt>
      <trkpt lat="45.78199" lon="6.59786">
        <ele>1917.4</ele>
        <time>2017-10-13T09:30:21Z</time>
      </trkpt>
      <trkpt lat="45.78207" lon="6.59799">
        <ele>1916.4</ele>
        <time>2017-10-13T09:30:22Z</time>
      </trkpt>
      <trkpt lat="45.78215" lon="6.59812">
        <ele>1915.5</ele>
        <time>2017-10-13T09:30:23Z</time>
      </trkpt>
      <trkpt lat="45.78224" lon="6.59823">
        <ele>1914.7</ele>
        <time>2017-10-13T09:30:24Z</time>
      </trkpt>
      <trkpt lat="45.78233" lon="6.59833">
        <ele>1913.9</ele>
        <time>2017-10-13T09:30:25Z</time>
      </trkpt>
      <trkpt lat="45.78242" lon="6.59841">
        <ele>1913.1</ele>
        <time>2017-10-13T09:30:26Z</time>
      </trkpt>
      <trkpt lat="45.78252" lon="6.59846">
        <ele>1912.4</ele>
        <time>2017-10-13T09:30:27Z</time>
      </trkpt>
      <trkpt lat="45.78261" lon="6.59852">
        <ele>1911.8</ele>
        <time>2017-10-13T09:30:28Z</time>
      </trkpt>
      <trkpt lat="45.78271" lon="6.59857">
        <ele>1911.4</ele>
        <time>2017-10-13T09:30:29Z</time>
      </trkpt>
      <trkpt lat="45.78281" lon="6.59861">
        <ele>1911</ele>
        <time>2017-10-13T09:30:30Z</time>
      </trkpt>
      <trkpt lat="45.7829" lon="6.59863">
        <ele>1910.6</ele>
        <time>2017-10-13T09:30:31Z</time>
      </trkpt>
      <trkpt lat="45.78307" lon="6.5987">
        <ele>1909.8</ele>
        <time>2017-10-13T09:30:33Z</time>
      </trkpt>
      <trkpt lat="45.78322" lon="6.59876">
        <ele>1909.2</ele>
        <time>2017-10-13T09:30:35Z</time>
      </trkpt>
      <trkpt lat="45.78335" lon="6.5988">
        <ele>1908.5</ele>
        <time>2017-10-13T09:30:37Z</time>
      </trkpt>
      <trkpt lat="45.78347" lon="6.59882">
        <ele>1908.4</ele>
        <time>2017-10-13T09:30:39Z</time>
      </trkpt>
      <trkpt lat="45.7836" lon="6.59881">
        <ele>1908.3</ele>
        <time>2017-10-13T09:30:41Z</time>
      </trkpt>
      <trkpt lat="45.78372" lon="6.59879">
        <ele>1908.4</ele>
        <time>2017-10-13T09:30:43Z</time>
      </trkpt>
      <trkpt lat="45.78383" lon="6.59878">
        <ele>1908.6</ele>
        <time>2017-10-13T09:30:45Z</time>
      </trkpt>
      <trkpt lat="45.78393" lon="6.59879">
        <ele>1908.8</ele>
        <time>2017-10-13T09:30:47Z</time>
      </trkpt>
      <trkpt lat="45.78402" lon="6.59881">
        <ele>1909.1</ele>
        <time>2017-10-13T09:30:49Z</time>
      </trkpt>
      <trkpt lat="45.78412" lon="6.59882">
        <ele>1909.5</ele>
        <time>2017-10-13T09:30:51Z</time>
      </trkpt>
      <trkpt lat="45.78421" lon="6.59883">
        <ele>1909.9</ele>
        <time>2017-10-13T09:30:53Z</time>
      </trkpt>
      <trkpt lat="45.78434" lon="6.59882">
        <ele>1910.6</ele>
        <time>2017-10-13T09:30:56Z</time>
      </trkpt>
      <trkpt lat="45.78446" lon="6.59882">
        <ele>1910.9</ele>
        <time>2017-10-13T09:30:59Z</time>
      </trkpt>
      <trkpt lat="45.78459" lon="6.59885">
        <ele>1911.2</ele>
        <time>2017-10-13T09:31:02Z</time>
      </trkpt>
      <trkpt lat="45.78468" lon="6.59888">
        <ele>1911.3</ele>
        <time>2017-10-13T09:31:04Z</time>
      </trkpt>
      <trkpt lat="45.7848" lon="6.59894">
        <ele>1911.5</ele>
        <time>2017-10-13T09:31:07Z</time>
      </trkpt>
      <trkpt lat="45.78491" lon="6.59902">
        <ele>1911.7</ele>
        <time>2017-10-13T09:31:10Z</time>
      </trkpt>
      <trkpt lat="45.78501" lon="6.5991">
        <ele>1911.9</ele>
        <time>2017-10-13T09:31:13Z</time>
      </trkpt>
      <trkpt lat="45.78511" lon="6.59917">
        <ele>1912.2</ele>
        <time>2017-10-13T09:31:16Z</time>
      </trkpt>
      <trkpt lat="45.78522" lon="6.59922">
        <ele>1912.7</ele>
        <time>2017-10-13T09:31:19Z</time>
      </trkpt>
      <trkpt lat="45.78534" lon="6.59926">
        <ele>1913</ele>
        <time>2017-10-13T09:31:22Z</time>
      </trkpt>
      <trkpt lat="45.78547" lon="6.59928">
        <ele>1912.9</ele>
        <time>2017-10-13T09:31:25Z</time>
      </trkpt>
      <trkpt lat="45.78557" lon="6.59929">
        <ele>1912.8</ele>
        <time>2017-10-13T09:31:27Z</time>
      </trkpt>
      <trkpt lat="45.78568" lon="6.59932">
        <ele>1912.7</ele>
        <time>2017-10-13T09:31:29Z</time>
      </trkpt>
      <trkpt lat="45.78579" lon="6.59935">
        <ele>1912.6</ele>
        <time>2017-10-13T09:31:31Z</time>
      </trkpt>
      <trkpt lat="45.7859" lon="6.59939">
        <ele>1912.3</ele>
        <time>2017-10-13T09:31:33Z</time>
      </trkpt>
      <trkpt lat="45.78601" lon="6.59944">
        <ele>1912.1</ele>
        <time>2017-10-13T09:31:35Z</time>
      </trkpt>
      <trkpt lat="45.78612" lon="6.59948">
        <ele>1911.9</ele>
        <time>2017-10-13T09:31:37Z</time>
      </trkpt>
      <trkpt lat="45.78622" lon="6.59951">
        <ele>1911.7</ele>
        <time>2017-10-13T09:31:39Z</time>
      </trkpt>
      <trkpt lat="45.78632" lon="6.59955">
        <ele>1911.6</ele>
        <time>2017-10-13T09:31:41Z</time>
      </trkpt>
      <trkpt lat="45.78642" lon="6.59958">
        <ele>1911.7</ele>
        <time>2017-10-13T09:31:43Z</time>
      </trkpt>
      <trkpt lat="45.78651" lon="6.59963">
        <ele>1911.6</ele>
        <time>2017-10-13T09:31:45Z</time>
      </trkpt>
      <trkpt lat="45.78662" lon="6.5997">
        <ele>1911.4</ele>
        <time>2017-10-13T09:31:47Z</time>
      </trkpt>
      <trkpt lat="45.78673" lon="6.59976">
        <ele>1911.3</ele>
        <time>2017-10-13T09:31:49Z</time>
      </trkpt>
      <trkpt lat="45.78683" lon="6.59985">
        <ele>1911.1</ele>
        <time>2017-10-13T09:31:51Z</time>
      </trkpt>
      <trkpt lat="45.78693" lon="6.59993">
        <ele>1911</ele>
        <time>2017-10-13T09:31:53Z</time>
      </trkpt>
      <trkpt lat="45.78702" lon="6.60001">
        <ele>1911.1</ele>
        <time>2017-10-13T09:31:55Z</time>
      </trkpt>
      <trkpt lat="45.78711" lon="6.6001">
        <ele>1911.1</ele>
        <time>2017-10-13T09:31:57Z</time>
      </trkpt>
      <trkpt lat="45.78719" lon="6.60019">
        <ele>1911.2</ele>
        <time>2017-10-13T09:31:59Z</time>
      </trkpt>
      <trkpt lat="45.78728" lon="6.60026">
        <ele>1911.4</ele>
        <time>2017-10-13T09:32:01Z</time>
      </trkpt>
      <trkpt lat="45.78737" lon="6.6003">
        <ele>1911.6</ele>
        <time>2017-10-13T09:32:03Z</time>
      </trkpt>
      <trkpt lat="45.78747" lon="6.60034">
        <ele>1911.8</ele>
        <time>2017-10-13T09:32:05Z</time>
      </trkpt>
      <trkpt lat="45.78756" lon="6.60038">
        <ele>1912</ele>
        <time>2017-10-13T09:32:07Z</time>
      </trkpt>
      <trkpt lat="45.78765" lon="6.60047">
        <ele>1912.6</ele>
        <time>2017-10-13T09:32:10Z</time>
      </trkpt>
      <trkpt lat="45.78773" lon="6.60056">
        <ele>1913.1</ele>
        <time>2017-10-13T09:32:13Z</time>
      </trkpt>
      <trkpt lat="45.7878" lon="6.60064">
        <ele>1913.7</ele>
        <time>2017-10-13T09:32:16Z</time>
      </trkpt>
      <trkpt lat="45.78787" lon="6.60072">
        <ele>1914.4</ele>
        <time>2017-10-13T09:32:19Z</time>
      </trkpt>
      <trkpt lat="45.78795" lon="6.60079">
        <ele>1915.1</ele>
        <time>2017-10-13T09:32:22Z</time>
      </trkpt>
      <trkpt lat="45.78804" lon="6.60085">
        <ele>1915.4</ele>
        <time>2017-10-13T09:32:25Z</time>
      </trkpt>
      <trkpt lat="45.78813" lon="6.60091">
        <ele>1915.9</ele>
        <time>2017-10-13T09:32:28Z</time>
      </trkpt>
      <trkpt lat="45.78822" lon="6.60096">
        <ele>1916.2</ele>
        <time>2017-10-13T09:32:31Z</time>
      </trkpt>
      <trkpt lat="45.7883" lon="6.60101">
        <ele>1916.4</ele>
        <time>2017-10-13T09:32:34Z</time>
      </trkpt>
      <trkpt lat="45.7884" lon="6.60106">
        <ele>1916.7</ele>
        <time>2017-10-13T09:32:37Z</time>
      </trkpt>
      <trkpt lat="45.7885" lon="6.60111">
        <ele>1916.9</ele>
        <time>2017-10-13T09:32:40Z</time>
      </trkpt>
      <trkpt lat="45.78863" lon="6.60115">
        <ele>1916.9</ele>
        <time>2017-10-13T09:32:43Z</time>
      </trkpt>
      <trkpt lat="45.78876" lon="6.60121">
        <ele>1916.9</ele>
        <time>2017-10-13T09:32:46Z</time>
      </trkpt>
      <trkpt lat="45.78887" lon="6.6013">
        <ele>1916.8</ele>
        <time>2017-10-13T09:32:49Z</time>
      </trkpt>
      <trkpt lat="45.78895" lon="6.60145">
        <ele>1916.8</ele>
        <time>2017-10-13T09:32:52Z</time>
      </trkpt>
      <trkpt lat="45.789" lon="6.60156">
        <ele>1916.8</ele>
        <time>2017-10-13T09:32:54Z</time>
      </trkpt>
      <trkpt lat="45.78905" lon="6.60174">
        <ele>1916.9</ele>
        <time>2017-10-13T09:32:57Z</time>
      </trkpt>
      <trkpt lat="45.78914" lon="6.60186">
        <ele>1916.9</ele>
        <time>2017-10-13T09:33:00Z</time>
      </trkpt>
      <trkpt lat="45.78925" lon="6.60195">
        <ele>1917.1</ele>
        <time>2017-10-13T09:33:03Z</time>
      </trkpt>
      <trkpt lat="45.78936" lon="6.60204">
        <ele>1917.3</ele>
        <time>2017-10-13T09:33:06Z</time>
      </trkpt>
      <trkpt lat="45.78948" lon="6.60212">
        <ele>1917.4</ele>
        <time>2017-10-13T09:33:09Z</time>
      </trkpt>
      <trkpt lat="45.7896" lon="6.60221">
        <ele>1917.4</ele>
        <time>2017-10-13T09:33:12Z</time>
      </trkpt>
      <trkpt lat="45.78968" lon="6.60226">
        <ele>1917.4</ele>
        <time>2017-10-13T09:33:14Z</time>
      </trkpt>
      <trkpt lat="45.78979" lon="6.60236">
        <ele>1917.4</ele>
        <time>2017-10-13T09:33:17Z</time>
      </trkpt>
      <trkpt lat="45.78986" lon="6.60244">
        <ele>1917.6</ele>
        <time>2017-10-13T09:33:19Z</time>
      </trkpt>
      <trkpt lat="45.78996" lon="6.60257">
        <ele>1917.7</ele>
        <time>2017-10-13T09:33:22Z</time>
      </trkpt>
      <trkpt lat="45.79005" lon="6.60268">
        <ele>1918.1</ele>
        <time>2017-10-13T09:33:25Z</time>
      </trkpt>
      <trkpt lat="45.79013" lon="6.60279">
        <ele>1918.5</ele>
        <time>2017-10-13T09:33:28Z</time>
      </trkpt>
      <trkpt lat="45.79021" lon="6.60289">
        <ele>1918.9</ele>
        <time>2017-10-13T09:33:31Z</time>
      </trkpt>
      <trkpt lat="45.7903" lon="6.60299">
        <ele>1919.2</ele>
        <time>2017-10-13T09:33:34Z</time>
      </trkpt>
      <trkpt lat="45.79038" lon="6.60308">
        <ele>1919.7</ele>
        <time>2017-10-13T09:33:37Z</time>
      </trkpt>
      <trkpt lat="45.79046" lon="6.60318">
        <ele>1920</ele>
        <time>2017-10-13T09:33:40Z</time>
      </trkpt>
      <trkpt lat="45.79052" lon="6.60329">
        <ele>1920.4</ele>
        <time>2017-10-13T09:33:43Z</time>
      </trkpt>
      <trkpt lat="45.79058" lon="6.6034">
        <ele>1920.7</ele>
        <time>2017-10-13T09:33:46Z</time>
      </trkpt>
      <trkpt lat="45.79064" lon="6.60352">
        <ele>1921.2</ele>
        <time>2017-10-13T09:33:49Z</time>
      </trkpt>
      <trkpt lat="45.79067" lon="6.60364">
        <ele>1921.7</ele>
        <time>2017-10-13T09:33:52Z</time>
      </trkpt>
      <trkpt lat="45.7907" lon="6.60377">
        <ele>1922.1</ele>
        <time>2017-10-13T09:33:55Z</time>
      </trkpt>
      <trkpt lat="45.79072" lon="6.6039">
        <ele>1922.6</ele>
        <time>2017-10-13T09:33:58Z</time>
      </trkpt>
      <trkpt lat="45.79073" lon="6.60406">
        <ele>1923</ele>
        <time>2017-10-13T09:34:02Z</time>
      </trkpt>
      <trkpt lat="45.79076" lon="6.60421">
        <ele>1923.7</ele>
        <time>2017-10-13T09:34:06Z</time>
      </trkpt>
      <trkpt lat="45.7908" lon="6.60435">
        <ele>1924.6</ele>
        <time>2017-10-13T09:34:10Z</time>
      </trkpt>
      <trkpt lat="45.79086" lon="6.60447">
        <ele>1925.3</ele>
        <time>2017-10-13T09:34:14Z</time>
      </trkpt>
      <trkpt lat="45.79093" lon="6.60459">
        <ele>1926</ele>
        <time>2017-10-13T09:34:18Z</time>
      </trkpt>
      <trkpt lat="45.791" lon="6.6047">
        <ele>1926.7</ele>
        <time>2017-10-13T09:34:22Z</time>
      </trkpt>
      <trkpt lat="45.79107" lon="6.60481">
        <ele>1927.2</ele>
        <time>2017-10-13T09:34:26Z</time>
      </trkpt>
      <trkpt lat="45.79115" lon="6.60493">
        <ele>1927.6</ele>
        <time>2017-10-13T09:34:30Z</time>
      </trkpt>
      <trkpt lat="45.79124" lon="6.60502">
        <ele>1928.1</ele>
        <time>2017-10-13T09:34:34Z</time>
      </trkpt>
      <trkpt lat="45.79133" lon="6.60507">
        <ele>1928.3</ele>
        <time>2017-10-13T09:34:37Z</time>
      </trkpt>
      <trkpt lat="45.79141" lon="6.60513">
        <ele>1928.6</ele>
        <time>2017-10-13T09:34:40Z</time>
      </trkpt>
      <trkpt lat="45.79149" lon="6.60522">
        <ele>1928.9</ele>
        <time>2017-10-13T09:34:43Z</time>
      </trkpt>
      <trkpt lat="45.79154" lon="6.60535">
        <ele>1929.2</ele>
        <time>2017-10-13T09:34:46Z</time>
      </trkpt>
      <trkpt lat="45.79159" lon="6.60549">
        <ele>1929.4</ele>
        <time>2017-10-13T09:34:49Z</time>
      </trkpt>
      <trkpt lat="45.79166" lon="6.60561">
        <ele>1929.5</ele>
        <time>2017-10-13T09:34:52Z</time>
      </trkpt>
      <trkpt lat="45.79174" lon="6.60573">
        <ele>1929.4</ele>
        <time>2017-10-13T09:34:55Z</time>
      </trkpt>
      <trkpt lat="45.7918" lon="6.60588">
        <ele>1929.4</ele>
        <time>2017-10-13T09:34:58Z</time>
      </trkpt>
      <trkpt lat="45.79184" lon="6.60605">
        <ele>1929.6</ele>
        <time>2017-10-13T09:35:01Z</time>
      </trkpt>
      <trkpt lat="45.79186" lon="6.60621">
        <ele>1929.7</ele>
        <time>2017-10-13T09:35:04Z</time>
      </trkpt>
      <trkpt lat="45.7919" lon="6.60637">
        <ele>1929.8</ele>
        <time>2017-10-13T09:35:07Z</time>
      </trkpt>
      <trkpt lat="45.79194" lon="6.60654">
        <ele>1929.9</ele>
        <time>2017-10-13T09:35:10Z</time>
      </trkpt>
      <trkpt lat="45.79201" lon="6.6067">
        <ele>1929.8</ele>
        <time>2017-10-13T09:35:13Z</time>
      </trkpt>
      <trkpt lat="45.7921" lon="6.60684">
        <ele>1929.8</ele>
        <time>2017-10-13T09:35:16Z</time>
      </trkpt>
      <trkpt lat="45.79218" lon="6.60692">
        <ele>1929.6</ele>
        <time>2017-10-13T09:35:18Z</time>
      </trkpt>
      <trkpt lat="45.79226" lon="6.607">
        <ele>1929.3</ele>
        <time>2017-10-13T09:35:20Z</time>
      </trkpt>
      <trkpt lat="45.79235" lon="6.60707">
        <ele>1928.9</ele>
        <time>2017-10-13T09:35:22Z</time>
      </trkpt>
      <trkpt lat="45.79244" lon="6.60719">
        <ele>1929</ele>
        <time>2017-10-13T09:35:25Z</time>
      </trkpt>
      <trkpt lat="45.79253" lon="6.60728">
        <ele>1929.5</ele>
        <time>2017-10-13T09:35:28Z</time>
      </trkpt>
      <trkpt lat="45.7926" lon="6.60735">
        <ele>1930.2</ele>
        <time>2017-10-13T09:35:31Z</time>
      </trkpt>
      <trkpt lat="45.7927" lon="6.60743">
        <ele>1931.1</ele>
        <time>2017-10-13T09:35:35Z</time>
      </trkpt>
      <trkpt lat="45.79279" lon="6.60748">
        <ele>1931.9</ele>
        <time>2017-10-13T09:35:39Z</time>
      </trkpt>
      <trkpt lat="45.79289" lon="6.60752">
        <ele>1932.7</ele>
        <time>2017-10-13T09:35:43Z</time>
      </trkpt>
      <trkpt lat="45.79299" lon="6.60757">
        <ele>1933.7</ele>
        <time>2017-10-13T09:35:47Z</time>
      </trkpt>
      <trkpt lat="45.79307" lon="6.60762">
        <ele>1934.5</ele>
        <time>2017-10-13T09:35:51Z</time>
      </trkpt>
      <trkpt lat="45.79315" lon="6.60771">
        <ele>1935.3</ele>
        <time>2017-10-13T09:35:55Z</time>
      </trkpt>
      <trkpt lat="45.79323" lon="6.60783">
        <ele>1936.6</ele>
        <time>2017-10-13T09:36:00Z</time>
      </trkpt>
      <trkpt lat="45.79326" lon="6.60796">
        <ele>1939.4</ele>
        <time>2017-10-13T09:37:06Z</time>
      </trkpt>
      <trkpt lat="45.7933" lon="6.60809">
        <ele>1940</ele>
        <time>2017-10-13T09:37:10Z</time>
      </trkpt>
      <trkpt lat="45.79334" lon="6.60822">
        <ele>1940.7</ele>
        <time>2017-10-13T09:37:13Z</time>
      </trkpt>
      <trkpt lat="45.79339" lon="6.60837">
        <ele>1941.6</ele>
        <time>2017-10-13T09:37:17Z</time>
      </trkpt>
      <trkpt lat="45.79345" lon="6.60851">
        <ele>1942.6</ele>
        <time>2017-10-13T09:37:21Z</time>
      </trkpt>
      <trkpt lat="45.79351" lon="6.60865">
        <ele>1943.5</ele>
        <time>2017-10-13T09:37:25Z</time>
      </trkpt>
      <trkpt lat="45.79356" lon="6.60876">
        <ele>1944.3</ele>
        <time>2017-10-13T09:37:29Z</time>
      </trkpt>
      <trkpt lat="45.79363" lon="6.60886">
        <ele>1944.9</ele>
        <time>2017-10-13T09:37:33Z</time>
      </trkpt>
      <trkpt lat="45.79371" lon="6.60892">
        <ele>1945.7</ele>
        <time>2017-10-13T09:37:37Z</time>
      </trkpt>
      <trkpt lat="45.79378" lon="6.60902">
        <ele>1946.5</ele>
        <time>2017-10-13T09:37:41Z</time>
      </trkpt>
      <trkpt lat="45.79385" lon="6.6091">
        <ele>1947.4</ele>
        <time>2017-10-13T09:37:45Z</time>
      </trkpt>
      <trkpt lat="45.79392" lon="6.60919">
        <ele>1948</ele>
        <time>2017-10-13T09:37:49Z</time>
      </trkpt>
      <trkpt lat="45.794" lon="6.60927">
        <ele>1948.7</ele>
        <time>2017-10-13T09:37:53Z</time>
      </trkpt>
      <trkpt lat="45.79409" lon="6.60936">
        <ele>1949.4</ele>
        <time>2017-10-13T09:37:57Z</time>
      </trkpt>
      <trkpt lat="45.79417" lon="6.60944">
        <ele>1949.9</ele>
        <time>2017-10-13T09:38:01Z</time>
      </trkpt>
      <trkpt lat="45.79424" lon="6.60955">
        <ele>1950.4</ele>
        <time>2017-10-13T09:38:05Z</time>
      </trkpt>
      <trkpt lat="45.79431" lon="6.60964">
        <ele>1951.2</ele>
        <time>2017-10-13T09:38:09Z</time>
      </trkpt>
      <trkpt lat="45.79441" lon="6.60972">
        <ele>1951.9</ele>
        <time>2017-10-13T09:38:14Z</time>
      </trkpt>
      <trkpt lat="45.7945" lon="6.60981">
        <ele>1952.7</ele>
        <time>2017-10-13T09:38:19Z</time>
      </trkpt>
      <trkpt lat="45.79457" lon="6.6099">
        <ele>1953.7</ele>
        <time>2017-10-13T09:38:24Z</time>
      </trkpt>
      <trkpt lat="45.79463" lon="6.61004">
        <ele>1954.8</ele>
        <time>2017-10-13T09:38:30Z</time>
      </trkpt>
      <trkpt lat="45.7947" lon="6.61013">
        <ele>1955.9</ele>
        <time>2017-10-13T09:38:35Z</time>
      </trkpt>
      <trkpt lat="45.79476" lon="6.61022">
        <ele>1956.9</ele>
        <time>2017-10-13T09:38:40Z</time>
      </trkpt>
      <trkpt lat="45.79485" lon="6.61032">
        <ele>1957.7</ele>
        <time>2017-10-13T09:38:46Z</time>
      </trkpt>
      <trkpt lat="45.79493" lon="6.61041">
        <ele>1958.4</ele>
        <time>2017-10-13T09:38:51Z</time>
      </trkpt>
      <trkpt lat="45.79501" lon="6.6105">
        <ele>1959.3</ele>
        <time>2017-10-13T09:38:56Z</time>
      </trkpt>
      <trkpt lat="45.79508" lon="6.6106">
        <ele>1960.6</ele>
        <time>2017-10-13T09:39:02Z</time>
      </trkpt>
      <trkpt lat="45.79517" lon="6.61066">
        <ele>1961.9</ele>
        <time>2017-10-13T09:39:08Z</time>
      </trkpt>
      <trkpt lat="45.79526" lon="6.61072">
        <ele>1962.5</ele>
        <time>2017-10-13T09:39:13Z</time>
      </trkpt>
      <trkpt lat="45.79534" lon="6.61075">
        <ele>1962.8</ele>
        <time>2017-10-13T09:39:17Z</time>
      </trkpt>
      <trkpt lat="45.79544" lon="6.61079">
        <ele>1962.9</ele>
        <time>2017-10-13T09:39:21Z</time>
      </trkpt>
      <trkpt lat="45.79553" lon="6.61084">
        <ele>1963.2</ele>
        <time>2017-10-13T09:39:25Z</time>
      </trkpt>
      <trkpt lat="45.79561" lon="6.6109">
        <ele>1963.3</ele>
        <time>2017-10-13T09:39:29Z</time>
      </trkpt>
      <trkpt lat="45.7957" lon="6.61096">
        <ele>1963.7</ele>
        <time>2017-10-13T09:39:33Z</time>
      </trkpt>
      <trkpt lat="45.79569" lon="6.61082">
        <ele>1964.4</ele>
        <time>2017-10-13T09:39:45Z</time>
      </trkpt>
      <trkpt lat="45.79564" lon="6.6107">
        <ele>1965.2</ele>
        <time>2017-10-13T09:39:50Z</time>
      </trkpt>
      <trkpt lat="45.7956" lon="6.61059">
        <ele>1965.9</ele>
        <time>2017-10-13T09:39:55Z</time>
      </trkpt>
      <trkpt lat="45.79553" lon="6.61049">
        <ele>1966.5</ele>
        <time>2017-10-13T09:40:00Z</time>
      </trkpt>
      <trkpt lat="45.79547" lon="6.61038">
        <ele>1967.5</ele>
        <time>2017-10-13T09:40:06Z</time>
      </trkpt>
      <trkpt lat="45.79543" lon="6.61025">
        <ele>1968</ele>
        <time>2017-10-13T09:40:12Z</time>
      </trkpt>
      <trkpt lat="45.79539" lon="6.61011">
        <ele>1968.6</ele>
        <time>2017-10-13T09:40:18Z</time>
      </trkpt>
      <trkpt lat="45.79536" lon="6.60998">
        <ele>1970</ele>
        <time>2017-10-13T09:40:24Z</time>
      </trkpt>
      <trkpt lat="45.79534" lon="6.60986">
        <ele>1971.5</ele>
        <time>2017-10-13T09:40:30Z</time>
      </trkpt>
      <trkpt lat="45.79533" lon="6.60972">
        <ele>1973.3</ele>
        <time>2017-10-13T09:40:36Z</time>
      </trkpt>
      <trkpt lat="45.79531" lon="6.60959">
        <ele>1975.5</ele>
        <time>2017-10-13T09:40:42Z</time>
      </trkpt>
      <trkpt lat="45.79531" lon="6.60945">
        <ele>1977.9</ele>
        <time>2017-10-13T09:40:51Z</time>
      </trkpt>
      <trkpt lat="45.7953" lon="6.60931">
        <ele>1979.8</ele>
        <time>2017-10-13T09:41:00Z</time>
      </trkpt>
      <trkpt lat="45.79531" lon="6.60917">
        <ele>1981</ele>
        <time>2017-10-13T09:41:09Z</time>
      </trkpt>
      <trkpt lat="45.79532" lon="6.60903">
        <ele>1982.6</ele>
        <time>2017-10-13T09:41:38Z</time>
      </trkpt>
      <trkpt lat="45.79531" lon="6.6089">
        <ele>1984.5</ele>
        <time>2017-10-13T09:41:47Z</time>
      </trkpt>
      <trkpt lat="45.79533" lon="6.60876">
        <ele>1986.4</ele>
        <time>2017-10-13T09:41:58Z</time>
      </trkpt>
      <trkpt lat="45.79534" lon="6.60862">
        <ele>1989.2</ele>
        <time>2017-10-13T09:42:10Z</time>
      </trkpt>
      <trkpt lat="45.79535" lon="6.60848">
        <ele>1992.7</ele>
        <time>2017-10-13T09:42:23Z</time>
      </trkpt>
      <trkpt lat="45.79535" lon="6.60835">
        <ele>1995.9</ele>
        <time>2017-10-13T09:42:34Z</time>
      </trkpt>
      <trkpt lat="45.79537" lon="6.60822">
        <ele>1999.1</ele>
        <time>2017-10-13T09:42:49Z</time>
      </trkpt>
      <trkpt lat="45.79541" lon="6.6081">
        <ele>2001.1</ele>
        <time>2017-10-13T09:43:01Z</time>
      </trkpt>
      <trkpt lat="45.79546" lon="6.60799">
        <ele>2002.1</ele>
        <time>2017-10-13T09:43:06Z</time>
      </trkpt>
      <trkpt lat="45.79549" lon="6.60785">
        <ele>2003.8</ele>
        <time>2017-10-13T09:43:14Z</time>
      </trkpt>
      <trkpt lat="45.79553" lon="6.60772">
        <ele>2005.4</ele>
        <time>2017-10-13T09:43:22Z</time>
      </trkpt>
      <trkpt lat="45.79555" lon="6.60758">
        <ele>2006.5</ele>
        <time>2017-10-13T09:43:30Z</time>
      </trkpt>
      <trkpt lat="45.79555" lon="6.60744">
        <ele>2007.4</ele>
        <time>2017-10-13T09:43:37Z</time>
      </trkpt>
      <trkpt lat="45.79556" lon="6.6073">
        <ele>2007.7</ele>
        <time>2017-10-13T09:43:43Z</time>
      </trkpt>
      <trkpt lat="45.79558" lon="6.60716">
        <ele>2008.6</ele>
        <time>2017-10-13T09:43:50Z</time>
      </trkpt>
      <trkpt lat="45.7956" lon="6.60702">
        <ele>2009.7</ele>
        <time>2017-10-13T09:43:56Z</time>
      </trkpt>
      <trkpt lat="45.79561" lon="6.60689">
        <ele>2010.5</ele>
        <time>2017-10-13T09:44:02Z</time>
      </trkpt>
      <trkpt lat="45.79563" lon="6.60676">
        <ele>2011.1</ele>
        <time>2017-10-13T09:44:07Z</time>
      </trkpt>
      <trkpt lat="45.79563" lon="6.60663">
        <ele>2011.7</ele>
        <time>2017-10-13T09:44:13Z</time>
      </trkpt>
      <trkpt lat="45.79564" lon="6.60648">
        <ele>2012.2</ele>
        <time>2017-10-13T09:44:20Z</time>
      </trkpt>
      <trkpt lat="45.79565" lon="6.60635">
        <ele>2012.8</ele>
        <time>2017-10-13T09:44:26Z</time>
      </trkpt>
      <trkpt lat="45.79566" lon="6.60622">
        <ele>2014.6</ele>
        <time>2017-10-13T09:44:45Z</time>
      </trkpt>
      <trkpt lat="45.79567" lon="6.60609">
        <ele>2017.2</ele>
        <time>2017-10-13T09:44:56Z</time>
      </trkpt>
      <trkpt lat="45.7957" lon="6.60595">
        <ele>2020</ele>
        <time>2017-10-13T09:45:09Z</time>
      </trkpt>
      <trkpt lat="45.79572" lon="6.60583">
        <ele>2023.2</ele>
        <time>2017-10-13T09:45:23Z</time>
      </trkpt>
      <trkpt lat="45.79574" lon="6.6057">
        <ele>2026.1</ele>
        <time>2017-10-13T09:45:35Z</time>
      </trkpt>
      <trkpt lat="45.79577" lon="6.60558">
        <ele>2028.5</ele>
        <time>2017-10-13T09:45:48Z</time>
      </trkpt>
      <trkpt lat="45.7958" lon="6.60544">
        <ele>2030.7</ele>
        <time>2017-10-13T09:45:59Z</time>
      </trkpt>
      <trkpt lat="45.79583" lon="6.60531">
        <ele>2033.1</ele>
        <time>2017-10-13T09:46:10Z</time>
      </trkpt>
      <trkpt lat="45.79585" lon="6.60518">
        <ele>2034.4</ele>
        <time>2017-10-13T09:46:20Z</time>
      </trkpt>
      <trkpt lat="45.79585" lon="6.60505">
        <ele>2036.3</ele>
        <time>2017-10-13T09:46:30Z</time>
      </trkpt>
      <trkpt lat="45.79586" lon="6.60492">
        <ele>2039.8</ele>
        <time>2017-10-13T09:46:44Z</time>
      </trkpt>
      <trkpt lat="45.79587" lon="6.60477">
        <ele>2042.5</ele>
        <time>2017-10-13T09:46:58Z</time>
      </trkpt>
      <trkpt lat="45.79587" lon="6.60463">
        <ele>2042.8</ele>
        <time>2017-10-13T09:47:10Z</time>
      </trkpt>
      <trkpt lat="45.79587" lon="6.60448">
        <ele>2042.6</ele>
        <time>2017-10-13T09:47:54Z</time>
      </trkpt>
      <trkpt lat="45.79589" lon="6.60434">
        <ele>2042.1</ele>
        <time>2017-10-13T09:47:58Z</time>
      </trkpt>
      <trkpt lat="45.7959" lon="6.60417">
        <ele>2041.6</ele>
        <time>2017-10-13T09:48:01Z</time>
      </trkpt>
      <trkpt lat="45.7959" lon="6.60401">
        <ele>2041</ele>
        <time>2017-10-13T09:48:03Z</time>
      </trkpt>
      <trkpt lat="45.79591" lon="6.60387">
        <ele>2040.3</ele>
        <time>2017-10-13T09:48:05Z</time>
      </trkpt>
      <trkpt lat="45.79592" lon="6.60374">
        <ele>2039.8</ele>
        <time>2017-10-13T09:48:09Z</time>
      </trkpt>
      <trkpt lat="45.79592" lon="6.60359">
        <ele>2040.4</ele>
        <time>2017-10-13T09:48:15Z</time>
      </trkpt>
      <trkpt lat="45.79593" lon="6.60345">
        <ele>2042.2</ele>
        <time>2017-10-13T09:48:21Z</time>
      </trkpt>
      <trkpt lat="45.79593" lon="6.60332">
        <ele>2043.7</ele>
        <time>2017-10-13T09:48:27Z</time>
      </trkpt>
      <trkpt lat="45.79592" lon="6.60318">
        <ele>2046</ele>
        <time>2017-10-13T09:48:49Z</time>
      </trkpt>
      <trkpt lat="45.79591" lon="6.60306">
        <ele>2049.1</ele>
        <time>2017-10-13T09:49:08Z</time>
      </trkpt>
      <trkpt lat="45.7959" lon="6.60291">
        <ele>2051.3</ele>
        <time>2017-10-13T09:49:19Z</time>
      </trkpt>
      <trkpt lat="45.79589" lon="6.60277">
        <ele>2054.3</ele>
        <time>2017-10-13T09:49:33Z</time>
      </trkpt>
      <trkpt lat="45.79586" lon="6.60264">
        <ele>2057.6</ele>
        <time>2017-10-13T09:49:48Z</time>
      </trkpt>
      <trkpt lat="45.79585" lon="6.60252">
        <ele>2060.7</ele>
        <time>2017-10-13T09:50:01Z</time>
      </trkpt>
      <trkpt lat="45.79584" lon="6.60237">
        <ele>2064.5</ele>
        <time>2017-10-13T09:50:18Z</time>
      </trkpt>
      <trkpt lat="45.79584" lon="6.60223">
        <ele>2067.9</ele>
        <time>2017-10-13T09:50:33Z</time>
      </trkpt>
      <trkpt lat="45.79583" lon="6.6021">
        <ele>2069.6</ele>
        <time>2017-10-13T09:51:44Z</time>
      </trkpt>
      <trkpt lat="45.79573" lon="6.6021">
        <ele>2072.2</ele>
        <time>2017-10-13T10:23:37Z</time>
      </trkpt>
      <trkpt lat="45.79563" lon="6.60203">
        <ele>2070.7</ele>
        <time>2017-10-13T10:23:40Z</time>
      </trkpt>
      <trkpt lat="45.79553" lon="6.60197">
        <ele>2065.3</ele>
        <time>2017-10-13T10:24:48Z</time>
      </trkpt>
      <trkpt lat="45.79543" lon="6.60193">
        <ele>2064.4</ele>
        <time>2017-10-13T10:24:50Z</time>
      </trkpt>
      <trkpt lat="45.79534" lon="6.60187">
        <ele>2062.7</ele>
        <time>2017-10-13T10:24:52Z</time>
      </trkpt>
      <trkpt lat="45.79523" lon="6.60182">
        <ele>2060.4</ele>
        <time>2017-10-13T10:24:54Z</time>
      </trkpt>
      <trkpt lat="45.79512" lon="6.60177">
        <ele>2058</ele>
        <time>2017-10-13T10:24:56Z</time>
      </trkpt>
      <trkpt lat="45.795" lon="6.6017">
        <ele>2055.7</ele>
        <time>2017-10-13T10:24:58Z</time>
      </trkpt>
      <trkpt lat="45.79488" lon="6.60165">
        <ele>2053.3</ele>
        <time>2017-10-13T10:25:00Z</time>
      </trkpt>
      <trkpt lat="45.79475" lon="6.60158">
        <ele>2051.2</ele>
        <time>2017-10-13T10:25:02Z</time>
      </trkpt>
      <trkpt lat="45.79462" lon="6.60154">
        <ele>2049.6</ele>
        <time>2017-10-13T10:25:04Z</time>
      </trkpt>
      <trkpt lat="45.79452" lon="6.60154">
        <ele>2048.3</ele>
        <time>2017-10-13T10:25:06Z</time>
      </trkpt>
      <trkpt lat="45.79443" lon="6.60151">
        <ele>2046.7</ele>
        <time>2017-10-13T10:25:10Z</time>
      </trkpt>
      <trkpt lat="45.79433" lon="6.60144">
        <ele>2046</ele>
        <time>2017-10-13T10:25:17Z</time>
      </trkpt>
      <trkpt lat="45.79429" lon="6.60131">
        <ele>2045.9</ele>
        <time>2017-10-13T10:25:24Z</time>
      </trkpt>
      <trkpt lat="45.79424" lon="6.60121">
        <ele>2045.2</ele>
        <time>2017-10-13T10:25:45Z</time>
      </trkpt>
      <trkpt lat="45.79415" lon="6.60116">
        <ele>2044.5</ele>
        <time>2017-10-13T10:25:53Z</time>
      </trkpt>
      <trkpt lat="45.79413" lon="6.60102">
        <ele>2043.6</ele>
        <time>2017-10-13T10:26:01Z</time>
      </trkpt>
      <trkpt lat="45.79415" lon="6.60115">
        <ele>2043.3</ele>
        <time>2017-10-13T10:26:32Z</time>
      </trkpt>
      <trkpt lat="45.79412" lon="6.60128">
        <ele>2045.1</ele>
        <time>2017-10-13T10:26:43Z</time>
      </trkpt>
      <trkpt lat="45.79404" lon="6.60136">
        <ele>2046.3</ele>
        <time>2017-10-13T10:26:53Z</time>
      </trkpt>
      <trkpt lat="45.79395" lon="6.60136">
        <ele>2048.9</ele>
        <time>2017-10-13T10:27:06Z</time>
      </trkpt>
      <trkpt lat="45.79386" lon="6.60134">
        <ele>2053.3</ele>
        <time>2017-10-13T10:27:25Z</time>
      </trkpt>
      <trkpt lat="45.79377" lon="6.60135">
        <ele>2057</ele>
        <time>2017-10-13T10:27:44Z</time>
      </trkpt>
      <trkpt lat="45.79368" lon="6.60131">
        <ele>2061.1</ele>
        <time>2017-10-13T10:28:04Z</time>
      </trkpt>
      <trkpt lat="45.79362" lon="6.60121">
        <ele>2063.1</ele>
        <time>2017-10-13T10:28:15Z</time>
      </trkpt>
      <trkpt lat="45.79354" lon="6.60112">
        <ele>2065.1</ele>
        <time>2017-10-13T10:28:27Z</time>
      </trkpt>
      <trkpt lat="45.79348" lon="6.60102">
        <ele>2067.5</ele>
        <time>2017-10-13T10:28:40Z</time>
      </trkpt>
      <trkpt lat="45.79341" lon="6.60092">
        <ele>2069.3</ele>
        <time>2017-10-13T10:28:54Z</time>
      </trkpt>
      <trkpt lat="45.79333" lon="6.60081">
        <ele>2069.9</ele>
        <time>2017-10-13T10:29:02Z</time>
      </trkpt>
      <trkpt lat="45.79324" lon="6.60067">
        <ele>2069.8</ele>
        <time>2017-10-13T10:29:06Z</time>
      </trkpt>
      <trkpt lat="45.79317" lon="6.60057">
        <ele>2069.6</ele>
        <time>2017-10-13T10:29:08Z</time>
      </trkpt>
      <trkpt lat="45.7931" lon="6.60046">
        <ele>2069.3</ele>
        <time>2017-10-13T10:29:10Z</time>
      </trkpt>
      <trkpt lat="45.79304" lon="6.60036">
        <ele>2069</ele>
        <time>2017-10-13T10:29:12Z</time>
      </trkpt>
      <trkpt lat="45.79297" lon="6.60023">
        <ele>2068.6</ele>
        <time>2017-10-13T10:29:15Z</time>
      </trkpt>
      <trkpt lat="45.79289" lon="6.60012">
        <ele>2069.1</ele>
        <time>2017-10-13T10:29:19Z</time>
      </trkpt>
      <trkpt lat="45.79281" lon="6.60001">
        <ele>2069.9</ele>
        <time>2017-10-13T10:29:23Z</time>
      </trkpt>
      <trkpt lat="45.79274" lon="6.59991">
        <ele>2070.2</ele>
        <time>2017-10-13T10:29:26Z</time>
      </trkpt>
      <trkpt lat="45.79268" lon="6.5998">
        <ele>2070.3</ele>
        <time>2017-10-13T10:29:29Z</time>
      </trkpt>
      <trkpt lat="45.79262" lon="6.59966">
        <ele>2070.9</ele>
        <time>2017-10-13T10:29:32Z</time>
      </trkpt>
      <trkpt lat="45.79257" lon="6.59955">
        <ele>2071.6</ele>
        <time>2017-10-13T10:29:35Z</time>
      </trkpt>
      <trkpt lat="45.79253" lon="6.59942">
        <ele>2072.2</ele>
        <time>2017-10-13T10:29:39Z</time>
      </trkpt>
      <trkpt lat="45.7925" lon="6.5993">
        <ele>2072.8</ele>
        <time>2017-10-13T10:29:43Z</time>
      </trkpt>
      <trkpt lat="45.79247" lon="6.59917">
        <ele>2073.3</ele>
        <time>2017-10-13T10:29:48Z</time>
      </trkpt>
      <trkpt lat="45.79247" lon="6.59904">
        <ele>2073.3</ele>
        <time>2017-10-13T10:32:04Z</time>
      </trkpt>
      <trkpt lat="45.79247" lon="6.59889">
        <ele>2071.9</ele>
        <time>2017-10-13T10:32:09Z</time>
      </trkpt>
      <trkpt lat="45.7925" lon="6.59877">
        <ele>2069.9</ele>
        <time>2017-10-13T10:32:13Z</time>
      </trkpt>
      <trkpt lat="45.79255" lon="6.59863">
        <ele>2067</ele>
        <time>2017-10-13T10:32:17Z</time>
      </trkpt>
      <trkpt lat="45.79259" lon="6.59851">
        <ele>2064.1</ele>
        <time>2017-10-13T10:32:21Z</time>
      </trkpt>
      <trkpt lat="45.79263" lon="6.59835">
        <ele>2059.5</ele>
        <time>2017-10-13T10:32:27Z</time>
      </trkpt>
      <trkpt lat="45.79265" lon="6.5982">
        <ele>2056.7</ele>
        <time>2017-10-13T10:32:30Z</time>
      </trkpt>
      <trkpt lat="45.79271" lon="6.59807">
        <ele>2053.1</ele>
        <time>2017-10-13T10:32:34Z</time>
      </trkpt>
      <trkpt lat="45.79276" lon="6.59795">
        <ele>2049.7</ele>
        <time>2017-10-13T10:32:38Z</time>
      </trkpt>
      <trkpt lat="45.79278" lon="6.5978">
        <ele>2043.7</ele>
        <time>2017-10-13T10:32:46Z</time>
      </trkpt>
      <trkpt lat="45.79278" lon="6.59766">
        <ele>2039.8</ele>
        <time>2017-10-13T10:32:51Z</time>
      </trkpt>
      <trkpt lat="45.79275" lon="6.59753">
        <ele>2035</ele>
        <time>2017-10-13T10:32:57Z</time>
      </trkpt>
      <trkpt lat="45.7928" lon="6.59741">
        <ele>2032.2</ele>
        <time>2017-10-13T10:33:01Z</time>
      </trkpt>
      <trkpt lat="45.79285" lon="6.5973">
        <ele>2028.6</ele>
        <time>2017-10-13T10:33:06Z</time>
      </trkpt>
      <trkpt lat="45.79288" lon="6.59713">
        <ele>2025.9</ele>
        <time>2017-10-13T10:33:10Z</time>
      </trkpt>
      <trkpt lat="45.7929" lon="6.59699">
        <ele>2024.3</ele>
        <time>2017-10-13T10:33:12Z</time>
      </trkpt>
      <trkpt lat="45.79294" lon="6.59688">
        <ele>2021.4</ele>
        <time>2017-10-13T10:33:15Z</time>
      </trkpt>
      <trkpt lat="45.793" lon="6.59677">
        <ele>2017.4</ele>
        <time>2017-10-13T10:33:19Z</time>
      </trkpt>
      <trkpt lat="45.79306" lon="6.59666">
        <ele>2011.8</ele>
        <time>2017-10-13T10:33:25Z</time>
      </trkpt>
      <trkpt lat="45.79313" lon="6.59657">
        <ele>2005.4</ele>
        <time>2017-10-13T10:33:38Z</time>
      </trkpt>
      <trkpt lat="45.79318" lon="6.59643">
        <ele>2000.2</ele>
        <time>2017-10-13T10:33:56Z</time>
      </trkpt>
      <trkpt lat="45.79319" lon="6.5963">
        <ele>1998.1</ele>
        <time>2017-10-13T10:34:00Z</time>
      </trkpt>
      <trkpt lat="45.79321" lon="6.59617">
        <ele>1996.1</ele>
        <time>2017-10-13T10:34:03Z</time>
      </trkpt>
      <trkpt lat="45.79326" lon="6.59604">
        <ele>1992.1</ele>
        <time>2017-10-13T10:34:08Z</time>
      </trkpt>
      <trkpt lat="45.79328" lon="6.5959">
        <ele>1988.8</ele>
        <time>2017-10-13T10:34:12Z</time>
      </trkpt>
      <trkpt lat="45.79322" lon="6.59578">
        <ele>1981.6</ele>
        <time>2017-10-13T10:34:21Z</time>
      </trkpt>
      <trkpt lat="45.7931" lon="6.59575">
        <ele>1978.4</ele>
        <time>2017-10-13T10:34:24Z</time>
      </trkpt>
      <trkpt lat="45.79312" lon="6.59562">
        <ele>1974.7</ele>
        <time>2017-10-13T10:34:29Z</time>
      </trkpt>
      <trkpt lat="45.79322" lon="6.59552">
        <ele>1973.5</ele>
        <time>2017-10-13T10:34:32Z</time>
      </trkpt>
      <trkpt lat="45.79332" lon="6.59543">
        <ele>1972.7</ele>
        <time>2017-10-13T10:34:35Z</time>
      </trkpt>
      <trkpt lat="45.79342" lon="6.59534">
        <ele>1971.9</ele>
        <time>2017-10-13T10:34:38Z</time>
      </trkpt>
      <trkpt lat="45.7935" lon="6.59523">
        <ele>1971</ele>
        <time>2017-10-13T10:34:43Z</time>
      </trkpt>
      <trkpt lat="45.79358" lon="6.59512">
        <ele>1971.1</ele>
        <time>2017-10-13T10:34:47Z</time>
      </trkpt>
      <trkpt lat="45.79366" lon="6.59504">
        <ele>1971.2</ele>
        <time>2017-10-13T10:34:50Z</time>
      </trkpt>
      <trkpt lat="45.79375" lon="6.59495">
        <ele>1971.4</ele>
        <time>2017-10-13T10:34:53Z</time>
      </trkpt>
      <trkpt lat="45.79383" lon="6.59485">
        <ele>1971.4</ele>
        <time>2017-10-13T10:34:56Z</time>
      </trkpt>
      <trkpt lat="45.79391" lon="6.59476">
        <ele>1971.4</ele>
        <time>2017-10-13T10:34:59Z</time>
      </trkpt>
      <trkpt lat="45.79397" lon="6.59466">
        <ele>1971.8</ele>
        <time>2017-10-13T10:35:02Z</time>
      </trkpt>
      <trkpt lat="45.79403" lon="6.59452">
        <ele>1972.6</ele>
        <time>2017-10-13T10:35:06Z</time>
      </trkpt>
      <trkpt lat="45.79407" lon="6.59438">
        <ele>1973.3</ele>
        <time>2017-10-13T10:35:10Z</time>
      </trkpt>
      <trkpt lat="45.7941" lon="6.59424">
        <ele>1973.7</ele>
        <time>2017-10-13T10:35:14Z</time>
      </trkpt>
      <trkpt lat="45.79413" lon="6.59412">
        <ele>1973.7</ele>
        <time>2017-10-13T10:35:17Z</time>
      </trkpt>
      <trkpt lat="45.79414" lon="6.59399">
        <ele>1970.4</ele>
        <time>2017-10-13T10:35:34Z</time>
      </trkpt>
      <trkpt lat="45.79422" lon="6.59381">
        <ele>1969.9</ele>
        <time>2017-10-13T10:36:42Z</time>
      </trkpt>
      <trkpt lat="45.7943" lon="6.59364">
        <ele>1969.2</ele>
        <time>2017-10-13T10:36:44Z</time>
      </trkpt>
      <trkpt lat="45.79441" lon="6.59345">
        <ele>1968.4</ele>
        <time>2017-10-13T10:36:46Z</time>
      </trkpt>
      <trkpt lat="45.79451" lon="6.59328">
        <ele>1966.9</ele>
        <time>2017-10-13T10:36:48Z</time>
      </trkpt>
      <trkpt lat="45.79462" lon="6.59313">
        <ele>1965.1</ele>
        <time>2017-10-13T10:36:50Z</time>
      </trkpt>
      <trkpt lat="45.79474" lon="6.593">
        <ele>1963.5</ele>
        <time>2017-10-13T10:36:52Z</time>
      </trkpt>
      <trkpt lat="45.79488" lon="6.59289">
        <ele>1961.7</ele>
        <time>2017-10-13T10:36:54Z</time>
      </trkpt>
      <trkpt lat="45.79496" lon="6.59282">
        <ele>1960.6</ele>
        <time>2017-10-13T10:36:55Z</time>
      </trkpt>
      <trkpt lat="45.79504" lon="6.59275">
        <ele>1959.5</ele>
        <time>2017-10-13T10:36:56Z</time>
      </trkpt>
      <trkpt lat="45.79512" lon="6.59269">
        <ele>1958.4</ele>
        <time>2017-10-13T10:36:57Z</time>
      </trkpt>
      <trkpt lat="45.79528" lon="6.5926">
        <ele>1956.5</ele>
        <time>2017-10-13T10:36:59Z</time>
      </trkpt>
      <trkpt lat="45.79543" lon="6.59251">
        <ele>1954.6</ele>
        <time>2017-10-13T10:37:01Z</time>
      </trkpt>
      <trkpt lat="45.79557" lon="6.59237">
        <ele>1952.7</ele>
        <time>2017-10-13T10:37:03Z</time>
      </trkpt>
      <trkpt lat="45.79567" lon="6.59221">
        <ele>1951.3</ele>
        <time>2017-10-13T10:37:05Z</time>
      </trkpt>
      <trkpt lat="45.79577" lon="6.59206">
        <ele>1949.9</ele>
        <time>2017-10-13T10:37:07Z</time>
      </trkpt>
      <trkpt lat="45.79589" lon="6.59193">
        <ele>1948.6</ele>
        <time>2017-10-13T10:37:09Z</time>
      </trkpt>
      <trkpt lat="45.79599" lon="6.59185">
        <ele>1946.9</ele>
        <time>2017-10-13T10:37:11Z</time>
      </trkpt>
      <trkpt lat="45.79609" lon="6.59174">
        <ele>1944.2</ele>
        <time>2017-10-13T10:37:14Z</time>
      </trkpt>
      <trkpt lat="45.79618" lon="6.59172">
        <ele>1939.4</ele>
        <time>2017-10-13T10:37:41Z</time>
      </trkpt>
      <trkpt lat="45.79627" lon="6.59168">
        <ele>1938.2</ele>
        <time>2017-10-13T10:37:44Z</time>
      </trkpt>
      <trkpt lat="45.79637" lon="6.59161">
        <ele>1936.5</ele>
        <time>2017-10-13T10:37:47Z</time>
      </trkpt>
      <trkpt lat="45.79646" lon="6.59157">
        <ele>1935.3</ele>
        <time>2017-10-13T10:37:49Z</time>
      </trkpt>
      <trkpt lat="45.79655" lon="6.59154">
        <ele>1934</ele>
        <time>2017-10-13T10:37:51Z</time>
      </trkpt>
      <trkpt lat="45.79665" lon="6.5915">
        <ele>1932.6</ele>
        <time>2017-10-13T10:37:53Z</time>
      </trkpt>
      <trkpt lat="45.79675" lon="6.59145">
        <ele>1930.9</ele>
        <time>2017-10-13T10:37:55Z</time>
      </trkpt>
      <trkpt lat="45.79685" lon="6.59141">
        <ele>1929.1</ele>
        <time>2017-10-13T10:37:57Z</time>
      </trkpt>
      <trkpt lat="45.79695" lon="6.59137">
        <ele>1927.1</ele>
        <time>2017-10-13T10:37:59Z</time>
      </trkpt>
      <trkpt lat="45.79706" lon="6.59132">
        <ele>1925</ele>
        <time>2017-10-13T10:38:01Z</time>
      </trkpt>
      <trkpt lat="45.79715" lon="6.59125">
        <ele>1922.9</ele>
        <time>2017-10-13T10:38:03Z</time>
      </trkpt>
      <trkpt lat="45.79724" lon="6.59111">
        <ele>1921.4</ele>
        <time>2017-10-13T10:38:05Z</time>
      </trkpt>
      <trkpt lat="45.79727" lon="6.59097">
        <ele>1920.3</ele>
        <time>2017-10-13T10:38:07Z</time>
      </trkpt>
      <trkpt lat="45.79726" lon="6.59082">
        <ele>1919.3</ele>
        <time>2017-10-13T10:38:10Z</time>
      </trkpt>
      <trkpt lat="45.79724" lon="6.59063">
        <ele>1919.2</ele>
        <time>2017-10-13T10:38:13Z</time>
      </trkpt>
      <trkpt lat="45.79723" lon="6.59049">
        <ele>1919.1</ele>
        <time>2017-10-13T10:38:15Z</time>
      </trkpt>
      <trkpt lat="45.79723" lon="6.59033">
        <ele>1919.5</ele>
        <time>2017-10-13T10:38:18Z</time>
      </trkpt>
      <trkpt lat="45.79722" lon="6.5902">
        <ele>1920.2</ele>
        <time>2017-10-13T10:38:22Z</time>
      </trkpt>
      <trkpt lat="45.79722" lon="6.59033">
        <ele>1920.5</ele>
        <time>2017-10-13T10:38:51Z</time>
      </trkpt>
      <trkpt lat="45.79723" lon="6.5905">
        <ele>1920.2</ele>
        <time>2017-10-13T10:38:54Z</time>
      </trkpt>
      <trkpt lat="45.79724" lon="6.59067">
        <ele>1919.6</ele>
        <time>2017-10-13T10:38:56Z</time>
      </trkpt>
      <trkpt lat="45.79726" lon="6.59083">
        <ele>1919.1</ele>
        <time>2017-10-13T10:38:58Z</time>
      </trkpt>
      <trkpt lat="45.79734" lon="6.59093">
        <ele>1918.3</ele>
        <time>2017-10-13T10:39:02Z</time>
      </trkpt>
      <trkpt lat="45.79743" lon="6.59085">
        <ele>1918.3</ele>
        <time>2017-10-13T10:39:08Z</time>
      </trkpt>
      <trkpt lat="45.79748" lon="6.59075">
        <ele>1919.1</ele>
        <time>2017-10-13T10:39:27Z</time>
      </trkpt>
      <trkpt lat="45.79754" lon="6.59064">
        <ele>1926.3</ele>
        <time>2017-10-13T10:40:02Z</time>
      </trkpt>
      <trkpt lat="45.79761" lon="6.59053">
        <ele>1927.4</ele>
        <time>2017-10-13T10:40:07Z</time>
      </trkpt>
      <trkpt lat="45.79765" lon="6.5904">
        <ele>1928.9</ele>
        <time>2017-10-13T10:40:13Z</time>
      </trkpt>
      <trkpt lat="45.79768" lon="6.59027">
        <ele>1930</ele>
        <time>2017-10-13T10:40:20Z</time>
      </trkpt>
      <trkpt lat="45.79772" lon="6.59015">
        <ele>1931.3</ele>
        <time>2017-10-13T10:40:39Z</time>
      </trkpt>
      <trkpt lat="45.7978" lon="6.59009">
        <ele>1930.8</ele>
        <time>2017-10-13T10:40:43Z</time>
      </trkpt>
      <trkpt lat="45.7979" lon="6.59003">
        <ele>1929.6</ele>
        <time>2017-10-13T10:40:46Z</time>
      </trkpt>
      <trkpt lat="45.79798" lon="6.58997">
        <ele>1927.7</ele>
        <time>2017-10-13T10:40:49Z</time>
      </trkpt>
      <trkpt lat="45.79808" lon="6.5899">
        <ele>1924.5</ele>
        <time>2017-10-13T10:40:53Z</time>
      </trkpt>
      <trkpt lat="45.79815" lon="6.58982">
        <ele>1920.9</ele>
        <time>2017-10-13T10:40:57Z</time>
      </trkpt>
      <trkpt lat="45.79825" lon="6.58974">
        <ele>1916.8</ele>
        <time>2017-10-13T10:41:01Z</time>
      </trkpt>
      <trkpt lat="45.79833" lon="6.58969">
        <ele>1913.5</ele>
        <time>2017-10-13T10:41:04Z</time>
      </trkpt>
      <trkpt lat="45.79841" lon="6.58962">
        <ele>1910.3</ele>
        <time>2017-10-13T10:41:07Z</time>
      </trkpt>
      <trkpt lat="45.79849" lon="6.58954">
        <ele>1908.5</ele>
        <time>2017-10-13T10:41:09Z</time>
      </trkpt>
      <trkpt lat="45.79859" lon="6.58942">
        <ele>1906.9</ele>
        <time>2017-10-13T10:41:11Z</time>
      </trkpt>
      <trkpt lat="45.79869" lon="6.58928">
        <ele>1905.5</ele>
        <time>2017-10-13T10:41:13Z</time>
      </trkpt>
      <trkpt lat="45.79875" lon="6.58915">
        <ele>1904.5</ele>
        <time>2017-10-13T10:41:15Z</time>
      </trkpt>
      <trkpt lat="45.7988" lon="6.58902">
        <ele>1902.8</ele>
        <time>2017-10-13T10:41:26Z</time>
      </trkpt>
      <trkpt lat="45.79884" lon="6.58889">
        <ele>1905.1</ele>
        <time>2017-10-13T10:41:39Z</time>
      </trkpt>
      <trkpt lat="45.79886" lon="6.58874">
        <ele>1910.2</ele>
        <time>2017-10-13T10:42:05Z</time>
      </trkpt>
      <trkpt lat="45.79889" lon="6.58859">
        <ele>1912.8</ele>
        <time>2017-10-13T10:42:18Z</time>
      </trkpt>
      <trkpt lat="45.79892" lon="6.58845">
        <ele>1913.7</ele>
        <time>2017-10-13T10:42:25Z</time>
      </trkpt>
      <trkpt lat="45.79899" lon="6.58834">
        <ele>1915.4</ele>
        <time>2017-10-13T10:42:35Z</time>
      </trkpt>
      <trkpt lat="45.79907" lon="6.58826">
        <ele>1918.1</ele>
        <time>2017-10-13T10:42:48Z</time>
      </trkpt>
      <trkpt lat="45.79913" lon="6.58815">
        <ele>1921.1</ele>
        <time>2017-10-13T10:43:01Z</time>
      </trkpt>
      <trkpt lat="45.79915" lon="6.58803">
        <ele>1924.4</ele>
        <time>2017-10-13T10:43:14Z</time>
      </trkpt>
      <trkpt lat="45.79923" lon="6.58795">
        <ele>1927.7</ele>
        <time>2017-10-13T10:43:29Z</time>
      </trkpt>
      <trkpt lat="45.7993" lon="6.58785">
        <ele>1930.7</ele>
        <time>2017-10-13T10:43:44Z</time>
      </trkpt>
      <trkpt lat="45.79935" lon="6.58773">
        <ele>1931.9</ele>
        <time>2017-10-13T10:43:51Z</time>
      </trkpt>
      <trkpt lat="45.7994" lon="6.58762">
        <ele>1933</ele>
        <time>2017-10-13T10:43:58Z</time>
      </trkpt>
      <trkpt lat="45.79946" lon="6.5875">
        <ele>1933.9</ele>
        <time>2017-10-13T10:44:06Z</time>
      </trkpt>
      <trkpt lat="45.79953" lon="6.58739">
        <ele>1934.7</ele>
        <time>2017-10-13T10:44:13Z</time>
      </trkpt>
      <trkpt lat="45.79958" lon="6.58725">
        <ele>1935.1</ele>
        <time>2017-10-13T10:44:18Z</time>
      </trkpt>
      <trkpt lat="45.79964" lon="6.58715">
        <ele>1935</ele>
        <time>2017-10-13T10:44:22Z</time>
      </trkpt>
      <trkpt lat="45.79968" lon="6.58703">
        <ele>1935.3</ele>
        <time>2017-10-13T10:44:27Z</time>
      </trkpt>
      <trkpt lat="45.79974" lon="6.5869">
        <ele>1935.9</ele>
        <time>2017-10-13T10:44:33Z</time>
      </trkpt>
      <trkpt lat="45.79979" lon="6.58678">
        <ele>1937.1</ele>
        <time>2017-10-13T10:44:39Z</time>
      </trkpt>
      <trkpt lat="45.79982" lon="6.58665">
        <ele>1939</ele>
        <time>2017-10-13T10:44:45Z</time>
      </trkpt>
      <trkpt lat="45.79986" lon="6.58652">
        <ele>1941.6</ele>
        <time>2017-10-13T10:44:52Z</time>
      </trkpt>
      <trkpt lat="45.7999" lon="6.58639">
        <ele>1944.1</ele>
        <time>2017-10-13T10:44:58Z</time>
      </trkpt>
      <trkpt lat="45.79997" lon="6.58631">
        <ele>1946.4</ele>
        <time>2017-10-13T10:45:05Z</time>
      </trkpt>
      <trkpt lat="45.80004" lon="6.58622">
        <ele>1950</ele>
        <time>2017-10-13T10:45:15Z</time>
      </trkpt>
      <trkpt lat="45.80009" lon="6.5861">
        <ele>1952.4</ele>
        <time>2017-10-13T10:45:24Z</time>
      </trkpt>
      <trkpt lat="45.80013" lon="6.58597">
        <ele>1954.7</ele>
        <time>2017-10-13T10:45:33Z</time>
      </trkpt>
      <trkpt lat="45.80018" lon="6.58584">
        <ele>1957.1</ele>
        <time>2017-10-13T10:45:43Z</time>
      </trkpt>
      <trkpt lat="45.80023" lon="6.58572">
        <ele>1958.7</ele>
        <time>2017-10-13T10:45:51Z</time>
      </trkpt>
      <trkpt lat="45.80027" lon="6.58559">
        <ele>1959.4</ele>
        <time>2017-10-13T10:45:58Z</time>
      </trkpt>
      <trkpt lat="45.80033" lon="6.58544">
        <ele>1960.9</ele>
        <time>2017-10-13T10:46:10Z</time>
      </trkpt>
      <trkpt lat="45.80036" lon="6.58531">
        <ele>1961.9</ele>
        <time>2017-10-13T10:46:18Z</time>
      </trkpt>
      <trkpt lat="45.80039" lon="6.58518">
        <ele>1962.7</ele>
        <time>2017-10-13T10:46:26Z</time>
      </trkpt>
      <trkpt lat="45.80047" lon="6.5851">
        <ele>1964.2</ele>
        <time>2017-10-13T10:46:35Z</time>
      </trkpt>
      <trkpt lat="45.80055" lon="6.58504">
        <ele>1965.9</ele>
        <time>2017-10-13T10:46:43Z</time>
      </trkpt>
      <trkpt lat="45.80064" lon="6.58498">
        <ele>1967.4</ele>
        <time>2017-10-13T10:46:51Z</time>
      </trkpt>
      <trkpt lat="45.80071" lon="6.58488">
        <ele>1969.4</ele>
        <time>2017-10-13T10:46:58Z</time>
      </trkpt>
      <trkpt lat="45.80077" lon="6.58477">
        <ele>1971.6</ele>
        <time>2017-10-13T10:47:06Z</time>
      </trkpt>
      <trkpt lat="45.80086" lon="6.58471">
        <ele>1973.2</ele>
        <time>2017-10-13T10:47:13Z</time>
      </trkpt>
      <trkpt lat="45.80092" lon="6.58462">
        <ele>1973.9</ele>
        <time>2017-10-13T10:47:20Z</time>
      </trkpt>
      <trkpt lat="45.80099" lon="6.58452">
        <ele>1974.7</ele>
        <time>2017-10-13T10:47:28Z</time>
      </trkpt>
      <trkpt lat="45.80106" lon="6.58444">
        <ele>1975.3</ele>
        <time>2017-10-13T10:47:35Z</time>
      </trkpt>
      <trkpt lat="45.80114" lon="6.58437">
        <ele>1976.2</ele>
        <time>2017-10-13T10:47:42Z</time>
      </trkpt>
      <trkpt lat="45.80122" lon="6.5843">
        <ele>1977</ele>
        <time>2017-10-13T10:47:49Z</time>
      </trkpt>
      <trkpt lat="45.80129" lon="6.58422">
        <ele>1978.2</ele>
        <time>2017-10-13T10:47:56Z</time>
      </trkpt>
      <trkpt lat="45.80136" lon="6.58411">
        <ele>1979.9</ele>
        <time>2017-10-13T10:48:04Z</time>
      </trkpt>
      <trkpt lat="45.80142" lon="6.584">
        <ele>1980.3</ele>
        <time>2017-10-13T10:48:09Z</time>
      </trkpt>
      <trkpt lat="45.8015" lon="6.58391">
        <ele>1980.2</ele>
        <time>2017-10-13T10:48:14Z</time>
      </trkpt>
      <trkpt lat="45.80158" lon="6.58387">
        <ele>1980.1</ele>
        <time>2017-10-13T10:48:18Z</time>
      </trkpt>
      <trkpt lat="45.80167" lon="6.5838">
        <ele>1980.2</ele>
        <time>2017-10-13T10:48:23Z</time>
      </trkpt>
      <trkpt lat="45.80177" lon="6.58373">
        <ele>1980.4</ele>
        <time>2017-10-13T10:48:27Z</time>
      </trkpt>
      <trkpt lat="45.80185" lon="6.58365">
        <ele>1980.8</ele>
        <time>2017-10-13T10:48:31Z</time>
      </trkpt>
      <trkpt lat="45.80193" lon="6.58355">
        <ele>1981.4</ele>
        <time>2017-10-13T10:48:36Z</time>
      </trkpt>
      <trkpt lat="45.80201" lon="6.58346">
        <ele>1981.7</ele>
        <time>2017-10-13T10:48:39Z</time>
      </trkpt>
      <trkpt lat="45.8021" lon="6.58338">
        <ele>1982</ele>
        <time>2017-10-13T10:48:42Z</time>
      </trkpt>
      <trkpt lat="45.8022" lon="6.5833">
        <ele>1982.4</ele>
        <time>2017-10-13T10:48:46Z</time>
      </trkpt>
      <trkpt lat="45.80229" lon="6.58323">
        <ele>1983.3</ele>
        <time>2017-10-13T10:48:51Z</time>
      </trkpt>
      <trkpt lat="45.80238" lon="6.58318">
        <ele>1984.1</ele>
        <time>2017-10-13T10:48:55Z</time>
      </trkpt>
      <trkpt lat="45.80246" lon="6.5831">
        <ele>1985.4</ele>
        <time>2017-10-13T10:49:00Z</time>
      </trkpt>
      <trkpt lat="45.80254" lon="6.58301">
        <ele>1987.2</ele>
        <time>2017-10-13T10:49:06Z</time>
      </trkpt>
      <trkpt lat="45.80263" lon="6.58293">
        <ele>1988.8</ele>
        <time>2017-10-13T10:49:13Z</time>
      </trkpt>
      <trkpt lat="45.80272" lon="6.58288">
        <ele>1989.6</ele>
        <time>2017-10-13T10:49:19Z</time>
      </trkpt>
      <trkpt lat="45.80281" lon="6.58283">
        <ele>1990.3</ele>
        <time>2017-10-13T10:49:24Z</time>
      </trkpt>
      <trkpt lat="45.80289" lon="6.58276">
        <ele>1991.6</ele>
        <time>2017-10-13T10:49:30Z</time>
      </trkpt>
      <trkpt lat="45.8028" lon="6.5828">
        <ele>1992.4</ele>
        <time>2017-10-13T10:57:59Z</time>
      </trkpt>
      <trkpt lat="45.80268" lon="6.58288">
        <ele>1991.7</ele>
        <time>2017-10-13T10:58:02Z</time>
      </trkpt>
      <trkpt lat="45.8026" lon="6.58296">
        <ele>1991.2</ele>
        <time>2017-10-13T10:58:04Z</time>
      </trkpt>
      <trkpt lat="45.80252" lon="6.58306">
        <ele>1990.3</ele>
        <time>2017-10-13T10:58:07Z</time>
      </trkpt>
      <trkpt lat="45.80242" lon="6.58316">
        <ele>1989.3</ele>
        <time>2017-10-13T10:58:10Z</time>
      </trkpt>
      <trkpt lat="45.80232" lon="6.58323">
        <ele>1988.4</ele>
        <time>2017-10-13T10:58:12Z</time>
      </trkpt>
      <trkpt lat="45.80221" lon="6.58331">
        <ele>1987.5</ele>
        <time>2017-10-13T10:58:14Z</time>
      </trkpt>
      <trkpt lat="45.80209" lon="6.58339">
        <ele>1986.6</ele>
        <time>2017-10-13T10:58:16Z</time>
      </trkpt>
      <trkpt lat="45.802" lon="6.58348">
        <ele>1985.4</ele>
        <time>2017-10-13T10:58:18Z</time>
      </trkpt>
      <trkpt lat="45.8019" lon="6.58353">
        <ele>1984</ele>
        <time>2017-10-13T10:58:21Z</time>
      </trkpt>
      <trkpt lat="45.80181" lon="6.58346">
        <ele>1982.2</ele>
        <time>2017-10-13T10:58:25Z</time>
      </trkpt>
      <trkpt lat="45.80174" lon="6.58336">
        <ele>1978.7</ele>
        <time>2017-10-13T10:58:36Z</time>
      </trkpt>
      <trkpt lat="45.80171" lon="6.58324">
        <ele>1977.7</ele>
        <time>2017-10-13T10:58:39Z</time>
      </trkpt>
      <trkpt lat="45.80175" lon="6.58312">
        <ele>1974.7</ele>
        <time>2017-10-13T10:59:11Z</time>
      </trkpt>
      <trkpt lat="45.80182" lon="6.58299">
        <ele>1973.9</ele>
        <time>2017-10-13T10:59:14Z</time>
      </trkpt>
      <trkpt lat="45.8019" lon="6.58285">
        <ele>1973.1</ele>
        <time>2017-10-13T10:59:17Z</time>
      </trkpt>
      <trkpt lat="45.80198" lon="6.58273">
        <ele>1971.8</ele>
        <time>2017-10-13T10:59:20Z</time>
      </trkpt>
      <trkpt lat="45.80205" lon="6.58263">
        <ele>1970.6</ele>
        <time>2017-10-13T10:59:23Z</time>
      </trkpt>
      <trkpt lat="45.80213" lon="6.5825">
        <ele>1969.5</ele>
        <time>2017-10-13T10:59:26Z</time>
      </trkpt>
      <trkpt lat="45.8022" lon="6.58239">
        <ele>1968.6</ele>
        <time>2017-10-13T10:59:29Z</time>
      </trkpt>
      <trkpt lat="45.80226" lon="6.58226">
        <ele>1967.6</ele>
        <time>2017-10-13T10:59:32Z</time>
      </trkpt>
      <trkpt lat="45.80234" lon="6.58214">
        <ele>1966.7</ele>
        <time>2017-10-13T10:59:35Z</time>
      </trkpt>
      <trkpt lat="45.80243" lon="6.582">
        <ele>1966</ele>
        <time>2017-10-13T10:59:38Z</time>
      </trkpt>
      <trkpt lat="45.8025" lon="6.58189">
        <ele>1965.4</ele>
        <time>2017-10-13T10:59:40Z</time>
      </trkpt>
      <trkpt lat="45.80257" lon="6.58178">
        <ele>1964.1</ele>
        <time>2017-10-13T10:59:43Z</time>
      </trkpt>
      <trkpt lat="45.80265" lon="6.58167">
        <ele>1961.8</ele>
        <time>2017-10-13T11:00:04Z</time>
      </trkpt>
      <trkpt lat="45.80273" lon="6.58159">
        <ele>1961.8</ele>
        <time>2017-10-13T11:01:04Z</time>
      </trkpt>
      <trkpt lat="45.80281" lon="6.5815">
        <ele>1961.7</ele>
        <time>2017-10-13T11:01:09Z</time>
      </trkpt>
      <trkpt lat="45.80291" lon="6.58147">
        <ele>1960.7</ele>
        <time>2017-10-13T11:01:37Z</time>
      </trkpt>
      <trkpt lat="45.803" lon="6.58153">
        <ele>1960.3</ele>
        <time>2017-10-13T11:02:29Z</time>
      </trkpt>
      <trkpt lat="45.80295" lon="6.58142">
        <ele>1958.4</ele>
        <time>2017-10-13T11:04:02Z</time>
      </trkpt>
      <trkpt lat="45.80286" lon="6.58137">
        <ele>1957.1</ele>
        <time>2017-10-13T11:04:06Z</time>
      </trkpt>
      <trkpt lat="45.80292" lon="6.58125">
        <ele>1952.9</ele>
        <time>2017-10-13T11:04:17Z</time>
      </trkpt>
      <trkpt lat="45.80301" lon="6.5812">
        <ele>1950.8</ele>
        <time>2017-10-13T11:04:21Z</time>
      </trkpt>
      <trkpt lat="45.80296" lon="6.58108">
        <ele>1945.6</ele>
        <time>2017-10-13T11:04:32Z</time>
      </trkpt>
      <trkpt lat="45.80286" lon="6.58107">
        <ele>1942.5</ele>
        <time>2017-10-13T11:05:10Z</time>
      </trkpt>
      <trkpt lat="45.80276" lon="6.58107">
        <ele>1941.3</ele>
        <time>2017-10-13T11:05:14Z</time>
      </trkpt>
      <trkpt lat="45.80265" lon="6.5811">
        <ele>1939.6</ele>
        <time>2017-10-13T11:05:17Z</time>
      </trkpt>
      <trkpt lat="45.80255" lon="6.58115">
        <ele>1937.7</ele>
        <time>2017-10-13T11:05:20Z</time>
      </trkpt>
      <trkpt lat="45.80247" lon="6.5812">
        <ele>1936.2</ele>
        <time>2017-10-13T11:05:23Z</time>
      </trkpt>
      <trkpt lat="45.80238" lon="6.58125">
        <ele>1934.6</ele>
        <time>2017-10-13T11:05:26Z</time>
      </trkpt>
      <trkpt lat="45.80229" lon="6.5813">
        <ele>1932.8</ele>
        <time>2017-10-13T11:05:30Z</time>
      </trkpt>
      <trkpt lat="45.80236" lon="6.58117">
        <ele>1928.5</ele>
        <time>2017-10-13T11:05:47Z</time>
      </trkpt>
      <trkpt lat="45.80242" lon="6.58105">
        <ele>1926.6</ele>
        <time>2017-10-13T11:05:50Z</time>
      </trkpt>
      <trkpt lat="45.80246" lon="6.58088">
        <ele>1923.9</ele>
        <time>2017-10-13T11:05:53Z</time>
      </trkpt>
      <trkpt lat="45.80251" lon="6.5807">
        <ele>1921</ele>
        <time>2017-10-13T11:05:56Z</time>
      </trkpt>
      <trkpt lat="45.80255" lon="6.58054">
        <ele>1917.5</ele>
        <time>2017-10-13T11:05:59Z</time>
      </trkpt>
      <trkpt lat="45.8026" lon="6.58042">
        <ele>1915.4</ele>
        <time>2017-10-13T11:06:01Z</time>
      </trkpt>
      <trkpt lat="45.80269" lon="6.5803">
        <ele>1913.4</ele>
        <time>2017-10-13T11:06:03Z</time>
      </trkpt>
      <trkpt lat="45.80278" lon="6.58018">
        <ele>1911.5</ele>
        <time>2017-10-13T11:06:05Z</time>
      </trkpt>
      <trkpt lat="45.80285" lon="6.58008">
        <ele>1909.1</ele>
        <time>2017-10-13T11:06:07Z</time>
      </trkpt>
      <trkpt lat="45.80294" lon="6.58">
        <ele>1906.6</ele>
        <time>2017-10-13T11:06:09Z</time>
      </trkpt>
      <trkpt lat="45.80286" lon="6.57987">
        <ele>1898.8</ele>
        <time>2017-10-13T11:06:18Z</time>
      </trkpt>
      <trkpt lat="45.80276" lon="6.57985">
        <ele>1897.5</ele>
        <time>2017-10-13T11:06:20Z</time>
      </trkpt>
      <trkpt lat="45.80266" lon="6.57985">
        <ele>1895.6</ele>
        <time>2017-10-13T11:06:22Z</time>
      </trkpt>
      <trkpt lat="45.80256" lon="6.57985">
        <ele>1892.9</ele>
        <time>2017-10-13T11:06:25Z</time>
      </trkpt>
      <trkpt lat="45.80247" lon="6.5799">
        <ele>1890.3</ele>
        <time>2017-10-13T11:06:28Z</time>
      </trkpt>
      <trkpt lat="45.80237" lon="6.57994">
        <ele>1888.5</ele>
        <time>2017-10-13T11:06:30Z</time>
      </trkpt>
      <trkpt lat="45.80225" lon="6.58">
        <ele>1886.6</ele>
        <time>2017-10-13T11:06:32Z</time>
      </trkpt>
      <trkpt lat="45.80214" lon="6.58006">
        <ele>1884.4</ele>
        <time>2017-10-13T11:06:34Z</time>
      </trkpt>
      <trkpt lat="45.80204" lon="6.58014">
        <ele>1882.4</ele>
        <time>2017-10-13T11:06:36Z</time>
      </trkpt>
      <trkpt lat="45.80195" lon="6.5802">
        <ele>1880.5</ele>
        <time>2017-10-13T11:06:38Z</time>
      </trkpt>
      <trkpt lat="45.80184" lon="6.58027">
        <ele>1878.5</ele>
        <time>2017-10-13T11:06:40Z</time>
      </trkpt>
      <trkpt lat="45.80175" lon="6.58031">
        <ele>1876.1</ele>
        <time>2017-10-13T11:06:42Z</time>
      </trkpt>
      <trkpt lat="45.80163" lon="6.58038">
        <ele>1872.3</ele>
        <time>2017-10-13T11:06:45Z</time>
      </trkpt>
      <trkpt lat="45.80165" lon="6.58024">
        <ele>1866.1</ele>
        <time>2017-10-13T11:06:52Z</time>
      </trkpt>
      <trkpt lat="45.80169" lon="6.58007">
        <ele>1863.5</ele>
        <time>2017-10-13T11:06:55Z</time>
      </trkpt>
      <trkpt lat="45.80173" lon="6.57989">
        <ele>1860.9</ele>
        <time>2017-10-13T11:06:58Z</time>
      </trkpt>
      <trkpt lat="45.80178" lon="6.57971">
        <ele>1858.4</ele>
        <time>2017-10-13T11:07:01Z</time>
      </trkpt>
      <trkpt lat="45.80182" lon="6.57957">
        <ele>1856.9</ele>
        <time>2017-10-13T11:07:03Z</time>
      </trkpt>
      <trkpt lat="45.80187" lon="6.5794">
        <ele>1855</ele>
        <time>2017-10-13T11:07:05Z</time>
      </trkpt>
      <trkpt lat="45.80192" lon="6.57925">
        <ele>1852.6</ele>
        <time>2017-10-13T11:07:07Z</time>
      </trkpt>
      <trkpt lat="45.80199" lon="6.57911">
        <ele>1850.4</ele>
        <time>2017-10-13T11:07:09Z</time>
      </trkpt>
      <trkpt lat="45.80205" lon="6.57896">
        <ele>1848.1</ele>
        <time>2017-10-13T11:07:11Z</time>
      </trkpt>
      <trkpt lat="45.80212" lon="6.57881">
        <ele>1845.7</ele>
        <time>2017-10-13T11:07:13Z</time>
      </trkpt>
      <trkpt lat="45.8022" lon="6.57866">
        <ele>1843.6</ele>
        <time>2017-10-13T11:07:15Z</time>
      </trkpt>
      <trkpt lat="45.80226" lon="6.57855">
        <ele>1841.3</ele>
        <time>2017-10-13T11:07:17Z</time>
      </trkpt>
      <trkpt lat="45.80229" lon="6.57841">
        <ele>1838</ele>
        <time>2017-10-13T11:07:20Z</time>
      </trkpt>
      <trkpt lat="45.80233" lon="6.57822">
        <ele>1834.5</ele>
        <time>2017-10-13T11:07:23Z</time>
      </trkpt>
      <trkpt lat="45.80238" lon="6.57808">
        <ele>1831.1</ele>
        <time>2017-10-13T11:07:26Z</time>
      </trkpt>
      <trkpt lat="45.8023" lon="6.57818">
        <ele>1825.2</ele>
        <time>2017-10-13T11:08:13Z</time>
      </trkpt>
      <trkpt lat="45.80221" lon="6.57826">
        <ele>1824.6</ele>
        <time>2017-10-13T11:08:15Z</time>
      </trkpt>
      <trkpt lat="45.80211" lon="6.57834">
        <ele>1824</ele>
        <time>2017-10-13T11:08:17Z</time>
      </trkpt>
      <trkpt lat="45.80198" lon="6.57843">
        <ele>1823.2</ele>
        <time>2017-10-13T11:08:19Z</time>
      </trkpt>
      <trkpt lat="45.80184" lon="6.57853">
        <ele>1822</ele>
        <time>2017-10-13T11:08:21Z</time>
      </trkpt>
      <trkpt lat="45.8017" lon="6.57862">
        <ele>1820.5</ele>
        <time>2017-10-13T11:08:23Z</time>
      </trkpt>
      <trkpt lat="45.80156" lon="6.57872">
        <ele>1819</ele>
        <time>2017-10-13T11:08:25Z</time>
      </trkpt>
      <trkpt lat="45.80142" lon="6.57884">
        <ele>1817.2</ele>
        <time>2017-10-13T11:08:27Z</time>
      </trkpt>
      <trkpt lat="45.80128" lon="6.57897">
        <ele>1815.3</ele>
        <time>2017-10-13T11:08:29Z</time>
      </trkpt>
      <trkpt lat="45.80114" lon="6.5791">
        <ele>1813.3</ele>
        <time>2017-10-13T11:08:31Z</time>
      </trkpt>
      <trkpt lat="45.80103" lon="6.57922">
        <ele>1811.1</ele>
        <time>2017-10-13T11:08:33Z</time>
      </trkpt>
      <trkpt lat="45.8009" lon="6.57934">
        <ele>1809.1</ele>
        <time>2017-10-13T11:08:35Z</time>
      </trkpt>
      <trkpt lat="45.80078" lon="6.57943">
        <ele>1806.9</ele>
        <time>2017-10-13T11:08:37Z</time>
      </trkpt>
      <trkpt lat="45.80068" lon="6.57951">
        <ele>1803.7</ele>
        <time>2017-10-13T11:08:40Z</time>
      </trkpt>
      <trkpt lat="45.80058" lon="6.57956">
        <ele>1802.1</ele>
        <time>2017-10-13T11:08:42Z</time>
      </trkpt>
      <trkpt lat="45.80062" lon="6.57942">
        <ele>1796.2</ele>
        <time>2017-10-13T11:08:51Z</time>
      </trkpt>
      <trkpt lat="45.80069" lon="6.5793">
        <ele>1794.9</ele>
        <time>2017-10-13T11:08:54Z</time>
      </trkpt>
      <trkpt lat="45.80075" lon="6.57918">
        <ele>1793.9</ele>
        <time>2017-10-13T11:08:56Z</time>
      </trkpt>
      <trkpt lat="45.80081" lon="6.57907">
        <ele>1792.6</ele>
        <time>2017-10-13T11:08:58Z</time>
      </trkpt>
      <trkpt lat="45.80089" lon="6.57898">
        <ele>1790.3</ele>
        <time>2017-10-13T11:09:02Z</time>
      </trkpt>
      <trkpt lat="45.80095" lon="6.57885">
        <ele>1787.2</ele>
        <time>2017-10-13T11:09:11Z</time>
      </trkpt>
      <trkpt lat="45.801" lon="6.57869">
        <ele>1786.2</ele>
        <time>2017-10-13T11:09:14Z</time>
      </trkpt>
      <trkpt lat="45.80105" lon="6.57854">
        <ele>1785.2</ele>
        <time>2017-10-13T11:09:16Z</time>
      </trkpt>
      <trkpt lat="45.80111" lon="6.57839">
        <ele>1784.3</ele>
        <time>2017-10-13T11:09:18Z</time>
      </trkpt>
      <trkpt lat="45.80116" lon="6.57822">
        <ele>1783</ele>
        <time>2017-10-13T11:09:20Z</time>
      </trkpt>
      <trkpt lat="45.80121" lon="6.57808">
        <ele>1780.7</ele>
        <time>2017-10-13T11:09:23Z</time>
      </trkpt>
      <trkpt lat="45.80123" lon="6.57792">
        <ele>1779</ele>
        <time>2017-10-13T11:09:26Z</time>
      </trkpt>
      <trkpt lat="45.80128" lon="6.57775">
        <ele>1777.7</ele>
        <time>2017-10-13T11:09:29Z</time>
      </trkpt>
      <trkpt lat="45.80132" lon="6.57758">
        <ele>1776.8</ele>
        <time>2017-10-13T11:09:32Z</time>
      </trkpt>
      <trkpt lat="45.80139" lon="6.57742">
        <ele>1776</ele>
        <time>2017-10-13T11:09:35Z</time>
      </trkpt>
      <trkpt lat="45.80144" lon="6.57728">
        <ele>1775.4</ele>
        <time>2017-10-13T11:09:37Z</time>
      </trkpt>
      <trkpt lat="45.8015" lon="6.57713">
        <ele>1774.5</ele>
        <time>2017-10-13T11:09:39Z</time>
      </trkpt>
      <trkpt lat="45.80154" lon="6.57699">
        <ele>1773.4</ele>
        <time>2017-10-13T11:09:41Z</time>
      </trkpt>
      <trkpt lat="45.8016" lon="6.57685">
        <ele>1772.5</ele>
        <time>2017-10-13T11:09:43Z</time>
      </trkpt>
      <trkpt lat="45.80165" lon="6.57669">
        <ele>1771.8</ele>
        <time>2017-10-13T11:09:45Z</time>
      </trkpt>
      <trkpt lat="45.80168" lon="6.57652">
        <ele>1771.2</ele>
        <time>2017-10-13T11:09:47Z</time>
      </trkpt>
      <trkpt lat="45.80169" lon="6.57635">
        <ele>1770.4</ele>
        <time>2017-10-13T11:09:49Z</time>
      </trkpt>
      <trkpt lat="45.8017" lon="6.57617">
        <ele>1769.2</ele>
        <time>2017-10-13T11:09:51Z</time>
      </trkpt>
      <trkpt lat="45.8017" lon="6.57592">
        <ele>1767.9</ele>
        <time>2017-10-13T11:09:53Z</time>
      </trkpt>
      <trkpt lat="45.80169" lon="6.57577">
        <ele>1767.3</ele>
        <time>2017-10-13T11:09:54Z</time>
      </trkpt>
      <trkpt lat="45.80168" lon="6.57561">
        <ele>1766.6</ele>
        <time>2017-10-13T11:09:55Z</time>
      </trkpt>
      <trkpt lat="45.80167" lon="6.57547">
        <ele>1765.7</ele>
        <time>2017-10-13T11:09:56Z</time>
      </trkpt>
      <trkpt lat="45.80167" lon="6.57525">
        <ele>1763.8</ele>
        <time>2017-10-13T11:09:58Z</time>
      </trkpt>
      <trkpt lat="45.80172" lon="6.5751">
        <ele>1761.9</ele>
        <time>2017-10-13T11:10:00Z</time>
      </trkpt>
      <trkpt lat="45.8018" lon="6.57501">
        <ele>1759.9</ele>
        <time>2017-10-13T11:10:02Z</time>
      </trkpt>
      <trkpt lat="45.80187" lon="6.57491">
        <ele>1756.5</ele>
        <time>2017-10-13T11:10:05Z</time>
      </trkpt>
      <trkpt lat="45.8018" lon="6.57481">
        <ele>1750.8</ele>
        <time>2017-10-13T11:10:13Z</time>
      </trkpt>
      <trkpt lat="45.80168" lon="6.57477">
        <ele>1749.4</ele>
        <time>2017-10-13T11:10:16Z</time>
      </trkpt>
      <trkpt lat="45.80159" lon="6.57478">
        <ele>1746.3</ele>
        <time>2017-10-13T11:10:34Z</time>
      </trkpt>
      <trkpt lat="45.8015" lon="6.57474">
        <ele>1745.9</ele>
        <time>2017-10-13T11:11:39Z</time>
      </trkpt>
      <trkpt lat="45.80139" lon="6.57476">
        <ele>1744.6</ele>
        <time>2017-10-13T11:11:59Z</time>
      </trkpt>
      <trkpt lat="45.80131" lon="6.57481">
        <ele>1744.3</ele>
        <time>2017-10-13T11:12:02Z</time>
      </trkpt>
      <trkpt lat="45.80124" lon="6.57492">
        <ele>1743.5</ele>
        <time>2017-10-13T11:12:05Z</time>
      </trkpt>
      <trkpt lat="45.80119" lon="6.57505">
        <ele>1742.8</ele>
        <time>2017-10-13T11:12:08Z</time>
      </trkpt>
      <trkpt lat="45.80116" lon="6.57521">
        <ele>1742</ele>
        <time>2017-10-13T11:12:11Z</time>
      </trkpt>
      <trkpt lat="45.80114" lon="6.57534">
        <ele>1741.5</ele>
        <time>2017-10-13T11:12:13Z</time>
      </trkpt>
      <trkpt lat="45.80111" lon="6.57551">
        <ele>1740.6</ele>
        <time>2017-10-13T11:12:16Z</time>
      </trkpt>
      <trkpt lat="45.80107" lon="6.5757">
        <ele>1739.6</ele>
        <time>2017-10-13T11:12:19Z</time>
      </trkpt>
      <trkpt lat="45.80104" lon="6.57584">
        <ele>1739</ele>
        <time>2017-10-13T11:12:21Z</time>
      </trkpt>
      <trkpt lat="45.80099" lon="6.576">
        <ele>1738.1</ele>
        <time>2017-10-13T11:12:23Z</time>
      </trkpt>
      <trkpt lat="45.80094" lon="6.57616">
        <ele>1737.2</ele>
        <time>2017-10-13T11:12:25Z</time>
      </trkpt>
      <trkpt lat="45.8009" lon="6.57635">
        <ele>1736.2</ele>
        <time>2017-10-13T11:12:27Z</time>
      </trkpt>
      <trkpt lat="45.80084" lon="6.57654">
        <ele>1735.2</ele>
        <time>2017-10-13T11:12:29Z</time>
      </trkpt>
      <trkpt lat="45.80076" lon="6.57669">
        <ele>1734.1</ele>
        <time>2017-10-13T11:12:31Z</time>
      </trkpt>
      <trkpt lat="45.8007" lon="6.57681">
        <ele>1732.9</ele>
        <time>2017-10-13T11:12:33Z</time>
      </trkpt>
      <trkpt lat="45.80061" lon="6.57693">
        <ele>1731.7</ele>
        <time>2017-10-13T11:12:35Z</time>
      </trkpt>
      <trkpt lat="45.80054" lon="6.57705">
        <ele>1730.4</ele>
        <time>2017-10-13T11:12:37Z</time>
      </trkpt>
      <trkpt lat="45.80048" lon="6.5772">
        <ele>1729.2</ele>
        <time>2017-10-13T11:12:39Z</time>
      </trkpt>
      <trkpt lat="45.80043" lon="6.57735">
        <ele>1728.1</ele>
        <time>2017-10-13T11:12:41Z</time>
      </trkpt>
      <trkpt lat="45.80036" lon="6.57748">
        <ele>1726.8</ele>
        <time>2017-10-13T11:12:43Z</time>
      </trkpt>
      <trkpt lat="45.80028" lon="6.57761">
        <ele>1725.4</ele>
        <time>2017-10-13T11:12:45Z</time>
      </trkpt>
      <trkpt lat="45.80021" lon="6.57771">
        <ele>1723.7</ele>
        <time>2017-10-13T11:12:47Z</time>
      </trkpt>
      <trkpt lat="45.80012" lon="6.57773">
        <ele>1722.3</ele>
        <time>2017-10-13T11:12:49Z</time>
      </trkpt>
      <trkpt lat="45.80002" lon="6.57772">
        <ele>1721</ele>
        <time>2017-10-13T11:12:51Z</time>
      </trkpt>
      <trkpt lat="45.79992" lon="6.57772">
        <ele>1719.8</ele>
        <time>2017-10-13T11:12:53Z</time>
      </trkpt>
      <trkpt lat="45.79983" lon="6.57774">
        <ele>1718.6</ele>
        <time>2017-10-13T11:12:55Z</time>
      </trkpt>
      <trkpt lat="45.79978" lon="6.57786">
        <ele>1717.5</ele>
        <time>2017-10-13T11:12:57Z</time>
      </trkpt>
      <trkpt lat="45.79971" lon="6.578">
        <ele>1715.4</ele>
        <time>2017-10-13T11:13:00Z</time>
      </trkpt>
      <trkpt lat="45.79959" lon="6.57794">
        <ele>1713.9</ele>
        <time>2017-10-13T11:13:03Z</time>
      </trkpt>
      <trkpt lat="45.79947" lon="6.57785">
        <ele>1713</ele>
        <time>2017-10-13T11:13:06Z</time>
      </trkpt>
      <trkpt lat="45.79939" lon="6.57778">
        <ele>1712.5</ele>
        <time>2017-10-13T11:13:08Z</time>
      </trkpt>
      <trkpt lat="45.79929" lon="6.57774">
        <ele>1712.3</ele>
        <time>2017-10-13T11:13:10Z</time>
      </trkpt>
      <trkpt lat="45.79919" lon="6.57771">
        <ele>1712</ele>
        <time>2017-10-13T11:13:12Z</time>
      </trkpt>
      <trkpt lat="45.79908" lon="6.57767">
        <ele>1711.8</ele>
        <time>2017-10-13T11:13:15Z</time>
      </trkpt>
      <trkpt lat="45.79898" lon="6.57764">
        <ele>1711.6</ele>
        <time>2017-10-13T11:13:18Z</time>
      </trkpt>
      <trkpt lat="45.79888" lon="6.57761">
        <ele>1711.4</ele>
        <time>2017-10-13T11:13:21Z</time>
      </trkpt>
      <trkpt lat="45.79877" lon="6.57759">
        <ele>1711.3</ele>
        <time>2017-10-13T11:13:25Z</time>
      </trkpt>
      <trkpt lat="45.79865" lon="6.5776">
        <ele>1711.2</ele>
        <time>2017-10-13T11:13:29Z</time>
      </trkpt>
      <trkpt lat="45.79857" lon="6.57764">
        <ele>1711.1</ele>
        <time>2017-10-13T11:13:32Z</time>
      </trkpt>
      <trkpt lat="45.79847" lon="6.5777">
        <ele>1710.9</ele>
        <time>2017-10-13T11:13:35Z</time>
      </trkpt>
      <trkpt lat="45.79836" lon="6.57776">
        <ele>1710.5</ele>
        <time>2017-10-13T11:13:38Z</time>
      </trkpt>
      <trkpt lat="45.79826" lon="6.57781">
        <ele>1710.1</ele>
        <time>2017-10-13T11:13:41Z</time>
      </trkpt>
      <trkpt lat="45.79818" lon="6.57787">
        <ele>1709.7</ele>
        <time>2017-10-13T11:13:44Z</time>
      </trkpt>
      <trkpt lat="45.79809" lon="6.57793">
        <ele>1709</ele>
        <time>2017-10-13T11:13:48Z</time>
      </trkpt>
      <trkpt lat="45.79799" lon="6.57795">
        <ele>1708.5</ele>
        <time>2017-10-13T11:13:51Z</time>
      </trkpt>
      <trkpt lat="45.79787" lon="6.57796">
        <ele>1708</ele>
        <time>2017-10-13T11:13:54Z</time>
      </trkpt>
      <trkpt lat="45.79774" lon="6.57793">
        <ele>1707.4</ele>
        <time>2017-10-13T11:13:57Z</time>
      </trkpt>
      <trkpt lat="45.79764" lon="6.57794">
        <ele>1707</ele>
        <time>2017-10-13T11:13:59Z</time>
      </trkpt>
      <trkpt lat="45.79754" lon="6.57795">
        <ele>1706.5</ele>
        <time>2017-10-13T11:14:01Z</time>
      </trkpt>
      <trkpt lat="45.79743" lon="6.57795">
        <ele>1705.8</ele>
        <time>2017-10-13T11:14:03Z</time>
      </trkpt>
      <trkpt lat="45.79731" lon="6.57798">
        <ele>1704.5</ele>
        <time>2017-10-13T11:14:06Z</time>
      </trkpt>
      <trkpt lat="45.79723" lon="6.57803">
        <ele>1703.5</ele>
        <time>2017-10-13T11:14:09Z</time>
      </trkpt>
      <trkpt lat="45.79714" lon="6.57809">
        <ele>1702.8</ele>
        <time>2017-10-13T11:14:15Z</time>
      </trkpt>
      <trkpt lat="45.79705" lon="6.57815">
        <ele>1702.8</ele>
        <time>2017-10-13T11:14:21Z</time>
      </trkpt>
      <trkpt lat="45.79695" lon="6.57817">
        <ele>1703</ele>
        <time>2017-10-13T11:14:25Z</time>
      </trkpt>
      <trkpt lat="45.79685" lon="6.57821">
        <ele>1703.6</ele>
        <time>2017-10-13T11:14:29Z</time>
      </trkpt>
      <trkpt lat="45.79677" lon="6.57829">
        <ele>1704.4</ele>
        <time>2017-10-13T11:14:33Z</time>
      </trkpt>
      <trkpt lat="45.79673" lon="6.5784">
        <ele>1705.2</ele>
        <time>2017-10-13T11:14:37Z</time>
      </trkpt>
      <trkpt lat="45.79667" lon="6.57853">
        <ele>1705.8</ele>
        <time>2017-10-13T11:14:41Z</time>
      </trkpt>
      <trkpt lat="45.79662" lon="6.57865">
        <ele>1706.3</ele>
        <time>2017-10-13T11:14:45Z</time>
      </trkpt>
      <trkpt lat="45.79653" lon="6.57872">
        <ele>1707.6</ele>
        <time>2017-10-13T11:14:51Z</time>
      </trkpt>
      <trkpt lat="45.79662" lon="6.57864">
        <ele>1708.2</ele>
        <time>2017-10-13T11:15:43Z</time>
      </trkpt>
      <trkpt lat="45.79668" lon="6.57851">
        <ele>1707.8</ele>
        <time>2017-10-13T11:15:46Z</time>
      </trkpt>
      <trkpt lat="45.79672" lon="6.57836">
        <ele>1707.4</ele>
        <time>2017-10-13T11:15:49Z</time>
      </trkpt>
      <trkpt lat="45.79677" lon="6.57824">
        <ele>1707</ele>
        <time>2017-10-13T11:15:52Z</time>
      </trkpt>
      <trkpt lat="45.79685" lon="6.57817">
        <ele>1706.1</ele>
        <time>2017-10-13T11:15:56Z</time>
      </trkpt>
      <trkpt lat="45.79696" lon="6.57816">
        <ele>1704.6</ele>
        <time>2017-10-13T11:19:30Z</time>
      </trkpt>
      <trkpt lat="45.79707" lon="6.57813">
        <ele>1704.1</ele>
        <time>2017-10-13T11:19:34Z</time>
      </trkpt>
      <trkpt lat="45.79717" lon="6.57806">
        <ele>1703.7</ele>
        <time>2017-10-13T11:19:37Z</time>
      </trkpt>
      <trkpt lat="45.79728" lon="6.57799">
        <ele>1703.3</ele>
        <time>2017-10-13T11:19:40Z</time>
      </trkpt>
      <trkpt lat="45.79738" lon="6.57795">
        <ele>1702.9</ele>
        <time>2017-10-13T11:19:44Z</time>
      </trkpt>
      <trkpt lat="45.79748" lon="6.57792">
        <ele>1703.2</ele>
        <time>2017-10-13T11:19:50Z</time>
      </trkpt>
      <trkpt lat="45.79759" lon="6.57791">
        <ele>1703.8</ele>
        <time>2017-10-13T11:19:56Z</time>
      </trkpt>
      <trkpt lat="45.79768" lon="6.57792">
        <ele>1704.6</ele>
        <time>2017-10-13T11:20:01Z</time>
      </trkpt>
      <trkpt lat="45.79778" lon="6.57794">
        <ele>1705.4</ele>
        <time>2017-10-13T11:20:07Z</time>
      </trkpt>
      <trkpt lat="45.79787" lon="6.57796">
        <ele>1706</ele>
        <time>2017-10-13T11:20:13Z</time>
      </trkpt>
      <trkpt lat="45.79796" lon="6.57795">
        <ele>1706.7</ele>
        <time>2017-10-13T11:20:19Z</time>
      </trkpt>
      <trkpt lat="45.79806" lon="6.57794">
        <ele>1707.3</ele>
        <time>2017-10-13T11:20:24Z</time>
      </trkpt>
      <trkpt lat="45.79815" lon="6.57789">
        <ele>1708</ele>
        <time>2017-10-13T11:20:30Z</time>
      </trkpt>
      <trkpt lat="45.79824" lon="6.57783">
        <ele>1708.4</ele>
        <time>2017-10-13T11:20:35Z</time>
      </trkpt>
      <trkpt lat="45.79833" lon="6.57778">
        <ele>1708.9</ele>
        <time>2017-10-13T11:20:40Z</time>
      </trkpt>
      <trkpt lat="45.79843" lon="6.57774">
        <ele>1709.4</ele>
        <time>2017-10-13T11:20:45Z</time>
      </trkpt>
      <trkpt lat="45.79852" lon="6.5777">
        <ele>1709.8</ele>
        <time>2017-10-13T11:20:50Z</time>
      </trkpt>
      <trkpt lat="45.79861" lon="6.57765">
        <ele>1710.3</ele>
        <time>2017-10-13T11:20:55Z</time>
      </trkpt>
      <trkpt lat="45.7987" lon="6.57762">
        <ele>1710.7</ele>
        <time>2017-10-13T11:21:00Z</time>
      </trkpt>
      <trkpt lat="45.79881" lon="6.57761">
        <ele>1711.1</ele>
        <time>2017-10-13T11:21:05Z</time>
      </trkpt>
      <trkpt lat="45.79891" lon="6.57762">
        <ele>1711.3</ele>
        <time>2017-10-13T11:21:09Z</time>
      </trkpt>
      <trkpt lat="45.79902" lon="6.57766">
        <ele>1711.4</ele>
        <time>2017-10-13T11:21:13Z</time>
      </trkpt>
      <trkpt lat="45.79911" lon="6.5777">
        <ele>1711.3</ele>
        <time>2017-10-13T11:21:16Z</time>
      </trkpt>
      <trkpt lat="45.79923" lon="6.57774">
        <ele>1711.2</ele>
        <time>2017-10-13T11:21:20Z</time>
      </trkpt>
      <trkpt lat="45.79933" lon="6.57777">
        <ele>1711.1</ele>
        <time>2017-10-13T11:21:23Z</time>
      </trkpt>
      <trkpt lat="45.79942" lon="6.5778">
        <ele>1711</ele>
        <time>2017-10-13T11:21:26Z</time>
      </trkpt>
      <trkpt lat="45.79952" lon="6.57789">
        <ele>1711</ele>
        <time>2017-10-13T11:21:30Z</time>
      </trkpt>
      <trkpt lat="45.79961" lon="6.57795">
        <ele>1711.1</ele>
        <time>2017-10-13T11:21:34Z</time>
      </trkpt>
      <trkpt lat="45.7997" lon="6.57802">
        <ele>1711.5</ele>
        <time>2017-10-13T11:21:38Z</time>
      </trkpt>
      <trkpt lat="45.7998" lon="6.57798">
        <ele>1711.9</ele>
        <time>2017-10-13T11:21:43Z</time>
      </trkpt>
      <trkpt lat="45.79983" lon="6.57784">
        <ele>1712.9</ele>
        <time>2017-10-13T11:21:48Z</time>
      </trkpt>
      <trkpt lat="45.7999" lon="6.57776">
        <ele>1714.2</ele>
        <time>2017-10-13T11:21:53Z</time>
      </trkpt>
      <trkpt lat="45.79999" lon="6.57774">
        <ele>1715.3</ele>
        <time>2017-10-13T11:21:59Z</time>
      </trkpt>
      <trkpt lat="45.80008" lon="6.57772">
        <ele>1716.9</ele>
        <time>2017-10-13T11:22:06Z</time>
      </trkpt>
      <trkpt lat="45.80017" lon="6.57771">
        <ele>1718</ele>
        <time>2017-10-13T11:22:12Z</time>
      </trkpt>
      <trkpt lat="45.80027" lon="6.57769">
        <ele>1718.8</ele>
        <time>2017-10-13T11:22:17Z</time>
      </trkpt>
      <trkpt lat="45.80032" lon="6.57759">
        <ele>1720.6</ele>
        <time>2017-10-13T11:22:25Z</time>
      </trkpt>
      <trkpt lat="45.8004" lon="6.5775">
        <ele>1721.9</ele>
        <time>2017-10-13T11:22:32Z</time>
      </trkpt>
      <trkpt lat="45.80046" lon="6.57739">
        <ele>1723.1</ele>
        <time>2017-10-13T11:22:39Z</time>
      </trkpt>
      <trkpt lat="45.8005" lon="6.57727">
        <ele>1724.5</ele>
        <time>2017-10-13T11:22:46Z</time>
      </trkpt>
      <trkpt lat="45.80054" lon="6.57713">
        <ele>1725.3</ele>
        <time>2017-10-13T11:22:53Z</time>
      </trkpt>
      <trkpt lat="45.8006" lon="6.57702">
        <ele>1726.6</ele>
        <time>2017-10-13T11:23:00Z</time>
      </trkpt>
      <trkpt lat="45.80066" lon="6.57692">
        <ele>1727.8</ele>
        <time>2017-10-13T11:23:06Z</time>
      </trkpt>
      <trkpt lat="45.80074" lon="6.57682">
        <ele>1729</ele>
        <time>2017-10-13T11:23:13Z</time>
      </trkpt>
      <trkpt lat="45.80078" lon="6.57669">
        <ele>1730</ele>
        <time>2017-10-13T11:23:20Z</time>
      </trkpt>
      <trkpt lat="45.80084" lon="6.57658">
        <ele>1730.8</ele>
        <time>2017-10-13T11:23:26Z</time>
      </trkpt>
      <trkpt lat="45.8009" lon="6.57646">
        <ele>1731.7</ele>
        <time>2017-10-13T11:23:32Z</time>
      </trkpt>
      <trkpt lat="45.80094" lon="6.57632">
        <ele>1732.7</ele>
        <time>2017-10-13T11:23:39Z</time>
      </trkpt>
      <trkpt lat="45.80096" lon="6.57619">
        <ele>1733.8</ele>
        <time>2017-10-13T11:23:45Z</time>
      </trkpt>
      <trkpt lat="45.80098" lon="6.57606">
        <ele>1735</ele>
        <time>2017-10-13T11:23:52Z</time>
      </trkpt>
      <trkpt lat="45.80103" lon="6.57593">
        <ele>1736</ele>
        <time>2017-10-13T11:23:58Z</time>
      </trkpt>
      <trkpt lat="45.80108" lon="6.57582">
        <ele>1736.8</ele>
        <time>2017-10-13T11:24:03Z</time>
      </trkpt>
      <trkpt lat="45.80111" lon="6.57567">
        <ele>1737.7</ele>
        <time>2017-10-13T11:24:09Z</time>
      </trkpt>
      <trkpt lat="45.80113" lon="6.57553">
        <ele>1738.4</ele>
        <time>2017-10-13T11:24:14Z</time>
      </trkpt>
      <trkpt lat="45.80114" lon="6.57539">
        <ele>1739.3</ele>
        <time>2017-10-13T11:24:20Z</time>
      </trkpt>
      <trkpt lat="45.80116" lon="6.57526">
        <ele>1740.2</ele>
        <time>2017-10-13T11:24:25Z</time>
      </trkpt>
      <trkpt lat="45.8012" lon="6.57512">
        <ele>1741</ele>
        <time>2017-10-13T11:24:31Z</time>
      </trkpt>
      <trkpt lat="45.80125" lon="6.575">
        <ele>1741.8</ele>
        <time>2017-10-13T11:24:36Z</time>
      </trkpt>
      <trkpt lat="45.8013" lon="6.57489">
        <ele>1742.4</ele>
        <time>2017-10-13T11:24:41Z</time>
      </trkpt>
      <trkpt lat="45.80137" lon="6.57479">
        <ele>1743.4</ele>
        <time>2017-10-13T11:24:47Z</time>
      </trkpt>
      <trkpt lat="45.80146" lon="6.57474">
        <ele>1744.7</ele>
        <time>2017-10-13T11:24:54Z</time>
      </trkpt>
      <trkpt lat="45.80155" lon="6.57471">
        <ele>1745.7</ele>
        <time>2017-10-13T11:25:00Z</time>
      </trkpt>
      <trkpt lat="45.80166" lon="6.57467">
        <ele>1746</ele>
        <time>2017-10-13T11:25:07Z</time>
      </trkpt>
      <trkpt lat="45.80176" lon="6.57468">
        <ele>1745.8</ele>
        <time>2017-10-13T11:25:12Z</time>
      </trkpt>
      <trkpt lat="45.80186" lon="6.57466">
        <ele>1745.3</ele>
        <time>2017-10-13T11:25:15Z</time>
      </trkpt>
      <trkpt lat="45.80196" lon="6.57466">
        <ele>1745.1</ele>
        <time>2017-10-13T11:25:17Z</time>
      </trkpt>
      <trkpt lat="45.80207" lon="6.5747">
        <ele>1744.7</ele>
        <time>2017-10-13T11:25:19Z</time>
      </trkpt>
      <trkpt lat="45.80219" lon="6.57478">
        <ele>1744.1</ele>
        <time>2017-10-13T11:25:21Z</time>
      </trkpt>
      <trkpt lat="45.80231" lon="6.57487">
        <ele>1743.1</ele>
        <time>2017-10-13T11:25:23Z</time>
      </trkpt>
      <trkpt lat="45.80242" lon="6.57496">
        <ele>1741.2</ele>
        <time>2017-10-13T11:25:26Z</time>
      </trkpt>
      <trkpt lat="45.80252" lon="6.57504">
        <ele>1739.7</ele>
        <time>2017-10-13T11:25:29Z</time>
      </trkpt>
      <trkpt lat="45.8026" lon="6.5751">
        <ele>1738.7</ele>
        <time>2017-10-13T11:25:31Z</time>
      </trkpt>
      <trkpt lat="45.80271" lon="6.57519">
        <ele>1737.5</ele>
        <time>2017-10-13T11:25:33Z</time>
      </trkpt>
      <trkpt lat="45.80283" lon="6.57527">
        <ele>1735.7</ele>
        <time>2017-10-13T11:25:35Z</time>
      </trkpt>
      <trkpt lat="45.80296" lon="6.57536">
        <ele>1733.8</ele>
        <time>2017-10-13T11:25:37Z</time>
      </trkpt>
      <trkpt lat="45.8031" lon="6.57544">
        <ele>1731.6</ele>
        <time>2017-10-13T11:25:39Z</time>
      </trkpt>
      <trkpt lat="45.80322" lon="6.57556">
        <ele>1729.3</ele>
        <time>2017-10-13T11:25:41Z</time>
      </trkpt>
      <trkpt lat="45.80334" lon="6.57569">
        <ele>1726.9</ele>
        <time>2017-10-13T11:25:43Z</time>
      </trkpt>
      <trkpt lat="45.80343" lon="6.57584">
        <ele>1724.3</ele>
        <time>2017-10-13T11:25:45Z</time>
      </trkpt>
      <trkpt lat="45.80353" lon="6.57597">
        <ele>1721.5</ele>
        <time>2017-10-13T11:25:47Z</time>
      </trkpt>
      <trkpt lat="45.80361" lon="6.5761">
        <ele>1718.5</ele>
        <time>2017-10-13T11:25:49Z</time>
      </trkpt>
      <trkpt lat="45.80368" lon="6.57625">
        <ele>1715.8</ele>
        <time>2017-10-13T11:25:51Z</time>
      </trkpt>
      <trkpt lat="45.80377" lon="6.57631">
        <ele>1713.6</ele>
        <time>2017-10-13T11:25:53Z</time>
      </trkpt>
      <trkpt lat="45.80386" lon="6.57636">
        <ele>1711.9</ele>
        <time>2017-10-13T11:25:55Z</time>
      </trkpt>
      <trkpt lat="45.80398" lon="6.57638">
        <ele>1710.4</ele>
        <time>2017-10-13T11:25:58Z</time>
      </trkpt>
      <trkpt lat="45.80405" lon="6.57656">
        <ele>1708.7</ele>
        <time>2017-10-13T11:26:01Z</time>
      </trkpt>
      <trkpt lat="45.80411" lon="6.57667">
        <ele>1707.2</ele>
        <time>2017-10-13T11:26:03Z</time>
      </trkpt>
      <trkpt lat="45.80419" lon="6.57661">
        <ele>1704.2</ele>
        <time>2017-10-13T11:26:07Z</time>
      </trkpt>
      <trkpt lat="45.80426" lon="6.57649">
        <ele>1701.7</ele>
        <time>2017-10-13T11:26:18Z</time>
      </trkpt>
      <trkpt lat="45.8043" lon="6.57633">
        <ele>1701.2</ele>
        <time>2017-10-13T11:26:22Z</time>
      </trkpt>
      <trkpt lat="45.80434" lon="6.57621">
        <ele>1700.4</ele>
        <time>2017-10-13T11:26:24Z</time>
      </trkpt>
      <trkpt lat="45.80442" lon="6.57609">
        <ele>1699.3</ele>
        <time>2017-10-13T11:26:26Z</time>
      </trkpt>
      <trkpt lat="45.80453" lon="6.57595">
        <ele>1698.1</ele>
        <time>2017-10-13T11:26:28Z</time>
      </trkpt>
      <trkpt lat="45.80463" lon="6.5758">
        <ele>1696.8</ele>
        <time>2017-10-13T11:26:30Z</time>
      </trkpt>
      <trkpt lat="45.80475" lon="6.57562">
        <ele>1695.6</ele>
        <time>2017-10-13T11:26:32Z</time>
      </trkpt>
      <trkpt lat="45.80482" lon="6.57553">
        <ele>1694.8</ele>
        <time>2017-10-13T11:26:33Z</time>
      </trkpt>
      <trkpt lat="45.80489" lon="6.57544">
        <ele>1693.9</ele>
        <time>2017-10-13T11:26:34Z</time>
      </trkpt>
      <trkpt lat="45.80496" lon="6.57535">
        <ele>1692.9</ele>
        <time>2017-10-13T11:26:35Z</time>
      </trkpt>
      <trkpt lat="45.80504" lon="6.57527">
        <ele>1692</ele>
        <time>2017-10-13T11:26:36Z</time>
      </trkpt>
      <trkpt lat="45.80515" lon="6.57507">
        <ele>1689.7</ele>
        <time>2017-10-13T11:26:38Z</time>
      </trkpt>
      <trkpt lat="45.80525" lon="6.57487">
        <ele>1687.3</ele>
        <time>2017-10-13T11:26:40Z</time>
      </trkpt>
      <trkpt lat="45.80533" lon="6.57467">
        <ele>1684.6</ele>
        <time>2017-10-13T11:26:42Z</time>
      </trkpt>
      <trkpt lat="45.80541" lon="6.5745">
        <ele>1681.9</ele>
        <time>2017-10-13T11:26:44Z</time>
      </trkpt>
      <trkpt lat="45.8055" lon="6.57433">
        <ele>1679.2</ele>
        <time>2017-10-13T11:26:46Z</time>
      </trkpt>
      <trkpt lat="45.80556" lon="6.57421">
        <ele>1676.4</ele>
        <time>2017-10-13T11:26:48Z</time>
      </trkpt>
      <trkpt lat="45.80563" lon="6.57406">
        <ele>1672</ele>
        <time>2017-10-13T11:26:51Z</time>
      </trkpt>
      <trkpt lat="45.80566" lon="6.57388">
        <ele>1667.3</ele>
        <time>2017-10-13T11:26:54Z</time>
      </trkpt>
      <trkpt lat="45.80567" lon="6.57371">
        <ele>1664</ele>
        <time>2017-10-13T11:26:56Z</time>
      </trkpt>
      <trkpt lat="45.80569" lon="6.57353">
        <ele>1660.4</ele>
        <time>2017-10-13T11:26:58Z</time>
      </trkpt>
      <trkpt lat="45.80571" lon="6.57335">
        <ele>1656.8</ele>
        <time>2017-10-13T11:27:00Z</time>
      </trkpt>
      <trkpt lat="45.80579" lon="6.5734">
        <ele>1647.9</ele>
        <time>2017-10-13T11:27:07Z</time>
      </trkpt>
      <trkpt lat="45.8058" lon="6.57355">
        <ele>1645.9</ele>
        <time>2017-10-13T11:27:11Z</time>
      </trkpt>
      <trkpt lat="45.80584" lon="6.57367">
        <ele>1645.8</ele>
        <time>2017-10-13T11:27:14Z</time>
      </trkpt>
      <trkpt lat="45.80591" lon="6.57383">
        <ele>1645.9</ele>
        <time>2017-10-13T11:27:17Z</time>
      </trkpt>
      <trkpt lat="45.80596" lon="6.57395">
        <ele>1645.9</ele>
        <time>2017-10-13T11:27:19Z</time>
      </trkpt>
      <trkpt lat="45.806" lon="6.57409">
        <ele>1645.8</ele>
        <time>2017-10-13T11:27:21Z</time>
      </trkpt>
      <trkpt lat="45.80603" lon="6.57423">
        <ele>1645.5</ele>
        <time>2017-10-13T11:27:23Z</time>
      </trkpt>
      <trkpt lat="45.80608" lon="6.57437">
        <ele>1645.2</ele>
        <time>2017-10-13T11:27:25Z</time>
      </trkpt>
      <trkpt lat="45.80612" lon="6.57451">
        <ele>1644.9</ele>
        <time>2017-10-13T11:27:27Z</time>
      </trkpt>
      <trkpt lat="45.80617" lon="6.57464">
        <ele>1644.7</ele>
        <time>2017-10-13T11:27:29Z</time>
      </trkpt>
      <trkpt lat="45.80621" lon="6.57479">
        <ele>1644.2</ele>
        <time>2017-10-13T11:27:31Z</time>
      </trkpt>
      <trkpt lat="45.80624" lon="6.57493">
        <ele>1643.2</ele>
        <time>2017-10-13T11:27:33Z</time>
      </trkpt>
      <trkpt lat="45.80628" lon="6.5748">
        <ele>1639.1</ele>
        <time>2017-10-13T11:27:44Z</time>
      </trkpt>
      <trkpt lat="45.8063" lon="6.57465">
        <ele>1638</ele>
        <time>2017-10-13T11:27:47Z</time>
      </trkpt>
      <trkpt lat="45.8063" lon="6.5745">
        <ele>1636.9</ele>
        <time>2017-10-13T11:27:49Z</time>
      </trkpt>
      <trkpt lat="45.80628" lon="6.57436">
        <ele>1635.5</ele>
        <time>2017-10-13T11:27:51Z</time>
      </trkpt>
      <trkpt lat="45.80624" lon="6.57422">
        <ele>1633.1</ele>
        <time>2017-10-13T11:27:54Z</time>
      </trkpt>
      <trkpt lat="45.80625" lon="6.57408">
        <ele>1631</ele>
        <time>2017-10-13T11:27:57Z</time>
      </trkpt>
      <trkpt lat="45.80624" lon="6.57392">
        <ele>1629.4</ele>
        <time>2017-10-13T11:27:59Z</time>
      </trkpt>
      <trkpt lat="45.80624" lon="6.57375">
        <ele>1627.8</ele>
        <time>2017-10-13T11:28:01Z</time>
      </trkpt>
      <trkpt lat="45.80626" lon="6.57358">
        <ele>1626</ele>
        <time>2017-10-13T11:28:03Z</time>
      </trkpt>
      <trkpt lat="45.80628" lon="6.5734">
        <ele>1624.3</ele>
        <time>2017-10-13T11:28:05Z</time>
      </trkpt>
      <trkpt lat="45.80628" lon="6.57321">
        <ele>1622.5</ele>
        <time>2017-10-13T11:28:07Z</time>
      </trkpt>
      <trkpt lat="45.80627" lon="6.57302">
        <ele>1620.9</ele>
        <time>2017-10-13T11:28:09Z</time>
      </trkpt>
      <trkpt lat="45.80627" lon="6.57286">
        <ele>1619.4</ele>
        <time>2017-10-13T11:28:11Z</time>
      </trkpt>
      <trkpt lat="45.80628" lon="6.5727">
        <ele>1617.9</ele>
        <time>2017-10-13T11:28:13Z</time>
      </trkpt>
      <trkpt lat="45.80627" lon="6.57255">
        <ele>1616.3</ele>
        <time>2017-10-13T11:28:15Z</time>
      </trkpt>
      <trkpt lat="45.80622" lon="6.57241">
        <ele>1614.6</ele>
        <time>2017-10-13T11:28:17Z</time>
      </trkpt>
      <trkpt lat="45.8062" lon="6.57225">
        <ele>1613.1</ele>
        <time>2017-10-13T11:28:19Z</time>
      </trkpt>
      <trkpt lat="45.80621" lon="6.57209">
        <ele>1611.4</ele>
        <time>2017-10-13T11:28:21Z</time>
      </trkpt>
      <trkpt lat="45.80619" lon="6.57188">
        <ele>1609.6</ele>
        <time>2017-10-13T11:28:23Z</time>
      </trkpt>
      <trkpt lat="45.80617" lon="6.57169">
        <ele>1607.8</ele>
        <time>2017-10-13T11:28:25Z</time>
      </trkpt>
      <trkpt lat="45.80626" lon="6.57185">
        <ele>1601.7</ele>
        <time>2017-10-13T11:28:35Z</time>
      </trkpt>
      <trkpt lat="45.80634" lon="6.57201">
        <ele>1600.4</ele>
        <time>2017-10-13T11:28:37Z</time>
      </trkpt>
      <trkpt lat="45.80641" lon="6.57215">
        <ele>1598.8</ele>
        <time>2017-10-13T11:28:39Z</time>
      </trkpt>
      <trkpt lat="45.80647" lon="6.57227">
        <ele>1597.3</ele>
        <time>2017-10-13T11:28:41Z</time>
      </trkpt>
      <trkpt lat="45.80653" lon="6.5724">
        <ele>1596</ele>
        <time>2017-10-13T11:28:43Z</time>
      </trkpt>
      <trkpt lat="45.8066" lon="6.57251">
        <ele>1594.6</ele>
        <time>2017-10-13T11:28:45Z</time>
      </trkpt>
      <trkpt lat="45.80668" lon="6.57263">
        <ele>1593.1</ele>
        <time>2017-10-13T11:28:47Z</time>
      </trkpt>
      <trkpt lat="45.80678" lon="6.57276">
        <ele>1590.8</ele>
        <time>2017-10-13T11:28:50Z</time>
      </trkpt>
      <trkpt lat="45.80682" lon="6.57288">
        <ele>1589.7</ele>
        <time>2017-10-13T11:28:52Z</time>
      </trkpt>
      <trkpt lat="45.80687" lon="6.57271">
        <ele>1584.8</ele>
        <time>2017-10-13T11:29:00Z</time>
      </trkpt>
      <trkpt lat="45.80684" lon="6.57251">
        <ele>1583.1</ele>
        <time>2017-10-13T11:29:03Z</time>
      </trkpt>
      <trkpt lat="45.80682" lon="6.57235">
        <ele>1581.8</ele>
        <time>2017-10-13T11:29:05Z</time>
      </trkpt>
      <trkpt lat="45.80678" lon="6.57219">
        <ele>1580.3</ele>
        <time>2017-10-13T11:29:07Z</time>
      </trkpt>
      <trkpt lat="45.80673" lon="6.57206">
        <ele>1578.8</ele>
        <time>2017-10-13T11:29:09Z</time>
      </trkpt>
      <trkpt lat="45.8067" lon="6.57192">
        <ele>1575.8</ele>
        <time>2017-10-13T11:29:13Z</time>
      </trkpt>
      <trkpt lat="45.80671" lon="6.57178">
        <ele>1574.3</ele>
        <time>2017-10-13T11:29:16Z</time>
      </trkpt>
      <trkpt lat="45.80671" lon="6.5716">
        <ele>1573.1</ele>
        <time>2017-10-13T11:29:18Z</time>
      </trkpt>
      <trkpt lat="45.80673" lon="6.57138">
        <ele>1571.7</ele>
        <time>2017-10-13T11:29:20Z</time>
      </trkpt>
      <trkpt lat="45.80673" lon="6.57121">
        <ele>1570</ele>
        <time>2017-10-13T11:29:22Z</time>
      </trkpt>
      <trkpt lat="45.80668" lon="6.57109">
        <ele>1568.3</ele>
        <time>2017-10-13T11:29:24Z</time>
      </trkpt>
      <trkpt lat="45.80665" lon="6.57097">
        <ele>1566.7</ele>
        <time>2017-10-13T11:29:26Z</time>
      </trkpt>
      <trkpt lat="45.80661" lon="6.57079">
        <ele>1564.3</ele>
        <time>2017-10-13T11:29:29Z</time>
      </trkpt>
      <trkpt lat="45.8066" lon="6.57063">
        <ele>1562.6</ele>
        <time>2017-10-13T11:29:31Z</time>
      </trkpt>
      <trkpt lat="45.80658" lon="6.57045">
        <ele>1560.6</ele>
        <time>2017-10-13T11:29:33Z</time>
      </trkpt>
      <trkpt lat="45.80656" lon="6.57027">
        <ele>1558.6</ele>
        <time>2017-10-13T11:29:35Z</time>
      </trkpt>
      <trkpt lat="45.80655" lon="6.57011">
        <ele>1556.7</ele>
        <time>2017-10-13T11:29:37Z</time>
      </trkpt>
      <trkpt lat="45.80655" lon="6.56994">
        <ele>1555.1</ele>
        <time>2017-10-13T11:29:39Z</time>
      </trkpt>
      <trkpt lat="45.80655" lon="6.56973">
        <ele>1553.6</ele>
        <time>2017-10-13T11:29:41Z</time>
      </trkpt>
      <trkpt lat="45.80654" lon="6.56956">
        <ele>1551.9</ele>
        <time>2017-10-13T11:29:43Z</time>
      </trkpt>
      <trkpt lat="45.80652" lon="6.56938">
        <ele>1549.8</ele>
        <time>2017-10-13T11:29:45Z</time>
      </trkpt>
      <trkpt lat="45.80649" lon="6.5692">
        <ele>1547.4</ele>
        <time>2017-10-13T11:29:47Z</time>
      </trkpt>
      <trkpt lat="45.80646" lon="6.56901">
        <ele>1544.3</ele>
        <time>2017-10-13T11:29:49Z</time>
      </trkpt>
      <trkpt lat="45.80643" lon="6.56887">
        <ele>1541.4</ele>
        <time>2017-10-13T11:29:51Z</time>
      </trkpt>
      <trkpt lat="45.80641" lon="6.56871">
        <ele>1538.7</ele>
        <time>2017-10-13T11:29:53Z</time>
      </trkpt>
      <trkpt lat="45.80638" lon="6.56854">
        <ele>1536.5</ele>
        <time>2017-10-13T11:29:55Z</time>
      </trkpt>
      <trkpt lat="45.80638" lon="6.56838">
        <ele>1534.5</ele>
        <time>2017-10-13T11:29:57Z</time>
      </trkpt>
      <trkpt lat="45.80638" lon="6.56821">
        <ele>1533.1</ele>
        <time>2017-10-13T11:29:59Z</time>
      </trkpt>
      <trkpt lat="45.80636" lon="6.56805">
        <ele>1531.8</ele>
        <time>2017-10-13T11:30:01Z</time>
      </trkpt>
      <trkpt lat="45.80632" lon="6.5679">
        <ele>1530.2</ele>
        <time>2017-10-13T11:30:03Z</time>
      </trkpt>
      <trkpt lat="45.80628" lon="6.56774">
        <ele>1528.2</ele>
        <time>2017-10-13T11:30:05Z</time>
      </trkpt>
      <trkpt lat="45.80624" lon="6.56754">
        <ele>1526.1</ele>
        <time>2017-10-13T11:30:07Z</time>
      </trkpt>
      <trkpt lat="45.80621" lon="6.56732">
        <ele>1523.9</ele>
        <time>2017-10-13T11:30:09Z</time>
      </trkpt>
      <trkpt lat="45.80619" lon="6.56713">
        <ele>1521.8</ele>
        <time>2017-10-13T11:30:11Z</time>
      </trkpt>
      <trkpt lat="45.80617" lon="6.56694">
        <ele>1519.7</ele>
        <time>2017-10-13T11:30:13Z</time>
      </trkpt>
      <trkpt lat="45.80613" lon="6.56679">
        <ele>1517.6</ele>
        <time>2017-10-13T11:30:15Z</time>
      </trkpt>
      <trkpt lat="45.80622" lon="6.56682">
        <ele>1511.9</ele>
        <time>2017-10-13T11:30:22Z</time>
      </trkpt>
      <trkpt lat="45.80628" lon="6.56695">
        <ele>1510.3</ele>
        <time>2017-10-13T11:30:24Z</time>
      </trkpt>
      <trkpt lat="45.80634" lon="6.56708">
        <ele>1508.8</ele>
        <time>2017-10-13T11:30:26Z</time>
      </trkpt>
      <trkpt lat="45.80639" lon="6.56722">
        <ele>1507.2</ele>
        <time>2017-10-13T11:30:28Z</time>
      </trkpt>
      <trkpt lat="45.80644" lon="6.56734">
        <ele>1505.6</ele>
        <time>2017-10-13T11:30:30Z</time>
      </trkpt>
      <trkpt lat="45.8065" lon="6.56748">
        <ele>1503.4</ele>
        <time>2017-10-13T11:30:33Z</time>
      </trkpt>
      <trkpt lat="45.80662" lon="6.56758">
        <ele>1501.2</ele>
        <time>2017-10-13T11:30:36Z</time>
      </trkpt>
      <trkpt lat="45.80671" lon="6.56765">
        <ele>1499.7</ele>
        <time>2017-10-13T11:30:38Z</time>
      </trkpt>
      <trkpt lat="45.80679" lon="6.56774">
        <ele>1498.2</ele>
        <time>2017-10-13T11:30:40Z</time>
      </trkpt>
      <trkpt lat="45.80686" lon="6.56786">
        <ele>1496.6</ele>
        <time>2017-10-13T11:30:42Z</time>
      </trkpt>
      <trkpt lat="45.80695" lon="6.56801">
        <ele>1495</ele>
        <time>2017-10-13T11:30:44Z</time>
      </trkpt>
      <trkpt lat="45.80701" lon="6.56818">
        <ele>1493.2</ele>
        <time>2017-10-13T11:30:46Z</time>
      </trkpt>
      <trkpt lat="45.80707" lon="6.5683">
        <ele>1490.5</ele>
        <time>2017-10-13T11:30:49Z</time>
      </trkpt>
      <trkpt lat="45.80714" lon="6.56842">
        <ele>1486.9</ele>
        <time>2017-10-13T11:30:55Z</time>
      </trkpt>
      <trkpt lat="45.80722" lon="6.56854">
        <ele>1485.7</ele>
        <time>2017-10-13T11:30:57Z</time>
      </trkpt>
      <trkpt lat="45.8073" lon="6.56868">
        <ele>1484.6</ele>
        <time>2017-10-13T11:30:59Z</time>
      </trkpt>
      <trkpt lat="45.80735" lon="6.56881">
        <ele>1482.5</ele>
        <time>2017-10-13T11:31:02Z</time>
      </trkpt>
      <trkpt lat="45.80734" lon="6.56866">
        <ele>1478.1</ele>
        <time>2017-10-13T11:31:11Z</time>
      </trkpt>
      <trkpt lat="45.8073" lon="6.56849">
        <ele>1476.6</ele>
        <time>2017-10-13T11:31:14Z</time>
      </trkpt>
      <trkpt lat="45.80726" lon="6.56835">
        <ele>1475.7</ele>
        <time>2017-10-13T11:31:17Z</time>
      </trkpt>
      <trkpt lat="45.80719" lon="6.56826">
        <ele>1474.9</ele>
        <time>2017-10-13T11:31:20Z</time>
      </trkpt>
      <trkpt lat="45.80713" lon="6.56812">
        <ele>1474.4</ele>
        <time>2017-10-13T11:31:24Z</time>
      </trkpt>
      <trkpt lat="45.80709" lon="6.56794">
        <ele>1474.1</ele>
        <time>2017-10-13T11:31:27Z</time>
      </trkpt>
      <trkpt lat="45.80708" lon="6.56778">
        <ele>1473.3</ele>
        <time>2017-10-13T11:31:29Z</time>
      </trkpt>
      <trkpt lat="45.80705" lon="6.56766">
        <ele>1472.4</ele>
        <time>2017-10-13T11:31:31Z</time>
      </trkpt>
      <trkpt lat="45.80701" lon="6.56755">
        <ele>1471.8</ele>
        <time>2017-10-13T11:31:34Z</time>
      </trkpt>
      <trkpt lat="45.80697" lon="6.56742">
        <ele>1470.3</ele>
        <time>2017-10-13T11:31:38Z</time>
      </trkpt>
      <trkpt lat="45.80706" lon="6.56752">
        <ele>1467.2</ele>
        <time>2017-10-13T11:31:44Z</time>
      </trkpt>
      <trkpt lat="45.80712" lon="6.56761">
        <ele>1464.8</ele>
        <time>2017-10-13T11:31:47Z</time>
      </trkpt>
      <trkpt lat="45.80719" lon="6.56769">
        <ele>1461.2</ele>
        <time>2017-10-13T11:31:51Z</time>
      </trkpt>
      <trkpt lat="45.80721" lon="6.56752">
        <ele>1454.7</ele>
        <time>2017-10-13T11:32:01Z</time>
      </trkpt>
      <trkpt lat="45.80719" lon="6.56739">
        <ele>1453.6</ele>
        <time>2017-10-13T11:32:03Z</time>
      </trkpt>
      <trkpt lat="45.80717" lon="6.56724">
        <ele>1451.9</ele>
        <time>2017-10-13T11:32:06Z</time>
      </trkpt>
      <trkpt lat="45.8071" lon="6.56712">
        <ele>1449.4</ele>
        <time>2017-10-13T11:32:11Z</time>
      </trkpt>
      <trkpt lat="45.80708" lon="6.56699">
        <ele>1447.6</ele>
        <time>2017-10-13T11:32:15Z</time>
      </trkpt>
      <trkpt lat="45.8071" lon="6.56683">
        <ele>1446.6</ele>
        <time>2017-10-13T11:32:18Z</time>
      </trkpt>
      <trkpt lat="45.80712" lon="6.56665">
        <ele>1445.3</ele>
        <time>2017-10-13T11:32:21Z</time>
      </trkpt>
      <trkpt lat="45.80713" lon="6.56647">
        <ele>1444</ele>
        <time>2017-10-13T11:32:24Z</time>
      </trkpt>
      <trkpt lat="45.80714" lon="6.56631">
        <ele>1443</ele>
        <time>2017-10-13T11:32:26Z</time>
      </trkpt>
      <trkpt lat="45.80715" lon="6.56616">
        <ele>1442</ele>
        <time>2017-10-13T11:32:28Z</time>
      </trkpt>
      <trkpt lat="45.80717" lon="6.566">
        <ele>1440.7</ele>
        <time>2017-10-13T11:32:30Z</time>
      </trkpt>
      <trkpt lat="45.80718" lon="6.56586">
        <ele>1439.3</ele>
        <time>2017-10-13T11:32:32Z</time>
      </trkpt>
      <trkpt lat="45.80718" lon="6.56571">
        <ele>1437.9</ele>
        <time>2017-10-13T11:32:34Z</time>
      </trkpt>
      <trkpt lat="45.80721" lon="6.56559">
        <ele>1436.6</ele>
        <time>2017-10-13T11:32:36Z</time>
      </trkpt>
      <trkpt lat="45.80723" lon="6.56544">
        <ele>1435.3</ele>
        <time>2017-10-13T11:32:38Z</time>
      </trkpt>
      <trkpt lat="45.80726" lon="6.56528">
        <ele>1433.8</ele>
        <time>2017-10-13T11:32:40Z</time>
      </trkpt>
      <trkpt lat="45.80728" lon="6.56511">
        <ele>1432.3</ele>
        <time>2017-10-13T11:32:42Z</time>
      </trkpt>
      <trkpt lat="45.80729" lon="6.56493">
        <ele>1430.8</ele>
        <time>2017-10-13T11:32:44Z</time>
      </trkpt>
      <trkpt lat="45.8073" lon="6.56474">
        <ele>1428.9</ele>
        <time>2017-10-13T11:32:46Z</time>
      </trkpt>
      <trkpt lat="45.80731" lon="6.56458">
        <ele>1427.1</ele>
        <time>2017-10-13T11:32:48Z</time>
      </trkpt>
      <trkpt lat="45.80731" lon="6.56441">
        <ele>1425.3</ele>
        <time>2017-10-13T11:32:50Z</time>
      </trkpt>
      <trkpt lat="45.80725" lon="6.56425">
        <ele>1423.5</ele>
        <time>2017-10-13T11:32:52Z</time>
      </trkpt>
      <trkpt lat="45.80719" lon="6.56412">
        <ele>1421</ele>
        <time>2017-10-13T11:32:55Z</time>
      </trkpt>
      <trkpt lat="45.80728" lon="6.56409">
        <ele>1417.1</ele>
        <time>2017-10-13T11:33:01Z</time>
      </trkpt>
      <trkpt lat="45.80737" lon="6.56414">
        <ele>1413.9</ele>
        <time>2017-10-13T11:33:06Z</time>
      </trkpt>
      <trkpt lat="45.80742" lon="6.564">
        <ele>1406.6</ele>
        <time>2017-10-13T11:33:19Z</time>
      </trkpt>
      <trkpt lat="45.80746" lon="6.56389">
        <ele>1404.8</ele>
        <time>2017-10-13T11:33:22Z</time>
      </trkpt>
      <trkpt lat="45.80756" lon="6.56385">
        <ele>1402.7</ele>
        <time>2017-10-13T11:33:25Z</time>
      </trkpt>
      <trkpt lat="45.80765" lon="6.56381">
        <ele>1401.1</ele>
        <time>2017-10-13T11:33:28Z</time>
      </trkpt>
      <trkpt lat="45.80766" lon="6.56367">
        <ele>1398.7</ele>
        <time>2017-10-13T11:34:12Z</time>
      </trkpt>
      <trkpt lat="45.80766" lon="6.56353">
        <ele>1398.2</ele>
        <time>2017-10-13T11:34:15Z</time>
      </trkpt>
      <trkpt lat="45.80764" lon="6.56334">
        <ele>1397.2</ele>
        <time>2017-10-13T11:34:18Z</time>
      </trkpt>
      <trkpt lat="45.80763" lon="6.56318">
        <ele>1396.2</ele>
        <time>2017-10-13T11:34:20Z</time>
      </trkpt>
      <trkpt lat="45.80762" lon="6.56303">
        <ele>1395.3</ele>
        <time>2017-10-13T11:34:22Z</time>
      </trkpt>
      <trkpt lat="45.80762" lon="6.56286">
        <ele>1394.4</ele>
        <time>2017-10-13T11:34:24Z</time>
      </trkpt>
      <trkpt lat="45.80764" lon="6.5627">
        <ele>1393.1</ele>
        <time>2017-10-13T11:34:26Z</time>
      </trkpt>
      <trkpt lat="45.80767" lon="6.56254">
        <ele>1391.6</ele>
        <time>2017-10-13T11:34:28Z</time>
      </trkpt>
      <trkpt lat="45.8077" lon="6.56236">
        <ele>1390.1</ele>
        <time>2017-10-13T11:34:30Z</time>
      </trkpt>
      <trkpt lat="45.80771" lon="6.56216">
        <ele>1388.6</ele>
        <time>2017-10-13T11:34:32Z</time>
      </trkpt>
      <trkpt lat="45.80768" lon="6.56199">
        <ele>1387.2</ele>
        <time>2017-10-13T11:34:34Z</time>
      </trkpt>
      <trkpt lat="45.8076" lon="6.56187">
        <ele>1386.1</ele>
        <time>2017-10-13T11:34:36Z</time>
      </trkpt>
      <trkpt lat="45.80751" lon="6.56175">
        <ele>1384.8</ele>
        <time>2017-10-13T11:34:38Z</time>
      </trkpt>
      <trkpt lat="45.8074" lon="6.56159">
        <ele>1383.4</ele>
        <time>2017-10-13T11:34:40Z</time>
      </trkpt>
      <trkpt lat="45.80731" lon="6.56141">
        <ele>1382.2</ele>
        <time>2017-10-13T11:34:42Z</time>
      </trkpt>
      <trkpt lat="45.80722" lon="6.56122">
        <ele>1381.2</ele>
        <time>2017-10-13T11:34:44Z</time>
      </trkpt>
      <trkpt lat="45.80715" lon="6.56103">
        <ele>1380.4</ele>
        <time>2017-10-13T11:34:46Z</time>
      </trkpt>
      <trkpt lat="45.80708" lon="6.56089">
        <ele>1379.7</ele>
        <time>2017-10-13T11:34:48Z</time>
      </trkpt>
      <trkpt lat="45.80698" lon="6.56088">
        <ele>1377.4</ele>
        <time>2017-10-13T11:36:46Z</time>
      </trkpt>
      <trkpt lat="45.8069" lon="6.56095">
        <ele>1377.5</ele>
        <time>2017-10-13T11:36:49Z</time>
      </trkpt>
      <trkpt lat="45.80679" lon="6.561">
        <ele>1377.5</ele>
        <time>2017-10-13T11:36:53Z</time>
      </trkpt>
      <trkpt lat="45.80669" lon="6.56097">
        <ele>1377.6</ele>
        <time>2017-10-13T11:36:57Z</time>
      </trkpt>
      <trkpt lat="45.80661" lon="6.56089">
        <ele>1377.7</ele>
        <time>2017-10-13T11:37:00Z</time>
      </trkpt>
      <trkpt lat="45.80655" lon="6.56077">
        <ele>1377.8</ele>
        <time>2017-10-13T11:37:03Z</time>
      </trkpt>
      <trkpt lat="45.8065" lon="6.56063">
        <ele>1377.9</ele>
        <time>2017-10-13T11:37:06Z</time>
      </trkpt>
      <trkpt lat="45.80647" lon="6.56047">
        <ele>1377.9</ele>
        <time>2017-10-13T11:37:09Z</time>
      </trkpt>
      <trkpt lat="45.80641" lon="6.56033">
        <ele>1377.8</ele>
        <time>2017-10-13T11:37:12Z</time>
      </trkpt>
      <trkpt lat="45.80636" lon="6.56019">
        <ele>1377.8</ele>
        <time>2017-10-13T11:37:15Z</time>
      </trkpt>
      <trkpt lat="45.80631" lon="6.56005">
        <ele>1377.9</ele>
        <time>2017-10-13T11:37:18Z</time>
      </trkpt>
      <trkpt lat="45.80627" lon="6.55992">
        <ele>1378.1</ele>
        <time>2017-10-13T11:37:21Z</time>
      </trkpt>
      <trkpt lat="45.80623" lon="6.5598">
        <ele>1378.2</ele>
        <time>2017-10-13T11:37:24Z</time>
      </trkpt>
      <trkpt lat="45.80619" lon="6.55968">
        <ele>1378.3</ele>
        <time>2017-10-13T11:37:27Z</time>
      </trkpt>
      <trkpt lat="45.80614" lon="6.55957">
        <ele>1378.5</ele>
        <time>2017-10-13T11:37:30Z</time>
      </trkpt>
      <trkpt lat="45.80608" lon="6.55944">
        <ele>1378.7</ele>
        <time>2017-10-13T11:37:33Z</time>
      </trkpt>
      <trkpt lat="45.80602" lon="6.55933">
        <ele>1378.8</ele>
        <time>2017-10-13T11:37:36Z</time>
      </trkpt>
      <trkpt lat="45.80593" lon="6.55922">
        <ele>1378.9</ele>
        <time>2017-10-13T11:37:39Z</time>
      </trkpt>
      <trkpt lat="45.80582" lon="6.55915">
        <ele>1379.1</ele>
        <time>2017-10-13T11:37:42Z</time>
      </trkpt>
      <trkpt lat="45.80573" lon="6.55911">
        <ele>1379.3</ele>
        <time>2017-10-13T11:37:45Z</time>
      </trkpt>
      <trkpt lat="45.80563" lon="6.55913">
        <ele>1379.7</ele>
        <time>2017-10-13T11:37:48Z</time>
      </trkpt>
      <trkpt lat="45.80555" lon="6.55923">
        <ele>1379.9</ele>
        <time>2017-10-13T11:37:51Z</time>
      </trkpt>
      <trkpt lat="45.8055" lon="6.55937">
        <ele>1380.1</ele>
        <time>2017-10-13T11:37:54Z</time>
      </trkpt>
      <trkpt lat="45.80547" lon="6.5595">
        <ele>1380.3</ele>
        <time>2017-10-13T11:37:57Z</time>
      </trkpt>
      <trkpt lat="45.80544" lon="6.55964">
        <ele>1380.5</ele>
        <time>2017-10-13T11:38:00Z</time>
      </trkpt>
      <trkpt lat="45.80539" lon="6.55977">
        <ele>1380.7</ele>
        <time>2017-10-13T11:38:03Z</time>
      </trkpt>
      <trkpt lat="45.80533" lon="6.55989">
        <ele>1380.9</ele>
        <time>2017-10-13T11:38:06Z</time>
      </trkpt>
      <trkpt lat="45.80527" lon="6.55999">
        <ele>1381.2</ele>
        <time>2017-10-13T11:38:09Z</time>
      </trkpt>
      <trkpt lat="45.80521" lon="6.56009">
        <ele>1381.7</ele>
        <time>2017-10-13T11:38:12Z</time>
      </trkpt>
      <trkpt lat="45.80513" lon="6.5602">
        <ele>1382.4</ele>
        <time>2017-10-13T11:38:16Z</time>
      </trkpt>
      <trkpt lat="45.80506" lon="6.5603">
        <ele>1383.4</ele>
        <time>2017-10-13T11:38:20Z</time>
      </trkpt>
      <trkpt lat="45.80499" lon="6.56038">
        <ele>1384.1</ele>
        <time>2017-10-13T11:38:24Z</time>
      </trkpt>
      <trkpt lat="45.80492" lon="6.56048">
        <ele>1384.6</ele>
        <time>2017-10-13T11:38:28Z</time>
      </trkpt>
      <trkpt lat="45.80484" lon="6.56058">
        <ele>1385.2</ele>
        <time>2017-10-13T11:38:32Z</time>
      </trkpt>
      <trkpt lat="45.80479" lon="6.56069">
        <ele>1385.6</ele>
        <time>2017-10-13T11:38:36Z</time>
      </trkpt>
      <trkpt lat="45.80472" lon="6.56079">
        <ele>1386.2</ele>
        <time>2017-10-13T11:38:40Z</time>
      </trkpt>
      <trkpt lat="45.80467" lon="6.56091">
        <ele>1386.8</ele>
        <time>2017-10-13T11:38:44Z</time>
      </trkpt>
      <trkpt lat="45.80463" lon="6.56103">
        <ele>1387.4</ele>
        <time>2017-10-13T11:38:48Z</time>
      </trkpt>
      <trkpt lat="45.80457" lon="6.56116">
        <ele>1387.9</ele>
        <time>2017-10-13T11:38:52Z</time>
      </trkpt>
      <trkpt lat="45.80452" lon="6.56128">
        <ele>1388.6</ele>
        <time>2017-10-13T11:38:56Z</time>
      </trkpt>
      <trkpt lat="45.80447" lon="6.5614">
        <ele>1389.2</ele>
        <time>2017-10-13T11:39:00Z</time>
      </trkpt>
      <trkpt lat="45.8044" lon="6.56151">
        <ele>1389.9</ele>
        <time>2017-10-13T11:39:05Z</time>
      </trkpt>
      <trkpt lat="45.80435" lon="6.56163">
        <ele>1390.7</ele>
        <time>2017-10-13T11:39:10Z</time>
      </trkpt>
      <trkpt lat="45.8043" lon="6.56175">
        <ele>1391.6</ele>
        <time>2017-10-13T11:39:15Z</time>
      </trkpt>
      <trkpt lat="45.80426" lon="6.56186">
        <ele>1392.3</ele>
        <time>2017-10-13T11:39:19Z</time>
      </trkpt>
      <trkpt lat="45.80422" lon="6.56199">
        <ele>1393.1</ele>
        <time>2017-10-13T11:39:23Z</time>
      </trkpt>
      <trkpt lat="45.80418" lon="6.56211">
        <ele>1393.6</ele>
        <time>2017-10-13T11:39:27Z</time>
      </trkpt>
      <trkpt lat="45.80415" lon="6.56223">
        <ele>1394.2</ele>
        <time>2017-10-13T11:39:31Z</time>
      </trkpt>
      <trkpt lat="45.80411" lon="6.56238">
        <ele>1394.9</ele>
        <time>2017-10-13T11:39:35Z</time>
      </trkpt>
      <trkpt lat="45.80407" lon="6.56253">
        <ele>1395.3</ele>
        <time>2017-10-13T11:39:39Z</time>
      </trkpt>
      <trkpt lat="45.80403" lon="6.56268">
        <ele>1395.6</ele>
        <time>2017-10-13T11:39:43Z</time>
      </trkpt>
      <trkpt lat="45.80397" lon="6.56281">
        <ele>1396</ele>
        <time>2017-10-13T11:39:47Z</time>
      </trkpt>
      <trkpt lat="45.80392" lon="6.56293">
        <ele>1396.3</ele>
        <time>2017-10-13T11:39:50Z</time>
      </trkpt>
      <trkpt lat="45.80386" lon="6.56307">
        <ele>1396.6</ele>
        <time>2017-10-13T11:39:54Z</time>
      </trkpt>
      <trkpt lat="45.8038" lon="6.56321">
        <ele>1396.8</ele>
        <time>2017-10-13T11:39:58Z</time>
      </trkpt>
      <trkpt lat="45.80374" lon="6.56336">
        <ele>1397.3</ele>
        <time>2017-10-13T11:40:02Z</time>
      </trkpt>
      <trkpt lat="45.80368" lon="6.5635">
        <ele>1397.8</ele>
        <time>2017-10-13T11:40:06Z</time>
      </trkpt>
      <trkpt lat="45.8036" lon="6.56362">
        <ele>1398.2</ele>
        <time>2017-10-13T11:40:10Z</time>
      </trkpt>
      <trkpt lat="45.80354" lon="6.56374">
        <ele>1398.8</ele>
        <time>2017-10-13T11:40:14Z</time>
      </trkpt>
      <trkpt lat="45.8035" lon="6.56388">
        <ele>1399.3</ele>
        <time>2017-10-13T11:40:18Z</time>
      </trkpt>
      <trkpt lat="45.80346" lon="6.56403">
        <ele>1399.9</ele>
        <time>2017-10-13T11:40:22Z</time>
      </trkpt>
      <trkpt lat="45.80341" lon="6.56417">
        <ele>1400.5</ele>
        <time>2017-10-13T11:40:26Z</time>
      </trkpt>
      <trkpt lat="45.80338" lon="6.56431">
        <ele>1401</ele>
        <time>2017-10-13T11:40:30Z</time>
      </trkpt>
      <trkpt lat="45.80337" lon="6.56445">
        <ele>1401.7</ele>
        <time>2017-10-13T11:40:34Z</time>
      </trkpt>
      <trkpt lat="45.80337" lon="6.56458">
        <ele>1402.4</ele>
        <time>2017-10-13T11:40:38Z</time>
      </trkpt>
      <trkpt lat="45.80337" lon="6.56472">
        <ele>1403.1</ele>
        <time>2017-10-13T11:40:42Z</time>
      </trkpt>
      <trkpt lat="45.80336" lon="6.56486">
        <ele>1403.8</ele>
        <time>2017-10-13T11:40:46Z</time>
      </trkpt>
      <trkpt lat="45.80333" lon="6.56498">
        <ele>1404.6</ele>
        <time>2017-10-13T11:40:50Z</time>
      </trkpt>
      <trkpt lat="45.80325" lon="6.56507">
        <ele>1405.3</ele>
        <time>2017-10-13T11:40:54Z</time>
      </trkpt>
      <trkpt lat="45.80314" lon="6.56507">
        <ele>1405.8</ele>
        <time>2017-10-13T11:40:58Z</time>
      </trkpt>
      <trkpt lat="45.80304" lon="6.56498">
        <ele>1406.4</ele>
        <time>2017-10-13T11:41:02Z</time>
      </trkpt>
      <trkpt lat="45.80295" lon="6.56491">
        <ele>1406.7</ele>
        <time>2017-10-13T11:41:06Z</time>
      </trkpt>
      <trkpt lat="45.80286" lon="6.56489">
        <ele>1407.4</ele>
        <time>2017-10-13T11:41:10Z</time>
      </trkpt>
      <trkpt lat="45.80276" lon="6.56486">
        <ele>1408.1</ele>
        <time>2017-10-13T11:41:14Z</time>
      </trkpt>
      <trkpt lat="45.80267" lon="6.56487">
        <ele>1408.6</ele>
        <time>2017-10-13T11:41:18Z</time>
      </trkpt>
      <trkpt lat="45.80258" lon="6.56487">
        <ele>1409.2</ele>
        <time>2017-10-13T11:41:22Z</time>
      </trkpt>
      <trkpt lat="45.80249" lon="6.56491">
        <ele>1409.7</ele>
        <time>2017-10-13T11:41:26Z</time>
      </trkpt>
      <trkpt lat="45.8024" lon="6.56497">
        <ele>1410.3</ele>
        <time>2017-10-13T11:41:30Z</time>
      </trkpt>
      <trkpt lat="45.80232" lon="6.56505">
        <ele>1411</ele>
        <time>2017-10-13T11:41:34Z</time>
      </trkpt>
      <trkpt lat="45.80223" lon="6.56515">
        <ele>1411.7</ele>
        <time>2017-10-13T11:41:39Z</time>
      </trkpt>
      <trkpt lat="45.80216" lon="6.56523">
        <ele>1412.6</ele>
        <time>2017-10-13T11:41:43Z</time>
      </trkpt>
      <trkpt lat="45.80207" lon="6.56531">
        <ele>1413.3</ele>
        <time>2017-10-13T11:41:48Z</time>
      </trkpt>
      <trkpt lat="45.80198" lon="6.5654">
        <ele>1413.9</ele>
        <time>2017-10-13T11:41:53Z</time>
      </trkpt>
      <trkpt lat="45.80191" lon="6.5655">
        <ele>1414.5</ele>
        <time>2017-10-13T11:41:57Z</time>
      </trkpt>
      <trkpt lat="45.80183" lon="6.56558">
        <ele>1415.1</ele>
        <time>2017-10-13T11:42:01Z</time>
      </trkpt>
      <trkpt lat="45.80174" lon="6.56565">
        <ele>1415.7</ele>
        <time>2017-10-13T11:42:05Z</time>
      </trkpt>
      <trkpt lat="45.80164" lon="6.56567">
        <ele>1416.2</ele>
        <time>2017-10-13T11:42:09Z</time>
      </trkpt>
      <trkpt lat="45.80154" lon="6.56564">
        <ele>1417.1</ele>
        <time>2017-10-13T11:42:14Z</time>
      </trkpt>
      <trkpt lat="45.80145" lon="6.5657">
        <ele>1418.3</ele>
        <time>2017-10-13T11:42:20Z</time>
      </trkpt>
      <trkpt lat="45.80151" lon="6.56582">
        <ele>1419.3</ele>
        <time>2017-10-13T11:42:25Z</time>
      </trkpt>
      <trkpt lat="45.80162" lon="6.56585">
        <ele>1420.5</ele>
        <time>2017-10-13T11:42:30Z</time>
      </trkpt>
      <trkpt lat="45.80172" lon="6.56585">
        <ele>1421.2</ele>
        <time>2017-10-13T11:42:34Z</time>
      </trkpt>
      <trkpt lat="45.80181" lon="6.56583">
        <ele>1421.9</ele>
        <time>2017-10-13T11:42:38Z</time>
      </trkpt>
      <trkpt lat="45.8019" lon="6.56581">
        <ele>1422.7</ele>
        <time>2017-10-13T11:42:42Z</time>
      </trkpt>
      <trkpt lat="45.80201" lon="6.56578">
        <ele>1423.5</ele>
        <time>2017-10-13T11:42:47Z</time>
      </trkpt>
      <trkpt lat="45.80211" lon="6.56576">
        <ele>1424.6</ele>
        <time>2017-10-13T11:42:52Z</time>
      </trkpt>
      <trkpt lat="45.80221" lon="6.56577">
        <ele>1425.3</ele>
        <time>2017-10-13T11:42:57Z</time>
      </trkpt>
      <trkpt lat="45.8023" lon="6.56578">
        <ele>1426</ele>
        <time>2017-10-13T11:43:01Z</time>
      </trkpt>
      <trkpt lat="45.80241" lon="6.56579">
        <ele>1426.7</ele>
        <time>2017-10-13T11:43:06Z</time>
      </trkpt>
      <trkpt lat="45.80251" lon="6.56582">
        <ele>1427.6</ele>
        <time>2017-10-13T11:43:11Z</time>
      </trkpt>
      <trkpt lat="45.80257" lon="6.56594">
        <ele>1428.4</ele>
        <time>2017-10-13T11:43:16Z</time>
      </trkpt>
      <trkpt lat="45.80249" lon="6.56604">
        <ele>1429.5</ele>
        <time>2017-10-13T11:43:21Z</time>
      </trkpt>
      <trkpt lat="45.80239" lon="6.56601">
        <ele>1430.4</ele>
        <time>2017-10-13T11:43:25Z</time>
      </trkpt>
      <trkpt lat="45.80229" lon="6.56598">
        <ele>1430.8</ele>
        <time>2017-10-13T11:43:29Z</time>
      </trkpt>
      <trkpt lat="45.80218" lon="6.56601">
        <ele>1431.4</ele>
        <time>2017-10-13T11:43:33Z</time>
      </trkpt>
      <trkpt lat="45.80209" lon="6.56606">
        <ele>1431.9</ele>
        <time>2017-10-13T11:43:37Z</time>
      </trkpt>
      <trkpt lat="45.802" lon="6.56611">
        <ele>1432.7</ele>
        <time>2017-10-13T11:43:41Z</time>
      </trkpt>
      <trkpt lat="45.80192" lon="6.56618">
        <ele>1433.4</ele>
        <time>2017-10-13T11:43:45Z</time>
      </trkpt>
      <trkpt lat="45.80185" lon="6.56626">
        <ele>1434.3</ele>
        <time>2017-10-13T11:43:49Z</time>
      </trkpt>
      <trkpt lat="45.80177" lon="6.56637">
        <ele>1435.6</ele>
        <time>2017-10-13T11:43:54Z</time>
      </trkpt>
      <trkpt lat="45.80168" lon="6.56647">
        <ele>1436.7</ele>
        <time>2017-10-13T11:43:59Z</time>
      </trkpt>
      <trkpt lat="45.80159" lon="6.56658">
        <ele>1437</ele>
        <time>2017-10-13T11:44:03Z</time>
      </trkpt>
      <trkpt lat="45.8015" lon="6.56668">
        <ele>1437.3</ele>
        <time>2017-10-13T11:44:07Z</time>
      </trkpt>
      <trkpt lat="45.8014" lon="6.56676">
        <ele>1437.7</ele>
        <time>2017-10-13T11:44:11Z</time>
      </trkpt>
      <trkpt lat="45.80132" lon="6.56683">
        <ele>1438.4</ele>
        <time>2017-10-13T11:44:15Z</time>
      </trkpt>
      <trkpt lat="45.80123" lon="6.56686">
        <ele>1439.2</ele>
        <time>2017-10-13T11:44:19Z</time>
      </trkpt>
      <trkpt lat="45.80114" lon="6.5669">
        <ele>1440</ele>
        <time>2017-10-13T11:44:23Z</time>
      </trkpt>
      <trkpt lat="45.80105" lon="6.56696">
        <ele>1440.7</ele>
        <time>2017-10-13T11:44:27Z</time>
      </trkpt>
      <trkpt lat="45.80095" lon="6.56703">
        <ele>1441.6</ele>
        <time>2017-10-13T11:44:32Z</time>
      </trkpt>
      <trkpt lat="45.80086" lon="6.56707">
        <ele>1442.6</ele>
        <time>2017-10-13T11:44:37Z</time>
      </trkpt>
      <trkpt lat="45.80076" lon="6.56712">
        <ele>1443.8</ele>
        <time>2017-10-13T11:44:42Z</time>
      </trkpt>
      <trkpt lat="45.80068" lon="6.56717">
        <ele>1445.1</ele>
        <time>2017-10-13T11:44:47Z</time>
      </trkpt>
      <trkpt lat="45.80061" lon="6.56726">
        <ele>1446.2</ele>
        <time>2017-10-13T11:44:52Z</time>
      </trkpt>
      <trkpt lat="45.80055" lon="6.56737">
        <ele>1447.3</ele>
        <time>2017-10-13T11:44:57Z</time>
      </trkpt>
      <trkpt lat="45.80051" lon="6.5675">
        <ele>1448.3</ele>
        <time>2017-10-13T11:45:02Z</time>
      </trkpt>
      <trkpt lat="45.80047" lon="6.56763">
        <ele>1449.3</ele>
        <time>2017-10-13T11:45:07Z</time>
      </trkpt>
      <trkpt lat="45.80043" lon="6.56775">
        <ele>1450.3</ele>
        <time>2017-10-13T11:45:12Z</time>
      </trkpt>
      <trkpt lat="45.80037" lon="6.56787">
        <ele>1451</ele>
        <time>2017-10-13T11:45:17Z</time>
      </trkpt>
      <trkpt lat="45.80029" lon="6.56795">
        <ele>1451.6</ele>
        <time>2017-10-13T11:45:21Z</time>
      </trkpt>
      <trkpt lat="45.80021" lon="6.56802">
        <ele>1452.1</ele>
        <time>2017-10-13T11:45:25Z</time>
      </trkpt>
      <trkpt lat="45.80011" lon="6.56808">
        <ele>1452.9</ele>
        <time>2017-10-13T11:45:30Z</time>
      </trkpt>
      <trkpt lat="45.80003" lon="6.56814">
        <ele>1453.7</ele>
        <time>2017-10-13T11:45:34Z</time>
      </trkpt>
      <trkpt lat="45.79995" lon="6.56821">
        <ele>1454.5</ele>
        <time>2017-10-13T11:45:38Z</time>
      </trkpt>
      <trkpt lat="45.79986" lon="6.56828">
        <ele>1455.3</ele>
        <time>2017-10-13T11:45:42Z</time>
      </trkpt>
      <trkpt lat="45.79977" lon="6.56834">
        <ele>1455.7</ele>
        <time>2017-10-13T11:45:46Z</time>
      </trkpt>
      <trkpt lat="45.7997" lon="6.56843">
        <ele>1456.2</ele>
        <time>2017-10-13T11:45:50Z</time>
      </trkpt>
      <trkpt lat="45.79961" lon="6.56851">
        <ele>1456.8</ele>
        <time>2017-10-13T11:45:55Z</time>
      </trkpt>
      <trkpt lat="45.79953" lon="6.56859">
        <ele>1457.3</ele>
        <time>2017-10-13T11:45:59Z</time>
      </trkpt>
      <trkpt lat="45.79944" lon="6.56869">
        <ele>1457.7</ele>
        <time>2017-10-13T11:46:03Z</time>
      </trkpt>
      <trkpt lat="45.79936" lon="6.56879">
        <ele>1458.2</ele>
        <time>2017-10-13T11:46:07Z</time>
      </trkpt>
      <trkpt lat="45.79928" lon="6.5689">
        <ele>1458.8</ele>
        <time>2017-10-13T11:46:11Z</time>
      </trkpt>
      <trkpt lat="45.79921" lon="6.569">
        <ele>1459.1</ele>
        <time>2017-10-13T11:46:15Z</time>
      </trkpt>
      <trkpt lat="45.79915" lon="6.56911">
        <ele>1459.7</ele>
        <time>2017-10-13T11:46:19Z</time>
      </trkpt>
      <trkpt lat="45.79907" lon="6.56921">
        <ele>1460.1</ele>
        <time>2017-10-13T11:46:23Z</time>
      </trkpt>
      <trkpt lat="45.799" lon="6.56929">
        <ele>1460.5</ele>
        <time>2017-10-13T11:46:27Z</time>
      </trkpt>
      <trkpt lat="45.7989" lon="6.56937">
        <ele>1461.2</ele>
        <time>2017-10-13T11:46:32Z</time>
      </trkpt>
      <trkpt lat="45.79881" lon="6.56946">
        <ele>1462.2</ele>
        <time>2017-10-13T11:46:37Z</time>
      </trkpt>
      <trkpt lat="45.79873" lon="6.56956">
        <ele>1463</ele>
        <time>2017-10-13T11:46:42Z</time>
      </trkpt>
      <trkpt lat="45.79865" lon="6.56968">
        <ele>1463.8</ele>
        <time>2017-10-13T11:46:47Z</time>
      </trkpt>
      <trkpt lat="45.7986" lon="6.56979">
        <ele>1464.4</ele>
        <time>2017-10-13T11:46:51Z</time>
      </trkpt>
      <trkpt lat="45.79854" lon="6.56992">
        <ele>1465.2</ele>
        <time>2017-10-13T11:46:56Z</time>
      </trkpt>
      <trkpt lat="45.79848" lon="6.57005">
        <ele>1466</ele>
        <time>2017-10-13T11:47:01Z</time>
      </trkpt>
      <trkpt lat="45.79841" lon="6.57016">
        <ele>1467.2</ele>
        <time>2017-10-13T11:47:06Z</time>
      </trkpt>
      <trkpt lat="45.79835" lon="6.57029">
        <ele>1468.1</ele>
        <time>2017-10-13T11:47:11Z</time>
      </trkpt>
      <trkpt lat="45.7983" lon="6.57042">
        <ele>1468.9</ele>
        <time>2017-10-13T11:47:16Z</time>
      </trkpt>
      <trkpt lat="45.79826" lon="6.57054">
        <ele>1469.5</ele>
        <time>2017-10-13T11:47:20Z</time>
      </trkpt>
      <trkpt lat="45.79822" lon="6.57066">
        <ele>1470</ele>
        <time>2017-10-13T11:47:24Z</time>
      </trkpt>
      <trkpt lat="45.79817" lon="6.5708">
        <ele>1470.6</ele>
        <time>2017-10-13T11:47:28Z</time>
      </trkpt>
      <trkpt lat="45.79812" lon="6.57092">
        <ele>1471.2</ele>
        <time>2017-10-13T11:47:32Z</time>
      </trkpt>
      <trkpt lat="45.79807" lon="6.57105">
        <ele>1471.5</ele>
        <time>2017-10-13T11:47:36Z</time>
      </trkpt>
      <trkpt lat="45.79801" lon="6.57118">
        <ele>1472</ele>
        <time>2017-10-13T11:47:40Z</time>
      </trkpt>
      <trkpt lat="45.79796" lon="6.57132">
        <ele>1472.5</ele>
        <time>2017-10-13T11:47:44Z</time>
      </trkpt>
      <trkpt lat="45.79789" lon="6.57145">
        <ele>1473.1</ele>
        <time>2017-10-13T11:47:48Z</time>
      </trkpt>
      <trkpt lat="45.79783" lon="6.57159">
        <ele>1473.6</ele>
        <time>2017-10-13T11:47:52Z</time>
      </trkpt>
      <trkpt lat="45.79779" lon="6.5717">
        <ele>1473.8</ele>
        <time>2017-10-13T11:47:55Z</time>
      </trkpt>
      <trkpt lat="45.79774" lon="6.57183">
        <ele>1474.2</ele>
        <time>2017-10-13T11:47:58Z</time>
      </trkpt>
      <trkpt lat="45.79769" lon="6.57194">
        <ele>1474.3</ele>
        <time>2017-10-13T11:48:01Z</time>
      </trkpt>
      <trkpt lat="45.7976" lon="6.572">
        <ele>1474.5</ele>
        <time>2017-10-13T11:48:04Z</time>
      </trkpt>
      <trkpt lat="45.7975" lon="6.57197">
        <ele>1474.7</ele>
        <time>2017-10-13T11:48:07Z</time>
      </trkpt>
      <trkpt lat="45.79742" lon="6.57189">
        <ele>1474.9</ele>
        <time>2017-10-13T11:48:10Z</time>
      </trkpt>
      <trkpt lat="45.79735" lon="6.57182">
        <ele>1475.2</ele>
        <time>2017-10-13T11:48:13Z</time>
      </trkpt>
      <trkpt lat="45.79727" lon="6.57174">
        <ele>1475.5</ele>
        <time>2017-10-13T11:48:16Z</time>
      </trkpt>
      <trkpt lat="45.79719" lon="6.57169">
        <ele>1475.8</ele>
        <time>2017-10-13T11:48:19Z</time>
      </trkpt>
      <trkpt lat="45.79707" lon="6.57166">
        <ele>1476.6</ele>
        <time>2017-10-13T11:48:23Z</time>
      </trkpt>
      <trkpt lat="45.79698" lon="6.57167">
        <ele>1477.2</ele>
        <time>2017-10-13T11:48:26Z</time>
      </trkpt>
      <trkpt lat="45.79686" lon="6.57167">
        <ele>1477.6</ele>
        <time>2017-10-13T11:48:30Z</time>
      </trkpt>
      <trkpt lat="45.79675" lon="6.57168">
        <ele>1478.2</ele>
        <time>2017-10-13T11:48:34Z</time>
      </trkpt>
      <trkpt lat="45.79666" lon="6.5717">
        <ele>1479.2</ele>
        <time>2017-10-13T11:48:38Z</time>
      </trkpt>
      <trkpt lat="45.79656" lon="6.57174">
        <ele>1480.4</ele>
        <time>2017-10-13T11:48:43Z</time>
      </trkpt>
      <trkpt lat="45.79647" lon="6.57179">
        <ele>1481.5</ele>
        <time>2017-10-13T11:48:48Z</time>
      </trkpt>
      <trkpt lat="45.79638" lon="6.57186">
        <ele>1482.5</ele>
        <time>2017-10-13T11:48:54Z</time>
      </trkpt>
      <trkpt lat="45.79632" lon="6.57196">
        <ele>1483.4</ele>
        <time>2017-10-13T11:48:59Z</time>
      </trkpt>
      <trkpt lat="45.79625" lon="6.57207">
        <ele>1484.6</ele>
        <time>2017-10-13T11:49:05Z</time>
      </trkpt>
      <trkpt lat="45.79617" lon="6.57214">
        <ele>1485.4</ele>
        <time>2017-10-13T11:49:10Z</time>
      </trkpt>
      <trkpt lat="45.79609" lon="6.57222">
        <ele>1486.4</ele>
        <time>2017-10-13T11:49:15Z</time>
      </trkpt>
      <trkpt lat="45.796" lon="6.57228">
        <ele>1487.3</ele>
        <time>2017-10-13T11:49:20Z</time>
      </trkpt>
      <trkpt lat="45.7959" lon="6.57233">
        <ele>1488.6</ele>
        <time>2017-10-13T11:49:26Z</time>
      </trkpt>
      <trkpt lat="45.79581" lon="6.57235">
        <ele>1489.5</ele>
        <time>2017-10-13T11:49:31Z</time>
      </trkpt>
      <trkpt lat="45.79571" lon="6.57235">
        <ele>1490</ele>
        <time>2017-10-13T11:49:36Z</time>
      </trkpt>
      <trkpt lat="45.79564" lon="6.57247">
        <ele>1490.7</ele>
        <time>2017-10-13T11:49:42Z</time>
      </trkpt>
      <trkpt lat="45.79559" lon="6.57259">
        <ele>1491.4</ele>
        <time>2017-10-13T11:49:46Z</time>
      </trkpt>
      <trkpt lat="45.79555" lon="6.57273">
        <ele>1492.1</ele>
        <time>2017-10-13T11:49:51Z</time>
      </trkpt>
      <trkpt lat="45.7955" lon="6.57286">
        <ele>1493</ele>
        <time>2017-10-13T11:49:56Z</time>
      </trkpt>
      <trkpt lat="45.79544" lon="6.57297">
        <ele>1493.6</ele>
        <time>2017-10-13T11:50:01Z</time>
      </trkpt>
      <trkpt lat="45.79539" lon="6.57311">
        <ele>1494.5</ele>
        <time>2017-10-13T11:50:06Z</time>
      </trkpt>
      <trkpt lat="45.79532" lon="6.5732">
        <ele>1495.5</ele>
        <time>2017-10-13T11:50:10Z</time>
      </trkpt>
      <trkpt lat="45.79523" lon="6.57324">
        <ele>1496.3</ele>
        <time>2017-10-13T11:50:15Z</time>
      </trkpt>
      <trkpt lat="45.79513" lon="6.57327">
        <ele>1496.8</ele>
        <time>2017-10-13T11:50:19Z</time>
      </trkpt>
      <trkpt lat="45.79503" lon="6.57334">
        <ele>1497</ele>
        <time>2017-10-13T11:50:22Z</time>
      </trkpt>
      <trkpt lat="45.79494" lon="6.57346">
        <ele>1496.9</ele>
        <time>2017-10-13T11:50:25Z</time>
      </trkpt>
      <trkpt lat="45.79488" lon="6.57356">
        <ele>1496.5</ele>
        <time>2017-10-13T11:50:27Z</time>
      </trkpt>
      <trkpt lat="45.79482" lon="6.57366">
        <ele>1495.9</ele>
        <time>2017-10-13T11:50:29Z</time>
      </trkpt>
      <trkpt lat="45.79476" lon="6.57379">
        <ele>1495.3</ele>
        <time>2017-10-13T11:50:31Z</time>
      </trkpt>
      <trkpt lat="45.79469" lon="6.57391">
        <ele>1495</ele>
        <time>2017-10-13T11:50:33Z</time>
      </trkpt>
      <trkpt lat="45.79461" lon="6.57404">
        <ele>1494.6</ele>
        <time>2017-10-13T11:50:35Z</time>
      </trkpt>
      <trkpt lat="45.79453" lon="6.57418">
        <ele>1494.4</ele>
        <time>2017-10-13T11:50:37Z</time>
      </trkpt>
      <trkpt lat="45.79446" lon="6.57431">
        <ele>1494</ele>
        <time>2017-10-13T11:50:39Z</time>
      </trkpt>
      <trkpt lat="45.79439" lon="6.57445">
        <ele>1493.5</ele>
        <time>2017-10-13T11:50:41Z</time>
      </trkpt>
      <trkpt lat="45.79433" lon="6.5746">
        <ele>1493.2</ele>
        <time>2017-10-13T11:50:43Z</time>
      </trkpt>
      <trkpt lat="45.79427" lon="6.57475">
        <ele>1493</ele>
        <time>2017-10-13T11:50:45Z</time>
      </trkpt>
      <trkpt lat="45.79421" lon="6.57491">
        <ele>1492.8</ele>
        <time>2017-10-13T11:50:47Z</time>
      </trkpt>
      <trkpt lat="45.79415" lon="6.57503">
        <ele>1492.7</ele>
        <time>2017-10-13T11:50:49Z</time>
      </trkpt>
      <trkpt lat="45.7941" lon="6.57515">
        <ele>1492.5</ele>
        <time>2017-10-13T11:50:51Z</time>
      </trkpt>
      <trkpt lat="45.79402" lon="6.57529">
        <ele>1492.7</ele>
        <time>2017-10-13T11:50:54Z</time>
      </trkpt>
      <trkpt lat="45.79396" lon="6.57544">
        <ele>1492.7</ele>
        <time>2017-10-13T11:50:57Z</time>
      </trkpt>
      <trkpt lat="45.79391" lon="6.57557">
        <ele>1492.8</ele>
        <time>2017-10-13T11:51:00Z</time>
      </trkpt>
      <trkpt lat="45.79385" lon="6.57571">
        <ele>1493.1</ele>
        <time>2017-10-13T11:51:03Z</time>
      </trkpt>
      <trkpt lat="45.79379" lon="6.57583">
        <ele>1493.5</ele>
        <time>2017-10-13T11:51:06Z</time>
      </trkpt>
      <trkpt lat="45.79373" lon="6.57595">
        <ele>1493.7</ele>
        <time>2017-10-13T11:51:09Z</time>
      </trkpt>
      <trkpt lat="45.79366" lon="6.57605">
        <ele>1494.1</ele>
        <time>2017-10-13T11:51:12Z</time>
      </trkpt>
      <trkpt lat="45.79359" lon="6.57616">
        <ele>1494.4</ele>
        <time>2017-10-13T11:51:15Z</time>
      </trkpt>
      <trkpt lat="45.79352" lon="6.57627">
        <ele>1494.8</ele>
        <time>2017-10-13T11:51:18Z</time>
      </trkpt>
      <trkpt lat="45.79344" lon="6.5764">
        <ele>1495.5</ele>
        <time>2017-10-13T11:51:22Z</time>
      </trkpt>
      <trkpt lat="45.79339" lon="6.57651">
        <ele>1496.2</ele>
        <time>2017-10-13T11:51:25Z</time>
      </trkpt>
      <trkpt lat="45.79334" lon="6.57665">
        <ele>1496.9</ele>
        <time>2017-10-13T11:51:29Z</time>
      </trkpt>
      <trkpt lat="45.79328" lon="6.57679">
        <ele>1497.5</ele>
        <time>2017-10-13T11:51:33Z</time>
      </trkpt>
      <trkpt lat="45.79321" lon="6.57689">
        <ele>1497.9</ele>
        <time>2017-10-13T11:51:36Z</time>
      </trkpt>
      <trkpt lat="45.79313" lon="6.57702">
        <ele>1498.2</ele>
        <time>2017-10-13T11:51:40Z</time>
      </trkpt>
      <trkpt lat="45.79307" lon="6.57712">
        <ele>1498.5</ele>
        <time>2017-10-13T11:51:43Z</time>
      </trkpt>
      <trkpt lat="45.79302" lon="6.57723">
        <ele>1498.7</ele>
        <time>2017-10-13T11:51:46Z</time>
      </trkpt>
      <trkpt lat="45.79297" lon="6.57734">
        <ele>1498.9</ele>
        <time>2017-10-13T11:51:49Z</time>
      </trkpt>
      <trkpt lat="45.79293" lon="6.57747">
        <ele>1499.2</ele>
        <time>2017-10-13T11:51:52Z</time>
      </trkpt>
      <trkpt lat="45.79288" lon="6.57758">
        <ele>1499.5</ele>
        <time>2017-10-13T11:51:55Z</time>
      </trkpt>
      <trkpt lat="45.79281" lon="6.5777">
        <ele>1500</ele>
        <time>2017-10-13T11:51:59Z</time>
      </trkpt>
      <trkpt lat="45.79273" lon="6.57779">
        <ele>1500.8</ele>
        <time>2017-10-13T11:52:03Z</time>
      </trkpt>
      <trkpt lat="45.79266" lon="6.57789">
        <ele>1501.7</ele>
        <time>2017-10-13T11:52:07Z</time>
      </trkpt>
      <trkpt lat="45.7926" lon="6.57802">
        <ele>1502.6</ele>
        <time>2017-10-13T11:52:12Z</time>
      </trkpt>
      <trkpt lat="45.79256" lon="6.57815">
        <ele>1503</ele>
        <time>2017-10-13T11:52:16Z</time>
      </trkpt>
      <trkpt lat="45.79255" lon="6.57829">
        <ele>1503.6</ele>
        <time>2017-10-13T11:52:20Z</time>
      </trkpt>
      <trkpt lat="45.79253" lon="6.57841">
        <ele>1504.4</ele>
        <time>2017-10-13T11:52:24Z</time>
      </trkpt>
      <trkpt lat="45.79249" lon="6.57854">
        <ele>1505.2</ele>
        <time>2017-10-13T11:52:28Z</time>
      </trkpt>
      <trkpt lat="45.79246" lon="6.57866">
        <ele>1506</ele>
        <time>2017-10-13T11:52:32Z</time>
      </trkpt>
      <trkpt lat="45.79241" lon="6.5788">
        <ele>1506.9</ele>
        <time>2017-10-13T11:52:37Z</time>
      </trkpt>
      <trkpt lat="45.79239" lon="6.57895">
        <ele>1507.7</ele>
        <time>2017-10-13T11:52:42Z</time>
      </trkpt>
      <trkpt lat="45.79236" lon="6.5791">
        <ele>1508.3</ele>
        <time>2017-10-13T11:52:46Z</time>
      </trkpt>
      <trkpt lat="45.79232" lon="6.57924">
        <ele>1508.9</ele>
        <time>2017-10-13T11:52:51Z</time>
      </trkpt>
      <trkpt lat="45.79225" lon="6.57935">
        <ele>1509.5</ele>
        <time>2017-10-13T11:52:57Z</time>
      </trkpt>
      <trkpt lat="45.79217" lon="6.57944">
        <ele>1509.9</ele>
        <time>2017-10-13T11:53:02Z</time>
      </trkpt>
      <trkpt lat="45.79212" lon="6.57956">
        <ele>1510.3</ele>
        <time>2017-10-13T11:53:08Z</time>
      </trkpt>
      <trkpt lat="45.79206" lon="6.57967">
        <ele>1510.6</ele>
        <time>2017-10-13T11:53:13Z</time>
      </trkpt>
      <trkpt lat="45.792" lon="6.57978">
        <ele>1510.7</ele>
        <time>2017-10-13T11:53:17Z</time>
      </trkpt>
      <trkpt lat="45.79194" lon="6.57992">
        <ele>1511</ele>
        <time>2017-10-13T11:53:21Z</time>
      </trkpt>
      <trkpt lat="45.79187" lon="6.58004">
        <ele>1511.3</ele>
        <time>2017-10-13T11:53:26Z</time>
      </trkpt>
      <trkpt lat="45.79176" lon="6.58005">
        <ele>1511.6</ele>
        <time>2017-10-13T11:53:30Z</time>
      </trkpt>
      <trkpt lat="45.79167" lon="6.58">
        <ele>1511.8</ele>
        <time>2017-10-13T11:53:34Z</time>
      </trkpt>
      <trkpt lat="45.79158" lon="6.57991">
        <ele>1511.9</ele>
        <time>2017-10-13T11:53:39Z</time>
      </trkpt>
      <trkpt lat="45.79159" lon="6.57976">
        <ele>1511.9</ele>
        <time>2017-10-13T11:53:43Z</time>
      </trkpt>
      <trkpt lat="45.79165" lon="6.57964">
        <ele>1511.8</ele>
        <time>2017-10-13T11:53:47Z</time>
      </trkpt>
      <trkpt lat="45.79158" lon="6.57957">
        <ele>1509.6</ele>
        <time>2017-10-13T11:55:11Z</time>
      </trkpt>
      <trkpt lat="45.79146" lon="6.57957">
        <ele>1509.8</ele>
        <time>2017-10-13T11:55:15Z</time>
      </trkpt>
      <trkpt lat="45.79136" lon="6.57958">
        <ele>1510</ele>
        <time>2017-10-13T11:55:19Z</time>
      </trkpt>
      <trkpt lat="45.79127" lon="6.5795">
        <ele>1510.2</ele>
        <time>2017-10-13T11:55:24Z</time>
      </trkpt>
      <trkpt lat="45.79126" lon="6.57937">
        <ele>1510.3</ele>
        <time>2017-10-13T11:55:29Z</time>
      </trkpt>
      <trkpt lat="45.79123" lon="6.57924">
        <ele>1510.4</ele>
        <time>2017-10-13T11:55:34Z</time>
      </trkpt>
      <trkpt lat="45.7912" lon="6.5791">
        <ele>1510.8</ele>
        <time>2017-10-13T11:55:38Z</time>
      </trkpt>
      <trkpt lat="45.79119" lon="6.57897">
        <ele>1511</ele>
        <time>2017-10-13T11:55:42Z</time>
      </trkpt>
      <trkpt lat="45.79117" lon="6.57883">
        <ele>1511.4</ele>
        <time>2017-10-13T11:55:46Z</time>
      </trkpt>
      <trkpt lat="45.79115" lon="6.5787">
        <ele>1511.9</ele>
        <time>2017-10-13T11:55:50Z</time>
      </trkpt>
      <trkpt lat="45.79113" lon="6.57854">
        <ele>1512.6</ele>
        <time>2017-10-13T11:55:55Z</time>
      </trkpt>
      <trkpt lat="45.79112" lon="6.5784">
        <ele>1513.2</ele>
        <time>2017-10-13T11:55:59Z</time>
      </trkpt>
      <trkpt lat="45.79111" lon="6.57827">
        <ele>1513.7</ele>
        <time>2017-10-13T11:56:03Z</time>
      </trkpt>
      <trkpt lat="45.79109" lon="6.57811">
        <ele>1514.4</ele>
        <time>2017-10-13T11:56:08Z</time>
      </trkpt>
      <trkpt lat="45.79109" lon="6.57796">
        <ele>1515.2</ele>
        <time>2017-10-13T11:56:14Z</time>
      </trkpt>
      <trkpt lat="45.79111" lon="6.57783">
        <ele>1516</ele>
        <time>2017-10-13T11:56:19Z</time>
      </trkpt>
      <trkpt lat="45.79112" lon="6.57769">
        <ele>1517.1</ele>
        <time>2017-10-13T11:56:24Z</time>
      </trkpt>
      <trkpt lat="45.79115" lon="6.57756">
        <ele>1518.1</ele>
        <time>2017-10-13T11:56:29Z</time>
      </trkpt>
      <trkpt lat="45.79118" lon="6.57743">
        <ele>1519.2</ele>
        <time>2017-10-13T11:56:35Z</time>
      </trkpt>
      <trkpt lat="45.79123" lon="6.57732">
        <ele>1519.7</ele>
        <time>2017-10-13T11:56:40Z</time>
      </trkpt>
      <trkpt lat="45.7913" lon="6.57723">
        <ele>1520.3</ele>
        <time>2017-10-13T11:56:45Z</time>
      </trkpt>
      <trkpt lat="45.79138" lon="6.57714">
        <ele>1521.1</ele>
        <time>2017-10-13T11:56:51Z</time>
      </trkpt>
      <trkpt lat="45.79148" lon="6.57708">
        <ele>1522</ele>
        <time>2017-10-13T11:56:57Z</time>
      </trkpt>
      <trkpt lat="45.79157" lon="6.57699">
        <ele>1523.1</ele>
        <time>2017-10-13T11:57:03Z</time>
      </trkpt>
      <trkpt lat="45.79166" lon="6.57691">
        <ele>1524.2</ele>
        <time>2017-10-13T11:57:09Z</time>
      </trkpt>
      <trkpt lat="45.79174" lon="6.57683">
        <ele>1525</ele>
        <time>2017-10-13T11:57:14Z</time>
      </trkpt>
      <trkpt lat="45.7918" lon="6.57673">
        <ele>1525.8</ele>
        <time>2017-10-13T11:57:19Z</time>
      </trkpt>
      <trkpt lat="45.79187" lon="6.57661">
        <ele>1526.4</ele>
        <time>2017-10-13T11:57:25Z</time>
      </trkpt>
      <trkpt lat="45.7919" lon="6.57648">
        <ele>1527.1</ele>
        <time>2017-10-13T11:57:30Z</time>
      </trkpt>
      <trkpt lat="45.79192" lon="6.57634">
        <ele>1527.7</ele>
        <time>2017-10-13T11:57:35Z</time>
      </trkpt>
      <trkpt lat="45.79192" lon="6.5762">
        <ele>1528</ele>
        <time>2017-10-13T11:57:40Z</time>
      </trkpt>
      <trkpt lat="45.79191" lon="6.57607">
        <ele>1528.3</ele>
        <time>2017-10-13T11:57:45Z</time>
      </trkpt>
      <trkpt lat="45.79184" lon="6.57595">
        <ele>1529.1</ele>
        <time>2017-10-13T11:57:51Z</time>
      </trkpt>
      <trkpt lat="45.79175" lon="6.57589">
        <ele>1530</ele>
        <time>2017-10-13T11:57:57Z</time>
      </trkpt>
      <trkpt lat="45.79165" lon="6.57585">
        <ele>1530.9</ele>
        <time>2017-10-13T11:58:03Z</time>
      </trkpt>
      <trkpt lat="45.79154" lon="6.57584">
        <ele>1531.9</ele>
        <time>2017-10-13T11:58:09Z</time>
      </trkpt>
      <trkpt lat="45.79144" lon="6.57586">
        <ele>1532.7</ele>
        <time>2017-10-13T11:58:15Z</time>
      </trkpt>
      <trkpt lat="45.79135" lon="6.5759">
        <ele>1533.3</ele>
        <time>2017-10-13T11:58:21Z</time>
      </trkpt>
      <trkpt lat="45.79125" lon="6.5759">
        <ele>1534.1</ele>
        <time>2017-10-13T11:58:28Z</time>
      </trkpt>
      <trkpt lat="45.79115" lon="6.57585">
        <ele>1535</ele>
        <time>2017-10-13T11:58:36Z</time>
      </trkpt>
      <trkpt lat="45.79106" lon="6.57588">
        <ele>1536</ele>
        <time>2017-10-13T11:58:43Z</time>
      </trkpt>
      <trkpt lat="45.79102" lon="6.57602">
        <ele>1537.2</ele>
        <time>2017-10-13T11:58:50Z</time>
      </trkpt>
      <trkpt lat="45.79099" lon="6.57616">
        <ele>1539</ele>
        <time>2017-10-13T11:58:57Z</time>
      </trkpt>
      <trkpt lat="45.79097" lon="6.57629">
        <ele>1540.8</ele>
        <time>2017-10-13T11:59:04Z</time>
      </trkpt>
      <trkpt lat="45.7909" lon="6.57638">
        <ele>1542</ele>
        <time>2017-10-13T11:59:11Z</time>
      </trkpt>
      <trkpt lat="45.79081" lon="6.57644">
        <ele>1543.5</ele>
        <time>2017-10-13T11:59:18Z</time>
      </trkpt>
      <trkpt lat="45.79072" lon="6.57647">
        <ele>1545.5</ele>
        <time>2017-10-13T11:59:25Z</time>
      </trkpt>
      <trkpt lat="45.79063" lon="6.57648">
        <ele>1547</ele>
        <time>2017-10-13T11:59:32Z</time>
      </trkpt>
      <trkpt lat="45.79053" lon="6.57647">
        <ele>1548.7</ele>
        <time>2017-10-13T11:59:40Z</time>
      </trkpt>
      <trkpt lat="45.79043" lon="6.57645">
        <ele>1550.5</ele>
        <time>2017-10-13T11:59:48Z</time>
      </trkpt>
      <trkpt lat="45.79036" lon="6.57635">
        <ele>1552.1</ele>
        <time>2017-10-13T11:59:56Z</time>
      </trkpt>
      <trkpt lat="45.79036" lon="6.57621">
        <ele>1553.9</ele>
        <time>2017-10-13T12:00:04Z</time>
      </trkpt>
      <trkpt lat="45.79041" lon="6.57609">
        <ele>1555.6</ele>
        <time>2017-10-13T12:00:11Z</time>
      </trkpt>
      <trkpt lat="45.79044" lon="6.57596">
        <ele>1557.6</ele>
        <time>2017-10-13T12:00:19Z</time>
      </trkpt>
      <trkpt lat="45.79044" lon="6.57582">
        <ele>1559.5</ele>
        <time>2017-10-13T12:00:27Z</time>
      </trkpt>
      <trkpt lat="45.79041" lon="6.57569">
        <ele>1561.5</ele>
        <time>2017-10-13T12:00:36Z</time>
      </trkpt>
      <trkpt lat="45.79036" lon="6.57557">
        <ele>1563.6</ele>
        <time>2017-10-13T12:00:44Z</time>
      </trkpt>
      <trkpt lat="45.79028" lon="6.57552">
        <ele>1565.6</ele>
        <time>2017-10-13T12:00:52Z</time>
      </trkpt>
      <trkpt lat="45.79018" lon="6.57552">
        <ele>1568.2</ele>
        <time>2017-10-13T12:01:01Z</time>
      </trkpt>
      <trkpt lat="45.79009" lon="6.57546">
        <ele>1569.8</ele>
        <time>2017-10-13T12:01:10Z</time>
      </trkpt>
      <trkpt lat="45.79003" lon="6.57536">
        <ele>1571.2</ele>
        <time>2017-10-13T12:01:18Z</time>
      </trkpt>
      <trkpt lat="45.79" lon="6.57523">
        <ele>1572.8</ele>
        <time>2017-10-13T12:01:27Z</time>
      </trkpt>
      <trkpt lat="45.78995" lon="6.57512">
        <ele>1574.4</ele>
        <time>2017-10-13T12:01:35Z</time>
      </trkpt>
      <trkpt lat="45.78989" lon="6.57501">
        <ele>1576.3</ele>
        <time>2017-10-13T12:01:44Z</time>
      </trkpt>
      <trkpt lat="45.78984" lon="6.5749">
        <ele>1578.3</ele>
        <time>2017-10-13T12:01:52Z</time>
      </trkpt>
      <trkpt lat="45.7898" lon="6.57478">
        <ele>1580.4</ele>
        <time>2017-10-13T12:02:01Z</time>
      </trkpt>
      <trkpt lat="45.78976" lon="6.57466">
        <ele>1582.5</ele>
        <time>2017-10-13T12:02:10Z</time>
      </trkpt>
      <trkpt lat="45.78971" lon="6.57454">
        <ele>1584.4</ele>
        <time>2017-10-13T12:02:19Z</time>
      </trkpt>
      <trkpt lat="45.78963" lon="6.57446">
        <ele>1586.1</ele>
        <time>2017-10-13T12:02:28Z</time>
      </trkpt>
      <trkpt lat="45.78958" lon="6.57434">
        <ele>1587.5</ele>
        <time>2017-10-13T12:02:36Z</time>
      </trkpt>
      <trkpt lat="45.78953" lon="6.57423">
        <ele>1589.1</ele>
        <time>2017-10-13T12:02:44Z</time>
      </trkpt>
      <trkpt lat="45.78948" lon="6.57411">
        <ele>1590.3</ele>
        <time>2017-10-13T12:02:52Z</time>
      </trkpt>
      <trkpt lat="45.78943" lon="6.574">
        <ele>1591.7</ele>
        <time>2017-10-13T12:03:00Z</time>
      </trkpt>
      <trkpt lat="45.7894" lon="6.57388">
        <ele>1593.8</ele>
        <time>2017-10-13T12:03:09Z</time>
      </trkpt>
      <trkpt lat="45.78934" lon="6.57377">
        <ele>1595.4</ele>
        <time>2017-10-13T12:03:17Z</time>
      </trkpt>
      <trkpt lat="45.78929" lon="6.57367">
        <ele>1597.3</ele>
        <time>2017-10-13T12:03:25Z</time>
      </trkpt>
      <trkpt lat="45.78924" lon="6.57354">
        <ele>1599</ele>
        <time>2017-10-13T12:03:33Z</time>
      </trkpt>
      <trkpt lat="45.78918" lon="6.57343">
        <ele>1601.2</ele>
        <time>2017-10-13T12:03:42Z</time>
      </trkpt>
      <trkpt lat="45.78913" lon="6.57332">
        <ele>1603.1</ele>
        <time>2017-10-13T12:03:51Z</time>
      </trkpt>
      <trkpt lat="45.78906" lon="6.57322">
        <ele>1605.1</ele>
        <time>2017-10-13T12:04:00Z</time>
      </trkpt>
      <trkpt lat="45.78899" lon="6.57313">
        <ele>1606.8</ele>
        <time>2017-10-13T12:04:08Z</time>
      </trkpt>
      <trkpt lat="45.7889" lon="6.57313">
        <ele>1608.8</ele>
        <time>2017-10-13T12:04:17Z</time>
      </trkpt>
      <trkpt lat="45.78882" lon="6.57319">
        <ele>1610.5</ele>
        <time>2017-10-13T12:04:25Z</time>
      </trkpt>
      <trkpt lat="45.78873" lon="6.57323">
        <ele>1612.6</ele>
        <time>2017-10-13T12:04:33Z</time>
      </trkpt>
      <trkpt lat="45.78864" lon="6.57327">
        <ele>1613.7</ele>
        <time>2017-10-13T12:04:41Z</time>
      </trkpt>
      <trkpt lat="45.78855" lon="6.57326">
        <ele>1614.5</ele>
        <time>2017-10-13T12:04:48Z</time>
      </trkpt>
      <trkpt lat="45.78847" lon="6.57319">
        <ele>1615.5</ele>
        <time>2017-10-13T12:04:56Z</time>
      </trkpt>
      <trkpt lat="45.78838" lon="6.57312">
        <ele>1617.4</ele>
        <time>2017-10-13T12:05:04Z</time>
      </trkpt>
      <trkpt lat="45.78832" lon="6.57302">
        <ele>1619</ele>
        <time>2017-10-13T12:05:11Z</time>
      </trkpt>
      <trkpt lat="45.78826" lon="6.57291">
        <ele>1621.2</ele>
        <time>2017-10-13T12:05:19Z</time>
      </trkpt>
      <trkpt lat="45.78822" lon="6.57279">
        <ele>1623.2</ele>
        <time>2017-10-13T12:05:27Z</time>
      </trkpt>
      <trkpt lat="45.7882" lon="6.57265">
        <ele>1625.2</ele>
        <time>2017-10-13T12:05:35Z</time>
      </trkpt>
      <trkpt lat="45.78816" lon="6.57251">
        <ele>1627.2</ele>
        <time>2017-10-13T12:05:43Z</time>
      </trkpt>
      <trkpt lat="45.78811" lon="6.57241">
        <ele>1629.7</ele>
        <time>2017-10-13T12:05:52Z</time>
      </trkpt>
      <trkpt lat="45.78808" lon="6.57228">
        <ele>1631.4</ele>
        <time>2017-10-13T12:06:14Z</time>
      </trkpt>
      <trkpt lat="45.78804" lon="6.57216">
        <ele>1632.9</ele>
        <time>2017-10-13T12:06:25Z</time>
      </trkpt>
      <trkpt lat="45.78795" lon="6.5721">
        <ele>1634.5</ele>
        <time>2017-10-13T12:06:35Z</time>
      </trkpt>
      <trkpt lat="45.78786" lon="6.5721">
        <ele>1635.9</ele>
        <time>2017-10-13T12:06:45Z</time>
      </trkpt>
      <trkpt lat="45.78777" lon="6.57215">
        <ele>1637.4</ele>
        <time>2017-10-13T12:06:59Z</time>
      </trkpt>
      <trkpt lat="45.78769" lon="6.57223">
        <ele>1638.2</ele>
        <time>2017-10-13T12:07:06Z</time>
      </trkpt>
      <trkpt lat="45.78764" lon="6.57234">
        <ele>1639.3</ele>
        <time>2017-10-13T12:07:14Z</time>
      </trkpt>
      <trkpt lat="45.7876" lon="6.57246">
        <ele>1640.7</ele>
        <time>2017-10-13T12:07:22Z</time>
      </trkpt>
      <trkpt lat="45.78752" lon="6.57256">
        <ele>1642.3</ele>
        <time>2017-10-13T12:07:30Z</time>
      </trkpt>
      <trkpt lat="45.78745" lon="6.57264">
        <ele>1644.6</ele>
        <time>2017-10-13T12:07:38Z</time>
      </trkpt>
      <trkpt lat="45.78735" lon="6.57268">
        <ele>1646.6</ele>
        <time>2017-10-13T12:07:46Z</time>
      </trkpt>
      <trkpt lat="45.78726" lon="6.57263">
        <ele>1648.6</ele>
        <time>2017-10-13T12:07:54Z</time>
      </trkpt>
      <trkpt lat="45.78717" lon="6.57259">
        <ele>1650.5</ele>
        <time>2017-10-13T12:08:02Z</time>
      </trkpt>
      <trkpt lat="45.78709" lon="6.57252">
        <ele>1652.4</ele>
        <time>2017-10-13T12:08:11Z</time>
      </trkpt>
      <trkpt lat="45.78699" lon="6.57248">
        <ele>1654.2</ele>
        <time>2017-10-13T12:08:19Z</time>
      </trkpt>
      <trkpt lat="45.7869" lon="6.57243">
        <ele>1655.7</ele>
        <time>2017-10-13T12:08:27Z</time>
      </trkpt>
      <trkpt lat="45.78681" lon="6.57238">
        <ele>1657.8</ele>
        <time>2017-10-13T12:08:35Z</time>
      </trkpt>
      <trkpt lat="45.78673" lon="6.57233">
        <ele>1659.7</ele>
        <time>2017-10-13T12:08:43Z</time>
      </trkpt>
      <trkpt lat="45.78663" lon="6.57235">
        <ele>1661.3</ele>
        <time>2017-10-13T12:08:51Z</time>
      </trkpt>
      <trkpt lat="45.78654" lon="6.57234">
        <ele>1662.8</ele>
        <time>2017-10-13T12:09:00Z</time>
      </trkpt>
      <trkpt lat="45.78645" lon="6.57228">
        <ele>1664</ele>
        <time>2017-10-13T12:09:08Z</time>
      </trkpt>
      <trkpt lat="45.78637" lon="6.5722">
        <ele>1665.4</ele>
        <time>2017-10-13T12:09:16Z</time>
      </trkpt>
      <trkpt lat="45.78631" lon="6.57208">
        <ele>1666.6</ele>
        <time>2017-10-13T12:09:23Z</time>
      </trkpt>
      <trkpt lat="45.78627" lon="6.57196">
        <ele>1667.7</ele>
        <time>2017-10-13T12:09:30Z</time>
      </trkpt>
      <trkpt lat="45.78625" lon="6.57183">
        <ele>1668.7</ele>
        <time>2017-10-13T12:09:37Z</time>
      </trkpt>
      <trkpt lat="45.78622" lon="6.57171">
        <ele>1669.9</ele>
        <time>2017-10-13T12:09:44Z</time>
      </trkpt>
      <trkpt lat="45.78618" lon="6.57158">
        <ele>1671.3</ele>
        <time>2017-10-13T12:09:52Z</time>
      </trkpt>
      <trkpt lat="45.78615" lon="6.57144">
        <ele>1672.6</ele>
        <time>2017-10-13T12:10:00Z</time>
      </trkpt>
      <trkpt lat="45.78615" lon="6.5713">
        <ele>1673.3</ele>
        <time>2017-10-13T12:10:07Z</time>
      </trkpt>
      <trkpt lat="45.78614" lon="6.57117">
        <ele>1673.7</ele>
        <time>2017-10-13T12:10:13Z</time>
      </trkpt>
      <trkpt lat="45.78615" lon="6.57103">
        <ele>1674.2</ele>
        <time>2017-10-13T12:10:19Z</time>
      </trkpt>
      <trkpt lat="45.78614" lon="6.57088">
        <ele>1674.8</ele>
        <time>2017-10-13T12:10:26Z</time>
      </trkpt>
      <trkpt lat="45.78612" lon="6.57076">
        <ele>1675.7</ele>
        <time>2017-10-13T12:10:32Z</time>
      </trkpt>
      <trkpt lat="45.78606" lon="6.57065">
        <ele>1676.7</ele>
        <time>2017-10-13T12:10:40Z</time>
      </trkpt>
      <trkpt lat="45.78597" lon="6.57063">
        <ele>1678.1</ele>
        <time>2017-10-13T12:10:47Z</time>
      </trkpt>
      <trkpt lat="45.78588" lon="6.57067">
        <ele>1679.9</ele>
        <time>2017-10-13T12:10:55Z</time>
      </trkpt>
      <trkpt lat="45.78581" lon="6.57075">
        <ele>1681.7</ele>
        <time>2017-10-13T12:11:03Z</time>
      </trkpt>
      <trkpt lat="45.78573" lon="6.57084">
        <ele>1683.6</ele>
        <time>2017-10-13T12:11:11Z</time>
      </trkpt>
      <trkpt lat="45.78566" lon="6.57092">
        <ele>1685.8</ele>
        <time>2017-10-13T12:11:20Z</time>
      </trkpt>
      <trkpt lat="45.78558" lon="6.57101">
        <ele>1687.9</ele>
        <time>2017-10-13T12:11:29Z</time>
      </trkpt>
      <trkpt lat="45.78552" lon="6.57111">
        <ele>1689.6</ele>
        <time>2017-10-13T12:11:38Z</time>
      </trkpt>
      <trkpt lat="45.78549" lon="6.57123">
        <ele>1690.9</ele>
        <time>2017-10-13T12:11:47Z</time>
      </trkpt>
      <trkpt lat="45.78546" lon="6.57135">
        <ele>1692.8</ele>
        <time>2017-10-13T12:11:55Z</time>
      </trkpt>
      <trkpt lat="45.7854" lon="6.57145">
        <ele>1695.1</ele>
        <time>2017-10-13T12:12:04Z</time>
      </trkpt>
      <trkpt lat="45.7853" lon="6.57147">
        <ele>1697</ele>
        <time>2017-10-13T12:12:12Z</time>
      </trkpt>
      <trkpt lat="45.78522" lon="6.57139">
        <ele>1698.4</ele>
        <time>2017-10-13T12:12:21Z</time>
      </trkpt>
      <trkpt lat="45.78518" lon="6.57127">
        <ele>1699.7</ele>
        <time>2017-10-13T12:12:29Z</time>
      </trkpt>
      <trkpt lat="45.78515" lon="6.57113">
        <ele>1701.2</ele>
        <time>2017-10-13T12:12:38Z</time>
      </trkpt>
      <trkpt lat="45.78513" lon="6.571">
        <ele>1702.3</ele>
        <time>2017-10-13T12:12:46Z</time>
      </trkpt>
      <trkpt lat="45.7851" lon="6.57088">
        <ele>1703.5</ele>
        <time>2017-10-13T12:12:53Z</time>
      </trkpt>
      <trkpt lat="45.78509" lon="6.57073">
        <ele>1704.9</ele>
        <time>2017-10-13T12:13:01Z</time>
      </trkpt>
      <trkpt lat="45.78511" lon="6.5706">
        <ele>1706.1</ele>
        <time>2017-10-13T12:13:09Z</time>
      </trkpt>
      <trkpt lat="45.78508" lon="6.57045">
        <ele>1707.1</ele>
        <time>2017-10-13T12:13:17Z</time>
      </trkpt>
      <trkpt lat="45.78506" lon="6.57032">
        <ele>1707.5</ele>
        <time>2017-10-13T12:13:23Z</time>
      </trkpt>
      <trkpt lat="45.78501" lon="6.57022">
        <ele>1707.9</ele>
        <time>2017-10-13T12:13:28Z</time>
      </trkpt>
      <trkpt lat="45.78496" lon="6.5701">
        <ele>1708.2</ele>
        <time>2017-10-13T12:13:33Z</time>
      </trkpt>
      <trkpt lat="45.78494" lon="6.56995">
        <ele>1709</ele>
        <time>2017-10-13T12:13:38Z</time>
      </trkpt>
      <trkpt lat="45.78494" lon="6.56982">
        <ele>1710</ele>
        <time>2017-10-13T12:13:44Z</time>
      </trkpt>
      <trkpt lat="45.78486" lon="6.56974">
        <ele>1710.9</ele>
        <time>2017-10-13T12:13:52Z</time>
      </trkpt>
      <trkpt lat="45.78476" lon="6.56973">
        <ele>1712</ele>
        <time>2017-10-13T12:14:01Z</time>
      </trkpt>
      <trkpt lat="45.78468" lon="6.56981">
        <ele>1713.6</ele>
        <time>2017-10-13T12:14:10Z</time>
      </trkpt>
      <trkpt lat="45.7846" lon="6.56991">
        <ele>1715.7</ele>
        <time>2017-10-13T12:14:20Z</time>
      </trkpt>
      <trkpt lat="45.78453" lon="6.56999">
        <ele>1717.5</ele>
        <time>2017-10-13T12:14:28Z</time>
      </trkpt>
      <trkpt lat="45.78445" lon="6.57006">
        <ele>1718.8</ele>
        <time>2017-10-13T12:14:36Z</time>
      </trkpt>
      <trkpt lat="45.78438" lon="6.57016">
        <ele>1720.4</ele>
        <time>2017-10-13T12:14:45Z</time>
      </trkpt>
      <trkpt lat="45.7843" lon="6.57025">
        <ele>1722.2</ele>
        <time>2017-10-13T12:14:54Z</time>
      </trkpt>
      <trkpt lat="45.78427" lon="6.57038">
        <ele>1723.7</ele>
        <time>2017-10-13T12:15:02Z</time>
      </trkpt>
      <trkpt lat="45.78424" lon="6.57052">
        <ele>1725.5</ele>
        <time>2017-10-13T12:15:11Z</time>
      </trkpt>
      <trkpt lat="45.78422" lon="6.57065">
        <ele>1726.6</ele>
        <time>2017-10-13T12:15:19Z</time>
      </trkpt>
      <trkpt lat="45.78423" lon="6.57079">
        <ele>1728.3</ele>
        <time>2017-10-13T12:15:27Z</time>
      </trkpt>
      <trkpt lat="45.78424" lon="6.57092">
        <ele>1729.7</ele>
        <time>2017-10-13T12:15:35Z</time>
      </trkpt>
      <trkpt lat="45.78422" lon="6.57104">
        <ele>1730.8</ele>
        <time>2017-10-13T12:15:42Z</time>
      </trkpt>
      <trkpt lat="45.78416" lon="6.57115">
        <ele>1731.1</ele>
        <time>2017-10-13T12:16:05Z</time>
      </trkpt>
      <trkpt lat="45.7841" lon="6.57127">
        <ele>1731.4</ele>
        <time>2017-10-13T12:16:11Z</time>
      </trkpt>
      <trkpt lat="45.78409" lon="6.5714">
        <ele>1731.9</ele>
        <time>2017-10-13T12:16:16Z</time>
      </trkpt>
      <trkpt lat="45.78412" lon="6.57153">
        <ele>1732.4</ele>
        <time>2017-10-13T12:16:22Z</time>
      </trkpt>
      <trkpt lat="45.78413" lon="6.57168">
        <ele>1733.3</ele>
        <time>2017-10-13T12:16:29Z</time>
      </trkpt>
      <trkpt lat="45.78414" lon="6.57183">
        <ele>1734.6</ele>
        <time>2017-10-13T12:16:36Z</time>
      </trkpt>
      <trkpt lat="45.78415" lon="6.57197">
        <ele>1736</ele>
        <time>2017-10-13T12:16:44Z</time>
      </trkpt>
      <trkpt lat="45.78416" lon="6.5721">
        <ele>1737.3</ele>
        <time>2017-10-13T12:16:51Z</time>
      </trkpt>
      <trkpt lat="45.78418" lon="6.57225">
        <ele>1739.1</ele>
        <time>2017-10-13T12:16:59Z</time>
      </trkpt>
      <trkpt lat="45.78418" lon="6.57238">
        <ele>1740.2</ele>
        <time>2017-10-13T12:17:06Z</time>
      </trkpt>
      <trkpt lat="45.7842" lon="6.57252">
        <ele>1741.6</ele>
        <time>2017-10-13T12:17:14Z</time>
      </trkpt>
      <trkpt lat="45.7842" lon="6.57265">
        <ele>1743.2</ele>
        <time>2017-10-13T12:17:22Z</time>
      </trkpt>
      <trkpt lat="45.78413" lon="6.57274">
        <ele>1745.2</ele>
        <time>2017-10-13T12:17:31Z</time>
      </trkpt>
      <trkpt lat="45.78404" lon="6.57269">
        <ele>1746.6</ele>
        <time>2017-10-13T12:17:38Z</time>
      </trkpt>
      <trkpt lat="45.78395" lon="6.57263">
        <ele>1748.3</ele>
        <time>2017-10-13T12:17:45Z</time>
      </trkpt>
      <trkpt lat="45.78387" lon="6.57258">
        <ele>1750.3</ele>
        <time>2017-10-13T12:17:53Z</time>
      </trkpt>
      <trkpt lat="45.78379" lon="6.57264">
        <ele>1753.6</ele>
        <time>2017-10-13T12:19:02Z</time>
      </trkpt>
      <trkpt lat="45.78377" lon="6.57278">
        <ele>1755.9</ele>
        <time>2017-10-13T12:19:14Z</time>
      </trkpt>
      <trkpt lat="45.78378" lon="6.57292">
        <ele>1758</ele>
        <time>2017-10-13T12:19:25Z</time>
      </trkpt>
      <trkpt lat="45.78377" lon="6.57305">
        <ele>1760.6</ele>
        <time>2017-10-13T12:19:37Z</time>
      </trkpt>
      <trkpt lat="45.78379" lon="6.57319">
        <ele>1762.6</ele>
        <time>2017-10-13T12:19:47Z</time>
      </trkpt>
      <trkpt lat="45.78377" lon="6.57332">
        <ele>1764.7</ele>
        <time>2017-10-13T12:19:59Z</time>
      </trkpt>
      <trkpt lat="45.78375" lon="6.57346">
        <ele>1767</ele>
        <time>2017-10-13T12:20:10Z</time>
      </trkpt>
      <trkpt lat="45.78372" lon="6.57359">
        <ele>1769.2</ele>
        <time>2017-10-13T12:20:33Z</time>
      </trkpt>
      <trkpt lat="45.7837" lon="6.57372">
        <ele>1771</ele>
        <time>2017-10-13T12:20:42Z</time>
      </trkpt>
      <trkpt lat="45.78367" lon="6.57385">
        <ele>1772.8</ele>
        <time>2017-10-13T12:20:51Z</time>
      </trkpt>
      <trkpt lat="45.78364" lon="6.57397">
        <ele>1774.4</ele>
        <time>2017-10-13T12:21:01Z</time>
      </trkpt>
      <trkpt lat="45.78362" lon="6.57411">
        <ele>1776.2</ele>
        <time>2017-10-13T12:21:10Z</time>
      </trkpt>
      <trkpt lat="45.78359" lon="6.57425">
        <ele>1777.9</ele>
        <time>2017-10-13T12:21:20Z</time>
      </trkpt>
      <trkpt lat="45.78356" lon="6.57438">
        <ele>1780.2</ele>
        <time>2017-10-13T12:21:32Z</time>
      </trkpt>
      <trkpt lat="45.7835" lon="6.5745">
        <ele>1781.8</ele>
        <time>2017-10-13T12:21:40Z</time>
      </trkpt>
      <trkpt lat="45.78347" lon="6.57463">
        <ele>1783.2</ele>
        <time>2017-10-13T12:21:49Z</time>
      </trkpt>
      <trkpt lat="45.78342" lon="6.57475">
        <ele>1785.1</ele>
        <time>2017-10-13T12:21:59Z</time>
      </trkpt>
      <trkpt lat="45.78339" lon="6.57488">
        <ele>1787</ele>
        <time>2017-10-13T12:22:09Z</time>
      </trkpt>
      <trkpt lat="45.78336" lon="6.57501">
        <ele>1788.9</ele>
        <time>2017-10-13T12:22:19Z</time>
      </trkpt>
      <trkpt lat="45.78333" lon="6.57514">
        <ele>1790.7</ele>
        <time>2017-10-13T12:22:29Z</time>
      </trkpt>
      <trkpt lat="45.7833" lon="6.57527">
        <ele>1792.9</ele>
        <time>2017-10-13T12:22:40Z</time>
      </trkpt>
      <trkpt lat="45.78326" lon="6.57538">
        <ele>1794.6</ele>
        <time>2017-10-13T12:22:48Z</time>
      </trkpt>
      <trkpt lat="45.78321" lon="6.5755">
        <ele>1796.9</ele>
        <time>2017-10-13T12:23:00Z</time>
      </trkpt>
      <trkpt lat="45.78317" lon="6.57563">
        <ele>1799.7</ele>
        <time>2017-10-13T12:23:14Z</time>
      </trkpt>
      <trkpt lat="45.78313" lon="6.57576">
        <ele>1801.8</ele>
        <time>2017-10-13T12:23:25Z</time>
      </trkpt>
      <trkpt lat="45.78311" lon="6.57589">
        <ele>1803.4</ele>
        <time>2017-10-13T12:23:34Z</time>
      </trkpt>
      <trkpt lat="45.78307" lon="6.57602">
        <ele>1805.3</ele>
        <time>2017-10-13T12:23:44Z</time>
      </trkpt>
      <trkpt lat="45.78304" lon="6.57615">
        <ele>1807.5</ele>
        <time>2017-10-13T12:23:55Z</time>
      </trkpt>
      <trkpt lat="45.78299" lon="6.57626">
        <ele>1809.2</ele>
        <time>2017-10-13T12:24:05Z</time>
      </trkpt>
      <trkpt lat="45.78296" lon="6.57639">
        <ele>1811</ele>
        <time>2017-10-13T12:24:15Z</time>
      </trkpt>
      <trkpt lat="45.7829" lon="6.5765">
        <ele>1813.3</ele>
        <time>2017-10-13T12:24:26Z</time>
      </trkpt>
      <trkpt lat="45.78285" lon="6.57661">
        <ele>1815.3</ele>
        <time>2017-10-13T12:24:38Z</time>
      </trkpt>
      <trkpt lat="45.78283" lon="6.57674">
        <ele>1817.3</ele>
        <time>2017-10-13T12:24:48Z</time>
      </trkpt>
      <trkpt lat="45.78281" lon="6.57687">
        <ele>1819.3</ele>
        <time>2017-10-13T12:24:59Z</time>
      </trkpt>
      <trkpt lat="45.7828" lon="6.57701">
        <ele>1821.8</ele>
        <time>2017-10-13T12:25:12Z</time>
      </trkpt>
      <trkpt lat="45.78277" lon="6.57714">
        <ele>1824.2</ele>
        <time>2017-10-13T12:25:25Z</time>
      </trkpt>
      <trkpt lat="45.78274" lon="6.57727">
        <ele>1827.1</ele>
        <time>2017-10-13T12:25:39Z</time>
      </trkpt>
      <trkpt lat="45.78267" lon="6.57737">
        <ele>1829.8</ele>
        <time>2017-10-13T12:25:52Z</time>
      </trkpt>
      <trkpt lat="45.7826" lon="6.57745">
        <ele>1832.6</ele>
        <time>2017-10-13T12:26:06Z</time>
      </trkpt>
      <trkpt lat="45.78253" lon="6.57755">
        <ele>1835.6</ele>
        <time>2017-10-13T12:26:22Z</time>
      </trkpt>
      <trkpt lat="45.78254" lon="6.57768">
        <ele>1838.1</ele>
        <time>2017-10-13T12:26:36Z</time>
      </trkpt>
      <trkpt lat="45.7826" lon="6.57779">
        <ele>1839.8</ele>
        <time>2017-10-13T12:26:59Z</time>
      </trkpt>
      <trkpt lat="45.78269" lon="6.57778">
        <ele>1841.3</ele>
        <time>2017-10-13T12:27:11Z</time>
      </trkpt>
      <trkpt lat="45.78278" lon="6.57773">
        <ele>1841.8</ele>
        <time>2017-10-13T12:27:16Z</time>
      </trkpt>
      <trkpt lat="45.78286" lon="6.57767">
        <ele>1842.5</ele>
        <time>2017-10-13T12:27:21Z</time>
      </trkpt>
      <trkpt lat="45.78294" lon="6.57761">
        <ele>1842.8</ele>
        <time>2017-10-13T12:27:26Z</time>
      </trkpt>
      <trkpt lat="45.78304" lon="6.57754">
        <ele>1843.2</ele>
        <time>2017-10-13T12:27:32Z</time>
      </trkpt>
      <trkpt lat="45.78313" lon="6.57748">
        <ele>1843.8</ele>
        <time>2017-10-13T12:27:38Z</time>
      </trkpt>
      <trkpt lat="45.78321" lon="6.57742">
        <ele>1845.1</ele>
        <time>2017-10-13T12:27:44Z</time>
      </trkpt>
      <trkpt lat="45.7833" lon="6.57736">
        <ele>1846</ele>
        <time>2017-10-13T12:27:50Z</time>
      </trkpt>
      <trkpt lat="45.78339" lon="6.5773">
        <ele>1847</ele>
        <time>2017-10-13T12:27:56Z</time>
      </trkpt>
      <trkpt lat="45.78347" lon="6.57722">
        <ele>1847.5</ele>
        <time>2017-10-13T12:28:02Z</time>
      </trkpt>
      <trkpt lat="45.78354" lon="6.57715">
        <ele>1848.1</ele>
        <time>2017-10-13T12:28:08Z</time>
      </trkpt>
      <trkpt lat="45.78364" lon="6.57711">
        <ele>1848.7</ele>
        <time>2017-10-13T12:28:15Z</time>
      </trkpt>
      <trkpt lat="45.78366" lon="6.57726">
        <ele>1849.4</ele>
        <time>2017-10-13T12:28:23Z</time>
      </trkpt>
      <trkpt lat="45.78361" lon="6.57738">
        <ele>1850.6</ele>
        <time>2017-10-13T12:28:30Z</time>
      </trkpt>
      <trkpt lat="45.78356" lon="6.5775">
        <ele>1852</ele>
        <time>2017-10-13T12:28:38Z</time>
      </trkpt>
      <trkpt lat="45.78354" lon="6.57764">
        <ele>1853.8</ele>
        <time>2017-10-13T12:28:47Z</time>
      </trkpt>
      <trkpt lat="45.78354" lon="6.57778">
        <ele>1855.8</ele>
        <time>2017-10-13T12:28:55Z</time>
      </trkpt>
      <trkpt lat="45.78352" lon="6.57791">
        <ele>1857.6</ele>
        <time>2017-10-13T12:29:03Z</time>
      </trkpt>
      <trkpt lat="45.78353" lon="6.57803">
        <ele>1859.5</ele>
        <time>2017-10-13T12:29:12Z</time>
      </trkpt>
      <trkpt lat="45.78355" lon="6.57817">
        <ele>1861.4</ele>
        <time>2017-10-13T12:29:21Z</time>
      </trkpt>
      <trkpt lat="45.78354" lon="6.5783">
        <ele>1863.8</ele>
        <time>2017-10-13T12:29:32Z</time>
      </trkpt>
      <trkpt lat="45.78352" lon="6.57844">
        <ele>1865.6</ele>
        <time>2017-10-13T12:29:41Z</time>
      </trkpt>
      <trkpt lat="45.78347" lon="6.57857">
        <ele>1867.2</ele>
        <time>2017-10-13T12:29:50Z</time>
      </trkpt>
      <trkpt lat="45.78342" lon="6.57867">
        <ele>1868.4</ele>
        <time>2017-10-13T12:29:58Z</time>
      </trkpt>
      <trkpt lat="45.78336" lon="6.57878">
        <ele>1870.4</ele>
        <time>2017-10-13T12:30:06Z</time>
      </trkpt>
      <trkpt lat="45.78327" lon="6.57883">
        <ele>1872.8</ele>
        <time>2017-10-13T12:30:16Z</time>
      </trkpt>
      <trkpt lat="45.78319" lon="6.57891">
        <ele>1874.6</ele>
        <time>2017-10-13T12:30:25Z</time>
      </trkpt>
      <trkpt lat="45.78314" lon="6.57901">
        <ele>1875.5</ele>
        <time>2017-10-13T12:30:32Z</time>
      </trkpt>
      <trkpt lat="45.78312" lon="6.57914">
        <ele>1876.1</ele>
        <time>2017-10-13T12:30:38Z</time>
      </trkpt>
      <trkpt lat="45.78308" lon="6.57928">
        <ele>1876.8</ele>
        <time>2017-10-13T12:30:45Z</time>
      </trkpt>
      <trkpt lat="45.78302" lon="6.57937">
        <ele>1877.4</ele>
        <time>2017-10-13T12:30:51Z</time>
      </trkpt>
      <trkpt lat="45.78294" lon="6.57943">
        <ele>1878.1</ele>
        <time>2017-10-13T12:30:57Z</time>
      </trkpt>
      <trkpt lat="45.78284" lon="6.57946">
        <ele>1879.1</ele>
        <time>2017-10-13T12:31:04Z</time>
      </trkpt>
      <trkpt lat="45.78275" lon="6.57949">
        <ele>1880.2</ele>
        <time>2017-10-13T12:31:12Z</time>
      </trkpt>
      <trkpt lat="45.78266" lon="6.57953">
        <ele>1881.7</ele>
        <time>2017-10-13T12:31:20Z</time>
      </trkpt>
      <trkpt lat="45.78256" lon="6.57955">
        <ele>1883.5</ele>
        <time>2017-10-13T12:31:28Z</time>
      </trkpt>
      <trkpt lat="45.78248" lon="6.57959">
        <ele>1885.5</ele>
        <time>2017-10-13T12:31:37Z</time>
      </trkpt>
      <trkpt lat="45.78239" lon="6.57962">
        <ele>1887.5</ele>
        <time>2017-10-13T12:31:46Z</time>
      </trkpt>
      <trkpt lat="45.78229" lon="6.57966">
        <ele>1889.5</ele>
        <time>2017-10-13T12:31:55Z</time>
      </trkpt>
      <trkpt lat="45.7822" lon="6.57968">
        <ele>1891.9</ele>
        <time>2017-10-13T12:32:04Z</time>
      </trkpt>
      <trkpt lat="45.7821" lon="6.57973">
        <ele>1894.1</ele>
        <time>2017-10-13T12:32:13Z</time>
      </trkpt>
      <trkpt lat="45.78201" lon="6.57977">
        <ele>1896.5</ele>
        <time>2017-10-13T12:32:22Z</time>
      </trkpt>
      <trkpt lat="45.78192" lon="6.57981">
        <ele>1898.8</ele>
        <time>2017-10-13T12:32:31Z</time>
      </trkpt>
      <trkpt lat="45.78183" lon="6.57984">
        <ele>1901.2</ele>
        <time>2017-10-13T12:32:42Z</time>
      </trkpt>
      <trkpt lat="45.78177" lon="6.57996">
        <ele>1902.5</ele>
        <time>2017-10-13T12:32:52Z</time>
      </trkpt>
      <trkpt lat="45.7817" lon="6.58006">
        <ele>1903.7</ele>
        <time>2017-10-13T12:33:01Z</time>
      </trkpt>
      <trkpt lat="45.78166" lon="6.58018">
        <ele>1905.9</ele>
        <time>2017-10-13T12:33:09Z</time>
      </trkpt>
      <trkpt lat="45.7816" lon="6.5803">
        <ele>1908.3</ele>
        <time>2017-10-13T12:33:19Z</time>
      </trkpt>
      <trkpt lat="45.78151" lon="6.58036">
        <ele>1910.2</ele>
        <time>2017-10-13T12:33:28Z</time>
      </trkpt>
      <trkpt lat="45.78145" lon="6.58046">
        <ele>1911.6</ele>
        <time>2017-10-13T12:33:37Z</time>
      </trkpt>
      <trkpt lat="45.78137" lon="6.58054">
        <ele>1912.6</ele>
        <time>2017-10-13T12:33:45Z</time>
      </trkpt>
      <trkpt lat="45.7813" lon="6.58063">
        <ele>1913.7</ele>
        <time>2017-10-13T12:33:53Z</time>
      </trkpt>
      <trkpt lat="45.78123" lon="6.58073">
        <ele>1914.9</ele>
        <time>2017-10-13T12:34:02Z</time>
      </trkpt>
      <trkpt lat="45.78116" lon="6.58083">
        <ele>1916.3</ele>
        <time>2017-10-13T12:34:10Z</time>
      </trkpt>
      <trkpt lat="45.7811" lon="6.58095">
        <ele>1917.8</ele>
        <time>2017-10-13T12:34:18Z</time>
      </trkpt>
      <trkpt lat="45.78106" lon="6.58106">
        <ele>1919.7</ele>
        <time>2017-10-13T12:34:25Z</time>
      </trkpt>
      <trkpt lat="45.781" lon="6.58117">
        <ele>1922.1</ele>
        <time>2017-10-13T12:34:33Z</time>
      </trkpt>
      <trkpt lat="45.78093" lon="6.58126">
        <ele>1923.9</ele>
        <time>2017-10-13T12:34:41Z</time>
      </trkpt>
      <trkpt lat="45.78085" lon="6.58131">
        <ele>1925.7</ele>
        <time>2017-10-13T12:34:49Z</time>
      </trkpt>
      <trkpt lat="45.78077" lon="6.58138">
        <ele>1927.3</ele>
        <time>2017-10-13T12:34:57Z</time>
      </trkpt>
      <trkpt lat="45.78068" lon="6.58142">
        <ele>1928.9</ele>
        <time>2017-10-13T12:35:05Z</time>
      </trkpt>
      <trkpt lat="45.78059" lon="6.58146">
        <ele>1929.9</ele>
        <time>2017-10-13T12:35:12Z</time>
      </trkpt>
      <trkpt lat="45.7805" lon="6.5815">
        <ele>1930.9</ele>
        <time>2017-10-13T12:35:19Z</time>
      </trkpt>
      <trkpt lat="45.78041" lon="6.58151">
        <ele>1932.3</ele>
        <time>2017-10-13T12:35:27Z</time>
      </trkpt>
      <trkpt lat="45.78031" lon="6.5815">
        <ele>1933.1</ele>
        <time>2017-10-13T12:35:34Z</time>
      </trkpt>
      <trkpt lat="45.78021" lon="6.58148">
        <ele>1934.1</ele>
        <time>2017-10-13T12:35:41Z</time>
      </trkpt>
      <trkpt lat="45.78011" lon="6.58148">
        <ele>1935.9</ele>
        <time>2017-10-13T12:35:49Z</time>
      </trkpt>
      <trkpt lat="45.78" lon="6.58152">
        <ele>1937</ele>
        <time>2017-10-13T12:35:56Z</time>
      </trkpt>
      <trkpt lat="45.77991" lon="6.58155">
        <ele>1939.1</ele>
        <time>2017-10-13T12:36:04Z</time>
      </trkpt>
      <trkpt lat="45.77986" lon="6.58167">
        <ele>1941</ele>
        <time>2017-10-13T12:36:14Z</time>
      </trkpt>
      <trkpt lat="45.77993" lon="6.58177">
        <ele>1942</ele>
        <time>2017-10-13T12:36:37Z</time>
      </trkpt>
      <trkpt lat="45.77997" lon="6.58189">
        <ele>1942.5</ele>
        <time>2017-10-13T12:36:47Z</time>
      </trkpt>
      <trkpt lat="45.77993" lon="6.58201">
        <ele>1943.4</ele>
        <time>2017-10-13T12:37:25Z</time>
      </trkpt>
      <trkpt lat="45.77989" lon="6.58214">
        <ele>1943.4</ele>
        <time>2017-10-13T12:37:30Z</time>
      </trkpt>
      <trkpt lat="45.77985" lon="6.58227">
        <ele>1943.3</ele>
        <time>2017-10-13T12:37:34Z</time>
      </trkpt>
      <trkpt lat="45.77983" lon="6.58241">
        <ele>1943.3</ele>
        <time>2017-10-13T12:37:39Z</time>
      </trkpt>
      <trkpt lat="45.7798" lon="6.58254">
        <ele>1943.2</ele>
        <time>2017-10-13T12:37:43Z</time>
      </trkpt>
      <trkpt lat="45.77977" lon="6.58268">
        <ele>1943.3</ele>
        <time>2017-10-13T12:37:48Z</time>
      </trkpt>
      <trkpt lat="45.77975" lon="6.58282">
        <ele>1943.3</ele>
        <time>2017-10-13T12:37:53Z</time>
      </trkpt>
      <trkpt lat="45.77974" lon="6.58296">
        <ele>1943.4</ele>
        <time>2017-10-13T12:37:57Z</time>
      </trkpt>
      <trkpt lat="45.77975" lon="6.58311">
        <ele>1943.3</ele>
        <time>2017-10-13T12:38:02Z</time>
      </trkpt>
      <trkpt lat="45.77977" lon="6.58327">
        <ele>1943.4</ele>
        <time>2017-10-13T12:38:07Z</time>
      </trkpt>
      <trkpt lat="45.77978" lon="6.58342">
        <ele>1943.9</ele>
        <time>2017-10-13T12:38:12Z</time>
      </trkpt>
      <trkpt lat="45.7798" lon="6.58354">
        <ele>1944.1</ele>
        <time>2017-10-13T12:38:16Z</time>
      </trkpt>
      <trkpt lat="45.77979" lon="6.58369">
        <ele>1944.5</ele>
        <time>2017-10-13T12:38:21Z</time>
      </trkpt>
      <trkpt lat="45.77977" lon="6.58384">
        <ele>1944.8</ele>
        <time>2017-10-13T12:38:26Z</time>
      </trkpt>
      <trkpt lat="45.77977" lon="6.58397">
        <ele>1944.8</ele>
        <time>2017-10-13T12:38:31Z</time>
      </trkpt>
      <trkpt lat="45.77975" lon="6.58411">
        <ele>1945.3</ele>
        <time>2017-10-13T12:38:36Z</time>
      </trkpt>
      <trkpt lat="45.77974" lon="6.58424">
        <ele>1946.1</ele>
        <time>2017-10-13T12:38:42Z</time>
      </trkpt>
      <trkpt lat="45.7797" lon="6.58436">
        <ele>1947.2</ele>
        <time>2017-10-13T12:38:49Z</time>
      </trkpt>
      <trkpt lat="45.77966" lon="6.5845">
        <ele>1948.3</ele>
        <time>2017-10-13T12:38:56Z</time>
      </trkpt>
      <trkpt lat="45.77964" lon="6.58463">
        <ele>1949</ele>
        <time>2017-10-13T12:39:03Z</time>
      </trkpt>
      <trkpt lat="45.77959" lon="6.58475">
        <ele>1949.9</ele>
        <time>2017-10-13T12:39:09Z</time>
      </trkpt>
      <trkpt lat="45.77957" lon="6.58489">
        <ele>1950.9</ele>
        <time>2017-10-13T12:39:17Z</time>
      </trkpt>
      <trkpt lat="45.77956" lon="6.58503">
        <ele>1952</ele>
        <time>2017-10-13T12:39:24Z</time>
      </trkpt>
      <trkpt lat="45.77954" lon="6.58516">
        <ele>1953.3</ele>
        <time>2017-10-13T12:39:31Z</time>
      </trkpt>
      <trkpt lat="45.77953" lon="6.5853">
        <ele>1953.8</ele>
        <time>2017-10-13T12:39:38Z</time>
      </trkpt>
      <trkpt lat="45.77956" lon="6.58544">
        <ele>1954.2</ele>
        <time>2017-10-13T12:39:44Z</time>
      </trkpt>
      <trkpt lat="45.77955" lon="6.58556">
        <ele>1954.1</ele>
        <time>2017-10-13T12:39:48Z</time>
      </trkpt>
      <trkpt lat="45.77951" lon="6.58571">
        <ele>1953.9</ele>
        <time>2017-10-13T12:39:53Z</time>
      </trkpt>
      <trkpt lat="45.77947" lon="6.58584">
        <ele>1953.6</ele>
        <time>2017-10-13T12:39:56Z</time>
      </trkpt>
      <trkpt lat="45.77947" lon="6.58597">
        <ele>1953</ele>
        <time>2017-10-13T12:39:59Z</time>
      </trkpt>
      <trkpt lat="45.77944" lon="6.58613">
        <ele>1952.4</ele>
        <time>2017-10-13T12:40:03Z</time>
      </trkpt>
      <trkpt lat="45.7794" lon="6.58628">
        <ele>1952.1</ele>
        <time>2017-10-13T12:40:07Z</time>
      </trkpt>
      <trkpt lat="45.77937" lon="6.58642">
        <ele>1951.8</ele>
        <time>2017-10-13T12:40:11Z</time>
      </trkpt>
      <trkpt lat="45.77933" lon="6.58656">
        <ele>1951.9</ele>
        <time>2017-10-13T12:40:14Z</time>
      </trkpt>
      <trkpt lat="45.7793" lon="6.58669">
        <ele>1952</ele>
        <time>2017-10-13T12:40:17Z</time>
      </trkpt>
      <trkpt lat="45.77926" lon="6.58683">
        <ele>1952</ele>
        <time>2017-10-13T12:40:20Z</time>
      </trkpt>
      <trkpt lat="45.7792" lon="6.58694">
        <ele>1951.8</ele>
        <time>2017-10-13T12:40:23Z</time>
      </trkpt>
      <trkpt lat="45.77914" lon="6.58707">
        <ele>1951.6</ele>
        <time>2017-10-13T12:40:27Z</time>
      </trkpt>
      <trkpt lat="45.77908" lon="6.58721">
        <ele>1951.7</ele>
        <time>2017-10-13T12:40:31Z</time>
      </trkpt>
      <trkpt lat="45.77903" lon="6.58735">
        <ele>1951.9</ele>
        <time>2017-10-13T12:40:34Z</time>
      </trkpt>
      <trkpt lat="45.779" lon="6.58751">
        <ele>1952</ele>
        <time>2017-10-13T12:40:38Z</time>
      </trkpt>
      <trkpt lat="45.77898" lon="6.58766">
        <ele>1952</ele>
        <time>2017-10-13T12:40:42Z</time>
      </trkpt>
      <trkpt lat="45.77896" lon="6.58783">
        <ele>1951.7</ele>
        <time>2017-10-13T12:40:46Z</time>
      </trkpt>
      <trkpt lat="45.77896" lon="6.58799">
        <ele>1951.8</ele>
        <time>2017-10-13T12:40:50Z</time>
      </trkpt>
      <trkpt lat="45.77896" lon="6.58813">
        <ele>1952.4</ele>
        <time>2017-10-13T12:40:54Z</time>
      </trkpt>
      <trkpt lat="45.77898" lon="6.58828">
        <ele>1952.9</ele>
        <time>2017-10-13T12:40:58Z</time>
      </trkpt>
      <trkpt lat="45.77899" lon="6.58841">
        <ele>1953.7</ele>
        <time>2017-10-13T12:41:02Z</time>
      </trkpt>
      <trkpt lat="45.779" lon="6.58859">
        <ele>1954.4</ele>
        <time>2017-10-13T12:41:06Z</time>
      </trkpt>
      <trkpt lat="45.779" lon="6.58873">
        <ele>1955.1</ele>
        <time>2017-10-13T12:41:10Z</time>
      </trkpt>
      <trkpt lat="45.77901" lon="6.58886">
        <ele>1955.7</ele>
        <time>2017-10-13T12:41:14Z</time>
      </trkpt>
      <trkpt lat="45.77902" lon="6.58901">
        <ele>1955.8</ele>
        <time>2017-10-13T12:41:18Z</time>
      </trkpt>
      <trkpt lat="45.77904" lon="6.58917">
        <ele>1955.7</ele>
        <time>2017-10-13T12:41:22Z</time>
      </trkpt>
      <trkpt lat="45.77905" lon="6.58932">
        <ele>1955.7</ele>
        <time>2017-10-13T12:41:25Z</time>
      </trkpt>
      <trkpt lat="45.77905" lon="6.58948">
        <ele>1956.2</ele>
        <time>2017-10-13T12:41:29Z</time>
      </trkpt>
      <trkpt lat="45.77905" lon="6.58962">
        <ele>1956.5</ele>
        <time>2017-10-13T12:41:33Z</time>
      </trkpt>
      <trkpt lat="45.77905" lon="6.58976">
        <ele>1957.2</ele>
        <time>2017-10-13T12:41:53Z</time>
      </trkpt>
      <trkpt lat="45.77906" lon="6.58992">
        <ele>1957</ele>
        <time>2017-10-13T12:41:57Z</time>
      </trkpt>
      <trkpt lat="45.77906" lon="6.59008">
        <ele>1957</ele>
        <time>2017-10-13T12:42:01Z</time>
      </trkpt>
      <trkpt lat="45.77906" lon="6.59022">
        <ele>1957</ele>
        <time>2017-10-13T12:42:05Z</time>
      </trkpt>
      <trkpt lat="45.77908" lon="6.59038">
        <ele>1957</ele>
        <time>2017-10-13T12:42:09Z</time>
      </trkpt>
      <trkpt lat="45.77909" lon="6.59051">
        <ele>1957.1</ele>
        <time>2017-10-13T12:42:12Z</time>
      </trkpt>
      <trkpt lat="45.77909" lon="6.59068">
        <ele>1956.9</ele>
        <time>2017-10-13T12:42:16Z</time>
      </trkpt>
      <trkpt lat="45.77907" lon="6.59085">
        <ele>1957</ele>
        <time>2017-10-13T12:42:20Z</time>
      </trkpt>
      <trkpt lat="45.77908" lon="6.59101">
        <ele>1957.1</ele>
        <time>2017-10-13T12:42:24Z</time>
      </trkpt>
      <trkpt lat="45.77908" lon="6.59116">
        <ele>1957</ele>
        <time>2017-10-13T12:42:27Z</time>
      </trkpt>
      <trkpt lat="45.77909" lon="6.59133">
        <ele>1956.7</ele>
        <time>2017-10-13T12:42:30Z</time>
      </trkpt>
      <trkpt lat="45.77907" lon="6.59151">
        <ele>1956.2</ele>
        <time>2017-10-13T12:42:33Z</time>
      </trkpt>
      <trkpt lat="45.77903" lon="6.59166">
        <ele>1955.8</ele>
        <time>2017-10-13T12:42:36Z</time>
      </trkpt>
      <trkpt lat="45.77898" lon="6.59178">
        <ele>1954.4</ele>
        <time>2017-10-13T12:42:50Z</time>
      </trkpt>
      <trkpt lat="45.77891" lon="6.59194">
        <ele>1954.5</ele>
        <time>2017-10-13T12:42:54Z</time>
      </trkpt>
      <trkpt lat="45.77886" lon="6.59207">
        <ele>1954.4</ele>
        <time>2017-10-13T12:42:56Z</time>
      </trkpt>
      <trkpt lat="45.77878" lon="6.5922">
        <ele>1954.4</ele>
        <time>2017-10-13T12:42:58Z</time>
      </trkpt>
      <trkpt lat="45.77869" lon="6.59231">
        <ele>1954.2</ele>
        <time>2017-10-13T12:43:00Z</time>
      </trkpt>
      <trkpt lat="45.77859" lon="6.59238">
        <ele>1954</ele>
        <time>2017-10-13T12:43:02Z</time>
      </trkpt>
      <trkpt lat="45.77848" lon="6.59246">
        <ele>1953.9</ele>
        <time>2017-10-13T12:43:05Z</time>
      </trkpt>
      <trkpt lat="45.77837" lon="6.59251">
        <ele>1954.3</ele>
        <time>2017-10-13T12:43:08Z</time>
      </trkpt>
      <trkpt lat="45.77827" lon="6.59256">
        <ele>1954.7</ele>
        <time>2017-10-13T12:43:11Z</time>
      </trkpt>
      <trkpt lat="45.77817" lon="6.59261">
        <ele>1955.2</ele>
        <time>2017-10-13T12:43:14Z</time>
      </trkpt>
      <trkpt lat="45.77807" lon="6.59264">
        <ele>1955.6</ele>
        <time>2017-10-13T12:43:17Z</time>
      </trkpt>
      <trkpt lat="45.77797" lon="6.59265">
        <ele>1955.8</ele>
        <time>2017-10-13T12:43:20Z</time>
      </trkpt>
      <trkpt lat="45.77788" lon="6.59263">
        <ele>1956</ele>
        <time>2017-10-13T12:43:23Z</time>
      </trkpt>
      <trkpt lat="45.77778" lon="6.59258">
        <ele>1956.2</ele>
        <time>2017-10-13T12:43:26Z</time>
      </trkpt>
      <trkpt lat="45.77768" lon="6.59258">
        <ele>1956.1</ele>
        <time>2017-10-13T12:43:29Z</time>
      </trkpt>
      <trkpt lat="45.77759" lon="6.59264">
        <ele>1955.6</ele>
        <time>2017-10-13T12:43:32Z</time>
      </trkpt>
      <trkpt lat="45.77748" lon="6.59265">
        <ele>1955.4</ele>
        <time>2017-10-13T12:43:35Z</time>
      </trkpt>
      <trkpt lat="45.77735" lon="6.59264">
        <ele>1955.2</ele>
        <time>2017-10-13T12:43:38Z</time>
      </trkpt>
      <trkpt lat="45.77726" lon="6.59267">
        <ele>1954.9</ele>
        <time>2017-10-13T12:43:40Z</time>
      </trkpt>
      <trkpt lat="45.77717" lon="6.59274">
        <ele>1954.4</ele>
        <time>2017-10-13T12:43:42Z</time>
      </trkpt>
      <trkpt lat="45.77708" lon="6.59282">
        <ele>1954</ele>
        <time>2017-10-13T12:43:44Z</time>
      </trkpt>
      <trkpt lat="45.77697" lon="6.59286">
        <ele>1953.5</ele>
        <time>2017-10-13T12:43:46Z</time>
      </trkpt>
      <trkpt lat="45.77684" lon="6.59287">
        <ele>1953.2</ele>
        <time>2017-10-13T12:43:48Z</time>
      </trkpt>
      <trkpt lat="45.77671" lon="6.59287">
        <ele>1952.9</ele>
        <time>2017-10-13T12:43:50Z</time>
      </trkpt>
      <trkpt lat="45.77659" lon="6.59288">
        <ele>1952.2</ele>
        <time>2017-10-13T12:43:52Z</time>
      </trkpt>
      <trkpt lat="45.77646" lon="6.59289">
        <ele>1951.2</ele>
        <time>2017-10-13T12:43:54Z</time>
      </trkpt>
      <trkpt lat="45.77637" lon="6.5929">
        <ele>1950.1</ele>
        <time>2017-10-13T12:43:56Z</time>
      </trkpt>
      <trkpt lat="45.77623" lon="6.59288">
        <ele>1948.7</ele>
        <time>2017-10-13T12:43:59Z</time>
      </trkpt>
      <trkpt lat="45.77612" lon="6.5929">
        <ele>1947.6</ele>
        <time>2017-10-13T12:44:01Z</time>
      </trkpt>
      <trkpt lat="45.77601" lon="6.59288">
        <ele>1946.5</ele>
        <time>2017-10-13T12:44:03Z</time>
      </trkpt>
      <trkpt lat="45.77589" lon="6.5928">
        <ele>1945.7</ele>
        <time>2017-10-13T12:44:05Z</time>
      </trkpt>
      <trkpt lat="45.77577" lon="6.59271">
        <ele>1944.7</ele>
        <time>2017-10-13T12:44:07Z</time>
      </trkpt>
      <trkpt lat="45.77564" lon="6.5926">
        <ele>1943.6</ele>
        <time>2017-10-13T12:44:09Z</time>
      </trkpt>
      <trkpt lat="45.7755" lon="6.5925">
        <ele>1942.9</ele>
        <time>2017-10-13T12:44:11Z</time>
      </trkpt>
      <trkpt lat="45.77537" lon="6.5924">
        <ele>1942.6</ele>
        <time>2017-10-13T12:44:13Z</time>
      </trkpt>
      <trkpt lat="45.77525" lon="6.5923">
        <ele>1942.2</ele>
        <time>2017-10-13T12:44:15Z</time>
      </trkpt>
      <trkpt lat="45.77514" lon="6.59219">
        <ele>1941.5</ele>
        <time>2017-10-13T12:44:17Z</time>
      </trkpt>
      <trkpt lat="45.77505" lon="6.59208">
        <ele>1941.1</ele>
        <time>2017-10-13T12:44:19Z</time>
      </trkpt>
      <trkpt lat="45.77496" lon="6.59199">
        <ele>1940.6</ele>
        <time>2017-10-13T12:44:21Z</time>
      </trkpt>
      <trkpt lat="45.77487" lon="6.59195">
        <ele>1939.9</ele>
        <time>2017-10-13T12:44:23Z</time>
      </trkpt>
      <trkpt lat="45.77477" lon="6.59194">
        <ele>1939.4</ele>
        <time>2017-10-13T12:44:25Z</time>
      </trkpt>
      <trkpt lat="45.77465" lon="6.59195">
        <ele>1938.8</ele>
        <time>2017-10-13T12:44:28Z</time>
      </trkpt>
      <trkpt lat="45.77453" lon="6.59199">
        <ele>1938.2</ele>
        <time>2017-10-13T12:44:31Z</time>
      </trkpt>
      <trkpt lat="45.77444" lon="6.59203">
        <ele>1938.2</ele>
        <time>2017-10-13T12:44:33Z</time>
      </trkpt>
      <trkpt lat="45.77436" lon="6.59206">
        <ele>1937.8</ele>
        <time>2017-10-13T12:44:35Z</time>
      </trkpt>
      <trkpt lat="45.77427" lon="6.59208">
        <ele>1937.5</ele>
        <time>2017-10-13T12:44:37Z</time>
      </trkpt>
      <trkpt lat="45.77417" lon="6.5921">
        <ele>1937.4</ele>
        <time>2017-10-13T12:44:39Z</time>
      </trkpt>
      <trkpt lat="45.77408" lon="6.59211">
        <ele>1937.1</ele>
        <time>2017-10-13T12:44:41Z</time>
      </trkpt>
      <trkpt lat="45.77399" lon="6.59212">
        <ele>1936.9</ele>
        <time>2017-10-13T12:44:43Z</time>
      </trkpt>
      <trkpt lat="45.7739" lon="6.59211">
        <ele>1936.8</ele>
        <time>2017-10-13T12:44:45Z</time>
      </trkpt>
      <trkpt lat="45.77377" lon="6.59204">
        <ele>1936.9</ele>
        <time>2017-10-13T12:44:48Z</time>
      </trkpt>
      <trkpt lat="45.77367" lon="6.59194">
        <ele>1936.9</ele>
        <time>2017-10-13T12:44:51Z</time>
      </trkpt>
      <trkpt lat="45.77359" lon="6.59182">
        <ele>1936.7</ele>
        <time>2017-10-13T12:44:54Z</time>
      </trkpt>
      <trkpt lat="45.77352" lon="6.59172">
        <ele>1936.5</ele>
        <time>2017-10-13T12:44:57Z</time>
      </trkpt>
      <trkpt lat="45.77343" lon="6.59164">
        <ele>1936.3</ele>
        <time>2017-10-13T12:45:00Z</time>
      </trkpt>
      <trkpt lat="45.77333" lon="6.59162">
        <ele>1936</ele>
        <time>2017-10-13T12:45:03Z</time>
      </trkpt>
      <trkpt lat="45.77324" lon="6.59161">
        <ele>1935.9</ele>
        <time>2017-10-13T12:45:06Z</time>
      </trkpt>
      <trkpt lat="45.77313" lon="6.59161">
        <ele>1935.8</ele>
        <time>2017-10-13T12:45:10Z</time>
      </trkpt>
      <trkpt lat="45.77304" lon="6.59159">
        <ele>1936</ele>
        <time>2017-10-13T12:45:14Z</time>
      </trkpt>
      <trkpt lat="45.77294" lon="6.59155">
        <ele>1936.6</ele>
        <time>2017-10-13T12:45:19Z</time>
      </trkpt>
      <trkpt lat="45.77284" lon="6.59152">
        <ele>1937.6</ele>
        <time>2017-10-13T12:45:25Z</time>
      </trkpt>
      <trkpt lat="45.77275" lon="6.59147">
        <ele>1939.2</ele>
        <time>2017-10-13T12:45:32Z</time>
      </trkpt>
      <trkpt lat="45.77267" lon="6.59139">
        <ele>1940.9</ele>
        <time>2017-10-13T12:45:39Z</time>
      </trkpt>
      <trkpt lat="45.77257" lon="6.59135">
        <ele>1942.6</ele>
        <time>2017-10-13T12:45:46Z</time>
      </trkpt>
      <trkpt lat="45.77249" lon="6.59129">
        <ele>1944.6</ele>
        <time>2017-10-13T12:45:54Z</time>
      </trkpt>
      <trkpt lat="45.7724" lon="6.59124">
        <ele>1945.9</ele>
        <time>2017-10-13T12:46:02Z</time>
      </trkpt>
      <trkpt lat="45.7723" lon="6.59119">
        <ele>1947.5</ele>
        <time>2017-10-13T12:46:11Z</time>
      </trkpt>
      <trkpt lat="45.77222" lon="6.59116">
        <ele>1948.8</ele>
        <time>2017-10-13T12:46:19Z</time>
      </trkpt>
      <trkpt lat="45.77212" lon="6.59115">
        <ele>1950.5</ele>
        <time>2017-10-13T12:46:31Z</time>
      </trkpt>
      <trkpt lat="45.77202" lon="6.5911">
        <ele>1952.4</ele>
        <time>2017-10-13T12:46:42Z</time>
      </trkpt>
      <trkpt lat="45.77192" lon="6.59104">
        <ele>1954.9</ele>
        <time>2017-10-13T12:46:54Z</time>
      </trkpt>
      <trkpt lat="45.77182" lon="6.59099">
        <ele>1957.5</ele>
        <time>2017-10-13T12:47:06Z</time>
      </trkpt>
      <trkpt lat="45.77173" lon="6.59095">
        <ele>1960.2</ele>
        <time>2017-10-13T12:47:18Z</time>
      </trkpt>
      <trkpt lat="45.77169" lon="6.5908">
        <ele>1962.7</ele>
        <time>2017-10-13T12:47:30Z</time>
      </trkpt>
      <trkpt lat="45.77161" lon="6.59072">
        <ele>1964.6</ele>
        <time>2017-10-13T12:47:43Z</time>
      </trkpt>
      <trkpt lat="45.77153" lon="6.59063">
        <ele>1965.1</ele>
        <time>2017-10-13T12:47:49Z</time>
      </trkpt>
      <trkpt lat="45.77143" lon="6.59051">
        <ele>1965.1</ele>
        <time>2017-10-13T12:47:52Z</time>
      </trkpt>
      <trkpt lat="45.77153" lon="6.5906">
        <ele>1966.1</ele>
        <time>2017-10-13T12:52:11Z</time>
      </trkpt>
      <trkpt lat="45.77156" lon="6.59072">
        <ele>1967.3</ele>
        <time>2017-10-13T12:52:16Z</time>
      </trkpt>
      <trkpt lat="45.7715" lon="6.5906">
        <ele>1967.3</ele>
        <time>2017-10-13T12:52:27Z</time>
      </trkpt>
      <trkpt lat="45.77145" lon="6.59049">
        <ele>1966.8</ele>
        <time>2017-10-13T12:52:31Z</time>
      </trkpt>
      <trkpt lat="45.77137" lon="6.59038">
        <ele>1966.4</ele>
        <time>2017-10-13T12:53:12Z</time>
      </trkpt>
      <trkpt lat="45.77139" lon="6.59023">
        <ele>1965.8</ele>
        <time>2017-10-13T12:54:39Z</time>
      </trkpt>
      <trkpt lat="45.77136" lon="6.59006">
        <ele>1962.6</ele>
        <time>2017-10-13T12:54:43Z</time>
      </trkpt>
      <trkpt lat="45.77131" lon="6.58991">
        <ele>1959.5</ele>
        <time>2017-10-13T12:54:46Z</time>
      </trkpt>
      <trkpt lat="45.77124" lon="6.58977">
        <ele>1957.1</ele>
        <time>2017-10-13T12:54:48Z</time>
      </trkpt>
      <trkpt lat="45.77119" lon="6.58962">
        <ele>1955.1</ele>
        <time>2017-10-13T12:54:50Z</time>
      </trkpt>
      <trkpt lat="45.77118" lon="6.58949">
        <ele>1953.7</ele>
        <time>2017-10-13T12:54:53Z</time>
      </trkpt>
      <trkpt lat="45.77116" lon="6.58934">
        <ele>1953.4</ele>
        <time>2017-10-13T12:54:58Z</time>
      </trkpt>
      <trkpt lat="45.77112" lon="6.58918">
        <ele>1953.5</ele>
        <time>2017-10-13T12:55:03Z</time>
      </trkpt>
      <trkpt lat="45.77107" lon="6.58908">
        <ele>1952.6</ele>
        <time>2017-10-13T12:55:15Z</time>
      </trkpt>
      <trkpt lat="45.77102" lon="6.58895">
        <ele>1952</ele>
        <time>2017-10-13T12:55:25Z</time>
      </trkpt>
      <trkpt lat="45.77097" lon="6.58882">
        <ele>1950.5</ele>
        <time>2017-10-13T12:55:30Z</time>
      </trkpt>
      <trkpt lat="45.77089" lon="6.58872">
        <ele>1946.4</ele>
        <time>2017-10-13T12:55:45Z</time>
      </trkpt>
      <trkpt lat="45.7708" lon="6.58867">
        <ele>1944.4</ele>
        <time>2017-10-13T12:55:49Z</time>
      </trkpt>
      <trkpt lat="45.77072" lon="6.58852">
        <ele>1942.2</ele>
        <time>2017-10-13T12:56:21Z</time>
      </trkpt>
      <trkpt lat="45.77067" lon="6.58835">
        <ele>1941.5</ele>
        <time>2017-10-13T12:56:23Z</time>
      </trkpt>
      <trkpt lat="45.77062" lon="6.58813">
        <ele>1940.5</ele>
        <time>2017-10-13T12:56:25Z</time>
      </trkpt>
      <trkpt lat="45.77057" lon="6.5879">
        <ele>1939.5</ele>
        <time>2017-10-13T12:56:27Z</time>
      </trkpt>
      <trkpt lat="45.7705" lon="6.58773">
        <ele>1938.7</ele>
        <time>2017-10-13T12:56:29Z</time>
      </trkpt>
      <trkpt lat="45.77045" lon="6.58759">
        <ele>1938.2</ele>
        <time>2017-10-13T12:56:31Z</time>
      </trkpt>
      <trkpt lat="45.77039" lon="6.58746">
        <ele>1937.6</ele>
        <time>2017-10-13T12:56:34Z</time>
      </trkpt>
      <trkpt lat="45.77034" lon="6.58731">
        <ele>1936.6</ele>
        <time>2017-10-13T12:57:44Z</time>
      </trkpt>
      <trkpt lat="45.7703" lon="6.58716">
        <ele>1936.3</ele>
        <time>2017-10-13T12:57:47Z</time>
      </trkpt>
      <trkpt lat="45.77025" lon="6.58701">
        <ele>1935</ele>
        <time>2017-10-13T12:57:50Z</time>
      </trkpt>
      <trkpt lat="45.77021" lon="6.58689">
        <ele>1933.8</ele>
        <time>2017-10-13T12:57:52Z</time>
      </trkpt>
      <trkpt lat="45.77016" lon="6.58675">
        <ele>1931.5</ele>
        <time>2017-10-13T12:57:55Z</time>
      </trkpt>
      <trkpt lat="45.77013" lon="6.58662">
        <ele>1929.1</ele>
        <time>2017-10-13T12:57:58Z</time>
      </trkpt>
      <trkpt lat="45.77012" lon="6.58648">
        <ele>1926.6</ele>
        <time>2017-10-13T12:58:01Z</time>
      </trkpt>
      <trkpt lat="45.77005" lon="6.58634">
        <ele>1923.5</ele>
        <time>2017-10-13T12:58:05Z</time>
      </trkpt>
      <trkpt lat="45.77" lon="6.5862">
        <ele>1921.4</ele>
        <time>2017-10-13T12:58:08Z</time>
      </trkpt>
      <trkpt lat="45.76996" lon="6.58608">
        <ele>1917.2</ele>
        <time>2017-10-13T12:58:15Z</time>
      </trkpt>
      <trkpt lat="45.76994" lon="6.5859">
        <ele>1914.9</ele>
        <time>2017-10-13T12:58:19Z</time>
      </trkpt>
      <trkpt lat="45.76989" lon="6.58576">
        <ele>1912.6</ele>
        <time>2017-10-13T12:58:22Z</time>
      </trkpt>
      <trkpt lat="45.76984" lon="6.58564">
        <ele>1908.5</ele>
        <time>2017-10-13T12:58:28Z</time>
      </trkpt>
      <trkpt lat="45.76981" lon="6.58547">
        <ele>1907.1</ele>
        <time>2017-10-13T12:58:32Z</time>
      </trkpt>
      <trkpt lat="45.76977" lon="6.58536">
        <ele>1906.5</ele>
        <time>2017-10-13T12:58:34Z</time>
      </trkpt>
      <trkpt lat="45.76971" lon="6.58523">
        <ele>1905.7</ele>
        <time>2017-10-13T12:58:36Z</time>
      </trkpt>
      <trkpt lat="45.76964" lon="6.58508">
        <ele>1905.1</ele>
        <time>2017-10-13T12:58:38Z</time>
      </trkpt>
      <trkpt lat="45.76956" lon="6.58493">
        <ele>1904.4</ele>
        <time>2017-10-13T12:58:40Z</time>
      </trkpt>
      <trkpt lat="45.7695" lon="6.58475">
        <ele>1903.6</ele>
        <time>2017-10-13T12:58:42Z</time>
      </trkpt>
      <trkpt lat="45.76943" lon="6.58456">
        <ele>1902.7</ele>
        <time>2017-10-13T12:58:44Z</time>
      </trkpt>
      <trkpt lat="45.76938" lon="6.58443">
        <ele>1901.7</ele>
        <time>2017-10-13T12:58:46Z</time>
      </trkpt>
      <trkpt lat="45.7693" lon="6.58429">
        <ele>1900.2</ele>
        <time>2017-10-13T12:58:49Z</time>
      </trkpt>
      <trkpt lat="45.76925" lon="6.58415">
        <ele>1898.7</ele>
        <time>2017-10-13T12:58:52Z</time>
      </trkpt>
      <trkpt lat="45.76918" lon="6.58399">
        <ele>1897.3</ele>
        <time>2017-10-13T12:58:55Z</time>
      </trkpt>
      <trkpt lat="45.76912" lon="6.58385">
        <ele>1896.4</ele>
        <time>2017-10-13T12:58:57Z</time>
      </trkpt>
      <trkpt lat="45.76906" lon="6.58373">
        <ele>1895.1</ele>
        <time>2017-10-13T12:59:00Z</time>
      </trkpt>
      <trkpt lat="45.76899" lon="6.58358">
        <ele>1892.7</ele>
        <time>2017-10-13T12:59:16Z</time>
      </trkpt>
      <trkpt lat="45.76893" lon="6.58342">
        <ele>1892.2</ele>
        <time>2017-10-13T12:59:19Z</time>
      </trkpt>
      <trkpt lat="45.76888" lon="6.58325">
        <ele>1891.3</ele>
        <time>2017-10-13T12:59:22Z</time>
      </trkpt>
      <trkpt lat="45.76885" lon="6.58312">
        <ele>1890.7</ele>
        <time>2017-10-13T12:59:24Z</time>
      </trkpt>
      <trkpt lat="45.76882" lon="6.58299">
        <ele>1889.9</ele>
        <time>2017-10-13T12:59:26Z</time>
      </trkpt>
      <trkpt lat="45.76879" lon="6.58286">
        <ele>1889.1</ele>
        <time>2017-10-13T12:59:28Z</time>
      </trkpt>
      <trkpt lat="45.76877" lon="6.58272">
        <ele>1888.3</ele>
        <time>2017-10-13T12:59:30Z</time>
      </trkpt>
      <trkpt lat="45.76874" lon="6.58254">
        <ele>1887.4</ele>
        <time>2017-10-13T12:59:33Z</time>
      </trkpt>
      <trkpt lat="45.76873" lon="6.5824">
        <ele>1886.3</ele>
        <time>2017-10-13T12:59:36Z</time>
      </trkpt>
      <trkpt lat="45.76873" lon="6.58225">
        <ele>1885.5</ele>
        <time>2017-10-13T12:59:39Z</time>
      </trkpt>
      <trkpt lat="45.76872" lon="6.58205">
        <ele>1884.5</ele>
        <time>2017-10-13T12:59:42Z</time>
      </trkpt>
      <trkpt lat="45.76871" lon="6.58189">
        <ele>1883.7</ele>
        <time>2017-10-13T12:59:44Z</time>
      </trkpt>
      <trkpt lat="45.76871" lon="6.58173">
        <ele>1882.6</ele>
        <time>2017-10-13T12:59:46Z</time>
      </trkpt>
      <trkpt lat="45.76868" lon="6.58157">
        <ele>1881.5</ele>
        <time>2017-10-13T12:59:48Z</time>
      </trkpt>
      <trkpt lat="45.76866" lon="6.58142">
        <ele>1880.4</ele>
        <time>2017-10-13T12:59:50Z</time>
      </trkpt>
      <trkpt lat="45.76863" lon="6.58127">
        <ele>1879.5</ele>
        <time>2017-10-13T12:59:52Z</time>
      </trkpt>
      <trkpt lat="45.7686" lon="6.58112">
        <ele>1878.5</ele>
        <time>2017-10-13T12:59:54Z</time>
      </trkpt>
      <trkpt lat="45.76858" lon="6.58097">
        <ele>1877.6</ele>
        <time>2017-10-13T12:59:56Z</time>
      </trkpt>
      <trkpt lat="45.76858" lon="6.5808">
        <ele>1876.7</ele>
        <time>2017-10-13T12:59:58Z</time>
      </trkpt>
      <trkpt lat="45.76858" lon="6.58063">
        <ele>1875.7</ele>
        <time>2017-10-13T13:00:00Z</time>
      </trkpt>
      <trkpt lat="45.76859" lon="6.58045">
        <ele>1874.6</ele>
        <time>2017-10-13T13:00:02Z</time>
      </trkpt>
      <trkpt lat="45.76859" lon="6.58027">
        <ele>1873.5</ele>
        <time>2017-10-13T13:00:04Z</time>
      </trkpt>
      <trkpt lat="45.76859" lon="6.58008">
        <ele>1872.1</ele>
        <time>2017-10-13T13:00:06Z</time>
      </trkpt>
      <trkpt lat="45.76858" lon="6.57988">
        <ele>1870.7</ele>
        <time>2017-10-13T13:00:08Z</time>
      </trkpt>
      <trkpt lat="45.76857" lon="6.57966">
        <ele>1869.3</ele>
        <time>2017-10-13T13:00:10Z</time>
      </trkpt>
      <trkpt lat="45.76856" lon="6.57941">
        <ele>1867.9</ele>
        <time>2017-10-13T13:00:12Z</time>
      </trkpt>
      <trkpt lat="45.76856" lon="6.57927">
        <ele>1867.1</ele>
        <time>2017-10-13T13:00:13Z</time>
      </trkpt>
      <trkpt lat="45.76855" lon="6.57913">
        <ele>1866.2</ele>
        <time>2017-10-13T13:00:14Z</time>
      </trkpt>
      <trkpt lat="45.76853" lon="6.57899">
        <ele>1865.3</ele>
        <time>2017-10-13T13:00:15Z</time>
      </trkpt>
      <trkpt lat="45.76851" lon="6.57884">
        <ele>1864.4</ele>
        <time>2017-10-13T13:00:16Z</time>
      </trkpt>
      <trkpt lat="45.76848" lon="6.5787">
        <ele>1863.6</ele>
        <time>2017-10-13T13:00:17Z</time>
      </trkpt>
      <trkpt lat="45.76843" lon="6.57856">
        <ele>1862.8</ele>
        <time>2017-10-13T13:00:18Z</time>
      </trkpt>
      <trkpt lat="45.76838" lon="6.57842">
        <ele>1862</ele>
        <time>2017-10-13T13:00:19Z</time>
      </trkpt>
      <trkpt lat="45.76833" lon="6.57829">
        <ele>1861.2</ele>
        <time>2017-10-13T13:00:20Z</time>
      </trkpt>
      <trkpt lat="45.76826" lon="6.57816">
        <ele>1860.3</ele>
        <time>2017-10-13T13:00:21Z</time>
      </trkpt>
      <trkpt lat="45.76818" lon="6.57803">
        <ele>1859.3</ele>
        <time>2017-10-13T13:00:22Z</time>
      </trkpt>
      <trkpt lat="45.76812" lon="6.5779">
        <ele>1858.3</ele>
        <time>2017-10-13T13:00:23Z</time>
      </trkpt>
      <trkpt lat="45.76806" lon="6.57776">
        <ele>1857.4</ele>
        <time>2017-10-13T13:00:24Z</time>
      </trkpt>
      <trkpt lat="45.76801" lon="6.5776">
        <ele>1856.4</ele>
        <time>2017-10-13T13:00:25Z</time>
      </trkpt>
      <trkpt lat="45.76796" lon="6.57745">
        <ele>1855.3</ele>
        <time>2017-10-13T13:00:26Z</time>
      </trkpt>
      <trkpt lat="45.7679" lon="6.57731">
        <ele>1854.1</ele>
        <time>2017-10-13T13:00:27Z</time>
      </trkpt>
      <trkpt lat="45.76783" lon="6.5772">
        <ele>1853.1</ele>
        <time>2017-10-13T13:00:28Z</time>
      </trkpt>
      <trkpt lat="45.76774" lon="6.5771">
        <ele>1852</ele>
        <time>2017-10-13T13:00:29Z</time>
      </trkpt>
      <trkpt lat="45.76764" lon="6.57702">
        <ele>1851.1</ele>
        <time>2017-10-13T13:00:30Z</time>
      </trkpt>
      <trkpt lat="45.76754" lon="6.57694">
        <ele>1850.1</ele>
        <time>2017-10-13T13:00:31Z</time>
      </trkpt>
      <trkpt lat="45.76744" lon="6.57686">
        <ele>1849.3</ele>
        <time>2017-10-13T13:00:32Z</time>
      </trkpt>
      <trkpt lat="45.76734" lon="6.57677">
        <ele>1848.3</ele>
        <time>2017-10-13T13:00:33Z</time>
      </trkpt>
      <trkpt lat="45.76724" lon="6.57668">
        <ele>1847.4</ele>
        <time>2017-10-13T13:00:34Z</time>
      </trkpt>
      <trkpt lat="45.76714" lon="6.57658">
        <ele>1846.3</ele>
        <time>2017-10-13T13:00:35Z</time>
      </trkpt>
      <trkpt lat="45.76704" lon="6.57647">
        <ele>1845.3</ele>
        <time>2017-10-13T13:00:36Z</time>
      </trkpt>
      <trkpt lat="45.76694" lon="6.57636">
        <ele>1844.3</ele>
        <time>2017-10-13T13:00:37Z</time>
      </trkpt>
      <trkpt lat="45.76684" lon="6.57624">
        <ele>1843.2</ele>
        <time>2017-10-13T13:00:38Z</time>
      </trkpt>
      <trkpt lat="45.76674" lon="6.57613">
        <ele>1842.1</ele>
        <time>2017-10-13T13:00:39Z</time>
      </trkpt>
      <trkpt lat="45.76664" lon="6.57601">
        <ele>1840.9</ele>
        <time>2017-10-13T13:00:40Z</time>
      </trkpt>
      <trkpt lat="45.76655" lon="6.57591">
        <ele>1839.5</ele>
        <time>2017-10-13T13:00:41Z</time>
      </trkpt>
      <trkpt lat="45.76648" lon="6.57581">
        <ele>1838.1</ele>
        <time>2017-10-13T13:00:42Z</time>
      </trkpt>
      <trkpt lat="45.76642" lon="6.5757">
        <ele>1836.8</ele>
        <time>2017-10-13T13:00:43Z</time>
      </trkpt>
      <trkpt lat="45.76636" lon="6.57559">
        <ele>1835.5</ele>
        <time>2017-10-13T13:00:44Z</time>
      </trkpt>
      <trkpt lat="45.7663" lon="6.57537">
        <ele>1832.8</ele>
        <time>2017-10-13T13:00:46Z</time>
      </trkpt>
      <trkpt lat="45.76626" lon="6.57521">
        <ele>1830.2</ele>
        <time>2017-10-13T13:00:48Z</time>
      </trkpt>
      <trkpt lat="45.76622" lon="6.57507">
        <ele>1823.3</ele>
        <time>2017-10-13T13:01:05Z</time>
      </trkpt>
      <trkpt lat="45.76619" lon="6.57493">
        <ele>1822.8</ele>
        <time>2017-10-13T13:01:08Z</time>
      </trkpt>
      <trkpt lat="45.76616" lon="6.57475">
        <ele>1822.1</ele>
        <time>2017-10-13T13:01:11Z</time>
      </trkpt>
      <trkpt lat="45.76615" lon="6.57461">
        <ele>1821.5</ele>
        <time>2017-10-13T13:01:13Z</time>
      </trkpt>
      <trkpt lat="45.76616" lon="6.57443">
        <ele>1820.8</ele>
        <time>2017-10-13T13:01:15Z</time>
      </trkpt>
      <trkpt lat="45.76619" lon="6.57426">
        <ele>1820.1</ele>
        <time>2017-10-13T13:01:17Z</time>
      </trkpt>
      <trkpt lat="45.7662" lon="6.57409">
        <ele>1819.3</ele>
        <time>2017-10-13T13:01:19Z</time>
      </trkpt>
      <trkpt lat="45.76621" lon="6.57393">
        <ele>1818.1</ele>
        <time>2017-10-13T13:01:21Z</time>
      </trkpt>
      <trkpt lat="45.76621" lon="6.57378">
        <ele>1816.8</ele>
        <time>2017-10-13T13:01:23Z</time>
      </trkpt>
      <trkpt lat="45.76624" lon="6.57362">
        <ele>1815.2</ele>
        <time>2017-10-13T13:01:26Z</time>
      </trkpt>
      <trkpt lat="45.76616" lon="6.57356">
        <ele>1812.3</ele>
        <time>2017-10-13T13:01:33Z</time>
      </trkpt>
      <trkpt lat="45.76613" lon="6.5737">
        <ele>1811.1</ele>
        <time>2017-10-13T13:01:38Z</time>
      </trkpt>
      <trkpt lat="45.76605" lon="6.57378">
        <ele>1809.2</ele>
        <time>2017-10-13T13:01:55Z</time>
      </trkpt>
      <trkpt lat="45.76602" lon="6.57366">
        <ele>1808.6</ele>
        <time>2017-10-13T13:01:58Z</time>
      </trkpt>
      <trkpt lat="45.76599" lon="6.57352">
        <ele>1807.5</ele>
        <time>2017-10-13T13:02:01Z</time>
      </trkpt>
      <trkpt lat="45.76586" lon="6.5735">
        <ele>1806.1</ele>
        <time>2017-10-13T13:02:04Z</time>
      </trkpt>
      <trkpt lat="45.76578" lon="6.57356">
        <ele>1805.1</ele>
        <time>2017-10-13T13:02:06Z</time>
      </trkpt>
      <trkpt lat="45.76569" lon="6.57362">
        <ele>1804.3</ele>
        <time>2017-10-13T13:02:08Z</time>
      </trkpt>
      <trkpt lat="45.7656" lon="6.57368">
        <ele>1803.4</ele>
        <time>2017-10-13T13:02:10Z</time>
      </trkpt>
      <trkpt lat="45.76552" lon="6.57376">
        <ele>1801.9</ele>
        <time>2017-10-13T13:02:13Z</time>
      </trkpt>
      <trkpt lat="45.76543" lon="6.57371">
        <ele>1800.3</ele>
        <time>2017-10-13T13:02:16Z</time>
      </trkpt>
      <trkpt lat="45.76547" lon="6.57353">
        <ele>1798.8</ele>
        <time>2017-10-13T13:02:19Z</time>
      </trkpt>
      <trkpt lat="45.76552" lon="6.57339">
        <ele>1798</ele>
        <time>2017-10-13T13:02:21Z</time>
      </trkpt>
      <trkpt lat="45.76559" lon="6.5733">
        <ele>1797</ele>
        <time>2017-10-13T13:02:23Z</time>
      </trkpt>
      <trkpt lat="45.76567" lon="6.57322">
        <ele>1795.9</ele>
        <time>2017-10-13T13:02:25Z</time>
      </trkpt>
      <trkpt lat="45.76574" lon="6.57312">
        <ele>1794.6</ele>
        <time>2017-10-13T13:02:27Z</time>
      </trkpt>
      <trkpt lat="45.76572" lon="6.57297">
        <ele>1792.6</ele>
        <time>2017-10-13T13:02:30Z</time>
      </trkpt>
      <trkpt lat="45.76563" lon="6.57297">
        <ele>1791</ele>
        <time>2017-10-13T13:02:33Z</time>
      </trkpt>
      <trkpt lat="45.76553" lon="6.57304">
        <ele>1789.8</ele>
        <time>2017-10-13T13:02:36Z</time>
      </trkpt>
      <trkpt lat="45.76545" lon="6.57314">
        <ele>1789.1</ele>
        <time>2017-10-13T13:02:39Z</time>
      </trkpt>
      <trkpt lat="45.76537" lon="6.57325">
        <ele>1788.8</ele>
        <time>2017-10-13T13:02:42Z</time>
      </trkpt>
      <trkpt lat="45.76531" lon="6.57338">
        <ele>1788.8</ele>
        <time>2017-10-13T13:02:45Z</time>
      </trkpt>
      <trkpt lat="45.76526" lon="6.57353">
        <ele>1789.1</ele>
        <time>2017-10-13T13:02:49Z</time>
      </trkpt>
      <trkpt lat="45.76523" lon="6.57369">
        <ele>1789.7</ele>
        <time>2017-10-13T13:02:53Z</time>
      </trkpt>
      <trkpt lat="45.76521" lon="6.57384">
        <ele>1789.8</ele>
        <time>2017-10-13T13:02:56Z</time>
      </trkpt>
      <trkpt lat="45.76518" lon="6.57401">
        <ele>1789.3</ele>
        <time>2017-10-13T13:02:59Z</time>
      </trkpt>
      <trkpt lat="45.76516" lon="6.57419">
        <ele>1788.2</ele>
        <time>2017-10-13T13:03:02Z</time>
      </trkpt>
      <trkpt lat="45.76517" lon="6.57433">
        <ele>1787.3</ele>
        <time>2017-10-13T13:03:04Z</time>
      </trkpt>
      <trkpt lat="45.76519" lon="6.57447">
        <ele>1785.7</ele>
        <time>2017-10-13T13:03:07Z</time>
      </trkpt>
      <trkpt lat="45.76522" lon="6.57461">
        <ele>1784.2</ele>
        <time>2017-10-13T13:03:15Z</time>
      </trkpt>
      <trkpt lat="45.76519" lon="6.57478">
        <ele>1784.5</ele>
        <time>2017-10-13T13:03:19Z</time>
      </trkpt>
      <trkpt lat="45.76518" lon="6.57492">
        <ele>1784.7</ele>
        <time>2017-10-13T13:03:22Z</time>
      </trkpt>
      <trkpt lat="45.76517" lon="6.57506">
        <ele>1784.9</ele>
        <time>2017-10-13T13:03:25Z</time>
      </trkpt>
      <trkpt lat="45.76515" lon="6.57526">
        <ele>1784.9</ele>
        <time>2017-10-13T13:03:28Z</time>
      </trkpt>
      <trkpt lat="45.76515" lon="6.57542">
        <ele>1784.3</ele>
        <time>2017-10-13T13:03:30Z</time>
      </trkpt>
      <trkpt lat="45.76512" lon="6.57558">
        <ele>1783.3</ele>
        <time>2017-10-13T13:03:32Z</time>
      </trkpt>
      <trkpt lat="45.76507" lon="6.57575">
        <ele>1781.9</ele>
        <time>2017-10-13T13:03:34Z</time>
      </trkpt>
      <trkpt lat="45.76502" lon="6.57592">
        <ele>1780.5</ele>
        <time>2017-10-13T13:03:36Z</time>
      </trkpt>
      <trkpt lat="45.76497" lon="6.57611">
        <ele>1778.9</ele>
        <time>2017-10-13T13:03:38Z</time>
      </trkpt>
      <trkpt lat="45.76491" lon="6.57629">
        <ele>1777</ele>
        <time>2017-10-13T13:03:40Z</time>
      </trkpt>
      <trkpt lat="45.76482" lon="6.57642">
        <ele>1775</ele>
        <time>2017-10-13T13:03:42Z</time>
      </trkpt>
      <trkpt lat="45.76475" lon="6.57653">
        <ele>1772.8</ele>
        <time>2017-10-13T13:03:44Z</time>
      </trkpt>
      <trkpt lat="45.76471" lon="6.57668">
        <ele>1770.7</ele>
        <time>2017-10-13T13:03:46Z</time>
      </trkpt>
      <trkpt lat="45.76467" lon="6.57683">
        <ele>1768.6</ele>
        <time>2017-10-13T13:03:48Z</time>
      </trkpt>
      <trkpt lat="45.76459" lon="6.57691">
        <ele>1766.4</ele>
        <time>2017-10-13T13:03:50Z</time>
      </trkpt>
      <trkpt lat="45.76448" lon="6.57694">
        <ele>1764.5</ele>
        <time>2017-10-13T13:03:52Z</time>
      </trkpt>
      <trkpt lat="45.76434" lon="6.57694">
        <ele>1762.6</ele>
        <time>2017-10-13T13:03:54Z</time>
      </trkpt>
      <trkpt lat="45.7642" lon="6.57694">
        <ele>1760.7</ele>
        <time>2017-10-13T13:03:56Z</time>
      </trkpt>
      <trkpt lat="45.76407" lon="6.57693">
        <ele>1758.9</ele>
        <time>2017-10-13T13:03:58Z</time>
      </trkpt>
      <trkpt lat="45.76398" lon="6.57691">
        <ele>1757.2</ele>
        <time>2017-10-13T13:04:00Z</time>
      </trkpt>
      <trkpt lat="45.76389" lon="6.57691">
        <ele>1754.6</ele>
        <time>2017-10-13T13:04:03Z</time>
      </trkpt>
      <trkpt lat="45.76379" lon="6.57693">
        <ele>1752.2</ele>
        <time>2017-10-13T13:04:07Z</time>
      </trkpt>
      <trkpt lat="45.76367" lon="6.57703">
        <ele>1750.3</ele>
        <time>2017-10-13T13:04:10Z</time>
      </trkpt>
      <trkpt lat="45.76359" lon="6.57713">
        <ele>1747.5</ele>
        <time>2017-10-13T13:04:13Z</time>
      </trkpt>
      <trkpt lat="45.76351" lon="6.57723">
        <ele>1745.2</ele>
        <time>2017-10-13T13:04:15Z</time>
      </trkpt>
      <trkpt lat="45.76342" lon="6.57731">
        <ele>1742.8</ele>
        <time>2017-10-13T13:04:17Z</time>
      </trkpt>
      <trkpt lat="45.76331" lon="6.57737">
        <ele>1740.4</ele>
        <time>2017-10-13T13:04:19Z</time>
      </trkpt>
      <trkpt lat="45.76322" lon="6.57742">
        <ele>1738</ele>
        <time>2017-10-13T13:04:21Z</time>
      </trkpt>
      <trkpt lat="45.7631" lon="6.57749">
        <ele>1734.3</ele>
        <time>2017-10-13T13:04:24Z</time>
      </trkpt>
      <trkpt lat="45.76297" lon="6.57752">
        <ele>1730.3</ele>
        <time>2017-10-13T13:04:27Z</time>
      </trkpt>
      <trkpt lat="45.76287" lon="6.57756">
        <ele>1727.2</ele>
        <time>2017-10-13T13:04:29Z</time>
      </trkpt>
      <trkpt lat="45.76278" lon="6.57761">
        <ele>1724.6</ele>
        <time>2017-10-13T13:04:31Z</time>
      </trkpt>
      <trkpt lat="45.76269" lon="6.57768">
        <ele>1721.7</ele>
        <time>2017-10-13T13:04:33Z</time>
      </trkpt>
      <trkpt lat="45.76257" lon="6.57773">
        <ele>1718.7</ele>
        <time>2017-10-13T13:04:35Z</time>
      </trkpt>
      <trkpt lat="45.76246" lon="6.57778">
        <ele>1715.4</ele>
        <time>2017-10-13T13:04:37Z</time>
      </trkpt>
      <trkpt lat="45.76234" lon="6.57781">
        <ele>1711.9</ele>
        <time>2017-10-13T13:04:39Z</time>
      </trkpt>
      <trkpt lat="45.76224" lon="6.57789">
        <ele>1706.9</ele>
        <time>2017-10-13T13:04:42Z</time>
      </trkpt>
      <trkpt lat="45.76217" lon="6.57781">
        <ele>1700.1</ele>
        <time>2017-10-13T13:04:47Z</time>
      </trkpt>
      <trkpt lat="45.76215" lon="6.57768">
        <ele>1694.8</ele>
        <time>2017-10-13T13:04:53Z</time>
      </trkpt>
      <trkpt lat="45.76216" lon="6.57752">
        <ele>1689.6</ele>
        <time>2017-10-13T13:04:59Z</time>
      </trkpt>
      <trkpt lat="45.76207" lon="6.57746">
        <ele>1683</ele>
        <time>2017-10-13T13:05:06Z</time>
      </trkpt>
      <trkpt lat="45.76197" lon="6.57758">
        <ele>1680</ele>
        <time>2017-10-13T13:05:10Z</time>
      </trkpt>
      <trkpt lat="45.76188" lon="6.57762">
        <ele>1678.2</ele>
        <time>2017-10-13T13:05:12Z</time>
      </trkpt>
      <trkpt lat="45.76181" lon="6.5777">
        <ele>1675.8</ele>
        <time>2017-10-13T13:05:15Z</time>
      </trkpt>
      <trkpt lat="45.76174" lon="6.57779">
        <ele>1673.8</ele>
        <time>2017-10-13T13:05:18Z</time>
      </trkpt>
      <trkpt lat="45.76166" lon="6.57786">
        <ele>1670.1</ele>
        <time>2017-10-13T13:05:23Z</time>
      </trkpt>
      <trkpt lat="45.76158" lon="6.57782">
        <ele>1665.2</ele>
        <time>2017-10-13T13:05:30Z</time>
      </trkpt>
      <trkpt lat="45.76159" lon="6.57766">
        <ele>1661.3</ele>
        <time>2017-10-13T13:05:36Z</time>
      </trkpt>
      <trkpt lat="45.76162" lon="6.5775">
        <ele>1659.2</ele>
        <time>2017-10-13T13:05:40Z</time>
      </trkpt>
      <trkpt lat="45.76162" lon="6.57736">
        <ele>1657.1</ele>
        <time>2017-10-13T13:05:43Z</time>
      </trkpt>
      <trkpt lat="45.76164" lon="6.57722">
        <ele>1654.8</ele>
        <time>2017-10-13T13:05:46Z</time>
      </trkpt>
      <trkpt lat="45.76165" lon="6.57707">
        <ele>1652.3</ele>
        <time>2017-10-13T13:05:49Z</time>
      </trkpt>
      <trkpt lat="45.76168" lon="6.57691">
        <ele>1649.9</ele>
        <time>2017-10-13T13:05:52Z</time>
      </trkpt>
      <trkpt lat="45.76171" lon="6.57678">
        <ele>1647.6</ele>
        <time>2017-10-13T13:05:55Z</time>
      </trkpt>
      <trkpt lat="45.76161" lon="6.57679">
        <ele>1645.3</ele>
        <time>2017-10-13T13:05:58Z</time>
      </trkpt>
      <trkpt lat="45.76155" lon="6.57664">
        <ele>1640.2</ele>
        <time>2017-10-13T13:06:04Z</time>
      </trkpt>
      <trkpt lat="45.76157" lon="6.57648">
        <ele>1636.6</ele>
        <time>2017-10-13T13:06:08Z</time>
      </trkpt>
      <trkpt lat="45.76148" lon="6.57656">
        <ele>1633</ele>
        <time>2017-10-13T13:06:13Z</time>
      </trkpt>
      <trkpt lat="45.7614" lon="6.57666">
        <ele>1630.8</ele>
        <time>2017-10-13T13:06:16Z</time>
      </trkpt>
      <trkpt lat="45.7613" lon="6.57675">
        <ele>1628.7</ele>
        <time>2017-10-13T13:06:19Z</time>
      </trkpt>
      <trkpt lat="45.76121" lon="6.57683">
        <ele>1626.5</ele>
        <time>2017-10-13T13:06:22Z</time>
      </trkpt>
      <trkpt lat="45.76114" lon="6.57693">
        <ele>1624.2</ele>
        <time>2017-10-13T13:06:25Z</time>
      </trkpt>
      <trkpt lat="45.76106" lon="6.57703">
        <ele>1621.1</ele>
        <time>2017-10-13T13:06:29Z</time>
      </trkpt>
      <trkpt lat="45.76097" lon="6.57713">
        <ele>1618.8</ele>
        <time>2017-10-13T13:06:32Z</time>
      </trkpt>
      <trkpt lat="45.76093" lon="6.57726">
        <ele>1616.6</ele>
        <time>2017-10-13T13:06:35Z</time>
      </trkpt>
      <trkpt lat="45.76085" lon="6.57734">
        <ele>1612.7</ele>
        <time>2017-10-13T13:06:40Z</time>
      </trkpt>
      <trkpt lat="45.7608" lon="6.57745">
        <ele>1610.5</ele>
        <time>2017-10-13T13:06:43Z</time>
      </trkpt>
      <trkpt lat="45.76075" lon="6.57758">
        <ele>1607.6</ele>
        <time>2017-10-13T13:06:47Z</time>
      </trkpt>
      <trkpt lat="45.76072" lon="6.57773">
        <ele>1604.6</ele>
        <time>2017-10-13T13:06:51Z</time>
      </trkpt>
      <trkpt lat="45.76067" lon="6.57785">
        <ele>1601.3</ele>
        <time>2017-10-13T13:06:55Z</time>
      </trkpt>
      <trkpt lat="45.76058" lon="6.57792">
        <ele>1599</ele>
        <time>2017-10-13T13:06:58Z</time>
      </trkpt>
      <trkpt lat="45.76051" lon="6.57805">
        <ele>1596.4</ele>
        <time>2017-10-13T13:07:01Z</time>
      </trkpt>
      <trkpt lat="45.76046" lon="6.57822">
        <ele>1593.8</ele>
        <time>2017-10-13T13:07:04Z</time>
      </trkpt>
      <trkpt lat="45.76046" lon="6.57836">
        <ele>1591.9</ele>
        <time>2017-10-13T13:07:06Z</time>
      </trkpt>
      <trkpt lat="45.76042" lon="6.57849">
        <ele>1589.9</ele>
        <time>2017-10-13T13:07:08Z</time>
      </trkpt>
      <trkpt lat="45.7604" lon="6.57867">
        <ele>1586.6</ele>
        <time>2017-10-13T13:07:11Z</time>
      </trkpt>
      <trkpt lat="45.76042" lon="6.57884">
        <ele>1583.9</ele>
        <time>2017-10-13T13:07:14Z</time>
      </trkpt>
      <trkpt lat="45.76037" lon="6.57895">
        <ele>1579.4</ele>
        <time>2017-10-13T13:07:19Z</time>
      </trkpt>
      <trkpt lat="45.76028" lon="6.57881">
        <ele>1575.9</ele>
        <time>2017-10-13T13:07:23Z</time>
      </trkpt>
      <trkpt lat="45.76018" lon="6.57883">
        <ele>1570.8</ele>
        <time>2017-10-13T13:07:28Z</time>
      </trkpt>
      <trkpt lat="45.76018" lon="6.57896">
        <ele>1567.9</ele>
        <time>2017-10-13T13:07:31Z</time>
      </trkpt>
      <trkpt lat="45.76008" lon="6.57891">
        <ele>1559.8</ele>
        <time>2017-10-13T13:07:55Z</time>
      </trkpt>
      <trkpt lat="45.76" lon="6.57884">
        <ele>1557.7</ele>
        <time>2017-10-13T13:07:59Z</time>
      </trkpt>
      <trkpt lat="45.75992" lon="6.57873">
        <ele>1555.5</ele>
        <time>2017-10-13T13:08:02Z</time>
      </trkpt>
      <trkpt lat="45.75986" lon="6.5786">
        <ele>1552.3</ele>
        <time>2017-10-13T13:08:06Z</time>
      </trkpt>
      <trkpt lat="45.75982" lon="6.57846">
        <ele>1549.2</ele>
        <time>2017-10-13T13:08:10Z</time>
      </trkpt>
      <trkpt lat="45.75977" lon="6.57835">
        <ele>1546.7</ele>
        <time>2017-10-13T13:08:13Z</time>
      </trkpt>
      <trkpt lat="45.75967" lon="6.57843">
        <ele>1542.1</ele>
        <time>2017-10-13T13:08:18Z</time>
      </trkpt>
      <trkpt lat="45.75957" lon="6.57851">
        <ele>1538</ele>
        <time>2017-10-13T13:08:22Z</time>
      </trkpt>
      <trkpt lat="45.75948" lon="6.5786">
        <ele>1534.1</ele>
        <time>2017-10-13T13:08:26Z</time>
      </trkpt>
      <trkpt lat="45.75942" lon="6.57872">
        <ele>1531.3</ele>
        <time>2017-10-13T13:08:29Z</time>
      </trkpt>
      <trkpt lat="45.75941" lon="6.57889">
        <ele>1528.2</ele>
        <time>2017-10-13T13:08:32Z</time>
      </trkpt>
      <trkpt lat="45.75935" lon="6.57906">
        <ele>1525.4</ele>
        <time>2017-10-13T13:08:35Z</time>
      </trkpt>
      <trkpt lat="45.75931" lon="6.57918">
        <ele>1523.3</ele>
        <time>2017-10-13T13:08:37Z</time>
      </trkpt>
      <trkpt lat="45.75927" lon="6.57932">
        <ele>1519</ele>
        <time>2017-10-13T13:08:41Z</time>
      </trkpt>
      <trkpt lat="45.7592" lon="6.57944">
        <ele>1515.4</ele>
        <time>2017-10-13T13:08:45Z</time>
      </trkpt>
      <trkpt lat="45.7591" lon="6.57951">
        <ele>1510.8</ele>
        <time>2017-10-13T13:08:50Z</time>
      </trkpt>
      <trkpt lat="45.75902" lon="6.57961">
        <ele>1508.3</ele>
        <time>2017-10-13T13:08:53Z</time>
      </trkpt>
      <trkpt lat="45.75889" lon="6.57968">
        <ele>1505.5</ele>
        <time>2017-10-13T13:08:56Z</time>
      </trkpt>
      <trkpt lat="45.7588" lon="6.57968">
        <ele>1497.7</ele>
        <time>2017-10-13T13:09:47Z</time>
      </trkpt>
      <trkpt lat="45.75871" lon="6.57962">
        <ele>1496.2</ele>
        <time>2017-10-13T13:09:53Z</time>
      </trkpt>
      <trkpt lat="45.75862" lon="6.57956">
        <ele>1493.7</ele>
        <time>2017-10-13T13:09:57Z</time>
      </trkpt>
      <trkpt lat="45.75853" lon="6.5795">
        <ele>1491.3</ele>
        <time>2017-10-13T13:10:00Z</time>
      </trkpt>
      <trkpt lat="45.75844" lon="6.57943">
        <ele>1487.8</ele>
        <time>2017-10-13T13:10:04Z</time>
      </trkpt>
      <trkpt lat="45.75836" lon="6.57934">
        <ele>1484.4</ele>
        <time>2017-10-13T13:10:08Z</time>
      </trkpt>
      <trkpt lat="45.75828" lon="6.57925">
        <ele>1480.9</ele>
        <time>2017-10-13T13:10:12Z</time>
      </trkpt>
      <trkpt lat="45.75816" lon="6.57929">
        <ele>1476.3</ele>
        <time>2017-10-13T13:10:18Z</time>
      </trkpt>
      <trkpt lat="45.7581" lon="6.5794">
        <ele>1472.8</ele>
        <time>2017-10-13T13:10:23Z</time>
      </trkpt>
      <trkpt lat="45.75808" lon="6.57952">
        <ele>1468.3</ele>
        <time>2017-10-13T13:10:30Z</time>
      </trkpt>
      <trkpt lat="45.75802" lon="6.57966">
        <ele>1466</ele>
        <time>2017-10-13T13:10:47Z</time>
      </trkpt>
      <trkpt lat="45.75797" lon="6.57979">
        <ele>1464.4</ele>
        <time>2017-10-13T13:10:50Z</time>
      </trkpt>
      <trkpt lat="45.75792" lon="6.57994">
        <ele>1461.8</ele>
        <time>2017-10-13T13:10:54Z</time>
      </trkpt>
      <trkpt lat="45.75786" lon="6.58004">
        <ele>1459.5</ele>
        <time>2017-10-13T13:10:57Z</time>
      </trkpt>
      <trkpt lat="45.75778" lon="6.58015">
        <ele>1456</ele>
        <time>2017-10-13T13:11:01Z</time>
      </trkpt>
      <trkpt lat="45.75771" lon="6.58026">
        <ele>1453.3</ele>
        <time>2017-10-13T13:11:04Z</time>
      </trkpt>
      <trkpt lat="45.75764" lon="6.58036">
        <ele>1450.3</ele>
        <time>2017-10-13T13:11:07Z</time>
      </trkpt>
      <trkpt lat="45.75754" lon="6.5804">
        <ele>1445.1</ele>
        <time>2017-10-13T13:11:14Z</time>
      </trkpt>
      <trkpt lat="45.75744" lon="6.58033">
        <ele>1443.9</ele>
        <time>2017-10-13T13:11:16Z</time>
      </trkpt>
      <trkpt lat="45.75738" lon="6.58018">
        <ele>1442.6</ele>
        <time>2017-10-13T13:11:18Z</time>
      </trkpt>
      <trkpt lat="45.75734" lon="6.58002">
        <ele>1441.2</ele>
        <time>2017-10-13T13:11:20Z</time>
      </trkpt>
      <trkpt lat="45.75729" lon="6.57984">
        <ele>1439.8</ele>
        <time>2017-10-13T13:11:22Z</time>
      </trkpt>
      <trkpt lat="45.75725" lon="6.57966">
        <ele>1438.3</ele>
        <time>2017-10-13T13:11:24Z</time>
      </trkpt>
      <trkpt lat="45.75724" lon="6.57951">
        <ele>1436.1</ele>
        <time>2017-10-13T13:11:27Z</time>
      </trkpt>
      <trkpt lat="45.75717" lon="6.5796">
        <ele>1432.4</ele>
        <time>2017-10-13T13:11:49Z</time>
      </trkpt>
      <trkpt lat="45.75712" lon="6.57978">
        <ele>1432.1</ele>
        <time>2017-10-13T13:11:52Z</time>
      </trkpt>
      <trkpt lat="45.75704" lon="6.57994">
        <ele>1431.3</ele>
        <time>2017-10-13T13:11:55Z</time>
      </trkpt>
      <trkpt lat="45.757" lon="6.58006">
        <ele>1430.4</ele>
        <time>2017-10-13T13:11:57Z</time>
      </trkpt>
      <trkpt lat="45.75698" lon="6.5802">
        <ele>1429.5</ele>
        <time>2017-10-13T13:11:59Z</time>
      </trkpt>
      <trkpt lat="45.75699" lon="6.58036">
        <ele>1428.3</ele>
        <time>2017-10-13T13:12:01Z</time>
      </trkpt>
      <trkpt lat="45.75701" lon="6.58054">
        <ele>1427</ele>
        <time>2017-10-13T13:12:03Z</time>
      </trkpt>
      <trkpt lat="45.75702" lon="6.58072">
        <ele>1425.7</ele>
        <time>2017-10-13T13:12:05Z</time>
      </trkpt>
      <trkpt lat="45.75702" lon="6.58088">
        <ele>1424.2</ele>
        <time>2017-10-13T13:12:07Z</time>
      </trkpt>
      <trkpt lat="45.75696" lon="6.581">
        <ele>1421.9</ele>
        <time>2017-10-13T13:12:10Z</time>
      </trkpt>
      <trkpt lat="45.75689" lon="6.58089">
        <ele>1420.2</ele>
        <time>2017-10-13T13:12:13Z</time>
      </trkpt>
      <trkpt lat="45.75687" lon="6.58072">
        <ele>1419.2</ele>
        <time>2017-10-13T13:12:15Z</time>
      </trkpt>
      <trkpt lat="45.75686" lon="6.58058">
        <ele>1418</ele>
        <time>2017-10-13T13:12:17Z</time>
      </trkpt>
      <trkpt lat="45.75677" lon="6.58051">
        <ele>1415.5</ele>
        <time>2017-10-13T13:12:21Z</time>
      </trkpt>
      <trkpt lat="45.75674" lon="6.58066">
        <ele>1413.8</ele>
        <time>2017-10-13T13:12:25Z</time>
      </trkpt>
      <trkpt lat="45.75675" lon="6.58084">
        <ele>1412.5</ele>
        <time>2017-10-13T13:12:28Z</time>
      </trkpt>
      <trkpt lat="45.75674" lon="6.58098">
        <ele>1411.6</ele>
        <time>2017-10-13T13:12:30Z</time>
      </trkpt>
      <trkpt lat="45.75671" lon="6.5811">
        <ele>1410.7</ele>
        <time>2017-10-13T13:12:32Z</time>
      </trkpt>
      <trkpt lat="45.75667" lon="6.58125">
        <ele>1409.7</ele>
        <time>2017-10-13T13:12:34Z</time>
      </trkpt>
      <trkpt lat="45.75667" lon="6.58138">
        <ele>1408.8</ele>
        <time>2017-10-13T13:12:36Z</time>
      </trkpt>
      <trkpt lat="45.75672" lon="6.58151">
        <ele>1407</ele>
        <time>2017-10-13T13:12:40Z</time>
      </trkpt>
      <trkpt lat="45.75662" lon="6.58143">
        <ele>1405.8</ele>
        <time>2017-10-13T13:12:46Z</time>
      </trkpt>
      <trkpt lat="45.75655" lon="6.58131">
        <ele>1405.5</ele>
        <time>2017-10-13T13:12:48Z</time>
      </trkpt>
      <trkpt lat="45.75647" lon="6.58118">
        <ele>1404.8</ele>
        <time>2017-10-13T13:12:50Z</time>
      </trkpt>
      <trkpt lat="45.75639" lon="6.58109">
        <ele>1403.7</ele>
        <time>2017-10-13T13:12:52Z</time>
      </trkpt>
      <trkpt lat="45.7563" lon="6.58109">
        <ele>1402.4</ele>
        <time>2017-10-13T13:12:54Z</time>
      </trkpt>
      <trkpt lat="45.7562" lon="6.58111">
        <ele>1400</ele>
        <time>2017-10-13T13:12:58Z</time>
      </trkpt>
      <trkpt lat="45.75608" lon="6.58105">
        <ele>1397.2</ele>
        <time>2017-10-13T13:13:03Z</time>
      </trkpt>
      <trkpt lat="45.75599" lon="6.58098">
        <ele>1393.9</ele>
        <time>2017-10-13T13:13:07Z</time>
      </trkpt>
      <trkpt lat="45.7559" lon="6.58091">
        <ele>1387.5</ele>
        <time>2017-10-13T13:13:28Z</time>
      </trkpt>
      <trkpt lat="45.75582" lon="6.58083">
        <ele>1385</ele>
        <time>2017-10-13T13:13:34Z</time>
      </trkpt>
      <trkpt lat="45.75573" lon="6.58076">
        <ele>1381.9</ele>
        <time>2017-10-13T13:13:40Z</time>
      </trkpt>
      <trkpt lat="45.75564" lon="6.58079">
        <ele>1377.8</ele>
        <time>2017-10-13T13:13:54Z</time>
      </trkpt>
      <trkpt lat="45.75557" lon="6.58067">
        <ele>1376.4</ele>
        <time>2017-10-13T13:14:00Z</time>
      </trkpt>
      <trkpt lat="45.75558" lon="6.58051">
        <ele>1375.5</ele>
        <time>2017-10-13T13:14:04Z</time>
      </trkpt>
      <trkpt lat="45.75555" lon="6.58037">
        <ele>1373.3</ele>
        <time>2017-10-13T13:14:09Z</time>
      </trkpt>
      <trkpt lat="45.75548" lon="6.58022">
        <ele>1371.1</ele>
        <time>2017-10-13T13:14:12Z</time>
      </trkpt>
      <trkpt lat="45.7554" lon="6.58015">
        <ele>1369.7</ele>
        <time>2017-10-13T13:14:14Z</time>
      </trkpt>
      <trkpt lat="45.7553" lon="6.58009">
        <ele>1367.6</ele>
        <time>2017-10-13T13:14:17Z</time>
      </trkpt>
      <trkpt lat="45.75521" lon="6.58002">
        <ele>1363.2</ele>
        <time>2017-10-13T13:14:40Z</time>
      </trkpt>
      <trkpt lat="45.75511" lon="6.57993">
        <ele>1362</ele>
        <time>2017-10-13T13:14:43Z</time>
      </trkpt>
      <trkpt lat="45.75501" lon="6.57986">
        <ele>1359.9</ele>
        <time>2017-10-13T13:14:46Z</time>
      </trkpt>
      <trkpt lat="45.75493" lon="6.5798">
        <ele>1353.5</ele>
        <time>2017-10-13T13:15:00Z</time>
      </trkpt>
      <trkpt lat="45.75489" lon="6.57968">
        <ele>1350.4</ele>
        <time>2017-10-13T13:15:37Z</time>
      </trkpt>
      <trkpt lat="45.75487" lon="6.57955">
        <ele>1349.9</ele>
        <time>2017-10-13T13:15:41Z</time>
      </trkpt>
      <trkpt lat="45.75493" lon="6.5794">
        <ele>1348.6</ele>
        <time>2017-10-13T13:15:45Z</time>
      </trkpt>
      <trkpt lat="45.75498" lon="6.57929">
        <ele>1347.3</ele>
        <time>2017-10-13T13:15:48Z</time>
      </trkpt>
      <trkpt lat="45.75505" lon="6.57916">
        <ele>1344.1</ele>
        <time>2017-10-13T13:16:20Z</time>
      </trkpt>
      <trkpt lat="45.75511" lon="6.57903">
        <ele>1341.6</ele>
        <time>2017-10-13T13:16:24Z</time>
      </trkpt>
      <trkpt lat="45.75517" lon="6.5789">
        <ele>1339.2</ele>
        <time>2017-10-13T13:16:27Z</time>
      </trkpt>
      <trkpt lat="45.75524" lon="6.57876">
        <ele>1336.6</ele>
        <time>2017-10-13T13:16:30Z</time>
      </trkpt>
      <trkpt lat="45.75529" lon="6.57861">
        <ele>1332.7</ele>
        <time>2017-10-13T13:16:34Z</time>
      </trkpt>
      <trkpt lat="45.7553" lon="6.57847">
        <ele>1329.7</ele>
        <time>2017-10-13T13:16:37Z</time>
      </trkpt>
      <trkpt lat="45.75523" lon="6.57835">
        <ele>1325.7</ele>
        <time>2017-10-13T13:16:41Z</time>
      </trkpt>
      <trkpt lat="45.75525" lon="6.57821">
        <ele>1322.7</ele>
        <time>2017-10-13T13:16:45Z</time>
      </trkpt>
      <trkpt lat="45.75519" lon="6.57809">
        <ele>1317.4</ele>
        <time>2017-10-13T13:16:52Z</time>
      </trkpt>
      <trkpt lat="45.75509" lon="6.57812">
        <ele>1314.2</ele>
        <time>2017-10-13T13:16:55Z</time>
      </trkpt>
      <trkpt lat="45.75505" lon="6.578">
        <ele>1308.4</ele>
        <time>2017-10-13T13:17:02Z</time>
      </trkpt>
      <trkpt lat="45.75509" lon="6.57786">
        <ele>1305.3</ele>
        <time>2017-10-13T13:17:05Z</time>
      </trkpt>
      <trkpt lat="45.75501" lon="6.57778">
        <ele>1298.4</ele>
        <time>2017-10-13T13:17:12Z</time>
      </trkpt>
      <trkpt lat="45.7549" lon="6.5778">
        <ele>1293</ele>
        <time>2017-10-13T13:17:18Z</time>
      </trkpt>
      <trkpt lat="45.75483" lon="6.57788">
        <ele>1289.2</ele>
        <time>2017-10-13T13:17:22Z</time>
      </trkpt>
      <trkpt lat="45.75477" lon="6.57798">
        <ele>1280.4</ele>
        <time>2017-10-13T13:17:46Z</time>
      </trkpt>
      <trkpt lat="45.75469" lon="6.57808">
        <ele>1280.5</ele>
        <time>2017-10-13T13:17:51Z</time>
      </trkpt>
      <trkpt lat="45.75462" lon="6.57819">
        <ele>1280.8</ele>
        <time>2017-10-13T13:17:56Z</time>
      </trkpt>
      <trkpt lat="45.75453" lon="6.57827">
        <ele>1280.1</ele>
        <time>2017-10-13T13:18:00Z</time>
      </trkpt>
      <trkpt lat="45.75441" lon="6.57832">
        <ele>1278.8</ele>
        <time>2017-10-13T13:18:04Z</time>
      </trkpt>
      <trkpt lat="45.75432" lon="6.57836">
        <ele>1277.8</ele>
        <time>2017-10-13T13:18:06Z</time>
      </trkpt>
      <trkpt lat="45.75423" lon="6.57843">
        <ele>1276.5</ele>
        <time>2017-10-13T13:18:08Z</time>
      </trkpt>
      <trkpt lat="45.75413" lon="6.57852">
        <ele>1274.7</ele>
        <time>2017-10-13T13:18:10Z</time>
      </trkpt>
      <trkpt lat="45.75401" lon="6.57859">
        <ele>1272.8</ele>
        <time>2017-10-13T13:18:12Z</time>
      </trkpt>
      <trkpt lat="45.75388" lon="6.57866">
        <ele>1271.3</ele>
        <time>2017-10-13T13:18:14Z</time>
      </trkpt>
      <trkpt lat="45.75379" lon="6.57871">
        <ele>1270.3</ele>
        <time>2017-10-13T13:18:16Z</time>
      </trkpt>
      <trkpt lat="45.75369" lon="6.57878">
        <ele>1269.4</ele>
        <time>2017-10-13T13:18:19Z</time>
      </trkpt>
      <trkpt lat="45.75357" lon="6.57886">
        <ele>1267.6</ele>
        <time>2017-10-13T13:18:22Z</time>
      </trkpt>
      <trkpt lat="45.75348" lon="6.57895">
        <ele>1265.9</ele>
        <time>2017-10-13T13:18:24Z</time>
      </trkpt>
      <trkpt lat="45.75337" lon="6.57906">
        <ele>1263.7</ele>
        <time>2017-10-13T13:18:26Z</time>
      </trkpt>
      <trkpt lat="45.75325" lon="6.57914">
        <ele>1261.7</ele>
        <time>2017-10-13T13:18:28Z</time>
      </trkpt>
      <trkpt lat="45.75314" lon="6.57923">
        <ele>1259.9</ele>
        <time>2017-10-13T13:18:30Z</time>
      </trkpt>
      <trkpt lat="45.75305" lon="6.57926">
        <ele>1258.3</ele>
        <time>2017-10-13T13:18:32Z</time>
      </trkpt>
      <trkpt lat="45.75298" lon="6.57935">
        <ele>1253.3</ele>
        <time>2017-10-13T13:18:51Z</time>
      </trkpt>
      <trkpt lat="45.7529" lon="6.57943">
        <ele>1254.1</ele>
        <time>2017-10-13T13:18:58Z</time>
      </trkpt>
      <trkpt lat="45.75281" lon="6.57942">
        <ele>1254.4</ele>
        <time>2017-10-13T13:19:18Z</time>
      </trkpt>
      <trkpt lat="45.75271" lon="6.57942">
        <ele>1253.7</ele>
        <time>2017-10-13T13:19:23Z</time>
      </trkpt>
      <trkpt lat="45.75262" lon="6.57938">
        <ele>1252.7</ele>
        <time>2017-10-13T13:19:28Z</time>
      </trkpt>
      <trkpt lat="45.75253" lon="6.57934">
        <ele>1250.5</ele>
        <time>2017-10-13T13:19:50Z</time>
      </trkpt>
      <trkpt lat="45.75244" lon="6.57928">
        <ele>1250.2</ele>
        <time>2017-10-13T13:19:53Z</time>
      </trkpt>
      <trkpt lat="45.75231" lon="6.57921">
        <ele>1250</ele>
        <time>2017-10-13T13:19:56Z</time>
      </trkpt>
      <trkpt lat="45.75222" lon="6.57914">
        <ele>1249.8</ele>
        <time>2017-10-13T13:19:58Z</time>
      </trkpt>
      <trkpt lat="45.75211" lon="6.57908">
        <ele>1249.5</ele>
        <time>2017-10-13T13:20:00Z</time>
      </trkpt>
      <trkpt lat="45.752" lon="6.57904">
        <ele>1249</ele>
        <time>2017-10-13T13:20:02Z</time>
      </trkpt>
      <trkpt lat="45.75191" lon="6.57902">
        <ele>1248.3</ele>
        <time>2017-10-13T13:20:04Z</time>
      </trkpt>
      <trkpt lat="45.75179" lon="6.57904">
        <ele>1247.2</ele>
        <time>2017-10-13T13:20:07Z</time>
      </trkpt>
      <trkpt lat="45.75166" lon="6.57912">
        <ele>1246.1</ele>
        <time>2017-10-13T13:20:10Z</time>
      </trkpt>
      <trkpt lat="45.75155" lon="6.57918">
        <ele>1245.4</ele>
        <time>2017-10-13T13:20:12Z</time>
      </trkpt>
      <trkpt lat="45.75143" lon="6.57926">
        <ele>1244.6</ele>
        <time>2017-10-13T13:20:14Z</time>
      </trkpt>
      <trkpt lat="45.7513" lon="6.57934">
        <ele>1243.3</ele>
        <time>2017-10-13T13:20:16Z</time>
      </trkpt>
      <trkpt lat="45.75119" lon="6.5793">
        <ele>1240.5</ele>
        <time>2017-10-13T13:20:20Z</time>
      </trkpt>
      <trkpt lat="45.75108" lon="6.57923">
        <ele>1237.7</ele>
        <time>2017-10-13T13:20:23Z</time>
      </trkpt>
      <trkpt lat="45.75095" lon="6.57923">
        <ele>1234.6</ele>
        <time>2017-10-13T13:20:26Z</time>
      </trkpt>
      <trkpt lat="45.75086" lon="6.57926">
        <ele>1232.4</ele>
        <time>2017-10-13T13:20:28Z</time>
      </trkpt>
      <trkpt lat="45.75074" lon="6.5793">
        <ele>1230.2</ele>
        <time>2017-10-13T13:20:30Z</time>
      </trkpt>
      <trkpt lat="45.75062" lon="6.57933">
        <ele>1228.2</ele>
        <time>2017-10-13T13:20:32Z</time>
      </trkpt>
      <trkpt lat="45.75053" lon="6.57938">
        <ele>1226</ele>
        <time>2017-10-13T13:20:34Z</time>
      </trkpt>
      <trkpt lat="45.75043" lon="6.57943">
        <ele>1223.9</ele>
        <time>2017-10-13T13:20:36Z</time>
      </trkpt>
      <trkpt lat="45.75034" lon="6.57949">
        <ele>1221.8</ele>
        <time>2017-10-13T13:20:38Z</time>
      </trkpt>
      <trkpt lat="45.75024" lon="6.57956">
        <ele>1219.7</ele>
        <time>2017-10-13T13:20:40Z</time>
      </trkpt>
      <trkpt lat="45.75013" lon="6.57955">
        <ele>1217.7</ele>
        <time>2017-10-13T13:20:42Z</time>
      </trkpt>
      <trkpt lat="45.75001" lon="6.5795">
        <ele>1215.9</ele>
        <time>2017-10-13T13:20:44Z</time>
      </trkpt>
      <trkpt lat="45.74993" lon="6.57945">
        <ele>1214.1</ele>
        <time>2017-10-13T13:20:46Z</time>
      </trkpt>
      <trkpt lat="45.74982" lon="6.57942">
        <ele>1212.5</ele>
        <time>2017-10-13T13:20:48Z</time>
      </trkpt>
      <trkpt lat="45.74969" lon="6.57942">
        <ele>1209.5</ele>
        <time>2017-10-13T13:20:51Z</time>
      </trkpt>
      <trkpt lat="45.74957" lon="6.57943">
        <ele>1207.4</ele>
        <time>2017-10-13T13:20:53Z</time>
      </trkpt>
      <trkpt lat="45.74945" lon="6.57943">
        <ele>1204.9</ele>
        <time>2017-10-13T13:20:55Z</time>
      </trkpt>
      <trkpt lat="45.74933" lon="6.57944">
        <ele>1202.4</ele>
        <time>2017-10-13T13:20:57Z</time>
      </trkpt>
      <trkpt lat="45.7492" lon="6.57946">
        <ele>1198.7</ele>
        <time>2017-10-13T13:21:00Z</time>
      </trkpt>
      <trkpt lat="45.74911" lon="6.57948">
        <ele>1195.6</ele>
        <time>2017-10-13T13:21:03Z</time>
      </trkpt>
      <trkpt lat="45.74899" lon="6.57952">
        <ele>1190.3</ele>
        <time>2017-10-13T13:21:20Z</time>
      </trkpt>
      <trkpt lat="45.74889" lon="6.57958">
        <ele>1189.1</ele>
        <time>2017-10-13T13:21:24Z</time>
      </trkpt>
      <trkpt lat="45.74883" lon="6.57967">
        <ele>1185.2</ele>
        <time>2017-10-13T13:26:10Z</time>
      </trkpt>
      <trkpt lat="45.74876" lon="6.57981">
        <ele>1184.7</ele>
        <time>2017-10-13T13:26:13Z</time>
      </trkpt>
      <trkpt lat="45.7487" lon="6.57998">
        <ele>1184</ele>
        <time>2017-10-13T13:26:16Z</time>
      </trkpt>
      <trkpt lat="45.74866" lon="6.58015">
        <ele>1183.2</ele>
        <time>2017-10-13T13:26:19Z</time>
      </trkpt>
      <trkpt lat="45.74865" lon="6.58028">
        <ele>1182.2</ele>
        <time>2017-10-13T13:26:22Z</time>
      </trkpt>
      <trkpt lat="45.74857" lon="6.5802">
        <ele>1180.6</ele>
        <time>2017-10-13T13:26:28Z</time>
      </trkpt>
      <trkpt lat="45.74855" lon="6.58004">
        <ele>1180.2</ele>
        <time>2017-10-13T13:26:31Z</time>
      </trkpt>
      <trkpt lat="45.74855" lon="6.57985">
        <ele>1179.8</ele>
        <time>2017-10-13T13:26:34Z</time>
      </trkpt>
      <trkpt lat="45.74857" lon="6.57972">
        <ele>1179.6</ele>
        <time>2017-10-13T13:26:36Z</time>
      </trkpt>
      <trkpt lat="45.74861" lon="6.57959">
        <ele>1179.4</ele>
        <time>2017-10-13T13:26:38Z</time>
      </trkpt>
      <trkpt lat="45.74867" lon="6.57947">
        <ele>1179.1</ele>
        <time>2017-10-13T13:26:40Z</time>
      </trkpt>
      <trkpt lat="45.74876" lon="6.57937">
        <ele>1178.7</ele>
        <time>2017-10-13T13:26:42Z</time>
      </trkpt>
      <trkpt lat="45.74889" lon="6.57933">
        <ele>1178.3</ele>
        <time>2017-10-13T13:26:44Z</time>
      </trkpt>
      <trkpt lat="45.74901" lon="6.57926">
        <ele>1177.8</ele>
        <time>2017-10-13T13:26:46Z</time>
      </trkpt>
      <trkpt lat="45.74904" lon="6.57908">
        <ele>1177.3</ele>
        <time>2017-10-13T13:26:48Z</time>
      </trkpt>
      <trkpt lat="45.74896" lon="6.57893">
        <ele>1176.9</ele>
        <time>2017-10-13T13:26:50Z</time>
      </trkpt>
      <trkpt lat="45.74885" lon="6.57885">
        <ele>1176.8</ele>
        <time>2017-10-13T13:26:52Z</time>
      </trkpt>
      <trkpt lat="45.74875" lon="6.57881">
        <ele>1176.8</ele>
        <time>2017-10-13T13:26:54Z</time>
      </trkpt>
      <trkpt lat="45.74863" lon="6.57877">
        <ele>1176.9</ele>
        <time>2017-10-13T13:26:57Z</time>
      </trkpt>
      <trkpt lat="45.74853" lon="6.57874">
        <ele>1177.4</ele>
        <time>2017-10-13T13:27:00Z</time>
      </trkpt>
      <trkpt lat="45.74844" lon="6.57871">
        <ele>1177.7</ele>
        <time>2017-10-13T13:27:03Z</time>
      </trkpt>
      <trkpt lat="45.74833" lon="6.57868">
        <ele>1178.4</ele>
        <time>2017-10-13T13:27:07Z</time>
      </trkpt>
      <trkpt lat="45.74823" lon="6.57867">
        <ele>1179</ele>
        <time>2017-10-13T13:27:10Z</time>
      </trkpt>
      <trkpt lat="45.74815" lon="6.57864">
        <ele>1179.7</ele>
        <time>2017-10-13T13:27:13Z</time>
      </trkpt>
      <trkpt lat="45.74804" lon="6.57859">
        <ele>1180.8</ele>
        <time>2017-10-13T13:27:17Z</time>
      </trkpt>
      <trkpt lat="45.74795" lon="6.57851">
        <ele>1182.1</ele>
        <time>2017-10-13T13:27:22Z</time>
      </trkpt>
      <trkpt lat="45.74787" lon="6.57841">
        <ele>1183.2</ele>
        <time>2017-10-13T13:27:27Z</time>
      </trkpt>
      <trkpt lat="45.74781" lon="6.57828">
        <ele>1183.9</ele>
        <time>2017-10-13T13:27:32Z</time>
      </trkpt>
      <trkpt lat="45.74777" lon="6.57813">
        <ele>1184.7</ele>
        <time>2017-10-13T13:27:37Z</time>
      </trkpt>
      <trkpt lat="45.74774" lon="6.57798">
        <ele>1185.5</ele>
        <time>2017-10-13T13:27:42Z</time>
      </trkpt>
      <trkpt lat="45.74772" lon="6.57784">
        <ele>1186.3</ele>
        <time>2017-10-13T13:27:47Z</time>
      </trkpt>
      <trkpt lat="45.7477" lon="6.57771">
        <ele>1187.3</ele>
        <time>2017-10-13T13:27:54Z</time>
      </trkpt>
      <trkpt lat="45.74769" lon="6.57756">
        <ele>1188.1</ele>
        <time>2017-10-13T13:28:01Z</time>
      </trkpt>
      <trkpt lat="45.74768" lon="6.57743">
        <ele>1188.8</ele>
        <time>2017-10-13T13:28:07Z</time>
      </trkpt>
      <trkpt lat="45.74762" lon="6.57732">
        <ele>1189.6</ele>
        <time>2017-10-13T13:28:21Z</time>
      </trkpt>
      <trkpt lat="45.74756" lon="6.57719">
        <ele>1190.3</ele>
        <time>2017-10-13T13:28:26Z</time>
      </trkpt>
      <trkpt lat="45.74751" lon="6.57706">
        <ele>1191.1</ele>
        <time>2017-10-13T13:28:31Z</time>
      </trkpt>
      <trkpt lat="45.74746" lon="6.57693">
        <ele>1192</ele>
        <time>2017-10-13T13:28:36Z</time>
      </trkpt>
      <trkpt lat="45.7474" lon="6.57681">
        <ele>1192.8</ele>
        <time>2017-10-13T13:28:41Z</time>
      </trkpt>
      <trkpt lat="45.74733" lon="6.57673">
        <ele>1193.6</ele>
        <time>2017-10-13T13:28:46Z</time>
      </trkpt>
      <trkpt lat="45.74728" lon="6.57661">
        <ele>1194.5</ele>
        <time>2017-10-13T13:28:51Z</time>
      </trkpt>
      <trkpt lat="45.74722" lon="6.57651">
        <ele>1195.2</ele>
        <time>2017-10-13T13:28:56Z</time>
      </trkpt>
      <trkpt lat="45.74716" lon="6.57638">
        <ele>1196.1</ele>
        <time>2017-10-13T13:29:02Z</time>
      </trkpt>
      <trkpt lat="45.7471" lon="6.57627">
        <ele>1196.8</ele>
        <time>2017-10-13T13:29:07Z</time>
      </trkpt>
      <trkpt lat="45.74704" lon="6.57617">
        <ele>1197.8</ele>
        <time>2017-10-13T13:29:13Z</time>
      </trkpt>
      <trkpt lat="45.74699" lon="6.57605">
        <ele>1198.6</ele>
        <time>2017-10-13T13:29:18Z</time>
      </trkpt>
      <trkpt lat="45.74693" lon="6.57593">
        <ele>1199.2</ele>
        <time>2017-10-13T13:29:23Z</time>
      </trkpt>
      <trkpt lat="45.74689" lon="6.57581">
        <ele>1200</ele>
        <time>2017-10-13T13:29:28Z</time>
      </trkpt>
      <trkpt lat="45.74683" lon="6.5757">
        <ele>1200.7</ele>
        <time>2017-10-13T13:29:33Z</time>
      </trkpt>
      <trkpt lat="45.74677" lon="6.57559">
        <ele>1201.5</ele>
        <time>2017-10-13T13:29:38Z</time>
      </trkpt>
      <trkpt lat="45.74671" lon="6.57548">
        <ele>1202.2</ele>
        <time>2017-10-13T13:29:43Z</time>
      </trkpt>
      <trkpt lat="45.74666" lon="6.57538">
        <ele>1202.7</ele>
        <time>2017-10-13T13:29:48Z</time>
      </trkpt>
      <trkpt lat="45.74661" lon="6.57527">
        <ele>1203.4</ele>
        <time>2017-10-13T13:29:53Z</time>
      </trkpt>
      <trkpt lat="45.74655" lon="6.57516">
        <ele>1204.1</ele>
        <time>2017-10-13T13:29:58Z</time>
      </trkpt>
      <trkpt lat="45.74652" lon="6.57504">
        <ele>1205</ele>
        <time>2017-10-13T13:30:03Z</time>
      </trkpt>
      <trkpt lat="45.74647" lon="6.5749">
        <ele>1205.9</ele>
        <time>2017-10-13T13:30:09Z</time>
      </trkpt>
      <trkpt lat="45.74642" lon="6.57479">
        <ele>1206.9</ele>
        <time>2017-10-13T13:30:14Z</time>
      </trkpt>
      <trkpt lat="45.74637" lon="6.57467">
        <ele>1207.7</ele>
        <time>2017-10-13T13:30:19Z</time>
      </trkpt>
      <trkpt lat="45.74632" lon="6.57454">
        <ele>1208.4</ele>
        <time>2017-10-13T13:30:25Z</time>
      </trkpt>
      <trkpt lat="45.74628" lon="6.57442">
        <ele>1209.3</ele>
        <time>2017-10-13T13:30:30Z</time>
      </trkpt>
      <trkpt lat="45.74634" lon="6.57433">
        <ele>1209.9</ele>
        <time>2017-10-13T13:30:36Z</time>
      </trkpt>
      <trkpt lat="45.74642" lon="6.5744">
        <ele>1210.7</ele>
        <time>2017-10-13T13:30:41Z</time>
      </trkpt>
      <trkpt lat="45.74649" lon="6.57451">
        <ele>1211.6</ele>
        <time>2017-10-13T13:30:46Z</time>
      </trkpt>
      <trkpt lat="45.74654" lon="6.57464">
        <ele>1212.4</ele>
        <time>2017-10-13T13:30:51Z</time>
      </trkpt>
      <trkpt lat="45.7466" lon="6.57475">
        <ele>1213.1</ele>
        <time>2017-10-13T13:30:56Z</time>
      </trkpt>
      <trkpt lat="45.74667" lon="6.57484">
        <ele>1213.8</ele>
        <time>2017-10-13T13:31:01Z</time>
      </trkpt>
      <trkpt lat="45.74676" lon="6.57493">
        <ele>1214.8</ele>
        <time>2017-10-13T13:31:07Z</time>
      </trkpt>
      <trkpt lat="45.74684" lon="6.57499">
        <ele>1215.5</ele>
        <time>2017-10-13T13:31:12Z</time>
      </trkpt>
      <trkpt lat="45.74693" lon="6.57504">
        <ele>1216.1</ele>
        <time>2017-10-13T13:31:17Z</time>
      </trkpt>
      <trkpt lat="45.74702" lon="6.57509">
        <ele>1216.8</ele>
        <time>2017-10-13T13:31:22Z</time>
      </trkpt>
      <trkpt lat="45.74711" lon="6.57514">
        <ele>1217.8</ele>
        <time>2017-10-13T13:31:28Z</time>
      </trkpt>
      <trkpt lat="45.7472" lon="6.5752">
        <ele>1218.6</ele>
        <time>2017-10-13T13:31:33Z</time>
      </trkpt>
      <trkpt lat="45.74728" lon="6.57526">
        <ele>1219.3</ele>
        <time>2017-10-13T13:31:38Z</time>
      </trkpt>
      <trkpt lat="45.74739" lon="6.5753">
        <ele>1220.1</ele>
        <time>2017-10-13T13:31:44Z</time>
      </trkpt>
      <trkpt lat="45.74748" lon="6.57535">
        <ele>1220.9</ele>
        <time>2017-10-13T13:31:49Z</time>
      </trkpt>
      <trkpt lat="45.74756" lon="6.57539">
        <ele>1221.6</ele>
        <time>2017-10-13T13:31:54Z</time>
      </trkpt>
      <trkpt lat="45.74765" lon="6.57543">
        <ele>1222.6</ele>
        <time>2017-10-13T13:31:59Z</time>
      </trkpt>
      <trkpt lat="45.74776" lon="6.57546">
        <ele>1223.4</ele>
        <time>2017-10-13T13:32:05Z</time>
      </trkpt>
      <trkpt lat="45.74784" lon="6.5755">
        <ele>1224.3</ele>
        <time>2017-10-13T13:32:10Z</time>
      </trkpt>
      <trkpt lat="45.74794" lon="6.57554">
        <ele>1225.2</ele>
        <time>2017-10-13T13:32:15Z</time>
      </trkpt>
      <trkpt lat="45.74804" lon="6.57558">
        <ele>1226.2</ele>
        <time>2017-10-13T13:32:21Z</time>
      </trkpt>
      <trkpt lat="45.74814" lon="6.57561">
        <ele>1226.9</ele>
        <time>2017-10-13T13:32:26Z</time>
      </trkpt>
      <trkpt lat="45.74824" lon="6.57564">
        <ele>1227.5</ele>
        <time>2017-10-13T13:32:31Z</time>
      </trkpt>
      <trkpt lat="45.74834" lon="6.57566">
        <ele>1228.2</ele>
        <time>2017-10-13T13:32:36Z</time>
      </trkpt>
      <trkpt lat="45.74843" lon="6.57571">
        <ele>1228.9</ele>
        <time>2017-10-13T13:32:41Z</time>
      </trkpt>
      <trkpt lat="45.74851" lon="6.57579">
        <ele>1229.6</ele>
        <time>2017-10-13T13:32:46Z</time>
      </trkpt>
      <trkpt lat="45.74859" lon="6.57588">
        <ele>1230.5</ele>
        <time>2017-10-13T13:32:51Z</time>
      </trkpt>
      <trkpt lat="45.74866" lon="6.57596">
        <ele>1231.3</ele>
        <time>2017-10-13T13:32:56Z</time>
      </trkpt>
      <trkpt lat="45.74873" lon="6.57605">
        <ele>1232</ele>
        <time>2017-10-13T13:33:01Z</time>
      </trkpt>
      <trkpt lat="45.74882" lon="6.57612">
        <ele>1232.7</ele>
        <time>2017-10-13T13:33:06Z</time>
      </trkpt>
      <trkpt lat="45.74891" lon="6.57617">
        <ele>1233.5</ele>
        <time>2017-10-13T13:33:11Z</time>
      </trkpt>
      <trkpt lat="45.749" lon="6.57622">
        <ele>1234.4</ele>
        <time>2017-10-13T13:33:16Z</time>
      </trkpt>
      <trkpt lat="45.74911" lon="6.57626">
        <ele>1235.1</ele>
        <time>2017-10-13T13:33:21Z</time>
      </trkpt>
      <trkpt lat="45.74919" lon="6.5763">
        <ele>1235.9</ele>
        <time>2017-10-13T13:33:26Z</time>
      </trkpt>
      <trkpt lat="45.74929" lon="6.57633">
        <ele>1236.6</ele>
        <time>2017-10-13T13:33:31Z</time>
      </trkpt>
      <trkpt lat="45.74938" lon="6.57636">
        <ele>1237.4</ele>
        <time>2017-10-13T13:33:36Z</time>
      </trkpt>
      <trkpt lat="45.74948" lon="6.57639">
        <ele>1238.1</ele>
        <time>2017-10-13T13:33:41Z</time>
      </trkpt>
      <trkpt lat="45.74957" lon="6.57642">
        <ele>1238.8</ele>
        <time>2017-10-13T13:33:46Z</time>
      </trkpt>
      <trkpt lat="45.74967" lon="6.57644">
        <ele>1239.7</ele>
        <time>2017-10-13T13:33:51Z</time>
      </trkpt>
      <trkpt lat="45.74976" lon="6.57648">
        <ele>1240.4</ele>
        <time>2017-10-13T13:33:56Z</time>
      </trkpt>
      <trkpt lat="45.74985" lon="6.57652">
        <ele>1241.3</ele>
        <time>2017-10-13T13:34:01Z</time>
      </trkpt>
      <trkpt lat="45.74994" lon="6.57656">
        <ele>1242.1</ele>
        <time>2017-10-13T13:34:06Z</time>
      </trkpt>
      <trkpt lat="45.75004" lon="6.57661">
        <ele>1242.9</ele>
        <time>2017-10-13T13:34:11Z</time>
      </trkpt>
      <trkpt lat="45.75013" lon="6.57665">
        <ele>1243.9</ele>
        <time>2017-10-13T13:34:16Z</time>
      </trkpt>
      <trkpt lat="45.75022" lon="6.57669">
        <ele>1244.7</ele>
        <time>2017-10-13T13:34:21Z</time>
      </trkpt>
      <trkpt lat="45.75032" lon="6.57673">
        <ele>1245.4</ele>
        <time>2017-10-13T13:34:26Z</time>
      </trkpt>
      <trkpt lat="45.75041" lon="6.57674">
        <ele>1246.4</ele>
        <time>2017-10-13T13:34:31Z</time>
      </trkpt>
      <trkpt lat="45.75051" lon="6.57676">
        <ele>1247.2</ele>
        <time>2017-10-13T13:34:36Z</time>
      </trkpt>
      <trkpt lat="45.7506" lon="6.57676">
        <ele>1248.1</ele>
        <time>2017-10-13T13:34:41Z</time>
      </trkpt>
      <trkpt lat="45.75071" lon="6.57674">
        <ele>1248.8</ele>
        <time>2017-10-13T13:34:47Z</time>
      </trkpt>
      <trkpt lat="45.7508" lon="6.57672">
        <ele>1249.5</ele>
        <time>2017-10-13T13:34:52Z</time>
      </trkpt>
      <trkpt lat="45.75091" lon="6.57676">
        <ele>1250.6</ele>
        <time>2017-10-13T13:34:58Z</time>
      </trkpt>
      <trkpt lat="45.751" lon="6.57682">
        <ele>1251.3</ele>
        <time>2017-10-13T13:35:03Z</time>
      </trkpt>
      <trkpt lat="45.75108" lon="6.57691">
        <ele>1252.2</ele>
        <time>2017-10-13T13:35:08Z</time>
      </trkpt>
      <trkpt lat="45.75117" lon="6.57699">
        <ele>1252.9</ele>
        <time>2017-10-13T13:35:13Z</time>
      </trkpt>
      <trkpt lat="45.75124" lon="6.57709">
        <ele>1253.7</ele>
        <time>2017-10-13T13:35:18Z</time>
      </trkpt>
      <trkpt lat="45.75129" lon="6.5772">
        <ele>1254.7</ele>
        <time>2017-10-13T13:35:23Z</time>
      </trkpt>
      <trkpt lat="45.75133" lon="6.57734">
        <ele>1255.4</ele>
        <time>2017-10-13T13:35:28Z</time>
      </trkpt>
      <trkpt lat="45.75137" lon="6.57747">
        <ele>1256.3</ele>
        <time>2017-10-13T13:35:33Z</time>
      </trkpt>
      <trkpt lat="45.75141" lon="6.57758">
        <ele>1257.1</ele>
        <time>2017-10-13T13:35:38Z</time>
      </trkpt>
      <trkpt lat="45.75147" lon="6.57769">
        <ele>1257.9</ele>
        <time>2017-10-13T13:35:43Z</time>
      </trkpt>
      <trkpt lat="45.75155" lon="6.57776">
        <ele>1258.8</ele>
        <time>2017-10-13T13:35:48Z</time>
      </trkpt>
      <trkpt lat="45.75164" lon="6.57781">
        <ele>1259.5</ele>
        <time>2017-10-13T13:35:53Z</time>
      </trkpt>
      <trkpt lat="45.75173" lon="6.57784">
        <ele>1260.3</ele>
        <time>2017-10-13T13:35:58Z</time>
      </trkpt>
      <trkpt lat="45.75182" lon="6.57786">
        <ele>1261.1</ele>
        <time>2017-10-13T13:36:03Z</time>
      </trkpt>
      <trkpt lat="45.75192" lon="6.57783">
        <ele>1261.7</ele>
        <time>2017-10-13T13:36:08Z</time>
      </trkpt>
      <trkpt lat="45.75193" lon="6.5777">
        <ele>1262.6</ele>
        <time>2017-10-13T13:36:14Z</time>
      </trkpt>
      <trkpt lat="45.75185" lon="6.57761">
        <ele>1263.2</ele>
        <time>2017-10-13T13:36:19Z</time>
      </trkpt>
      <trkpt lat="45.75174" lon="6.57757">
        <ele>1263.8</ele>
        <time>2017-10-13T13:36:24Z</time>
      </trkpt>
      <trkpt lat="45.75164" lon="6.57753">
        <ele>1264.7</ele>
        <time>2017-10-13T13:36:29Z</time>
      </trkpt>
      <trkpt lat="45.75161" lon="6.57738">
        <ele>1265.3</ele>
        <time>2017-10-13T13:36:34Z</time>
      </trkpt>
      <trkpt lat="45.75161" lon="6.57725">
        <ele>1265.9</ele>
        <time>2017-10-13T13:36:38Z</time>
      </trkpt>
      <trkpt lat="45.75161" lon="6.57711">
        <ele>1266.3</ele>
        <time>2017-10-13T13:36:42Z</time>
      </trkpt>
      <trkpt lat="45.75159" lon="6.57695">
        <ele>1267</ele>
        <time>2017-10-13T13:36:47Z</time>
      </trkpt>
      <trkpt lat="45.75156" lon="6.57683">
        <ele>1267.6</ele>
        <time>2017-10-13T13:36:51Z</time>
      </trkpt>
      <trkpt lat="45.75151" lon="6.57671">
        <ele>1268.3</ele>
        <time>2017-10-13T13:36:55Z</time>
      </trkpt>
      <trkpt lat="45.75144" lon="6.57659">
        <ele>1269.3</ele>
        <time>2017-10-13T13:37:00Z</time>
      </trkpt>
      <trkpt lat="45.75136" lon="6.5765">
        <ele>1270</ele>
        <time>2017-10-13T13:37:05Z</time>
      </trkpt>
      <trkpt lat="45.75128" lon="6.57641">
        <ele>1270.9</ele>
        <time>2017-10-13T13:37:11Z</time>
      </trkpt>
      <trkpt lat="45.75121" lon="6.5763">
        <ele>1271.8</ele>
        <time>2017-10-13T13:37:16Z</time>
      </trkpt>
      <trkpt lat="45.75114" lon="6.57621">
        <ele>1272.6</ele>
        <time>2017-10-13T13:37:21Z</time>
      </trkpt>
      <trkpt lat="45.75107" lon="6.57612">
        <ele>1273.5</ele>
        <time>2017-10-13T13:37:26Z</time>
      </trkpt>
      <trkpt lat="45.75099" lon="6.57604">
        <ele>1274.3</ele>
        <time>2017-10-13T13:37:31Z</time>
      </trkpt>
      <trkpt lat="45.75091" lon="6.57599">
        <ele>1275.1</ele>
        <time>2017-10-13T13:37:36Z</time>
      </trkpt>
      <trkpt lat="45.75082" lon="6.57597">
        <ele>1275.9</ele>
        <time>2017-10-13T13:37:41Z</time>
      </trkpt>
      <trkpt lat="45.75073" lon="6.57594">
        <ele>1276.7</ele>
        <time>2017-10-13T13:37:46Z</time>
      </trkpt>
      <trkpt lat="45.75063" lon="6.57589">
        <ele>1277.6</ele>
        <time>2017-10-13T13:37:51Z</time>
      </trkpt>
      <trkpt lat="45.75055" lon="6.57581">
        <ele>1278.5</ele>
        <time>2017-10-13T13:37:56Z</time>
      </trkpt>
      <trkpt lat="45.75048" lon="6.57572">
        <ele>1279.3</ele>
        <time>2017-10-13T13:38:01Z</time>
      </trkpt>
      <trkpt lat="45.7504" lon="6.57562">
        <ele>1280.1</ele>
        <time>2017-10-13T13:38:06Z</time>
      </trkpt>
      <trkpt lat="45.75033" lon="6.57552">
        <ele>1280.9</ele>
        <time>2017-10-13T13:38:11Z</time>
      </trkpt>
      <trkpt lat="45.75027" lon="6.57539">
        <ele>1281.6</ele>
        <time>2017-10-13T13:38:16Z</time>
      </trkpt>
      <trkpt lat="45.75021" lon="6.57527">
        <ele>1282.4</ele>
        <time>2017-10-13T13:38:21Z</time>
      </trkpt>
      <trkpt lat="45.75016" lon="6.57516">
        <ele>1283.4</ele>
        <time>2017-10-13T13:38:26Z</time>
      </trkpt>
      <trkpt lat="45.75009" lon="6.57507">
        <ele>1284.3</ele>
        <time>2017-10-13T13:38:31Z</time>
      </trkpt>
      <trkpt lat="45.75" lon="6.575">
        <ele>1285</ele>
        <time>2017-10-13T13:38:36Z</time>
      </trkpt>
      <trkpt lat="45.74991" lon="6.57495">
        <ele>1285.8</ele>
        <time>2017-10-13T13:38:41Z</time>
      </trkpt>
      <trkpt lat="45.74981" lon="6.57492">
        <ele>1286.7</ele>
        <time>2017-10-13T13:38:47Z</time>
      </trkpt>
      <trkpt lat="45.74971" lon="6.57486">
        <ele>1287.5</ele>
        <time>2017-10-13T13:38:53Z</time>
      </trkpt>
      <trkpt lat="45.74963" lon="6.57478">
        <ele>1288.3</ele>
        <time>2017-10-13T13:38:59Z</time>
      </trkpt>
      <trkpt lat="45.74955" lon="6.57467">
        <ele>1289.3</ele>
        <time>2017-10-13T13:39:05Z</time>
      </trkpt>
      <trkpt lat="45.74949" lon="6.57456">
        <ele>1290.2</ele>
        <time>2017-10-13T13:39:10Z</time>
      </trkpt>
      <trkpt lat="45.74942" lon="6.57445">
        <ele>1290.9</ele>
        <time>2017-10-13T13:39:15Z</time>
      </trkpt>
      <trkpt lat="45.74936" lon="6.57436">
        <ele>1291.8</ele>
        <time>2017-10-13T13:39:20Z</time>
      </trkpt>
      <trkpt lat="45.74928" lon="6.57428">
        <ele>1292.5</ele>
        <time>2017-10-13T13:39:25Z</time>
      </trkpt>
      <trkpt lat="45.7492" lon="6.57419">
        <ele>1293.4</ele>
        <time>2017-10-13T13:39:30Z</time>
      </trkpt>
      <trkpt lat="45.74912" lon="6.57411">
        <ele>1294.3</ele>
        <time>2017-10-13T13:39:35Z</time>
      </trkpt>
      <trkpt lat="45.74903" lon="6.57403">
        <ele>1295</ele>
        <time>2017-10-13T13:39:40Z</time>
      </trkpt>
      <trkpt lat="45.74894" lon="6.57393">
        <ele>1295.9</ele>
        <time>2017-10-13T13:39:45Z</time>
      </trkpt>
      <trkpt lat="45.74886" lon="6.57384">
        <ele>1296.7</ele>
        <time>2017-10-13T13:39:50Z</time>
      </trkpt>
      <trkpt lat="45.74878" lon="6.57375">
        <ele>1297.5</ele>
        <time>2017-10-13T13:39:55Z</time>
      </trkpt>
      <trkpt lat="45.7487" lon="6.57367">
        <ele>1298.3</ele>
        <time>2017-10-13T13:40:00Z</time>
      </trkpt>
      <trkpt lat="45.74862" lon="6.57358">
        <ele>1299</ele>
        <time>2017-10-13T13:40:05Z</time>
      </trkpt>
      <trkpt lat="45.74854" lon="6.57349">
        <ele>1299.8</ele>
        <time>2017-10-13T13:40:10Z</time>
      </trkpt>
      <trkpt lat="45.74847" lon="6.5734">
        <ele>1300.5</ele>
        <time>2017-10-13T13:40:15Z</time>
      </trkpt>
      <trkpt lat="45.74839" lon="6.57333">
        <ele>1301.3</ele>
        <time>2017-10-13T13:40:20Z</time>
      </trkpt>
      <trkpt lat="45.74832" lon="6.57324">
        <ele>1302.1</ele>
        <time>2017-10-13T13:40:25Z</time>
      </trkpt>
      <trkpt lat="45.74824" lon="6.57315">
        <ele>1302.7</ele>
        <time>2017-10-13T13:40:30Z</time>
      </trkpt>
      <trkpt lat="45.74817" lon="6.57306">
        <ele>1303.3</ele>
        <time>2017-10-13T13:40:35Z</time>
      </trkpt>
      <trkpt lat="45.74811" lon="6.57296">
        <ele>1304.1</ele>
        <time>2017-10-13T13:40:40Z</time>
      </trkpt>
      <trkpt lat="45.74803" lon="6.57288">
        <ele>1304.8</ele>
        <time>2017-10-13T13:40:45Z</time>
      </trkpt>
      <trkpt lat="45.74795" lon="6.57279">
        <ele>1305.7</ele>
        <time>2017-10-13T13:40:50Z</time>
      </trkpt>
      <trkpt lat="45.74789" lon="6.57268">
        <ele>1306.5</ele>
        <time>2017-10-13T13:40:55Z</time>
      </trkpt>
      <trkpt lat="45.74782" lon="6.57256">
        <ele>1307.5</ele>
        <time>2017-10-13T13:41:01Z</time>
      </trkpt>
      <trkpt lat="45.74775" lon="6.57245">
        <ele>1308.5</ele>
        <time>2017-10-13T13:41:07Z</time>
      </trkpt>
      <trkpt lat="45.74769" lon="6.57235">
        <ele>1309.3</ele>
        <time>2017-10-13T13:41:12Z</time>
      </trkpt>
      <trkpt lat="45.74764" lon="6.57223">
        <ele>1310.4</ele>
        <time>2017-10-13T13:41:17Z</time>
      </trkpt>
      <trkpt lat="45.74759" lon="6.5721">
        <ele>1311.5</ele>
        <time>2017-10-13T13:41:23Z</time>
      </trkpt>
      <trkpt lat="45.74751" lon="6.57201">
        <ele>1312.2</ele>
        <time>2017-10-13T13:41:28Z</time>
      </trkpt>
      <trkpt lat="45.74743" lon="6.57194">
        <ele>1312.8</ele>
        <time>2017-10-13T13:41:33Z</time>
      </trkpt>
      <trkpt lat="45.74733" lon="6.57187">
        <ele>1313.5</ele>
        <time>2017-10-13T13:41:38Z</time>
      </trkpt>
      <trkpt lat="45.74725" lon="6.5718">
        <ele>1314.3</ele>
        <time>2017-10-13T13:41:43Z</time>
      </trkpt>
      <trkpt lat="45.74715" lon="6.57173">
        <ele>1315.1</ele>
        <time>2017-10-13T13:41:48Z</time>
      </trkpt>
      <trkpt lat="45.74706" lon="6.57165">
        <ele>1315.7</ele>
        <time>2017-10-13T13:41:53Z</time>
      </trkpt>
      <trkpt lat="45.74696" lon="6.57159">
        <ele>1316.5</ele>
        <time>2017-10-13T13:41:58Z</time>
      </trkpt>
      <trkpt lat="45.74687" lon="6.57151">
        <ele>1317.3</ele>
        <time>2017-10-13T13:42:03Z</time>
      </trkpt>
      <trkpt lat="45.74679" lon="6.57142">
        <ele>1318.3</ele>
        <time>2017-10-13T13:42:08Z</time>
      </trkpt>
      <trkpt lat="45.7467" lon="6.57135">
        <ele>1319.1</ele>
        <time>2017-10-13T13:42:13Z</time>
      </trkpt>
      <trkpt lat="45.74661" lon="6.57129">
        <ele>1319.9</ele>
        <time>2017-10-13T13:42:18Z</time>
      </trkpt>
      <trkpt lat="45.74652" lon="6.57122">
        <ele>1320.8</ele>
        <time>2017-10-13T13:42:23Z</time>
      </trkpt>
      <trkpt lat="45.74644" lon="6.57116">
        <ele>1321.5</ele>
        <time>2017-10-13T13:42:28Z</time>
      </trkpt>
      <trkpt lat="45.74634" lon="6.57109">
        <ele>1322.2</ele>
        <time>2017-10-13T13:42:33Z</time>
      </trkpt>
      <trkpt lat="45.74625" lon="6.57102">
        <ele>1323</ele>
        <time>2017-10-13T13:42:38Z</time>
      </trkpt>
      <trkpt lat="45.74616" lon="6.57095">
        <ele>1323.8</ele>
        <time>2017-10-13T13:42:43Z</time>
      </trkpt>
      <trkpt lat="45.74608" lon="6.57089">
        <ele>1324.6</ele>
        <time>2017-10-13T13:42:48Z</time>
      </trkpt>
      <trkpt lat="45.74599" lon="6.57083">
        <ele>1325.4</ele>
        <time>2017-10-13T13:42:53Z</time>
      </trkpt>
      <trkpt lat="45.7459" lon="6.57077">
        <ele>1326.2</ele>
        <time>2017-10-13T13:42:58Z</time>
      </trkpt>
      <trkpt lat="45.74581" lon="6.57069">
        <ele>1327</ele>
        <time>2017-10-13T13:43:03Z</time>
      </trkpt>
      <trkpt lat="45.74572" lon="6.57061">
        <ele>1327.7</ele>
        <time>2017-10-13T13:43:08Z</time>
      </trkpt>
      <trkpt lat="45.74562" lon="6.57055">
        <ele>1328.6</ele>
        <time>2017-10-13T13:43:13Z</time>
      </trkpt>
      <trkpt lat="45.74553" lon="6.5705">
        <ele>1329.4</ele>
        <time>2017-10-13T13:43:18Z</time>
      </trkpt>
      <trkpt lat="45.74543" lon="6.57044">
        <ele>1330.1</ele>
        <time>2017-10-13T13:43:23Z</time>
      </trkpt>
      <trkpt lat="45.74534" lon="6.57038">
        <ele>1330.9</ele>
        <time>2017-10-13T13:43:28Z</time>
      </trkpt>
      <trkpt lat="45.74525" lon="6.57031">
        <ele>1331.8</ele>
        <time>2017-10-13T13:43:33Z</time>
      </trkpt>
      <trkpt lat="45.74518" lon="6.57023">
        <ele>1332.5</ele>
        <time>2017-10-13T13:43:38Z</time>
      </trkpt>
      <trkpt lat="45.74509" lon="6.57015">
        <ele>1333.5</ele>
        <time>2017-10-13T13:43:43Z</time>
      </trkpt>
      <trkpt lat="45.74501" lon="6.57006">
        <ele>1334.2</ele>
        <time>2017-10-13T13:43:48Z</time>
      </trkpt>
      <trkpt lat="45.74494" lon="6.56996">
        <ele>1335.1</ele>
        <time>2017-10-13T13:43:53Z</time>
      </trkpt>
      <trkpt lat="45.74487" lon="6.56985">
        <ele>1335.9</ele>
        <time>2017-10-13T13:43:58Z</time>
      </trkpt>
      <trkpt lat="45.7448" lon="6.56975">
        <ele>1336.7</ele>
        <time>2017-10-13T13:44:03Z</time>
      </trkpt>
      <trkpt lat="45.74474" lon="6.56964">
        <ele>1337.6</ele>
        <time>2017-10-13T13:44:08Z</time>
      </trkpt>
      <trkpt lat="45.74467" lon="6.56953">
        <ele>1338.5</ele>
        <time>2017-10-13T13:44:13Z</time>
      </trkpt>
      <trkpt lat="45.74461" lon="6.56941">
        <ele>1339.5</ele>
        <time>2017-10-13T13:44:18Z</time>
      </trkpt>
      <trkpt lat="45.74456" lon="6.56929">
        <ele>1340.4</ele>
        <time>2017-10-13T13:44:23Z</time>
      </trkpt>
      <trkpt lat="45.74454" lon="6.56914">
        <ele>1341.4</ele>
        <time>2017-10-13T13:44:28Z</time>
      </trkpt>
      <trkpt lat="45.74455" lon="6.569">
        <ele>1342.4</ele>
        <time>2017-10-13T13:44:33Z</time>
      </trkpt>
      <trkpt lat="45.74458" lon="6.56887">
        <ele>1343.2</ele>
        <time>2017-10-13T13:44:38Z</time>
      </trkpt>
      <trkpt lat="45.7446" lon="6.56873">
        <ele>1344.1</ele>
        <time>2017-10-13T13:44:43Z</time>
      </trkpt>
      <trkpt lat="45.74462" lon="6.5686">
        <ele>1344.8</ele>
        <time>2017-10-13T13:44:48Z</time>
      </trkpt>
      <trkpt lat="45.74464" lon="6.56847">
        <ele>1345.5</ele>
        <time>2017-10-13T13:44:53Z</time>
      </trkpt>
      <trkpt lat="45.74465" lon="6.56832">
        <ele>1346.4</ele>
        <time>2017-10-13T13:44:59Z</time>
      </trkpt>
      <trkpt lat="45.74464" lon="6.56819">
        <ele>1347.1</ele>
        <time>2017-10-13T13:45:04Z</time>
      </trkpt>
      <trkpt lat="45.74461" lon="6.56804">
        <ele>1347.9</ele>
        <time>2017-10-13T13:45:09Z</time>
      </trkpt>
      <trkpt lat="45.74458" lon="6.56791">
        <ele>1348.8</ele>
        <time>2017-10-13T13:45:14Z</time>
      </trkpt>
      <trkpt lat="45.74452" lon="6.56778">
        <ele>1349.7</ele>
        <time>2017-10-13T13:45:19Z</time>
      </trkpt>
      <trkpt lat="45.74446" lon="6.56768">
        <ele>1350.6</ele>
        <time>2017-10-13T13:45:24Z</time>
      </trkpt>
      <trkpt lat="45.7444" lon="6.56757">
        <ele>1351.4</ele>
        <time>2017-10-13T13:45:29Z</time>
      </trkpt>
      <trkpt lat="45.74435" lon="6.56745">
        <ele>1352.3</ele>
        <time>2017-10-13T13:45:34Z</time>
      </trkpt>
      <trkpt lat="45.74429" lon="6.56732">
        <ele>1353.1</ele>
        <time>2017-10-13T13:45:39Z</time>
      </trkpt>
      <trkpt lat="45.74422" lon="6.56721">
        <ele>1353.8</ele>
        <time>2017-10-13T13:45:44Z</time>
      </trkpt>
      <trkpt lat="45.74413" lon="6.56711">
        <ele>1354.5</ele>
        <time>2017-10-13T13:45:49Z</time>
      </trkpt>
      <trkpt lat="45.74406" lon="6.56703">
        <ele>1355.5</ele>
        <time>2017-10-13T13:45:54Z</time>
      </trkpt>
      <trkpt lat="45.74399" lon="6.56693">
        <ele>1356.5</ele>
        <time>2017-10-13T13:45:59Z</time>
      </trkpt>
      <trkpt lat="45.74392" lon="6.56683">
        <ele>1357.5</ele>
        <time>2017-10-13T13:46:04Z</time>
      </trkpt>
      <trkpt lat="45.74385" lon="6.56673">
        <ele>1358.3</ele>
        <time>2017-10-13T13:46:09Z</time>
      </trkpt>
      <trkpt lat="45.74378" lon="6.56663">
        <ele>1359.1</ele>
        <time>2017-10-13T13:46:14Z</time>
      </trkpt>
      <trkpt lat="45.74372" lon="6.56653">
        <ele>1359.7</ele>
        <time>2017-10-13T13:46:19Z</time>
      </trkpt>
      <trkpt lat="45.74367" lon="6.56641">
        <ele>1360.5</ele>
        <time>2017-10-13T13:46:24Z</time>
      </trkpt>
      <trkpt lat="45.74362" lon="6.56629">
        <ele>1361.2</ele>
        <time>2017-10-13T13:46:29Z</time>
      </trkpt>
      <trkpt lat="45.74357" lon="6.56616">
        <ele>1361.9</ele>
        <time>2017-10-13T13:46:34Z</time>
      </trkpt>
      <trkpt lat="45.74353" lon="6.56602">
        <ele>1362.8</ele>
        <time>2017-10-13T13:46:39Z</time>
      </trkpt>
      <trkpt lat="45.74347" lon="6.56588">
        <ele>1363.6</ele>
        <time>2017-10-13T13:46:44Z</time>
      </trkpt>
      <trkpt lat="45.74341" lon="6.56576">
        <ele>1364.5</ele>
        <time>2017-10-13T13:46:49Z</time>
      </trkpt>
      <trkpt lat="45.74335" lon="6.56564">
        <ele>1365.2</ele>
        <time>2017-10-13T13:46:54Z</time>
      </trkpt>
      <trkpt lat="45.74329" lon="6.56552">
        <ele>1366</ele>
        <time>2017-10-13T13:46:59Z</time>
      </trkpt>
      <trkpt lat="45.74323" lon="6.5654">
        <ele>1366.6</ele>
        <time>2017-10-13T13:47:04Z</time>
      </trkpt>
      <trkpt lat="45.74316" lon="6.56528">
        <ele>1367.4</ele>
        <time>2017-10-13T13:47:09Z</time>
      </trkpt>
      <trkpt lat="45.7431" lon="6.56515">
        <ele>1368.1</ele>
        <time>2017-10-13T13:47:14Z</time>
      </trkpt>
      <trkpt lat="45.74303" lon="6.56504">
        <ele>1368.8</ele>
        <time>2017-10-13T13:47:19Z</time>
      </trkpt>
      <trkpt lat="45.74297" lon="6.56492">
        <ele>1369.5</ele>
        <time>2017-10-13T13:47:24Z</time>
      </trkpt>
      <trkpt lat="45.74291" lon="6.5648">
        <ele>1370.1</ele>
        <time>2017-10-13T13:47:28Z</time>
      </trkpt>
      <trkpt lat="45.74285" lon="6.56467">
        <ele>1371.1</ele>
        <time>2017-10-13T13:47:33Z</time>
      </trkpt>
      <trkpt lat="45.74279" lon="6.56454">
        <ele>1371.9</ele>
        <time>2017-10-13T13:47:38Z</time>
      </trkpt>
      <trkpt lat="45.74274" lon="6.56443">
        <ele>1372.5</ele>
        <time>2017-10-13T13:47:42Z</time>
      </trkpt>
      <trkpt lat="45.74269" lon="6.56431">
        <ele>1373.1</ele>
        <time>2017-10-13T13:47:47Z</time>
      </trkpt>
      <trkpt lat="45.74261" lon="6.56419">
        <ele>1373.6</ele>
        <time>2017-10-13T13:47:52Z</time>
      </trkpt>
      <trkpt lat="45.74262" lon="6.56406">
        <ele>1374.1</ele>
        <time>2017-10-13T13:47:56Z</time>
      </trkpt>
      <trkpt lat="45.74263" lon="6.56388">
        <ele>1374.6</ele>
        <time>2017-10-13T13:47:59Z</time>
      </trkpt>
      <trkpt lat="45.74265" lon="6.56374">
        <ele>1375</ele>
        <time>2017-10-13T13:48:03Z</time>
      </trkpt>
      <trkpt lat="45.74263" lon="6.56361">
        <ele>1375.5</ele>
        <time>2017-10-13T13:48:11Z</time>
      </trkpt>
      <trkpt lat="45.74254" lon="6.56354">
        <ele>1375.5</ele>
        <time>2017-10-13T13:48:33Z</time>
      </trkpt>
      <trkpt lat="45.74244" lon="6.56347">
        <ele>1374.8</ele>
        <time>2017-10-13T13:48:37Z</time>
      </trkpt>
      <trkpt lat="45.74235" lon="6.56342">
        <ele>1373.7</ele>
        <time>2017-10-13T13:48:40Z</time>
      </trkpt>
      <trkpt lat="45.74225" lon="6.56345">
        <ele>1371.8</ele>
        <time>2017-10-13T13:48:44Z</time>
      </trkpt>
      <trkpt lat="45.74216" lon="6.56347">
        <ele>1371.1</ele>
        <time>2017-10-13T13:48:46Z</time>
      </trkpt>
      <trkpt lat="45.74204" lon="6.5635">
        <ele>1370</ele>
        <time>2017-10-13T13:48:49Z</time>
      </trkpt>
      <trkpt lat="45.74193" lon="6.56345">
        <ele>1368.5</ele>
        <time>2017-10-13T13:48:53Z</time>
      </trkpt>
      <trkpt lat="45.74182" lon="6.56347">
        <ele>1367.7</ele>
        <time>2017-10-13T13:48:59Z</time>
      </trkpt>
      <trkpt lat="45.74173" lon="6.56341">
        <ele>1368</ele>
        <time>2017-10-13T13:49:04Z</time>
      </trkpt>
      <trkpt lat="45.74165" lon="6.56335">
        <ele>1368.3</ele>
        <time>2017-10-13T13:49:09Z</time>
      </trkpt>
      <trkpt lat="45.74156" lon="6.56327">
        <ele>1368.1</ele>
        <time>2017-10-13T13:49:13Z</time>
      </trkpt>
      <trkpt lat="45.74146" lon="6.56319">
        <ele>1368.1</ele>
        <time>2017-10-13T13:49:17Z</time>
      </trkpt>
      <trkpt lat="45.74137" lon="6.56314">
        <ele>1368.2</ele>
        <time>2017-10-13T13:49:21Z</time>
      </trkpt>
      <trkpt lat="45.74127" lon="6.56315">
        <ele>1368</ele>
        <time>2017-10-13T13:49:25Z</time>
      </trkpt>
      <trkpt lat="45.74115" lon="6.56314">
        <ele>1367.7</ele>
        <time>2017-10-13T13:49:29Z</time>
      </trkpt>
      <trkpt lat="45.74105" lon="6.5631">
        <ele>1367.4</ele>
        <time>2017-10-13T13:49:32Z</time>
      </trkpt>
      <trkpt lat="45.74092" lon="6.56307">
        <ele>1366.6</ele>
        <time>2017-10-13T13:49:35Z</time>
      </trkpt>
      <trkpt lat="45.74082" lon="6.56305">
        <ele>1366.1</ele>
        <time>2017-10-13T13:49:37Z</time>
      </trkpt>
      <trkpt lat="45.74069" lon="6.56303">
        <ele>1365.4</ele>
        <time>2017-10-13T13:49:39Z</time>
      </trkpt>
      <trkpt lat="45.74056" lon="6.56304">
        <ele>1364.6</ele>
        <time>2017-10-13T13:49:41Z</time>
      </trkpt>
      <trkpt lat="45.74045" lon="6.56306">
        <ele>1363.8</ele>
        <time>2017-10-13T13:49:43Z</time>
      </trkpt>
      <trkpt lat="45.74032" lon="6.56306">
        <ele>1363</ele>
        <time>2017-10-13T13:49:46Z</time>
      </trkpt>
      <trkpt lat="45.74022" lon="6.56307">
        <ele>1362.3</ele>
        <time>2017-10-13T13:49:49Z</time>
      </trkpt>
      <trkpt lat="45.74009" lon="6.56309">
        <ele>1361.6</ele>
        <time>2017-10-13T13:49:52Z</time>
      </trkpt>
      <trkpt lat="45.73997" lon="6.56313">
        <ele>1360.6</ele>
        <time>2017-10-13T13:49:55Z</time>
      </trkpt>
      <trkpt lat="45.73988" lon="6.56306">
        <ele>1359.7</ele>
        <time>2017-10-13T13:49:59Z</time>
      </trkpt>
      <trkpt lat="45.73977" lon="6.56297">
        <ele>1359.7</ele>
        <time>2017-10-13T13:50:03Z</time>
      </trkpt>
      <trkpt lat="45.73967" lon="6.56291">
        <ele>1359.6</ele>
        <time>2017-10-13T13:50:06Z</time>
      </trkpt>
      <trkpt lat="45.73958" lon="6.5629">
        <ele>1359.7</ele>
        <time>2017-10-13T13:50:10Z</time>
      </trkpt>
      <trkpt lat="45.73948" lon="6.5629">
        <ele>1359.7</ele>
        <time>2017-10-13T13:50:14Z</time>
      </trkpt>
      <trkpt lat="45.73937" lon="6.56299">
        <ele>1359.3</ele>
        <time>2017-10-13T13:50:47Z</time>
      </trkpt>
      <trkpt lat="45.73928" lon="6.56303">
        <ele>1358.8</ele>
        <time>2017-10-13T13:50:49Z</time>
      </trkpt>
      <trkpt lat="45.73916" lon="6.56301">
        <ele>1357.8</ele>
        <time>2017-10-13T13:50:52Z</time>
      </trkpt>
      <trkpt lat="45.73906" lon="6.56297">
        <ele>1356.5</ele>
        <time>2017-10-13T13:50:55Z</time>
      </trkpt>
      <trkpt lat="45.73896" lon="6.5629">
        <ele>1355.3</ele>
        <time>2017-10-13T13:50:58Z</time>
      </trkpt>
      <trkpt lat="45.73888" lon="6.56285">
        <ele>1354.2</ele>
        <time>2017-10-13T13:51:01Z</time>
      </trkpt>
      <trkpt lat="45.7388" lon="6.56278">
        <ele>1352.8</ele>
        <time>2017-10-13T13:51:05Z</time>
      </trkpt>
      <trkpt lat="45.73871" lon="6.56268">
        <ele>1350.8</ele>
        <time>2017-10-13T13:51:41Z</time>
      </trkpt>
      <trkpt lat="45.73861" lon="6.56257">
        <ele>1350.1</ele>
        <time>2017-10-13T13:51:44Z</time>
      </trkpt>
      <trkpt lat="45.73853" lon="6.56242">
        <ele>1349.4</ele>
        <time>2017-10-13T13:51:46Z</time>
      </trkpt>
      <trkpt lat="45.73846" lon="6.56226">
        <ele>1348.7</ele>
        <time>2017-10-13T13:51:48Z</time>
      </trkpt>
      <trkpt lat="45.7384" lon="6.56214">
        <ele>1348.2</ele>
        <time>2017-10-13T13:51:50Z</time>
      </trkpt>
      <trkpt lat="45.73835" lon="6.56201">
        <ele>1347.9</ele>
        <time>2017-10-13T13:51:54Z</time>
      </trkpt>
      <trkpt lat="45.73827" lon="6.56194">
        <ele>1348.2</ele>
        <time>2017-10-13T13:51:59Z</time>
      </trkpt>
      <trkpt lat="45.73818" lon="6.56195">
        <ele>1349.5</ele>
        <time>2017-10-13T13:52:06Z</time>
      </trkpt>
      <trkpt lat="45.73827" lon="6.56187">
        <ele>1349.4</ele>
        <time>2017-10-13T13:52:25Z</time>
      </trkpt>
      <trkpt lat="45.73821" lon="6.56173">
        <ele>1348.6</ele>
        <time>2017-10-13T13:52:29Z</time>
      </trkpt>
      <trkpt lat="45.73815" lon="6.56162">
        <ele>1348.1</ele>
        <time>2017-10-13T13:52:31Z</time>
      </trkpt>
      <trkpt lat="45.7381" lon="6.56147">
        <ele>1347.8</ele>
        <time>2017-10-13T13:52:34Z</time>
      </trkpt>
      <trkpt lat="45.73807" lon="6.56134">
        <ele>1347.4</ele>
        <time>2017-10-13T13:52:39Z</time>
      </trkpt>
      <trkpt lat="45.73806" lon="6.56119">
        <ele>1347.5</ele>
        <time>2017-10-13T13:52:46Z</time>
      </trkpt>
      <trkpt lat="45.73808" lon="6.56106">
        <ele>1347.9</ele>
        <time>2017-10-13T13:52:50Z</time>
      </trkpt>
      <trkpt lat="45.7381" lon="6.56093">
        <ele>1348.3</ele>
        <time>2017-10-13T13:52:54Z</time>
      </trkpt>
      <trkpt lat="45.73816" lon="6.56081">
        <ele>1348.2</ele>
        <time>2017-10-13T13:52:59Z</time>
      </trkpt>
      <trkpt lat="45.73827" lon="6.56079">
        <ele>1348.6</ele>
        <time>2017-10-13T13:53:04Z</time>
      </trkpt>
      <trkpt lat="45.73835" lon="6.56073">
        <ele>1350.8</ele>
        <time>2017-10-13T13:53:23Z</time>
      </trkpt>
      <trkpt lat="45.73825" lon="6.56081">
        <ele>1351.1</ele>
        <time>2017-10-13T13:55:38Z</time>
      </trkpt>
      <trkpt lat="45.73814" lon="6.56084">
        <ele>1350.5</ele>
        <time>2017-10-13T13:55:40Z</time>
      </trkpt>
      <trkpt lat="45.73808" lon="6.56097">
        <ele>1349.7</ele>
        <time>2017-10-13T13:55:43Z</time>
      </trkpt>
      <trkpt lat="45.73809" lon="6.56111">
        <ele>1349</ele>
        <time>2017-10-13T13:55:47Z</time>
      </trkpt>
      <trkpt lat="45.73807" lon="6.56128">
        <ele>1348.7</ele>
        <time>2017-10-13T13:55:51Z</time>
      </trkpt>
      <trkpt lat="45.73808" lon="6.56142">
        <ele>1348.2</ele>
        <time>2017-10-13T13:55:54Z</time>
      </trkpt>
      <trkpt lat="45.73812" lon="6.56155">
        <ele>1346.5</ele>
        <time>2017-10-13T13:56:36Z</time>
      </trkpt>
      <trkpt lat="45.73818" lon="6.56169">
        <ele>1346.7</ele>
        <time>2017-10-13T13:56:40Z</time>
      </trkpt>
      <trkpt lat="45.73825" lon="6.56178">
        <ele>1347.2</ele>
        <time>2017-10-13T13:56:44Z</time>
      </trkpt>
      <trkpt lat="45.73831" lon="6.5619">
        <ele>1347.8</ele>
        <time>2017-10-13T13:56:49Z</time>
      </trkpt>
      <trkpt lat="45.73821" lon="6.56195">
        <ele>1349</ele>
        <time>2017-10-13T13:56:54Z</time>
      </trkpt>
      <trkpt lat="45.73812" lon="6.56192">
        <ele>1349.6</ele>
        <time>2017-10-13T13:57:11Z</time>
      </trkpt>
      <trkpt lat="45.73802" lon="6.562">
        <ele>1348.3</ele>
        <time>2017-10-13T13:57:15Z</time>
      </trkpt>
      <trkpt lat="45.73796" lon="6.5621">
        <ele>1346.9</ele>
        <time>2017-10-13T13:57:18Z</time>
      </trkpt>
      <trkpt lat="45.73784" lon="6.56205">
        <ele>1345.3</ele>
        <time>2017-10-13T13:57:21Z</time>
      </trkpt>
      <trkpt lat="45.73774" lon="6.56196">
        <ele>1343.6</ele>
        <time>2017-10-13T13:57:24Z</time>
      </trkpt>
      <trkpt lat="45.73766" lon="6.56184">
        <ele>1341.9</ele>
        <time>2017-10-13T13:57:27Z</time>
      </trkpt>
      <trkpt lat="45.73762" lon="6.56167">
        <ele>1341</ele>
        <time>2017-10-13T13:57:29Z</time>
      </trkpt>
      <trkpt lat="45.73757" lon="6.56149">
        <ele>1340</ele>
        <time>2017-10-13T13:57:31Z</time>
      </trkpt>
      <trkpt lat="45.73754" lon="6.56133">
        <ele>1339.2</ele>
        <time>2017-10-13T13:57:33Z</time>
      </trkpt>
      <trkpt lat="45.73748" lon="6.56117">
        <ele>1337.1</ele>
        <time>2017-10-13T13:57:36Z</time>
      </trkpt>
      <trkpt lat="45.73739" lon="6.56108">
        <ele>1334.4</ele>
        <time>2017-10-13T13:57:39Z</time>
      </trkpt>
      <trkpt lat="45.73732" lon="6.56096">
        <ele>1331.8</ele>
        <time>2017-10-13T13:57:42Z</time>
      </trkpt>
      <trkpt lat="45.73728" lon="6.56082">
        <ele>1329.2</ele>
        <time>2017-10-13T13:57:45Z</time>
      </trkpt>
      <trkpt lat="45.73724" lon="6.56069">
        <ele>1326.2</ele>
        <time>2017-10-13T13:57:48Z</time>
      </trkpt>
      <trkpt lat="45.73722" lon="6.56055">
        <ele>1323.4</ele>
        <time>2017-10-13T13:57:51Z</time>
      </trkpt>
      <trkpt lat="45.7372" lon="6.56041">
        <ele>1320.8</ele>
        <time>2017-10-13T13:57:54Z</time>
      </trkpt>
      <trkpt lat="45.73721" lon="6.56024">
        <ele>1318.2</ele>
        <time>2017-10-13T13:57:57Z</time>
      </trkpt>
      <trkpt lat="45.7372" lon="6.5601">
        <ele>1315.5</ele>
        <time>2017-10-13T13:58:00Z</time>
      </trkpt>
      <trkpt lat="45.7371" lon="6.56001">
        <ele>1312.5</ele>
        <time>2017-10-13T13:58:03Z</time>
      </trkpt>
      <trkpt lat="45.737" lon="6.55999">
        <ele>1309.8</ele>
        <time>2017-10-13T13:58:06Z</time>
      </trkpt>
      <trkpt lat="45.73692" lon="6.55992">
        <ele>1307.1</ele>
        <time>2017-10-13T13:58:11Z</time>
      </trkpt>
      <trkpt lat="45.73685" lon="6.55979">
        <ele>1305.2</ele>
        <time>2017-10-13T13:58:14Z</time>
      </trkpt>
      <trkpt lat="45.73679" lon="6.55962">
        <ele>1303.1</ele>
        <time>2017-10-13T13:58:17Z</time>
      </trkpt>
      <trkpt lat="45.7368" lon="6.55949">
        <ele>1301.4</ele>
        <time>2017-10-13T13:58:19Z</time>
      </trkpt>
      <trkpt lat="45.73675" lon="6.55936">
        <ele>1298.9</ele>
        <time>2017-10-13T13:58:22Z</time>
      </trkpt>
      <trkpt lat="45.73665" lon="6.55934">
        <ele>1294.6</ele>
        <time>2017-10-13T13:58:27Z</time>
      </trkpt>
      <trkpt lat="45.73659" lon="6.55944">
        <ele>1292</ele>
        <time>2017-10-13T13:58:31Z</time>
      </trkpt>
      <trkpt lat="45.73653" lon="6.55956">
        <ele>1290.2</ele>
        <time>2017-10-13T13:58:34Z</time>
      </trkpt>
      <trkpt lat="45.73647" lon="6.55966">
        <ele>1288.3</ele>
        <time>2017-10-13T13:58:37Z</time>
      </trkpt>
      <trkpt lat="45.7364" lon="6.55977">
        <ele>1286.6</ele>
        <time>2017-10-13T13:58:39Z</time>
      </trkpt>
      <trkpt lat="45.73629" lon="6.55987">
        <ele>1284.7</ele>
        <time>2017-10-13T13:58:41Z</time>
      </trkpt>
      <trkpt lat="45.7362" lon="6.55996">
        <ele>1282.9</ele>
        <time>2017-10-13T13:58:43Z</time>
      </trkpt>
      <trkpt lat="45.7361" lon="6.56006">
        <ele>1281</ele>
        <time>2017-10-13T13:58:45Z</time>
      </trkpt>
      <trkpt lat="45.73603" lon="6.5602">
        <ele>1278.2</ele>
        <time>2017-10-13T13:58:48Z</time>
      </trkpt>
      <trkpt lat="45.736" lon="6.56036">
        <ele>1275.4</ele>
        <time>2017-10-13T13:58:51Z</time>
      </trkpt>
      <trkpt lat="45.736" lon="6.56052">
        <ele>1272.7</ele>
        <time>2017-10-13T13:58:54Z</time>
      </trkpt>
      <trkpt lat="45.7359" lon="6.56064">
        <ele>1270.2</ele>
        <time>2017-10-13T13:58:57Z</time>
      </trkpt>
      <trkpt lat="45.73581" lon="6.56068">
        <ele>1268.4</ele>
        <time>2017-10-13T13:58:59Z</time>
      </trkpt>
      <trkpt lat="45.73571" lon="6.56072">
        <ele>1266.5</ele>
        <time>2017-10-13T13:59:01Z</time>
      </trkpt>
      <trkpt lat="45.7356" lon="6.56076">
        <ele>1263.7</ele>
        <time>2017-10-13T13:59:04Z</time>
      </trkpt>
      <trkpt lat="45.7355" lon="6.56079">
        <ele>1261.7</ele>
        <time>2017-10-13T13:59:06Z</time>
      </trkpt>
      <trkpt lat="45.73539" lon="6.56076">
        <ele>1258.7</ele>
        <time>2017-10-13T13:59:09Z</time>
      </trkpt>
      <trkpt lat="45.73529" lon="6.5607">
        <ele>1256.2</ele>
        <time>2017-10-13T13:59:12Z</time>
      </trkpt>
      <trkpt lat="45.7352" lon="6.56065">
        <ele>1253</ele>
        <time>2017-10-13T13:59:16Z</time>
      </trkpt>
      <trkpt lat="45.73517" lon="6.56053">
        <ele>1251.1</ele>
        <time>2017-10-13T13:59:19Z</time>
      </trkpt>
      <trkpt lat="45.73513" lon="6.56041">
        <ele>1249</ele>
        <time>2017-10-13T13:59:22Z</time>
      </trkpt>
      <trkpt lat="45.73502" lon="6.56048">
        <ele>1245.8</ele>
        <time>2017-10-13T13:59:27Z</time>
      </trkpt>
      <trkpt lat="45.73493" lon="6.56046">
        <ele>1243.8</ele>
        <time>2017-10-13T13:59:30Z</time>
      </trkpt>
      <trkpt lat="45.73483" lon="6.56044">
        <ele>1240</ele>
        <time>2017-10-13T13:59:43Z</time>
      </trkpt>
      <trkpt lat="45.73471" lon="6.56039">
        <ele>1238.5</ele>
        <time>2017-10-13T13:59:46Z</time>
      </trkpt>
      <trkpt lat="45.73462" lon="6.56036">
        <ele>1237.4</ele>
        <time>2017-10-13T13:59:48Z</time>
      </trkpt>
      <trkpt lat="45.73452" lon="6.56035">
        <ele>1236.1</ele>
        <time>2017-10-13T13:59:50Z</time>
      </trkpt>
      <trkpt lat="45.73442" lon="6.5603">
        <ele>1234.5</ele>
        <time>2017-10-13T13:59:52Z</time>
      </trkpt>
      <trkpt lat="45.73433" lon="6.56021">
        <ele>1233.1</ele>
        <time>2017-10-13T13:59:54Z</time>
      </trkpt>
      <trkpt lat="45.73429" lon="6.56004">
        <ele>1231.6</ele>
        <time>2017-10-13T13:59:56Z</time>
      </trkpt>
      <trkpt lat="45.73424" lon="6.55987">
        <ele>1229.9</ele>
        <time>2017-10-13T13:59:58Z</time>
      </trkpt>
      <trkpt lat="45.73418" lon="6.55972">
        <ele>1227.9</ele>
        <time>2017-10-13T14:00:00Z</time>
      </trkpt>
      <trkpt lat="45.73415" lon="6.55958">
        <ele>1225.8</ele>
        <time>2017-10-13T14:00:02Z</time>
      </trkpt>
      <trkpt lat="45.73407" lon="6.55965">
        <ele>1221.9</ele>
        <time>2017-10-13T14:00:06Z</time>
      </trkpt>
      <trkpt lat="45.73403" lon="6.55978">
        <ele>1218.8</ele>
        <time>2017-10-13T14:00:09Z</time>
      </trkpt>
      <trkpt lat="45.73395" lon="6.55985">
        <ele>1214.5</ele>
        <time>2017-10-13T14:00:14Z</time>
      </trkpt>
      <trkpt lat="45.73389" lon="6.55975">
        <ele>1211.7</ele>
        <time>2017-10-13T14:00:18Z</time>
      </trkpt>
      <trkpt lat="45.73385" lon="6.55989">
        <ele>1208</ele>
        <time>2017-10-13T14:00:24Z</time>
      </trkpt>
      <trkpt lat="45.73382" lon="6.56002">
        <ele>1204.9</ele>
        <time>2017-10-13T14:00:28Z</time>
      </trkpt>
      <trkpt lat="45.73381" lon="6.56021">
        <ele>1202.4</ele>
        <time>2017-10-13T14:00:31Z</time>
      </trkpt>
      <trkpt lat="45.7338" lon="6.56035">
        <ele>1200.5</ele>
        <time>2017-10-13T14:00:33Z</time>
      </trkpt>
      <trkpt lat="45.73381" lon="6.56051">
        <ele>1198</ele>
        <time>2017-10-13T14:00:36Z</time>
      </trkpt>
      <trkpt lat="45.73371" lon="6.56052">
        <ele>1192.6</ele>
        <time>2017-10-13T14:00:45Z</time>
      </trkpt>
      <trkpt lat="45.7336" lon="6.56054">
        <ele>1186</ele>
        <time>2017-10-13T14:00:55Z</time>
      </trkpt>
      <trkpt lat="45.73356" lon="6.56039">
        <ele>1183.9</ele>
        <time>2017-10-13T14:00:58Z</time>
      </trkpt>
      <trkpt lat="45.73354" lon="6.56022">
        <ele>1181.7</ele>
        <time>2017-10-13T14:01:01Z</time>
      </trkpt>
      <trkpt lat="45.73351" lon="6.56008">
        <ele>1179.2</ele>
        <time>2017-10-13T14:01:04Z</time>
      </trkpt>
      <trkpt lat="45.73341" lon="6.56016">
        <ele>1170.4</ele>
        <time>2017-10-13T14:01:14Z</time>
      </trkpt>
      <trkpt lat="45.73336" lon="6.56026">
        <ele>1168.1</ele>
        <time>2017-10-13T14:01:16Z</time>
      </trkpt>
      <trkpt lat="45.73333" lon="6.56039">
        <ele>1165.9</ele>
        <time>2017-10-13T14:01:18Z</time>
      </trkpt>
      <trkpt lat="45.73331" lon="6.56052">
        <ele>1163.6</ele>
        <time>2017-10-13T14:01:20Z</time>
      </trkpt>
      <trkpt lat="45.73326" lon="6.56064">
        <ele>1161.4</ele>
        <time>2017-10-13T14:01:22Z</time>
      </trkpt>
      <trkpt lat="45.73318" lon="6.56077">
        <ele>1157.7</ele>
        <time>2017-10-13T14:01:25Z</time>
      </trkpt>
      <trkpt lat="45.73309" lon="6.56082">
        <ele>1154.9</ele>
        <time>2017-10-13T14:01:27Z</time>
      </trkpt>
      <trkpt lat="45.73302" lon="6.5609">
        <ele>1151</ele>
        <time>2017-10-13T14:01:30Z</time>
      </trkpt>
      <trkpt lat="45.73299" lon="6.56105">
        <ele>1146.4</ele>
        <time>2017-10-13T14:01:34Z</time>
      </trkpt>
      <trkpt lat="45.73302" lon="6.56122">
        <ele>1143</ele>
        <time>2017-10-13T14:01:37Z</time>
      </trkpt>
      <trkpt lat="45.73293" lon="6.56132">
        <ele>1140.1</ele>
        <time>2017-10-13T14:01:41Z</time>
      </trkpt>
      <trkpt lat="45.73298" lon="6.56144">
        <ele>1137.9</ele>
        <time>2017-10-13T14:01:52Z</time>
      </trkpt>
      <trkpt lat="45.73308" lon="6.56155">
        <ele>1138</ele>
        <time>2017-10-13T14:02:31Z</time>
      </trkpt>
      <trkpt lat="45.73317" lon="6.56165">
        <ele>1138.5</ele>
        <time>2017-10-13T14:02:34Z</time>
      </trkpt>
      <trkpt lat="45.73325" lon="6.56175">
        <ele>1138.9</ele>
        <time>2017-10-13T14:02:37Z</time>
      </trkpt>
      <trkpt lat="45.73333" lon="6.56183">
        <ele>1139.4</ele>
        <time>2017-10-13T14:02:40Z</time>
      </trkpt>
      <trkpt lat="45.73341" lon="6.56191">
        <ele>1139.9</ele>
        <time>2017-10-13T14:02:43Z</time>
      </trkpt>
      <trkpt lat="45.73348" lon="6.56199">
        <ele>1140.4</ele>
        <time>2017-10-13T14:02:46Z</time>
      </trkpt>
      <trkpt lat="45.73357" lon="6.5621">
        <ele>1140.9</ele>
        <time>2017-10-13T14:02:50Z</time>
      </trkpt>
      <trkpt lat="45.73365" lon="6.56219">
        <ele>1141.6</ele>
        <time>2017-10-13T14:02:54Z</time>
      </trkpt>
      <trkpt lat="45.73372" lon="6.56227">
        <ele>1142.1</ele>
        <time>2017-10-13T14:02:58Z</time>
      </trkpt>
      <trkpt lat="45.73381" lon="6.56236">
        <ele>1142.7</ele>
        <time>2017-10-13T14:03:04Z</time>
      </trkpt>
      <trkpt lat="45.73388" lon="6.56246">
        <ele>1143.1</ele>
        <time>2017-10-13T14:03:09Z</time>
      </trkpt>
      <trkpt lat="45.73395" lon="6.56258">
        <ele>1143.7</ele>
        <time>2017-10-13T14:03:14Z</time>
      </trkpt>
      <trkpt lat="45.73402" lon="6.56268">
        <ele>1144.3</ele>
        <time>2017-10-13T14:03:19Z</time>
      </trkpt>
      <trkpt lat="45.73408" lon="6.56277">
        <ele>1144.9</ele>
        <time>2017-10-13T14:03:23Z</time>
      </trkpt>
      <trkpt lat="45.73414" lon="6.56288">
        <ele>1145.4</ele>
        <time>2017-10-13T14:03:27Z</time>
      </trkpt>
      <trkpt lat="45.7342" lon="6.56299">
        <ele>1146</ele>
        <time>2017-10-13T14:03:31Z</time>
      </trkpt>
      <trkpt lat="45.73425" lon="6.56313">
        <ele>1146.8</ele>
        <time>2017-10-13T14:03:36Z</time>
      </trkpt>
      <trkpt lat="45.7343" lon="6.56326">
        <ele>1147.6</ele>
        <time>2017-10-13T14:03:41Z</time>
      </trkpt>
      <trkpt lat="45.73436" lon="6.56339">
        <ele>1148.4</ele>
        <time>2017-10-13T14:03:46Z</time>
      </trkpt>
      <trkpt lat="45.73441" lon="6.56351">
        <ele>1149.2</ele>
        <time>2017-10-13T14:03:51Z</time>
      </trkpt>
      <trkpt lat="45.73447" lon="6.56364">
        <ele>1150.1</ele>
        <time>2017-10-13T14:03:56Z</time>
      </trkpt>
      <trkpt lat="45.73452" lon="6.56375">
        <ele>1150.9</ele>
        <time>2017-10-13T14:04:01Z</time>
      </trkpt>
      <trkpt lat="45.73458" lon="6.56387">
        <ele>1151.8</ele>
        <time>2017-10-13T14:04:06Z</time>
      </trkpt>
      <trkpt lat="45.73466" lon="6.56399">
        <ele>1152.5</ele>
        <time>2017-10-13T14:04:11Z</time>
      </trkpt>
      <trkpt lat="45.73473" lon="6.56408">
        <ele>1153.3</ele>
        <time>2017-10-13T14:04:16Z</time>
      </trkpt>
      <trkpt lat="45.73481" lon="6.56415">
        <ele>1153.8</ele>
        <time>2017-10-13T14:04:21Z</time>
      </trkpt>
      <trkpt lat="45.73491" lon="6.56423">
        <ele>1154.4</ele>
        <time>2017-10-13T14:04:27Z</time>
      </trkpt>
      <trkpt lat="45.73496" lon="6.56434">
        <ele>1154.5</ele>
        <time>2017-10-13T14:04:31Z</time>
      </trkpt>
      <trkpt lat="45.73504" lon="6.56443">
        <ele>1154</ele>
        <time>2017-10-13T14:04:58Z</time>
      </trkpt>
      <trkpt lat="45.73512" lon="6.5645">
        <ele>1153.8</ele>
        <time>2017-10-13T14:05:01Z</time>
      </trkpt>
      <trkpt lat="45.73523" lon="6.56457">
        <ele>1153.5</ele>
        <time>2017-10-13T14:05:04Z</time>
      </trkpt>
      <trkpt lat="45.73531" lon="6.56464">
        <ele>1152.6</ele>
        <time>2017-10-13T14:05:08Z</time>
      </trkpt>
      <trkpt lat="45.7352" lon="6.56465">
        <ele>1152.1</ele>
        <time>2017-10-13T14:05:19Z</time>
      </trkpt>
      <trkpt lat="45.73511" lon="6.5646">
        <ele>1152.5</ele>
        <time>2017-10-13T14:05:22Z</time>
      </trkpt>
      <trkpt lat="45.73502" lon="6.56457">
        <ele>1153</ele>
        <time>2017-10-13T14:05:26Z</time>
      </trkpt>
      <trkpt lat="45.73512" lon="6.56454">
        <ele>1153.3</ele>
        <time>2017-10-13T14:05:43Z</time>
      </trkpt>
      <trkpt lat="45.73521" lon="6.56459">
        <ele>1153.3</ele>
        <time>2017-10-13T14:05:46Z</time>
      </trkpt>
      <trkpt lat="45.73534" lon="6.56465">
        <ele>1152.8</ele>
        <time>2017-10-13T14:05:49Z</time>
      </trkpt>
      <trkpt lat="45.73545" lon="6.56471">
        <ele>1152.3</ele>
        <time>2017-10-13T14:05:51Z</time>
      </trkpt>
      <trkpt lat="45.73554" lon="6.56476">
        <ele>1150.4</ele>
        <time>2017-10-13T14:05:55Z</time>
      </trkpt>
      <trkpt lat="45.73546" lon="6.5648">
        <ele>1149.5</ele>
        <time>2017-10-13T14:06:21Z</time>
      </trkpt>
      <trkpt lat="45.73537" lon="6.56474">
        <ele>1150.3</ele>
        <time>2017-10-13T14:06:28Z</time>
      </trkpt>
      <trkpt lat="45.73526" lon="6.5647">
        <ele>1151.1</ele>
        <time>2017-10-13T14:06:32Z</time>
      </trkpt>
      <trkpt lat="45.73516" lon="6.56465">
        <ele>1152</ele>
        <time>2017-10-13T14:06:36Z</time>
      </trkpt>
      <trkpt lat="45.73507" lon="6.56458">
        <ele>1152.6</ele>
        <time>2017-10-13T14:06:40Z</time>
      </trkpt>
      <trkpt lat="45.73499" lon="6.56449">
        <ele>1153.4</ele>
        <time>2017-10-13T14:06:45Z</time>
      </trkpt>
      <trkpt lat="45.73491" lon="6.56439">
        <ele>1154.1</ele>
        <time>2017-10-13T14:06:57Z</time>
      </trkpt>
      <trkpt lat="45.73484" lon="6.56428">
        <ele>1154.3</ele>
        <time>2017-10-13T14:07:01Z</time>
      </trkpt>
      <trkpt lat="45.73475" lon="6.56415">
        <ele>1154.3</ele>
        <time>2017-10-13T14:07:05Z</time>
      </trkpt>
      <trkpt lat="45.73467" lon="6.56407">
        <ele>1154.1</ele>
        <time>2017-10-13T14:07:07Z</time>
      </trkpt>
      <trkpt lat="45.73459" lon="6.56398">
        <ele>1153.8</ele>
        <time>2017-10-13T14:07:09Z</time>
      </trkpt>
      <trkpt lat="45.7345" lon="6.56385">
        <ele>1153.4</ele>
        <time>2017-10-13T14:07:11Z</time>
      </trkpt>
      <trkpt lat="45.73442" lon="6.56369">
        <ele>1152.9</ele>
        <time>2017-10-13T14:07:13Z</time>
      </trkpt>
      <trkpt lat="45.73434" lon="6.5635">
        <ele>1152.3</ele>
        <time>2017-10-13T14:07:15Z</time>
      </trkpt>
      <trkpt lat="45.73425" lon="6.56328">
        <ele>1151.6</ele>
        <time>2017-10-13T14:07:17Z</time>
      </trkpt>
      <trkpt lat="45.7342" lon="6.56316">
        <ele>1151.1</ele>
        <time>2017-10-13T14:07:18Z</time>
      </trkpt>
      <trkpt lat="45.73416" lon="6.56305">
        <ele>1150.7</ele>
        <time>2017-10-13T14:07:19Z</time>
      </trkpt>
      <trkpt lat="45.73411" lon="6.56294">
        <ele>1150.2</ele>
        <time>2017-10-13T14:07:20Z</time>
      </trkpt>
      <trkpt lat="45.73406" lon="6.56282">
        <ele>1149.8</ele>
        <time>2017-10-13T14:07:21Z</time>
      </trkpt>
      <trkpt lat="45.734" lon="6.56271">
        <ele>1149.3</ele>
        <time>2017-10-13T14:07:22Z</time>
      </trkpt>
      <trkpt lat="45.73395" lon="6.56261">
        <ele>1148.9</ele>
        <time>2017-10-13T14:07:23Z</time>
      </trkpt>
      <trkpt lat="45.73383" lon="6.56245">
        <ele>1147.7</ele>
        <time>2017-10-13T14:07:25Z</time>
      </trkpt>
      <trkpt lat="45.73372" lon="6.5623">
        <ele>1146.6</ele>
        <time>2017-10-13T14:07:27Z</time>
      </trkpt>
      <trkpt lat="45.73361" lon="6.56217">
        <ele>1145.5</ele>
        <time>2017-10-13T14:07:29Z</time>
      </trkpt>
      <trkpt lat="45.73349" lon="6.56205">
        <ele>1144.4</ele>
        <time>2017-10-13T14:07:31Z</time>
      </trkpt>
      <trkpt lat="45.73339" lon="6.56193">
        <ele>1143.5</ele>
        <time>2017-10-13T14:07:33Z</time>
      </trkpt>
      <trkpt lat="45.73328" lon="6.56182">
        <ele>1142.5</ele>
        <time>2017-10-13T14:07:35Z</time>
      </trkpt>
      <trkpt lat="45.73317" lon="6.56172">
        <ele>1141.6</ele>
        <time>2017-10-13T14:07:37Z</time>
      </trkpt>
      <trkpt lat="45.73307" lon="6.56161">
        <ele>1140.7</ele>
        <time>2017-10-13T14:07:39Z</time>
      </trkpt>
      <trkpt lat="45.73297" lon="6.56157">
        <ele>1139.4</ele>
        <time>2017-10-13T14:07:42Z</time>
      </trkpt>
      <trkpt lat="45.73288" lon="6.56157">
        <ele>1137.3</ele>
        <time>2017-10-13T14:07:46Z</time>
      </trkpt>
      <trkpt lat="45.73276" lon="6.56156">
        <ele>1133.8</ele>
        <time>2017-10-13T14:07:50Z</time>
      </trkpt>
      <trkpt lat="45.73266" lon="6.56156">
        <ele>1131.1</ele>
        <time>2017-10-13T14:07:53Z</time>
      </trkpt>
      <trkpt lat="45.73256" lon="6.56155">
        <ele>1129.2</ele>
        <time>2017-10-13T14:07:55Z</time>
      </trkpt>
      <trkpt lat="45.73248" lon="6.56149">
        <ele>1126.4</ele>
        <time>2017-10-13T14:07:58Z</time>
      </trkpt>
      <trkpt lat="45.73238" lon="6.56147">
        <ele>1123.7</ele>
        <time>2017-10-13T14:08:01Z</time>
      </trkpt>
      <trkpt lat="45.73232" lon="6.56159">
        <ele>1118.9</ele>
        <time>2017-10-13T14:08:06Z</time>
      </trkpt>
      <trkpt lat="45.73234" lon="6.56174">
        <ele>1115.1</ele>
        <time>2017-10-13T14:08:10Z</time>
      </trkpt>
      <trkpt lat="45.73238" lon="6.56186">
        <ele>1111.3</ele>
        <time>2017-10-13T14:08:15Z</time>
      </trkpt>
      <trkpt lat="45.73232" lon="6.56195">
        <ele>1105.8</ele>
        <time>2017-10-13T14:08:23Z</time>
      </trkpt>
      <trkpt lat="45.7322" lon="6.56196">
        <ele>1102.4</ele>
        <time>2017-10-13T14:08:27Z</time>
      </trkpt>
      <trkpt lat="45.73206" lon="6.56192">
        <ele>1100</ele>
        <time>2017-10-13T14:08:30Z</time>
      </trkpt>
      <trkpt lat="45.73198" lon="6.56184">
        <ele>1097.2</ele>
        <time>2017-10-13T14:08:33Z</time>
      </trkpt>
      <trkpt lat="45.73189" lon="6.56186">
        <ele>1093.7</ele>
        <time>2017-10-13T14:08:37Z</time>
      </trkpt>
      <trkpt lat="45.73179" lon="6.56192">
        <ele>1091.1</ele>
        <time>2017-10-13T14:08:40Z</time>
      </trkpt>
      <trkpt lat="45.7317" lon="6.562">
        <ele>1087.7</ele>
        <time>2017-10-13T14:08:44Z</time>
      </trkpt>
      <trkpt lat="45.73163" lon="6.56214">
        <ele>1085</ele>
        <time>2017-10-13T14:08:48Z</time>
      </trkpt>
      <trkpt lat="45.7316" lon="6.56227">
        <ele>1083.4</ele>
        <time>2017-10-13T14:08:51Z</time>
      </trkpt>
      <trkpt lat="45.73165" lon="6.56243">
        <ele>1080.7</ele>
        <time>2017-10-13T14:08:57Z</time>
      </trkpt>
      <trkpt lat="45.73174" lon="6.56255">
        <ele>1078.3</ele>
        <time>2017-10-13T14:09:01Z</time>
      </trkpt>
      <trkpt lat="45.73189" lon="6.56257">
        <ele>1075.9</ele>
        <time>2017-10-13T14:09:04Z</time>
      </trkpt>
      <trkpt lat="45.732" lon="6.56259">
        <ele>1074.3</ele>
        <time>2017-10-13T14:09:06Z</time>
      </trkpt>
      <trkpt lat="45.73211" lon="6.56262">
        <ele>1072.2</ele>
        <time>2017-10-13T14:09:08Z</time>
      </trkpt>
      <trkpt lat="45.73219" lon="6.56269">
        <ele>1069.9</ele>
        <time>2017-10-13T14:09:10Z</time>
      </trkpt>
      <trkpt lat="45.73227" lon="6.56276">
        <ele>1067.6</ele>
        <time>2017-10-13T14:09:12Z</time>
      </trkpt>
      <trkpt lat="45.73235" lon="6.56289">
        <ele>1063.3</ele>
        <time>2017-10-13T14:09:16Z</time>
      </trkpt>
      <trkpt lat="45.73241" lon="6.56302">
        <ele>1060</ele>
        <time>2017-10-13T14:09:19Z</time>
      </trkpt>
      <trkpt lat="45.73245" lon="6.56313">
        <ele>1058.2</ele>
        <time>2017-10-13T14:09:21Z</time>
      </trkpt>
      <trkpt lat="45.73253" lon="6.56327">
        <ele>1056.1</ele>
        <time>2017-10-13T14:09:24Z</time>
      </trkpt>
      <trkpt lat="45.7326" lon="6.56338">
        <ele>1054.8</ele>
        <time>2017-10-13T14:09:26Z</time>
      </trkpt>
      <trkpt lat="45.73266" lon="6.56348">
        <ele>1053.1</ele>
        <time>2017-10-13T14:09:28Z</time>
      </trkpt>
      <trkpt lat="45.7327" lon="6.5636">
        <ele>1051</ele>
        <time>2017-10-13T14:09:30Z</time>
      </trkpt>
      <trkpt lat="45.73275" lon="6.56377">
        <ele>1047.6</ele>
        <time>2017-10-13T14:09:33Z</time>
      </trkpt>
      <trkpt lat="45.73276" lon="6.56393">
        <ele>1044.1</ele>
        <time>2017-10-13T14:09:36Z</time>
      </trkpt>
      <trkpt lat="45.7327" lon="6.56403">
        <ele>1034.2</ele>
        <time>2017-10-13T14:10:06Z</time>
      </trkpt>
      <trkpt lat="45.7326" lon="6.56401">
        <ele>1031.5</ele>
        <time>2017-10-13T14:10:10Z</time>
      </trkpt>
      <trkpt lat="45.73259" lon="6.56414">
        <ele>1027.7</ele>
        <time>2017-10-13T14:10:15Z</time>
      </trkpt>
      <trkpt lat="45.73261" lon="6.56431">
        <ele>1024.4</ele>
        <time>2017-10-13T14:10:19Z</time>
      </trkpt>
      <trkpt lat="45.73262" lon="6.56444">
        <ele>1022.7</ele>
        <time>2017-10-13T14:10:21Z</time>
      </trkpt>
      <trkpt lat="45.73267" lon="6.56458">
        <ele>1020</ele>
        <time>2017-10-13T14:10:24Z</time>
      </trkpt>
      <trkpt lat="45.73268" lon="6.56474">
        <ele>1016.1</ele>
        <time>2017-10-13T14:10:28Z</time>
      </trkpt>
      <trkpt lat="45.73255" lon="6.56479">
        <ele>1012.1</ele>
        <time>2017-10-13T14:10:32Z</time>
      </trkpt>
      <trkpt lat="45.73246" lon="6.56479">
        <ele>1009.7</ele>
        <time>2017-10-13T14:10:34Z</time>
      </trkpt>
      <trkpt lat="45.73235" lon="6.56474">
        <ele>1006.2</ele>
        <time>2017-10-13T14:10:37Z</time>
      </trkpt>
      <trkpt lat="45.73226" lon="6.56478">
        <ele>1002.6</ele>
        <time>2017-10-13T14:10:40Z</time>
      </trkpt>
      <trkpt lat="45.73217" lon="6.56474">
        <ele>1000.4</ele>
        <time>2017-10-13T14:10:42Z</time>
      </trkpt>
      <trkpt lat="45.73209" lon="6.56468">
        <ele>998.3</ele>
        <time>2017-10-13T14:10:44Z</time>
      </trkpt>
      <trkpt lat="45.73198" lon="6.56463">
        <ele>995.5</ele>
        <time>2017-10-13T14:10:47Z</time>
      </trkpt>
      <trkpt lat="45.73189" lon="6.56466">
        <ele>993.8</ele>
        <time>2017-10-13T14:10:49Z</time>
      </trkpt>
      <trkpt lat="45.73179" lon="6.56474">
        <ele>990.9</ele>
        <time>2017-10-13T14:10:52Z</time>
      </trkpt>
      <trkpt lat="45.73169" lon="6.56482">
        <ele>985.4</ele>
        <time>2017-10-13T14:11:05Z</time>
      </trkpt>
      <trkpt lat="45.73157" lon="6.56487">
        <ele>983.3</ele>
        <time>2017-10-13T14:11:08Z</time>
      </trkpt>
      <trkpt lat="45.73146" lon="6.56491">
        <ele>980.9</ele>
        <time>2017-10-13T14:11:11Z</time>
      </trkpt>
      <trkpt lat="45.73137" lon="6.56496">
        <ele>978.1</ele>
        <time>2017-10-13T14:11:14Z</time>
      </trkpt>
      <trkpt lat="45.73129" lon="6.56503">
        <ele>974.2</ele>
        <time>2017-10-13T14:11:18Z</time>
      </trkpt>
      <trkpt lat="45.73119" lon="6.56501">
        <ele>970.4</ele>
        <time>2017-10-13T14:11:22Z</time>
      </trkpt>
      <trkpt lat="45.73109" lon="6.565">
        <ele>965.5</ele>
        <time>2017-10-13T14:11:27Z</time>
      </trkpt>
      <trkpt lat="45.73101" lon="6.56491">
        <ele>962.6</ele>
        <time>2017-10-13T14:11:30Z</time>
      </trkpt>
      <trkpt lat="45.73093" lon="6.56483">
        <ele>958.3</ele>
        <time>2017-10-13T14:11:35Z</time>
      </trkpt>
      <trkpt lat="45.73086" lon="6.56494">
        <ele>955.6</ele>
        <time>2017-10-13T14:11:38Z</time>
      </trkpt>
      <trkpt lat="45.73078" lon="6.565">
        <ele>950.1</ele>
        <time>2017-10-13T14:11:45Z</time>
      </trkpt>
      <trkpt lat="45.73067" lon="6.56505">
        <ele>943.3</ele>
        <time>2017-10-13T14:11:54Z</time>
      </trkpt>
      <trkpt lat="45.73058" lon="6.56503">
        <ele>940.9</ele>
        <time>2017-10-13T14:11:57Z</time>
      </trkpt>
      <trkpt lat="45.73053" lon="6.56514">
        <ele>936.2</ele>
        <time>2017-10-13T14:12:05Z</time>
      </trkpt>
      <trkpt lat="45.73042" lon="6.56509">
        <ele>934.8</ele>
        <time>2017-10-13T14:12:07Z</time>
      </trkpt>
      <trkpt lat="45.73029" lon="6.56498">
        <ele>933.5</ele>
        <time>2017-10-13T14:12:09Z</time>
      </trkpt>
      <trkpt lat="45.7302" lon="6.56491">
        <ele>932.1</ele>
        <time>2017-10-13T14:12:11Z</time>
      </trkpt>
      <trkpt lat="45.73012" lon="6.56478">
        <ele>930.3</ele>
        <time>2017-10-13T14:12:14Z</time>
      </trkpt>
      <trkpt lat="45.73007" lon="6.56465">
        <ele>929.4</ele>
        <time>2017-10-13T14:12:16Z</time>
      </trkpt>
      <trkpt lat="45.73002" lon="6.56451">
        <ele>928</ele>
        <time>2017-10-13T14:12:19Z</time>
      </trkpt>
      <trkpt lat="45.72994" lon="6.56437">
        <ele>926.7</ele>
        <time>2017-10-13T14:12:23Z</time>
      </trkpt>
      <trkpt lat="45.72987" lon="6.56421">
        <ele>926.1</ele>
        <time>2017-10-13T14:12:26Z</time>
      </trkpt>
      <trkpt lat="45.72982" lon="6.56406">
        <ele>925.6</ele>
        <time>2017-10-13T14:12:28Z</time>
      </trkpt>
      <trkpt lat="45.72977" lon="6.56388">
        <ele>925.1</ele>
        <time>2017-10-13T14:12:30Z</time>
      </trkpt>
      <trkpt lat="45.72974" lon="6.56367">
        <ele>924.4</ele>
        <time>2017-10-13T14:12:32Z</time>
      </trkpt>
      <trkpt lat="45.72972" lon="6.56345">
        <ele>923.8</ele>
        <time>2017-10-13T14:12:34Z</time>
      </trkpt>
      <trkpt lat="45.72969" lon="6.56323">
        <ele>923.2</ele>
        <time>2017-10-13T14:12:36Z</time>
      </trkpt>
      <trkpt lat="45.72967" lon="6.5631">
        <ele>922.8</ele>
        <time>2017-10-13T14:12:37Z</time>
      </trkpt>
      <trkpt lat="45.72966" lon="6.56297">
        <ele>922.3</ele>
        <time>2017-10-13T14:12:38Z</time>
      </trkpt>
      <trkpt lat="45.72963" lon="6.56272">
        <ele>921.4</ele>
        <time>2017-10-13T14:12:40Z</time>
      </trkpt>
      <trkpt lat="45.7296" lon="6.56253">
        <ele>920.1</ele>
        <time>2017-10-13T14:12:42Z</time>
      </trkpt>
      <trkpt lat="45.72956" lon="6.56241">
        <ele>918.8</ele>
        <time>2017-10-13T14:12:44Z</time>
      </trkpt>
      <trkpt lat="45.72952" lon="6.56242">
        <ele>914.1</ele>
        <time>2017-10-13T14:13:56Z</time>
      </trkpt>
    </trkseg>
  </trk>
</gpx>